GFSSGP_prec_precacc_021.txt.gz
Total_Precipitation_Accumulation
0.00 0.00 0.00 0.00 0.00 0.00 0.00 0.00 0.00 0.00 0.00 0.00 0.00 0.00 0.00 0.00 0.00 0.00 0.00 0.00 0.00 0.00 0.01 0.01 0.03 0.03 0.01 0.00 0.00 0.00 0.00 0.01 0.01 0.02 0.03 0.03 0.01 0.00 0.02 0.00 0.00 0.00 0.00 0.00 0.01 0.00 0.00 0.00 0.00
0.00 0.00 0.00 0.00 0.00 0.00 0.00 0.00 0.00 0.00 0.00 0.00 0.00 0.00 0.00 0.00 0.00 0.00 0.00 0.00 0.00 0.00 0.00 0.00 0.02 0.03 0.01 0.00 0.00 0.00 0.00 0.00 0.00 0.01 0.01 0.00 0.00 0.02 0.03 0.01 0.00 0.00 0.00 0.00 0.00 0.00 0.00 0.00 0.00
0.00 0.00 0.00 0.00 0.00 0.00 0.00 0.00 0.00 0.00 0.00 0.00 0.00 0.00 0.00 0.00 0.00 0.00 0.00 0.00 0.00 0.00 0.00 0.01 0.02 0.03 0.01 0.00 0.01 0.00 0.00 0.00 0.00 0.01 0.00 0.00 0.00 0.01 0.00 0.00 0.00 0.00 0.00 0.00 0.00 0.00 0.00 0.00 0.00
0.00 0.00 0.00 0.00 0.00 0.00 0.00 0.00 0.00 0.00 0.00 0.00 0.00 0.00 0.00 0.00 0.00 0.00 0.00 0.00 0.00 0.00 0.00 0.01 0.03 0.03 0.02 0.02 0.01 0.01 0.00 0.00 0.00 0.00 0.00 0.00 0.01 0.03 0.03 0.00 0.00 0.00 0.00 0.00 0.00 0.00 0.00 0.00 0.00
0.00 0.00 0.00 0.00 0.00 0.00 0.00 0.00 0.00 0.00 0.00 0.00 0.00 0.00 0.00 0.00 0.00 0.00 0.00 0.00 0.00 0.00 0.00 0.01 0.03 0.04 0.04 0.03 0.03 0.02 0.00 0.00 0.00 0.00 0.00 0.00 0.01 0.03 0.07 0.03 0.00 0.00 0.00 0.01 0.00 0.01 0.02 0.01 0.01
0.00 0.00 0.00 0.00 0.00 0.00 0.00 0.00 0.00 0.00 0.00 0.00 0.00 0.00 0.00 0.00 0.00 0.00 0.00 0.00 0.00 0.00 0.01 0.02 0.03 0.03 0.04 0.04 0.04 0.02 0.00 0.00 0.00 0.00 0.00 0.00 0.01 0.02 0.06 0.08 0.01 0.00 0.00 0.01 0.00 0.02 0.02 0.01 0.01
0.00 0.00 0.00 0.00 0.00 0.00 0.00 0.00 0.00 0.00 0.00 0.00 0.00 0.00 0.00 0.00 0.00 0.00 0.00 0.00 0.00 0.00 0.01 0.03 0.02 0.02 0.04 0.04 0.02 0.01 0.00 0.00 0.00 0.00 0.00 0.00 0.00 0.00 0.02 0.07 0.05 0.03 0.01 0.01 0.01 0.02 0.02 0.02 0.01
0.00 0.00 0.00 0.00 0.00 0.00 0.00 0.00 0.00 0.00 0.00 0.00 0.00 0.00 0.00 0.00 0.00 0.00 0.00 0.00 0.00 0.04 0.07 0.05 0.02 0.01 0.02 0.03 0.02 0.01 0.00 0.00 0.00 0.00 0.00 0.00 0.00 0.01 0.01 0.01 0.04 0.01 0.00 0.00 0.01 0.02 0.03 0.02 0.00
0.00 0.00 0.00 0.00 0.00 0.00 0.00 0.00 0.00 0.00 0.00 0.00 0.00 0.00 0.00 0.00 0.00 0.00 0.00 0.00 0.00 0.04 0.07 0.07 0.03 0.01 0.02 0.03 0.02 0.01 0.00 0.00 0.00 0.00 0.00 0.00 0.00 0.00 0.00 0.00 0.00 0.00 0.00 0.00 0.00 0.01 0.01 0.00 0.00
0.00 0.00 0.00 0.00 0.00 0.00 0.00 0.00 0.00 0.00 0.00 0.00 0.00 0.00 0.00 0.00 0.00 0.00 0.00 0.00 0.00 0.03 0.05 0.08 0.05 0.00 0.01 0.03 0.02 0.01 0.00 0.00 0.00 0.00 0.00 0.00 0.00 0.00 0.00 0.00 0.00 0.00 0.00 0.00 0.00 0.00 0.00 0.00 0.00
0.00 0.00 0.00 0.00 0.00 0.00 0.00 0.00 0.00 0.00 0.00 0.00 0.00 0.00 0.00 0.00 0.00 0.00 0.00 0.00 0.00 0.01 0.03 0.05 0.07 0.02 0.01 0.02 0.01 0.01 0.00 0.00 0.00 0.00 0.00 0.00 0.00 0.00 0.00 0.00 0.00 0.00 0.00 0.00 0.00 0.00 0.00 0.00 0.00
0.00 0.00 0.00 0.00 0.00 0.00 0.00 0.00 0.00 0.00 0.00 0.00 0.00 0.00 0.00 0.00 0.00 0.00 0.00 0.00 0.00 0.00 0.01 0.03 0.04 0.03 0.04 0.03 0.01 0.00 0.00 0.00 0.00 0.00 0.00 0.00 0.00 0.00 0.00 0.00 0.00 0.00 0.00 0.00 0.00 0.00 0.00 0.00 0.00
0.00 0.00 0.00 0.00 0.00 0.00 0.00 0.00 0.00 0.00 0.00 0.00 0.00 0.00 0.00 0.00 0.00 0.00 0.00 0.00 0.01 0.02 0.02 0.03 0.03 0.01 0.02 0.02 0.05 0.00 0.00 0.00 0.00 0.00 0.00 0.00 0.00 0.00 0.00 0.00 0.00 0.00 0.00 0.00 0.00 0.00 0.00 0.00 0.00
0.00 0.00 0.00 0.00 0.00 0.00 0.00 0.00 0.00 0.00 0.00 0.00 0.00 0.00 0.00 0.00 0.00 0.00 0.00 0.00 0.00 0.01 0.02 0.07 0.05 0.03 0.01 0.01 0.02 0.02 0.01 0.00 0.00 0.00 0.00 0.00 0.00 0.00 0.00 0.00 0.00 0.00 0.00 0.00 0.00 0.00 0.00 0.00 0.00
0.00 0.00 0.00 0.00 0.00 0.00 0.00 0.00 0.00 0.00 0.00 0.00 0.00 0.00 0.00 0.00 0.00 0.00 0.00 0.00 0.00 0.00 0.01 0.03 0.06 0.06 0.03 0.04 0.05 0.08 0.03 0.02 0.01 0.00 0.00 0.00 0.00 0.00 0.00 0.00 0.00 0.00 0.00 0.00 0.00 0.00 0.00 0.00 0.00
0.00 0.00 0.00 0.00 0.00 0.00 0.00 0.00 0.00 0.00 0.00 0.00 0.00 0.00 0.00 0.00 0.00 0.00 0.00 0.00 0.00 0.00 0.00 0.00 0.05 0.05 0.04 0.09 0.21 0.14 0.05 0.03 0.03 0.01 0.01 0.00 0.00 0.00 0.00 0.00 0.00 0.00 0.00 0.00 0.00 0.00 0.00 0.00 0.00
0.00 0.00 0.00 0.00 0.00 0.00 0.00 0.00 0.00 0.00 0.00 0.00 0.00 0.00 0.00 0.00 0.00 0.00 0.00 0.00 0.00 0.00 0.00 0.00 0.02 0.02 0.04 0.16 0.17 0.19 0.08 0.05 0.04 0.02 0.00 0.00 0.00 0.00 0.00 0.00 0.00 0.00 0.00 0.00 0.00 0.00 0.00 0.00 0.00
0.00 0.00 0.00 0.00 0.00 0.00 0.00 0.00 0.00 0.00 0.00 0.00 0.00 0.00 0.00 0.00 0.00 0.00 0.00 0.00 0.00 0.00 0.00 0.00 0.00 0.01 0.07 0.22 0.19 0.24 0.10 0.08 0.07 0.01 0.00 0.00 0.00 0.00 0.00 0.00 0.00 0.00 0.00 0.00 0.00 0.00 0.00 0.00 0.00
0.00 0.00 0.00 0.00 0.00 0.00 0.00 0.00 0.00 0.00 0.00 0.00 0.00 0.00 0.00 0.00 0.00 0.00 0.00 0.00 0.00 0.00 0.00 0.00 0.00 0.01 0.08 0.11 0.09 0.13 0.08 0.08 0.07 0.03 0.02 0.00 0.01 0.00 0.00 0.00 0.00 0.00 0.00 0.00 0.00 0.00 0.00 0.00 0.00
0.00 0.00 0.00 0.00 0.00 0.00 0.00 0.00 0.00 0.00 0.00 0.00 0.00 0.00 0.00 0.00 0.00 0.00 0.00 0.00 0.00 0.00 0.00 0.00 0.00 0.00 0.03 0.09 0.13 0.17 0.19 0.11 0.06 0.06 0.02 0.01 0.01 0.00 0.00 0.00 0.00 0.00 0.00 0.00 0.00 0.00 0.00 0.00 0.00
0.00 0.00 0.00 0.00 0.00 0.00 0.00 0.00 0.00 0.00 0.00 0.00 0.00 0.00 0.00 0.00 0.00 0.00 0.00 0.00 0.00 0.00 0.00 0.00 0.00 0.01 0.04 0.10 0.15 0.19 0.23 0.15 0.08 0.05 0.01 0.02 0.01 0.01 0.00 0.00 0.00 0.00 0.00 0.00 0.00 0.00 0.00 0.00 0.00
0.00 0.00 0.00 0.00 0.00 0.00 0.00 0.00 0.00 0.00 0.00 0.00 0.00 0.00 0.00 0.00 0.00 0.00 0.00 0.00 0.00 0.00 0.00 0.00 0.00 0.01 0.04 0.09 0.08 0.07 0.05 0.05 0.06 0.07 0.15 0.14 0.07 0.03 0.00 0.00 0.00 0.00 0.00 0.00 0.00 0.00 0.00 0.00 0.00
0.00 0.00 0.00 0.00 0.01 0.01 0.00 0.01 0.00 0.00 0.00 0.00 0.00 0.00 0.00 0.00 0.00 0.00 0.00 0.00 0.00 0.00 0.00 0.00 0.00 0.00 0.01 0.09 0.09 0.10 0.05 0.05 0.06 0.12 0.18 0.12 0.07 0.06 0.04 0.01 0.01 0.01 0.01 0.00 0.00 0.00 0.00 0.00 0.00
0.00 0.00 0.00 0.00 0.02 0.04 0.00 0.00 0.00 0.00 0.00 0.00 0.00 0.00 0.00 0.00 0.00 0.00 0.00 0.00 0.00 0.00 0.00 0.00 0.00 0.00 0.01 0.02 0.06 0.07 0.06 0.04 0.08 0.07 0.08 0.09 0.05 0.04 0.03 0.03 0.01 0.01 0.01 0.01 0.00 0.00 0.00 0.00 0.00
0.00 0.04 0.06 0.06 0.09 0.02 0.00 0.00 0.00 0.00 0.00 0.00 0.00 0.00 0.00 0.00 0.00 0.00 0.00 0.00 0.00 0.00 0.00 0.00 0.00 0.00 0.00 0.00 0.02 0.03 0.04 0.06 0.07 0.08 0.10 0.07 0.05 0.04 0.04 0.04 0.03 0.02 0.01 0.01 0.00 0.00 0.00 0.00 0.00
0.00 0.02 0.05 0.02 0.00 0.00 0.00 0.00 0.00 0.00 0.00 0.00 0.00 0.00 0.00 0.00 0.00 0.00 0.00 0.00 0.00 0.00 0.00 0.00 0.00 0.00 0.00 0.01 0.02 0.04 0.04 0.06 0.09 0.10 0.08 0.08 0.06 0.06 0.06 0.04 0.03 0.02 0.02 0.01 0.00 0.00 0.00 0.00 0.00
0.07 0.11 0.04 0.15 0.10 0.12 0.02 0.00 0.00 0.00 0.00 0.00 0.00 0.00 0.00 0.00 0.00 0.00 0.00 0.00 0.00 0.00 0.00 0.00 0.00 0.00 0.01 0.03 0.07 0.06 0.04 0.07 0.07 0.08 0.07 0.07 0.06 0.06 0.06 0.04 0.03 0.02 0.02 0.01 0.01 0.00 0.00 0.00 0.00
0.01 0.02 0.09 0.24 0.15 0.06 0.00 0.00 0.00 0.00 0.00 0.00 0.00 0.00 0.00 0.00 0.00 0.00 0.00 0.00 0.00 0.00 0.00 0.00 0.00 0.02 0.03 0.06 0.10 0.03 0.05 0.07 0.07 0.06 0.05 0.05 0.07 0.06 0.04 0.02 0.02 0.02 0.01 0.01 0.00 0.00 0.00 0.00 0.00
0.01 0.08 0.11 0.16 0.14 0.08 0.03 0.00 0.00 0.00 0.00 0.00 0.00 0.00 0.00 0.00 0.00 0.00 0.00 0.00 0.00 0.00 0.00 0.00 0.01 0.04 0.06 0.05 0.03 0.02 0.04 0.06 0.07 0.07 0.05 0.05 0.06 0.05 0.04 0.03 0.02 0.01 0.01 0.01 0.00 0.00 0.00 0.00 0.00
0.00 0.00 0.03 0.21 0.08 0.13 0.06 0.03 0.00 0.00 0.00 0.00 0.00 0.00 0.00 0.00 0.00 0.00 0.00 0.00 0.00 0.00 0.00 0.00 0.05 0.07 0.03 0.02 0.02 0.02 0.03 0.04 0.05 0.05 0.07 0.07 0.06 0.04 0.03 0.03 0.02 0.02 0.04 0.04 0.04 0.04 0.04 0.03 0.01

GFSSGP_prec_precacc_027.txt.gz
Total_Precipitation_Accumulation
0.00 0.00 0.00 0.00 0.00 0.00 0.00 0.00 0.00 0.00 0.00 0.00 0.00 0.00 0.00 0.00 0.00 0.00 0.00 0.00 0.00 0.00 0.01 0.02 0.04 0.05 0.02 0.01 0.00 0.01 0.02 0.03 0.03 0.05 0.04 0.03 0.01 0.00 0.02 0.00 0.00 0.00 0.01 0.05 0.04 0.01 0.00 0.00 0.00
0.00 0.00 0.00 0.00 0.00 0.00 0.00 0.00 0.00 0.00 0.00 0.00 0.00 0.00 0.00 0.00 0.00 0.00 0.00 0.00 0.00 0.00 0.00 0.01 0.03 0.04 0.01 0.00 0.00 0.01 0.02 0.02 0.02 0.02 0.02 0.00 0.00 0.02 0.03 0.01 0.00 0.00 0.01 0.01 0.00 0.00 0.00 0.00 0.00
0.00 0.00 0.00 0.00 0.00 0.00 0.00 0.00 0.00 0.00 0.00 0.00 0.00 0.00 0.00 0.00 0.00 0.00 0.00 0.00 0.00 0.00 0.00 0.01 0.03 0.03 0.01 0.00 0.01 0.01 0.01 0.02 0.02 0.02 0.00 0.00 0.00 0.01 0.00 0.00 0.00 0.00 0.00 0.00 0.00 0.00 0.00 0.00 0.00
0.00 0.00 0.00 0.00 0.00 0.00 0.00 0.00 0.00 0.00 0.00 0.00 0.00 0.00 0.00 0.00 0.00 0.00 0.00 0.00 0.00 0.00 0.00 0.01 0.03 0.03 0.02 0.02 0.01 0.01 0.01 0.01 0.02 0.00 0.00 0.00 0.01 0.03 0.03 0.00 0.00 0.00 0.00 0.00 0.00 0.00 0.00 0.00 0.00
0.00 0.00 0.00 0.00 0.00 0.00 0.00 0.00 0.00 0.00 0.00 0.00 0.00 0.00 0.00 0.00 0.00 0.00 0.00 0.00 0.00 0.00 0.00 0.02 0.03 0.04 0.04 0.03 0.03 0.03 0.01 0.02 0.01 0.00 0.00 0.00 0.01 0.03 0.07 0.03 0.00 0.00 0.00 0.01 0.00 0.01 0.02 0.01 0.01
0.00 0.00 0.00 0.00 0.00 0.00 0.00 0.00 0.00 0.00 0.00 0.00 0.00 0.00 0.00 0.00 0.00 0.00 0.00 0.00 0.00 0.00 0.01 0.02 0.03 0.03 0.04 0.04 0.04 0.03 0.00 0.01 0.00 0.00 0.00 0.00 0.01 0.02 0.06 0.08 0.01 0.00 0.01 0.01 0.01 0.04 0.02 0.01 0.01
0.00 0.00 0.00 0.00 0.00 0.00 0.00 0.00 0.00 0.00 0.00 0.00 0.00 0.00 0.00 0.00 0.00 0.00 0.00 0.00 0.00 0.00 0.01 0.03 0.02 0.02 0.04 0.04 0.02 0.01 0.00 0.01 0.01 0.01 0.00 0.00 0.00 0.00 0.02 0.07 0.05 0.03 0.02 0.02 0.05 0.03 0.02 0.02 0.01
0.00 0.00 0.00 0.00 0.00 0.00 0.00 0.00 0.00 0.00 0.00 0.00 0.00 0.00 0.00 0.00 0.00 0.00 0.00 0.00 0.01 0.04 0.07 0.05 0.02 0.01 0.02 0.03 0.02 0.01 0.00 0.01 0.00 0.01 0.01 0.00 0.00 0.01 0.01 0.01 0.04 0.01 0.03 0.02 0.01 0.02 0.03 0.02 0.00
0.00 0.00 0.00 0.00 0.00 0.00 0.00 0.00 0.00 0.00 0.00 0.00 0.00 0.00 0.00 0.00 0.00 0.00 0.00 0.00 0.01 0.05 0.07 0.07 0.03 0.01 0.02 0.03 0.02 0.01 0.00 0.00 0.00 0.00 0.01 0.00 0.00 0.01 0.00 0.00 0.00 0.00 0.01 0.00 0.00 0.01 0.01 0.00 0.00
0.00 0.00 0.00 0.00 0.00 0.00 0.00 0.00 0.00 0.00 0.00 0.00 0.00 0.00 0.00 0.00 0.00 0.00 0.00 0.00 0.00 0.03 0.05 0.08 0.05 0.00 0.01 0.03 0.02 0.01 0.00 0.00 0.00 0.00 0.00 0.00 0.00 0.00 0.00 0.00 0.00 0.00 0.00 0.00 0.00 0.00 0.00 0.00 0.00
0.00 0.00 0.00 0.00 0.00 0.00 0.00 0.00 0.00 0.00 0.00 0.00 0.00 0.00 0.00 0.00 0.00 0.00 0.00 0.00 0.00 0.02 0.03 0.05 0.07 0.02 0.01 0.02 0.01 0.01 0.00 0.00 0.00 0.00 0.00 0.00 0.00 0.00 0.00 0.00 0.00 0.00 0.00 0.00 0.00 0.00 0.00 0.00 0.00
0.00 0.00 0.00 0.00 0.00 0.00 0.00 0.00 0.00 0.00 0.00 0.00 0.00 0.00 0.00 0.00 0.00 0.00 0.00 0.01 0.01 0.01 0.01 0.03 0.04 0.03 0.04 0.04 0.02 0.00 0.00 0.00 0.00 0.00 0.00 0.00 0.00 0.00 0.00 0.00 0.00 0.00 0.00 0.00 0.00 0.00 0.00 0.00 0.00
0.00 0.00 0.00 0.00 0.00 0.00 0.00 0.00 0.00 0.00 0.00 0.00 0.00 0.00 0.00 0.00 0.00 0.00 0.00 0.00 0.01 0.02 0.02 0.03 0.03 0.01 0.02 0.02 0.06 0.02 0.01 0.00 0.00 0.00 0.00 0.00 0.00 0.00 0.00 0.00 0.00 0.00 0.00 0.00 0.00 0.00 0.00 0.00 0.00
0.00 0.00 0.00 0.00 0.00 0.00 0.00 0.00 0.00 0.00 0.00 0.00 0.00 0.00 0.00 0.00 0.00 0.00 0.00 0.00 0.00 0.02 0.02 0.07 0.05 0.04 0.01 0.01 0.04 0.08 0.05 0.04 0.01 0.00 0.00 0.00 0.00 0.00 0.00 0.00 0.00 0.00 0.00 0.00 0.00 0.00 0.00 0.00 0.00
0.00 0.00 0.00 0.00 0.00 0.00 0.00 0.00 0.00 0.00 0.00 0.00 0.00 0.00 0.00 0.00 0.00 0.00 0.00 0.00 0.00 0.00 0.04 0.04 0.08 0.10 0.04 0.05 0.08 0.11 0.08 0.07 0.04 0.01 0.00 0.00 0.00 0.00 0.00 0.00 0.00 0.00 0.00 0.00 0.00 0.00 0.00 0.00 0.00
0.00 0.00 0.00 0.00 0.00 0.00 0.00 0.00 0.00 0.00 0.00 0.00 0.00 0.00 0.00 0.00 0.00 0.00 0.00 0.00 0.00 0.00 0.00 0.02 0.09 0.06 0.04 0.10 0.25 0.21 0.15 0.13 0.05 0.02 0.01 0.00 0.00 0.00 0.00 0.00 0.00 0.00 0.00 0.00 0.00 0.00 0.00 0.00 0.00
0.00 0.00 0.00 0.00 0.00 0.00 0.00 0.00 0.00 0.00 0.00 0.00 0.00 0.00 0.00 0.00 0.00 0.00 0.00 0.00 0.00 0.00 0.00 0.00 0.02 0.02 0.04 0.17 0.20 0.28 0.16 0.09 0.09 0.07 0.02 0.01 0.01 0.00 0.00 0.00 0.00 0.00 0.00 0.00 0.00 0.00 0.00 0.00 0.00
0.00 0.00 0.00 0.00 0.00 0.00 0.00 0.00 0.00 0.00 0.00 0.00 0.00 0.00 0.00 0.00 0.00 0.00 0.00 0.00 0.00 0.00 0.00 0.00 0.00 0.01 0.07 0.24 0.26 0.28 0.11 0.08 0.08 0.06 0.03 0.05 0.04 0.03 0.00 0.00 0.00 0.00 0.00 0.00 0.00 0.00 0.00 0.00 0.00
0.00 0.00 0.00 0.00 0.00 0.00 0.00 0.00 0.00 0.00 0.00 0.00 0.00 0.00 0.00 0.00 0.00 0.00 0.00 0.00 0.00 0.00 0.00 0.00 0.00 0.01 0.08 0.11 0.09 0.14 0.08 0.09 0.09 0.06 0.09 0.12 0.06 0.05 0.03 0.02 0.00 0.00 0.00 0.00 0.00 0.00 0.00 0.00 0.00
0.00 0.00 0.00 0.00 0.00 0.00 0.00 0.00 0.00 0.00 0.00 0.00 0.00 0.00 0.00 0.00 0.00 0.00 0.00 0.00 0.00 0.00 0.00 0.00 0.00 0.00 0.03 0.09 0.13 0.18 0.19 0.12 0.08 0.12 0.05 0.08 0.04 0.05 0.04 0.05 0.02 0.01 0.00 0.00 0.00 0.00 0.00 0.00 0.00
0.00 0.00 0.00 0.00 0.00 0.00 0.00 0.00 0.00 0.00 0.00 0.00 0.00 0.00 0.00 0.00 0.00 0.00 0.00 0.00 0.00 0.00 0.00 0.00 0.00 0.01 0.04 0.10 0.15 0.20 0.24 0.16 0.09 0.05 0.02 0.05 0.06 0.05 0.07 0.16 0.11 0.01 0.00 0.00 0.00 0.00 0.00 0.00 0.00
0.00 0.00 0.00 0.00 0.00 0.00 0.00 0.00 0.00 0.00 0.00 0.00 0.00 0.00 0.00 0.00 0.00 0.00 0.00 0.00 0.00 0.00 0.00 0.00 0.00 0.01 0.04 0.09 0.08 0.08 0.05 0.06 0.06 0.07 0.16 0.20 0.17 0.14 0.10 0.15 0.16 0.06 0.01 0.01 0.00 0.00 0.00 0.00 0.00
0.00 0.00 0.00 0.00 0.01 0.01 0.00 0.01 0.00 0.00 0.00 0.00 0.00 0.00 0.00 0.00 0.00 0.00 0.00 0.00 0.00 0.00 0.00 0.00 0.00 0.00 0.01 0.09 0.09 0.10 0.06 0.06 0.07 0.13 0.19 0.18 0.17 0.19 0.17 0.14 0.14 0.12 0.04 0.04 0.01 0.00 0.00 0.00 0.00
0.00 0.00 0.00 0.00 0.02 0.04 0.00 0.00 0.00 0.00 0.00 0.00 0.00 0.00 0.00 0.00 0.00 0.00 0.00 0.00 0.00 0.00 0.00 0.00 0.00 0.00 0.01 0.02 0.06 0.07 0.06 0.04 0.09 0.09 0.11 0.13 0.14 0.13 0.12 0.11 0.11 0.15 0.13 0.09 0.06 0.03 0.02 0.01 0.00
0.00 0.04 0.06 0.06 0.09 0.02 0.00 0.00 0.00 0.00 0.00 0.00 0.00 0.00 0.00 0.00 0.00 0.00 0.00 0.00 0.00 0.00 0.00 0.00 0.00 0.00 0.00 0.00 0.02 0.03 0.04 0.06 0.08 0.12 0.14 0.11 0.10 0.07 0.07 0.12 0.11 0.11 0.12 0.11 0.09 0.07 0.04 0.03 0.02
0.00 0.02 0.05 0.02 0.00 0.00 0.00 0.00 0.00 0.00 0.00 0.00 0.00 0.00 0.00 0.00 0.00 0.00 0.00 0.00 0.00 0.00 0.00 0.00 0.00 0.00 0.00 0.01 0.02 0.04 0.05 0.08 0.11 0.14 0.11 0.10 0.10 0.11 0.14 0.14 0.15 0.14 0.12 0.09 0.07 0.05 0.04 0.02 0.01
0.07 0.11 0.04 0.15 0.10 0.12 0.02 0.00 0.00 0.00 0.00 0.00 0.00 0.00 0.00 0.00 0.00 0.00 0.00 0.00 0.00 0.00 0.00 0.00 0.00 0.00 0.01 0.03 0.07 0.06 0.05 0.08 0.08 0.10 0.10 0.10 0.10 0.11 0.15 0.14 0.14 0.14 0.14 0.11 0.07 0.06 0.04 0.02 0.01
0.01 0.02 0.09 0.24 0.15 0.06 0.00 0.00 0.00 0.00 0.00 0.00 0.00 0.00 0.00 0.00 0.00 0.00 0.00 0.00 0.00 0.00 0.00 0.00 0.00 0.02 0.03 0.06 0.10 0.03 0.05 0.07 0.07 0.07 0.05 0.06 0.09 0.10 0.09 0.09 0.11 0.13 0.13 0.10 0.08 0.05 0.02 0.01 0.02
0.01 0.08 0.11 0.16 0.14 0.08 0.03 0.00 0.00 0.00 0.00 0.00 0.00 0.00 0.00 0.00 0.00 0.00 0.00 0.00 0.00 0.00 0.00 0.00 0.01 0.04 0.06 0.05 0.03 0.02 0.04 0.06 0.07 0.07 0.05 0.05 0.07 0.07 0.07 0.08 0.08 0.09 0.08 0.07 0.06 0.06 0.02 0.01 0.01
0.00 0.00 0.03 0.21 0.08 0.13 0.06 0.03 0.00 0.00 0.00 0.00 0.00 0.00 0.00 0.00 0.00 0.00 0.00 0.00 0.00 0.00 0.00 0.00 0.05 0.07 0.03 0.02 0.02 0.02 0.03 0.04 0.05 0.05 0.07 0.07 0.07 0.05 0.05 0.05 0.04 0.04 0.06 0.08 0.07 0.07 0.06 0.05 0.05

GFSSGP_prec_precacc_030.txt.gz
Total_Precipitation_Accumulation
0.00 0.00 0.00 0.00 0.00 0.00 0.00 0.00 0.00 0.00 0.00 0.00 0.00 0.00 0.00 0.00 0.00 0.00 0.00 0.00 0.00 0.00 0.01 0.02 0.04 0.05 0.02 0.01 0.01 0.02 0.03 0.04 0.03 0.05 0.04 0.03 0.01 0.00 0.02 0.00 0.00 0.00 0.04 0.07 0.05 0.02 0.00 0.00 0.00
0.00 0.00 0.00 0.00 0.00 0.00 0.00 0.00 0.00 0.00 0.00 0.00 0.00 0.00 0.00 0.00 0.00 0.00 0.00 0.00 0.00 0.00 0.00 0.01 0.03 0.04 0.01 0.00 0.01 0.02 0.03 0.04 0.03 0.03 0.02 0.00 0.00 0.02 0.03 0.01 0.00 0.00 0.01 0.01 0.00 0.00 0.00 0.00 0.00
0.00 0.00 0.00 0.00 0.00 0.00 0.00 0.00 0.00 0.00 0.00 0.00 0.00 0.00 0.00 0.00 0.00 0.00 0.00 0.00 0.00 0.00 0.00 0.01 0.03 0.04 0.02 0.01 0.01 0.01 0.02 0.03 0.03 0.02 0.00 0.00 0.00 0.01 0.00 0.00 0.00 0.00 0.00 0.00 0.00 0.00 0.00 0.00 0.00
0.00 0.00 0.00 0.00 0.00 0.00 0.00 0.00 0.00 0.00 0.00 0.00 0.00 0.00 0.00 0.00 0.00 0.00 0.00 0.00 0.00 0.00 0.00 0.01 0.03 0.03 0.02 0.02 0.02 0.02 0.02 0.03 0.02 0.00 0.00 0.00 0.01 0.03 0.03 0.00 0.00 0.00 0.00 0.00 0.00 0.00 0.00 0.00 0.00
0.00 0.00 0.00 0.00 0.00 0.00 0.00 0.00 0.00 0.00 0.00 0.00 0.00 0.00 0.00 0.00 0.00 0.00 0.00 0.00 0.00 0.00 0.00 0.02 0.04 0.04 0.04 0.03 0.03 0.03 0.01 0.03 0.02 0.00 0.00 0.00 0.01 0.03 0.07 0.03 0.00 0.00 0.00 0.01 0.01 0.02 0.02 0.01 0.01
0.00 0.00 0.00 0.00 0.00 0.00 0.00 0.00 0.00 0.00 0.00 0.00 0.00 0.00 0.00 0.00 0.00 0.00 0.00 0.00 0.00 0.00 0.01 0.02 0.03 0.03 0.04 0.04 0.04 0.03 0.01 0.02 0.01 0.00 0.00 0.00 0.01 0.02 0.06 0.08 0.01 0.00 0.01 0.01 0.02 0.05 0.02 0.01 0.01
0.00 0.00 0.00 0.00 0.00 0.00 0.00 0.00 0.00 0.00 0.00 0.00 0.00 0.00 0.00 0.00 0.00 0.00 0.00 0.00 0.00 0.00 0.01 0.03 0.02 0.02 0.04 0.04 0.02 0.01 0.01 0.02 0.02 0.01 0.00 0.00 0.00 0.00 0.02 0.07 0.05 0.03 0.02 0.04 0.07 0.03 0.02 0.02 0.01
0.00 0.00 0.00 0.00 0.00 0.00 0.00 0.00 0.00 0.00 0.00 0.00 0.00 0.00 0.00 0.00 0.00 0.00 0.00 0.00 0.01 0.05 0.07 0.05 0.02 0.01 0.02 0.03 0.02 0.01 0.00 0.01 0.01 0.01 0.01 0.00 0.00 0.01 0.01 0.01 0.04 0.01 0.04 0.03 0.01 0.02 0.03 0.02 0.00
0.00 0.00 0.00 0.00 0.00 0.00 0.00 0.00 0.00 0.00 0.00 0.00 0.00 0.00 0.00 0.00 0.00 0.00 0.01 0.00 0.01 0.05 0.08 0.08 0.03 0.01 0.02 0.03 0.02 0.01 0.00 0.01 0.00 0.01 0.01 0.00 0.00 0.01 0.00 0.00 0.00 0.00 0.01 0.00 0.00 0.01 0.01 0.00 0.00
0.00 0.00 0.00 0.00 0.00 0.00 0.00 0.00 0.00 0.00 0.00 0.00 0.00 0.00 0.00 0.00 0.00 0.00 0.01 0.01 0.01 0.04 0.05 0.08 0.05 0.00 0.01 0.03 0.02 0.01 0.00 0.00 0.00 0.00 0.00 0.00 0.00 0.01 0.00 0.00 0.00 0.00 0.00 0.00 0.00 0.00 0.00 0.00 0.00
0.00 0.00 0.00 0.00 0.00 0.00 0.00 0.00 0.00 0.00 0.00 0.00 0.00 0.00 0.00 0.00 0.00 0.00 0.00 0.00 0.00 0.02 0.03 0.05 0.08 0.02 0.01 0.02 0.02 0.01 0.00 0.00 0.00 0.00 0.00 0.00 0.00 0.00 0.01 0.00 0.01 0.00 0.00 0.00 0.00 0.00 0.00 0.00 0.00
0.00 0.00 0.00 0.00 0.00 0.00 0.00 0.00 0.00 0.00 0.00 0.00 0.00 0.00 0.00 0.00 0.00 0.01 0.01 0.02 0.01 0.01 0.01 0.03 0.04 0.03 0.04 0.04 0.02 0.00 0.00 0.00 0.00 0.00 0.00 0.00 0.00 0.00 0.01 0.01 0.01 0.01 0.00 0.00 0.00 0.00 0.00 0.00 0.00
0.00 0.00 0.00 0.00 0.00 0.00 0.00 0.00 0.00 0.00 0.00 0.00 0.00 0.00 0.00 0.00 0.00 0.00 0.00 0.00 0.01 0.02 0.02 0.03 0.03 0.01 0.02 0.02 0.06 0.03 0.02 0.00 0.00 0.00 0.00 0.00 0.00 0.00 0.00 0.00 0.01 0.01 0.00 0.00 0.00 0.00 0.00 0.00 0.00
0.00 0.00 0.00 0.00 0.00 0.00 0.00 0.00 0.00 0.00 0.00 0.00 0.00 0.00 0.00 0.00 0.00 0.00 0.00 0.00 0.00 0.02 0.02 0.07 0.05 0.04 0.01 0.01 0.05 0.08 0.06 0.06 0.02 0.00 0.00 0.00 0.00 0.00 0.00 0.00 0.00 0.00 0.00 0.00 0.00 0.00 0.00 0.00 0.00
0.00 0.00 0.00 0.00 0.00 0.00 0.00 0.00 0.00 0.00 0.00 0.00 0.00 0.00 0.00 0.00 0.00 0.00 0.00 0.00 0.00 0.00 0.04 0.04 0.08 0.10 0.04 0.05 0.08 0.12 0.10 0.11 0.05 0.01 0.00 0.00 0.00 0.00 0.00 0.00 0.00 0.00 0.00 0.00 0.00 0.00 0.00 0.00 0.00
0.00 0.00 0.00 0.00 0.00 0.00 0.00 0.00 0.00 0.00 0.00 0.00 0.00 0.00 0.00 0.00 0.00 0.00 0.00 0.00 0.00 0.00 0.00 0.02 0.09 0.06 0.04 0.10 0.25 0.23 0.16 0.13 0.06 0.03 0.01 0.02 0.01 0.00 0.00 0.00 0.00 0.00 0.00 0.00 0.00 0.00 0.00 0.00 0.00
0.00 0.00 0.00 0.00 0.00 0.00 0.00 0.00 0.00 0.00 0.00 0.00 0.00 0.00 0.00 0.00 0.00 0.00 0.00 0.00 0.00 0.00 0.00 0.00 0.02 0.02 0.04 0.17 0.21 0.29 0.16 0.09 0.09 0.08 0.03 0.02 0.01 0.01 0.00 0.00 0.00 0.00 0.00 0.00 0.00 0.00 0.00 0.00 0.00
0.00 0.00 0.00 0.00 0.00 0.00 0.00 0.00 0.00 0.00 0.00 0.00 0.00 0.00 0.00 0.00 0.00 0.00 0.00 0.00 0.00 0.00 0.00 0.00 0.00 0.01 0.07 0.24 0.26 0.29 0.12 0.08 0.08 0.06 0.03 0.07 0.07 0.07 0.04 0.01 0.00 0.00 0.00 0.00 0.00 0.00 0.00 0.00 0.00
0.00 0.00 0.00 0.00 0.00 0.00 0.00 0.00 0.00 0.00 0.00 0.00 0.00 0.00 0.00 0.00 0.00 0.00 0.00 0.00 0.00 0.00 0.00 0.00 0.00 0.01 0.08 0.11 0.09 0.14 0.09 0.09 0.09 0.06 0.12 0.15 0.08 0.08 0.07 0.07 0.03 0.00 0.00 0.00 0.00 0.00 0.00 0.00 0.00
0.00 0.00 0.00 0.00 0.00 0.00 0.00 0.00 0.00 0.00 0.00 0.00 0.00 0.00 0.00 0.00 0.00 0.00 0.00 0.00 0.00 0.00 0.00 0.00 0.00 0.00 0.03 0.09 0.13 0.18 0.19 0.12 0.09 0.13 0.07 0.09 0.05 0.05 0.08 0.09 0.06 0.02 0.00 0.00 0.00 0.00 0.00 0.00 0.00
0.00 0.00 0.00 0.00 0.00 0.00 0.00 0.00 0.00 0.00 0.00 0.00 0.00 0.00 0.00 0.00 0.00 0.00 0.00 0.00 0.00 0.00 0.00 0.00 0.00 0.01 0.04 0.10 0.15 0.20 0.24 0.16 0.09 0.05 0.02 0.05 0.06 0.06 0.09 0.21 0.15 0.04 0.01 0.00 0.00 0.00 0.00 0.00 0.00
0.00 0.00 0.00 0.00 0.00 0.00 0.00 0.00 0.00 0.00 0.00 0.00 0.00 0.00 0.00 0.00 0.00 0.00 0.00 0.00 0.00 0.00 0.00 0.00 0.00 0.01 0.04 0.09 0.08 0.08 0.05 0.06 0.06 0.07 0.16 0.20 0.18 0.19 0.15 0.18 0.18 0.11 0.03 0.03 0.01 0.00 0.00 0.00 0.00
0.00 0.00 0.00 0.00 0.01 0.01 0.00 0.01 0.00 0.00 0.00 0.00 0.00 0.00 0.00 0.00 0.00 0.00 0.00 0.00 0.00 0.00 0.00 0.00 0.00 0.00 0.01 0.09 0.09 0.10 0.06 0.06 0.07 0.13 0.19 0.18 0.18 0.21 0.21 0.19 0.19 0.16 0.06 0.06 0.05 0.02 0.00 0.00 0.00
0.00 0.00 0.00 0.00 0.02 0.04 0.00 0.00 0.00 0.00 0.00 0.00 0.00 0.00 0.00 0.00 0.00 0.00 0.00 0.00 0.00 0.00 0.00 0.00 0.00 0.00 0.01 0.02 0.06 0.07 0.06 0.04 0.09 0.09 0.11 0.13 0.14 0.14 0.15 0.15 0.15 0.19 0.18 0.12 0.09 0.09 0.05 0.02 0.00
0.00 0.04 0.06 0.06 0.09 0.02 0.00 0.00 0.00 0.00 0.00 0.00 0.00 0.00 0.00 0.00 0.00 0.00 0.00 0.00 0.00 0.00 0.00 0.00 0.00 0.00 0.00 0.00 0.02 0.03 0.04 0.06 0.08 0.12 0.14 0.11 0.10 0.07 0.08 0.13 0.14 0.15 0.18 0.19 0.16 0.13 0.10 0.07 0.04
0.00 0.02 0.05 0.02 0.00 0.00 0.00 0.00 0.00 0.00 0.00 0.00 0.00 0.00 0.00 0.00 0.00 0.00 0.00 0.00 0.00 0.00 0.00 0.00 0.00 0.00 0.00 0.01 0.02 0.04 0.05 0.08 0.11 0.14 0.11 0.10 0.10 0.11 0.15 0.15 0.16 0.17 0.18 0.17 0.16 0.14 0.11 0.08 0.06
0.07 0.11 0.04 0.15 0.10 0.12 0.02 0.00 0.00 0.00 0.00 0.00 0.00 0.00 0.00 0.00 0.00 0.00 0.00 0.00 0.00 0.00 0.00 0.00 0.00 0.00 0.01 0.03 0.07 0.06 0.05 0.08 0.08 0.10 0.10 0.11 0.10 0.12 0.15 0.14 0.15 0.16 0.17 0.17 0.17 0.16 0.13 0.09 0.05
0.01 0.02 0.09 0.24 0.15 0.06 0.00 0.00 0.00 0.00 0.00 0.00 0.00 0.00 0.00 0.00 0.00 0.00 0.00 0.00 0.00 0.00 0.00 0.00 0.00 0.02 0.03 0.06 0.10 0.03 0.05 0.07 0.07 0.07 0.05 0.06 0.09 0.10 0.10 0.10 0.12 0.14 0.15 0.14 0.13 0.12 0.09 0.08 0.06
0.01 0.08 0.11 0.16 0.14 0.08 0.03 0.00 0.00 0.00 0.00 0.00 0.00 0.00 0.00 0.00 0.00 0.00 0.00 0.00 0.00 0.00 0.00 0.00 0.01 0.04 0.06 0.05 0.03 0.02 0.04 0.06 0.07 0.07 0.05 0.05 0.07 0.07 0.07 0.08 0.09 0.09 0.09 0.09 0.09 0.10 0.17 0.24 0.30
0.00 0.00 0.03 0.21 0.08 0.13 0.06 0.03 0.00 0.00 0.00 0.00 0.00 0.00 0.00 0.00 0.00 0.00 0.00 0.00 0.00 0.00 0.00 0.00 0.05 0.07 0.03 0.02 0.02 0.02 0.03 0.04 0.05 0.05 0.07 0.07 0.07 0.05 0.05 0.05 0.04 0.04 0.06 0.08 0.09 0.08 0.08 0.09 0.14

GFSSGP_prec_precacc_033.txt.gz
Total_Precipitation_Accumulation
0.00 0.00 0.00 0.00 0.00 0.00 0.00 0.00 0.00 0.00 0.00 0.00 0.00 0.00 0.00 0.00 0.00 0.00 0.00 0.00 0.00 0.00 0.01 0.02 0.04 0.06 0.03 0.02 0.02 0.03 0.04 0.05 0.04 0.06 0.04 0.03 0.01 0.00 0.02 0.00 0.00 0.03 0.08 0.12 0.07 0.02 0.00 0.00 0.00
0.00 0.00 0.00 0.00 0.00 0.00 0.00 0.00 0.00 0.00 0.00 0.00 0.00 0.00 0.00 0.00 0.00 0.00 0.00 0.00 0.00 0.00 0.00 0.01 0.03 0.04 0.02 0.01 0.01 0.03 0.04 0.05 0.04 0.03 0.02 0.00 0.00 0.02 0.03 0.01 0.01 0.02 0.02 0.01 0.00 0.00 0.00 0.00 0.00
0.00 0.00 0.00 0.00 0.00 0.00 0.00 0.00 0.00 0.00 0.00 0.00 0.00 0.00 0.00 0.00 0.00 0.00 0.00 0.00 0.00 0.00 0.00 0.01 0.03 0.04 0.02 0.01 0.01 0.02 0.03 0.04 0.04 0.02 0.00 0.00 0.00 0.01 0.00 0.00 0.00 0.00 0.00 0.00 0.00 0.00 0.00 0.00 0.00
0.00 0.00 0.00 0.00 0.00 0.00 0.00 0.00 0.00 0.00 0.00 0.00 0.00 0.00 0.00 0.00 0.00 0.00 0.00 0.00 0.00 0.00 0.00 0.01 0.03 0.04 0.03 0.03 0.02 0.02 0.02 0.04 0.03 0.01 0.00 0.00 0.01 0.03 0.03 0.00 0.00 0.00 0.00 0.00 0.00 0.00 0.00 0.00 0.00
0.00 0.00 0.00 0.00 0.00 0.00 0.00 0.00 0.00 0.00 0.00 0.00 0.00 0.00 0.00 0.00 0.00 0.00 0.00 0.00 0.00 0.00 0.00 0.02 0.04 0.04 0.04 0.04 0.03 0.03 0.02 0.04 0.03 0.00 0.00 0.00 0.01 0.03 0.07 0.03 0.00 0.00 0.00 0.01 0.01 0.02 0.02 0.01 0.01
0.00 0.00 0.00 0.00 0.00 0.00 0.00 0.00 0.00 0.00 0.00 0.00 0.00 0.00 0.00 0.00 0.00 0.00 0.00 0.00 0.00 0.00 0.01 0.02 0.03 0.04 0.04 0.04 0.04 0.03 0.02 0.03 0.02 0.00 0.00 0.00 0.01 0.02 0.06 0.08 0.01 0.00 0.01 0.01 0.02 0.05 0.02 0.01 0.01
0.03 0.00 0.00 0.00 0.00 0.00 0.00 0.00 0.00 0.00 0.00 0.00 0.00 0.00 0.00 0.00 0.00 0.00 0.00 0.00 0.00 0.00 0.01 0.03 0.02 0.02 0.04 0.04 0.02 0.01 0.01 0.03 0.02 0.01 0.00 0.00 0.00 0.00 0.02 0.07 0.05 0.03 0.02 0.05 0.07 0.03 0.02 0.02 0.01
0.02 0.01 0.01 0.00 0.00 0.00 0.00 0.00 0.00 0.00 0.00 0.00 0.00 0.00 0.00 0.00 0.00 0.00 0.00 0.00 0.01 0.05 0.07 0.05 0.02 0.01 0.02 0.03 0.02 0.01 0.01 0.02 0.01 0.01 0.01 0.00 0.00 0.01 0.01 0.01 0.04 0.01 0.04 0.03 0.01 0.02 0.03 0.02 0.00
0.00 0.01 0.00 0.00 0.00 0.00 0.00 0.00 0.00 0.00 0.00 0.00 0.00 0.00 0.00 0.00 0.00 0.00 0.01 0.00 0.01 0.05 0.08 0.08 0.03 0.01 0.02 0.03 0.02 0.01 0.00 0.01 0.01 0.01 0.01 0.00 0.00 0.01 0.00 0.00 0.00 0.01 0.02 0.00 0.00 0.01 0.01 0.00 0.00
0.00 0.00 0.00 0.00 0.00 0.00 0.00 0.00 0.00 0.00 0.00 0.00 0.00 0.00 0.00 0.00 0.00 0.00 0.01 0.01 0.01 0.04 0.05 0.08 0.05 0.00 0.01 0.03 0.02 0.01 0.00 0.00 0.00 0.00 0.00 0.00 0.00 0.01 0.00 0.00 0.00 0.01 0.00 0.00 0.00 0.00 0.00 0.00 0.00
0.00 0.00 0.00 0.00 0.00 0.00 0.00 0.00 0.00 0.00 0.00 0.00 0.00 0.00 0.00 0.00 0.00 0.00 0.00 0.00 0.00 0.02 0.03 0.05 0.08 0.02 0.01 0.02 0.02 0.01 0.00 0.00 0.00 0.00 0.00 0.00 0.00 0.01 0.01 0.00 0.01 0.00 0.00 0.00 0.00 0.00 0.00 0.00 0.00
0.00 0.00 0.00 0.00 0.00 0.00 0.00 0.00 0.00 0.00 0.00 0.00 0.00 0.00 0.00 0.00 0.00 0.01 0.01 0.02 0.01 0.01 0.01 0.03 0.04 0.03 0.04 0.04 0.02 0.00 0.00 0.00 0.00 0.00 0.00 0.00 0.00 0.00 0.01 0.01 0.01 0.01 0.00 0.00 0.00 0.00 0.00 0.00 0.00
0.00 0.00 0.00 0.00 0.00 0.00 0.00 0.00 0.00 0.00 0.00 0.00 0.00 0.00 0.00 0.00 0.00 0.00 0.00 0.00 0.01 0.02 0.02 0.03 0.03 0.01 0.02 0.02 0.06 0.03 0.02 0.00 0.00 0.00 0.00 0.00 0.00 0.00 0.00 0.01 0.02 0.01 0.00 0.00 0.00 0.00 0.00 0.00 0.00
0.00 0.00 0.00 0.00 0.00 0.00 0.00 0.00 0.00 0.00 0.00 0.00 0.00 0.00 0.00 0.00 0.00 0.00 0.00 0.00 0.00 0.02 0.02 0.07 0.06 0.04 0.01 0.01 0.06 0.09 0.06 0.06 0.02 0.00 0.00 0.00 0.00 0.00 0.00 0.00 0.00 0.01 0.00 0.00 0.00 0.00 0.00 0.00 0.00
0.00 0.00 0.00 0.00 0.00 0.00 0.00 0.00 0.00 0.00 0.00 0.00 0.00 0.00 0.00 0.00 0.00 0.00 0.00 0.00 0.00 0.00 0.04 0.04 0.08 0.10 0.04 0.05 0.08 0.12 0.10 0.11 0.05 0.01 0.00 0.00 0.00 0.00 0.00 0.00 0.00 0.00 0.00 0.00 0.00 0.00 0.00 0.00 0.00
0.00 0.00 0.00 0.00 0.00 0.00 0.00 0.00 0.00 0.00 0.00 0.00 0.00 0.00 0.00 0.00 0.00 0.00 0.00 0.00 0.00 0.00 0.00 0.02 0.09 0.06 0.04 0.10 0.25 0.23 0.16 0.13 0.06 0.03 0.01 0.02 0.01 0.00 0.00 0.00 0.00 0.00 0.00 0.00 0.00 0.00 0.00 0.00 0.00
0.00 0.00 0.00 0.00 0.00 0.00 0.00 0.00 0.00 0.00 0.00 0.00 0.00 0.00 0.00 0.00 0.00 0.00 0.00 0.00 0.00 0.00 0.00 0.00 0.02 0.02 0.04 0.17 0.21 0.30 0.18 0.09 0.09 0.08 0.03 0.02 0.01 0.01 0.01 0.00 0.00 0.00 0.00 0.00 0.00 0.00 0.00 0.00 0.00
0.00 0.00 0.00 0.00 0.00 0.00 0.00 0.00 0.00 0.00 0.00 0.00 0.00 0.00 0.00 0.00 0.00 0.00 0.00 0.00 0.00 0.00 0.00 0.00 0.00 0.01 0.07 0.24 0.27 0.29 0.14 0.09 0.08 0.06 0.03 0.07 0.07 0.07 0.05 0.01 0.00 0.00 0.00 0.00 0.00 0.00 0.00 0.00 0.00
0.00 0.00 0.00 0.00 0.00 0.00 0.00 0.00 0.00 0.00 0.00 0.00 0.00 0.00 0.00 0.00 0.00 0.00 0.00 0.00 0.00 0.00 0.00 0.00 0.00 0.01 0.08 0.11 0.09 0.14 0.09 0.09 0.10 0.06 0.12 0.15 0.08 0.08 0.07 0.08 0.03 0.00 0.00 0.00 0.00 0.00 0.00 0.00 0.00
0.00 0.00 0.00 0.00 0.00 0.00 0.00 0.00 0.00 0.00 0.00 0.00 0.00 0.00 0.00 0.00 0.00 0.00 0.00 0.00 0.00 0.00 0.00 0.00 0.00 0.00 0.03 0.09 0.13 0.18 0.19 0.12 0.09 0.14 0.08 0.09 0.05 0.05 0.08 0.09 0.06 0.02 0.00 0.00 0.00 0.00 0.00 0.00 0.00
0.00 0.00 0.00 0.00 0.00 0.00 0.00 0.00 0.00 0.00 0.00 0.00 0.00 0.00 0.00 0.00 0.00 0.00 0.00 0.00 0.00 0.00 0.00 0.00 0.00 0.01 0.04 0.10 0.15 0.20 0.24 0.16 0.09 0.05 0.02 0.05 0.07 0.06 0.10 0.21 0.16 0.05 0.02 0.02 0.01 0.00 0.00 0.00 0.00
0.00 0.00 0.00 0.00 0.00 0.00 0.00 0.00 0.00 0.00 0.00 0.00 0.00 0.00 0.00 0.00 0.00 0.00 0.00 0.00 0.00 0.00 0.00 0.00 0.00 0.01 0.04 0.09 0.08 0.08 0.05 0.06 0.06 0.07 0.16 0.20 0.18 0.20 0.18 0.23 0.24 0.14 0.06 0.07 0.03 0.01 0.02 0.00 0.00
0.00 0.00 0.00 0.00 0.01 0.01 0.00 0.01 0.00 0.00 0.00 0.00 0.00 0.00 0.00 0.00 0.00 0.00 0.00 0.00 0.00 0.00 0.00 0.00 0.00 0.00 0.01 0.09 0.09 0.10 0.06 0.06 0.07 0.13 0.19 0.18 0.18 0.21 0.22 0.22 0.21 0.20 0.11 0.15 0.11 0.05 0.03 0.02 0.01
0.00 0.00 0.00 0.00 0.02 0.04 0.00 0.00 0.00 0.00 0.00 0.00 0.00 0.00 0.00 0.00 0.00 0.00 0.00 0.00 0.00 0.00 0.00 0.00 0.00 0.00 0.01 0.02 0.06 0.07 0.06 0.04 0.09 0.09 0.11 0.13 0.14 0.14 0.15 0.17 0.16 0.22 0.23 0.18 0.15 0.14 0.10 0.07 0.03
0.00 0.04 0.07 0.07 0.09 0.02 0.00 0.00 0.00 0.00 0.00 0.00 0.00 0.00 0.00 0.00 0.00 0.00 0.00 0.00 0.00 0.00 0.00 0.00 0.00 0.00 0.00 0.00 0.02 0.03 0.04 0.06 0.08 0.12 0.14 0.11 0.10 0.07 0.08 0.14 0.15 0.16 0.20 0.21 0.21 0.18 0.15 0.14 0.10
0.00 0.02 0.05 0.02 0.00 0.00 0.00 0.00 0.00 0.00 0.00 0.00 0.00 0.00 0.00 0.00 0.00 0.00 0.00 0.00 0.00 0.00 0.00 0.00 0.00 0.00 0.00 0.01 0.02 0.04 0.05 0.08 0.11 0.14 0.11 0.10 0.10 0.11 0.15 0.15 0.17 0.18 0.19 0.19 0.19 0.18 0.16 0.15 0.13
0.08 0.11 0.04 0.15 0.10 0.12 0.02 0.00 0.00 0.00 0.00 0.00 0.00 0.00 0.00 0.00 0.00 0.00 0.00 0.00 0.00 0.00 0.00 0.00 0.00 0.00 0.01 0.03 0.07 0.06 0.05 0.08 0.08 0.10 0.10 0.11 0.10 0.12 0.15 0.14 0.15 0.17 0.18 0.19 0.20 0.20 0.18 0.16 0.13
0.01 0.02 0.09 0.24 0.15 0.06 0.00 0.00 0.00 0.00 0.00 0.00 0.00 0.00 0.00 0.00 0.00 0.00 0.00 0.00 0.00 0.00 0.00 0.00 0.00 0.02 0.03 0.06 0.10 0.03 0.05 0.07 0.07 0.07 0.05 0.06 0.09 0.10 0.10 0.10 0.12 0.15 0.16 0.16 0.16 0.16 0.14 0.14 0.13
0.01 0.08 0.11 0.16 0.14 0.08 0.03 0.00 0.00 0.00 0.00 0.00 0.00 0.00 0.00 0.00 0.00 0.00 0.00 0.00 0.00 0.00 0.00 0.00 0.01 0.04 0.06 0.05 0.03 0.02 0.04 0.06 0.07 0.07 0.05 0.05 0.07 0.07 0.07 0.08 0.09 0.09 0.09 0.09 0.11 0.14 0.22 0.30 0.35
0.00 0.00 0.03 0.21 0.08 0.13 0.06 0.03 0.00 0.00 0.00 0.00 0.00 0.00 0.00 0.00 0.00 0.00 0.00 0.00 0.00 0.00 0.00 0.00 0.05 0.07 0.03 0.02 0.02 0.02 0.03 0.04 0.05 0.05 0.07 0.07 0.07 0.05 0.05 0.05 0.04 0.04 0.06 0.09 0.10 0.10 0.12 0.15 0.19

GFSSGP_prec_precacc_036.txt.gz
Total_Precipitation_Accumulation
0.00 0.00 0.00 0.00 0.00 0.00 0.00 0.00 0.00 0.00 0.00 0.00 0.00 0.00 0.00 0.00 0.00 0.00 0.00 0.00 0.00 0.00 0.01 0.02 0.05 0.06 0.03 0.03 0.02 0.03 0.05 0.07 0.06 0.07 0.04 0.03 0.01 0.00 0.02 0.00 0.01 0.05 0.10 0.14 0.07 0.02 0.00 0.00 0.00
0.00 0.00 0.00 0.00 0.00 0.00 0.00 0.00 0.00 0.00 0.00 0.00 0.00 0.00 0.00 0.00 0.00 0.00 0.00 0.00 0.00 0.00 0.00 0.01 0.04 0.05 0.02 0.01 0.02 0.03 0.05 0.07 0.05 0.03 0.02 0.00 0.00 0.02 0.03 0.02 0.02 0.04 0.03 0.01 0.00 0.00 0.00 0.00 0.00
0.00 0.00 0.00 0.00 0.00 0.00 0.00 0.00 0.00 0.00 0.00 0.00 0.00 0.00 0.00 0.00 0.00 0.00 0.00 0.00 0.00 0.00 0.00 0.01 0.03 0.04 0.02 0.01 0.01 0.02 0.04 0.05 0.04 0.02 0.00 0.00 0.00 0.01 0.00 0.01 0.00 0.00 0.00 0.00 0.00 0.00 0.00 0.00 0.00
0.00 0.00 0.00 0.00 0.00 0.00 0.00 0.00 0.00 0.00 0.00 0.00 0.00 0.00 0.00 0.00 0.00 0.00 0.00 0.00 0.00 0.00 0.00 0.01 0.04 0.04 0.03 0.03 0.02 0.03 0.04 0.05 0.04 0.01 0.00 0.00 0.01 0.03 0.03 0.00 0.00 0.00 0.00 0.00 0.00 0.00 0.00 0.00 0.00
0.01 0.00 0.00 0.00 0.00 0.00 0.00 0.00 0.00 0.00 0.00 0.00 0.00 0.00 0.00 0.00 0.00 0.00 0.00 0.00 0.00 0.00 0.00 0.02 0.04 0.04 0.04 0.04 0.03 0.04 0.03 0.05 0.03 0.00 0.00 0.00 0.01 0.03 0.07 0.03 0.00 0.00 0.00 0.01 0.01 0.02 0.02 0.01 0.01
0.05 0.00 0.00 0.00 0.00 0.00 0.00 0.00 0.00 0.00 0.00 0.00 0.00 0.00 0.00 0.00 0.00 0.00 0.00 0.00 0.00 0.00 0.01 0.02 0.04 0.04 0.04 0.04 0.04 0.03 0.02 0.05 0.02 0.00 0.00 0.00 0.01 0.02 0.06 0.08 0.01 0.00 0.01 0.01 0.02 0.05 0.02 0.01 0.01
0.07 0.02 0.00 0.00 0.00 0.00 0.00 0.00 0.00 0.00 0.00 0.00 0.00 0.00 0.00 0.00 0.00 0.00 0.00 0.00 0.00 0.00 0.01 0.03 0.02 0.02 0.04 0.04 0.02 0.02 0.02 0.04 0.03 0.01 0.00 0.00 0.00 0.00 0.02 0.07 0.05 0.03 0.02 0.05 0.07 0.03 0.02 0.02 0.01
0.04 0.05 0.03 0.00 0.00 0.00 0.00 0.00 0.00 0.00 0.00 0.00 0.00 0.00 0.03 0.00 0.00 0.00 0.00 0.00 0.01 0.05 0.07 0.05 0.02 0.01 0.02 0.03 0.02 0.01 0.01 0.03 0.02 0.01 0.01 0.00 0.00 0.01 0.01 0.01 0.04 0.01 0.05 0.03 0.01 0.02 0.03 0.02 0.00
0.01 0.16 0.12 0.00 0.00 0.00 0.00 0.00 0.00 0.00 0.00 0.00 0.00 0.00 0.00 0.00 0.00 0.00 0.01 0.00 0.01 0.05 0.08 0.08 0.03 0.01 0.02 0.03 0.02 0.01 0.01 0.02 0.01 0.01 0.01 0.00 0.00 0.01 0.00 0.00 0.00 0.01 0.02 0.00 0.00 0.01 0.01 0.00 0.00
0.00 0.03 0.06 0.01 0.00 0.00 0.00 0.00 0.00 0.00 0.00 0.00 0.00 0.00 0.00 0.00 0.00 0.00 0.01 0.01 0.01 0.04 0.05 0.08 0.05 0.00 0.01 0.03 0.02 0.01 0.00 0.01 0.00 0.00 0.00 0.00 0.00 0.01 0.00 0.00 0.00 0.01 0.00 0.00 0.00 0.00 0.00 0.00 0.00
0.00 0.00 0.00 0.01 0.01 0.00 0.00 0.00 0.00 0.00 0.00 0.00 0.00 0.00 0.00 0.00 0.00 0.00 0.00 0.00 0.00 0.02 0.03 0.05 0.08 0.02 0.01 0.02 0.02 0.01 0.00 0.00 0.00 0.00 0.00 0.00 0.00 0.01 0.01 0.00 0.01 0.00 0.00 0.00 0.00 0.00 0.00 0.00 0.00
0.00 0.00 0.00 0.01 0.00 0.00 0.00 0.00 0.00 0.00 0.00 0.00 0.00 0.00 0.00 0.00 0.00 0.01 0.01 0.02 0.01 0.01 0.01 0.03 0.04 0.03 0.04 0.04 0.02 0.00 0.00 0.00 0.00 0.00 0.00 0.00 0.00 0.00 0.01 0.01 0.01 0.01 0.00 0.00 0.00 0.00 0.00 0.00 0.00
0.00 0.00 0.00 0.00 0.00 0.00 0.00 0.00 0.00 0.00 0.00 0.00 0.00 0.00 0.00 0.00 0.00 0.00 0.00 0.00 0.01 0.02 0.02 0.03 0.03 0.01 0.02 0.02 0.06 0.03 0.02 0.00 0.00 0.00 0.00 0.00 0.00 0.00 0.00 0.01 0.02 0.01 0.00 0.00 0.00 0.00 0.00 0.00 0.00
0.00 0.00 0.00 0.00 0.00 0.00 0.00 0.00 0.00 0.00 0.00 0.00 0.00 0.00 0.00 0.00 0.00 0.00 0.00 0.00 0.00 0.02 0.02 0.07 0.06 0.04 0.01 0.01 0.06 0.09 0.06 0.06 0.02 0.00 0.00 0.00 0.00 0.00 0.00 0.00 0.01 0.01 0.00 0.00 0.00 0.00 0.00 0.00 0.00
0.00 0.00 0.00 0.00 0.00 0.00 0.00 0.00 0.00 0.00 0.00 0.00 0.00 0.00 0.00 0.00 0.00 0.00 0.00 0.00 0.00 0.00 0.04 0.04 0.08 0.10 0.04 0.05 0.08 0.12 0.10 0.11 0.05 0.01 0.00 0.00 0.00 0.00 0.00 0.00 0.00 0.00 0.00 0.00 0.00 0.00 0.00 0.00 0.00
0.00 0.00 0.00 0.00 0.00 0.00 0.00 0.00 0.00 0.00 0.00 0.00 0.00 0.00 0.00 0.00 0.00 0.00 0.00 0.00 0.00 0.00 0.00 0.02 0.09 0.06 0.04 0.10 0.25 0.23 0.16 0.13 0.06 0.03 0.01 0.02 0.01 0.00 0.00 0.00 0.00 0.00 0.00 0.00 0.00 0.00 0.00 0.00 0.00
0.00 0.00 0.00 0.00 0.00 0.00 0.00 0.00 0.00 0.00 0.00 0.00 0.00 0.00 0.00 0.00 0.00 0.00 0.00 0.00 0.00 0.00 0.00 0.00 0.02 0.02 0.04 0.18 0.21 0.31 0.18 0.10 0.09 0.08 0.03 0.02 0.02 0.01 0.01 0.00 0.00 0.00 0.00 0.00 0.00 0.00 0.00 0.00 0.00
0.00 0.00 0.00 0.00 0.00 0.00 0.00 0.00 0.00 0.00 0.00 0.00 0.00 0.00 0.00 0.00 0.00 0.00 0.00 0.00 0.00 0.00 0.00 0.00 0.00 0.01 0.07 0.24 0.27 0.29 0.14 0.10 0.09 0.07 0.04 0.07 0.08 0.09 0.06 0.02 0.00 0.00 0.00 0.00 0.00 0.00 0.00 0.00 0.00
0.00 0.00 0.00 0.00 0.00 0.00 0.00 0.00 0.00 0.00 0.00 0.00 0.00 0.00 0.00 0.00 0.00 0.00 0.00 0.00 0.00 0.00 0.00 0.00 0.00 0.01 0.08 0.11 0.09 0.14 0.09 0.10 0.11 0.09 0.14 0.16 0.09 0.09 0.10 0.09 0.06 0.00 0.00 0.00 0.00 0.00 0.00 0.00 0.00
0.00 0.00 0.00 0.00 0.00 0.00 0.00 0.00 0.00 0.00 0.00 0.00 0.00 0.00 0.00 0.00 0.00 0.00 0.00 0.00 0.00 0.00 0.00 0.00 0.00 0.00 0.03 0.09 0.13 0.18 0.19 0.12 0.09 0.14 0.09 0.12 0.08 0.06 0.08 0.10 0.11 0.06 0.01 0.01 0.01 0.00 0.00 0.00 0.00
0.00 0.00 0.00 0.00 0.00 0.00 0.00 0.00 0.00 0.00 0.00 0.00 0.00 0.00 0.00 0.00 0.00 0.00 0.00 0.00 0.00 0.00 0.00 0.00 0.00 0.01 0.04 0.10 0.15 0.20 0.24 0.16 0.09 0.05 0.02 0.05 0.11 0.11 0.13 0.25 0.19 0.08 0.05 0.04 0.08 0.03 0.01 0.01 0.00
0.00 0.00 0.00 0.00 0.00 0.00 0.00 0.00 0.00 0.00 0.00 0.00 0.00 0.00 0.00 0.00 0.00 0.00 0.00 0.00 0.00 0.00 0.00 0.00 0.00 0.01 0.04 0.09 0.08 0.08 0.05 0.06 0.06 0.07 0.16 0.20 0.18 0.21 0.21 0.28 0.29 0.18 0.09 0.10 0.12 0.10 0.04 0.01 0.01
0.00 0.00 0.00 0.00 0.01 0.01 0.00 0.01 0.00 0.00 0.00 0.00 0.00 0.00 0.00 0.00 0.00 0.00 0.00 0.00 0.00 0.00 0.00 0.00 0.00 0.00 0.01 0.09 0.09 0.10 0.06 0.06 0.07 0.13 0.19 0.18 0.18 0.21 0.22 0.22 0.22 0.23 0.14 0.18 0.18 0.12 0.06 0.05 0.03
0.00 0.00 0.00 0.00 0.02 0.04 0.00 0.00 0.00 0.00 0.00 0.00 0.00 0.00 0.00 0.00 0.00 0.00 0.00 0.00 0.00 0.00 0.00 0.00 0.00 0.00 0.01 0.02 0.06 0.07 0.06 0.04 0.09 0.09 0.11 0.13 0.14 0.15 0.16 0.17 0.16 0.24 0.26 0.21 0.19 0.21 0.15 0.10 0.06
0.00 0.04 0.07 0.07 0.10 0.02 0.00 0.00 0.00 0.00 0.00 0.00 0.00 0.00 0.00 0.00 0.00 0.00 0.00 0.00 0.00 0.00 0.00 0.00 0.00 0.00 0.00 0.00 0.02 0.03 0.04 0.06 0.08 0.12 0.14 0.11 0.10 0.08 0.08 0.14 0.16 0.17 0.21 0.24 0.25 0.23 0.19 0.16 0.13
0.00 0.02 0.06 0.02 0.00 0.00 0.00 0.00 0.00 0.00 0.00 0.00 0.00 0.00 0.00 0.00 0.00 0.00 0.00 0.00 0.00 0.00 0.00 0.00 0.00 0.00 0.00 0.01 0.02 0.04 0.05 0.08 0.11 0.14 0.11 0.10 0.10 0.11 0.15 0.15 0.17 0.19 0.20 0.21 0.21 0.22 0.20 0.18 0.17
0.08 0.11 0.04 0.15 0.10 0.12 0.02 0.00 0.00 0.00 0.00 0.00 0.00 0.00 0.00 0.00 0.00 0.00 0.00 0.00 0.00 0.00 0.00 0.00 0.00 0.00 0.01 0.03 0.07 0.06 0.05 0.08 0.08 0.10 0.10 0.11 0.10 0.12 0.15 0.15 0.15 0.18 0.20 0.21 0.22 0.22 0.20 0.19 0.18
0.01 0.02 0.09 0.24 0.15 0.06 0.00 0.00 0.00 0.00 0.00 0.00 0.00 0.00 0.00 0.00 0.00 0.00 0.00 0.00 0.00 0.00 0.00 0.00 0.00 0.02 0.03 0.06 0.10 0.03 0.05 0.07 0.07 0.07 0.05 0.06 0.09 0.10 0.10 0.10 0.12 0.15 0.18 0.19 0.20 0.20 0.18 0.20 0.20
0.01 0.08 0.11 0.16 0.14 0.08 0.03 0.00 0.00 0.00 0.00 0.00 0.00 0.00 0.00 0.00 0.00 0.00 0.00 0.00 0.00 0.00 0.00 0.00 0.01 0.04 0.06 0.05 0.03 0.02 0.04 0.06 0.07 0.07 0.05 0.05 0.07 0.07 0.07 0.08 0.09 0.09 0.09 0.10 0.13 0.17 0.27 0.36 0.41
0.00 0.00 0.03 0.21 0.08 0.13 0.06 0.03 0.00 0.00 0.00 0.00 0.00 0.00 0.00 0.00 0.00 0.00 0.00 0.00 0.00 0.00 0.00 0.00 0.05 0.07 0.03 0.02 0.02 0.02 0.03 0.04 0.05 0.05 0.07 0.07 0.07 0.05 0.05 0.05 0.04 0.04 0.06 0.09 0.10 0.11 0.13 0.17 0.23

GFSSGP_prec_precacc_039.txt.gz
Total_Precipitation_Accumulation
0.00 0.00 0.00 0.00 0.00 0.00 0.00 0.00 0.00 0.00 0.00 0.00 0.00 0.00 0.00 0.00 0.00 0.00 0.00 0.00 0.00 0.00 0.01 0.02 0.05 0.06 0.04 0.04 0.02 0.03 0.05 0.08 0.07 0.09 0.05 0.03 0.01 0.00 0.02 0.01 0.02 0.06 0.13 0.15 0.07 0.02 0.00 0.00 0.00
0.00 0.00 0.00 0.00 0.00 0.00 0.00 0.00 0.00 0.00 0.00 0.00 0.00 0.00 0.00 0.00 0.00 0.00 0.00 0.00 0.00 0.00 0.00 0.01 0.04 0.05 0.03 0.01 0.02 0.03 0.06 0.08 0.06 0.03 0.02 0.00 0.00 0.02 0.03 0.03 0.04 0.05 0.03 0.01 0.00 0.00 0.00 0.00 0.00
0.00 0.00 0.00 0.00 0.00 0.00 0.00 0.00 0.00 0.00 0.00 0.00 0.00 0.00 0.00 0.00 0.00 0.00 0.00 0.00 0.00 0.00 0.00 0.01 0.04 0.04 0.02 0.01 0.02 0.04 0.06 0.06 0.05 0.02 0.00 0.00 0.00 0.01 0.01 0.01 0.00 0.00 0.00 0.00 0.00 0.00 0.00 0.00 0.00
0.00 0.00 0.00 0.00 0.00 0.00 0.00 0.00 0.00 0.00 0.00 0.00 0.00 0.00 0.00 0.00 0.00 0.00 0.00 0.00 0.00 0.00 0.00 0.01 0.04 0.04 0.03 0.03 0.02 0.04 0.05 0.06 0.04 0.01 0.00 0.00 0.01 0.03 0.03 0.00 0.00 0.00 0.00 0.00 0.00 0.00 0.00 0.00 0.00
0.02 0.01 0.00 0.00 0.00 0.00 0.00 0.00 0.00 0.00 0.00 0.00 0.00 0.00 0.00 0.00 0.00 0.00 0.00 0.00 0.00 0.00 0.00 0.02 0.04 0.04 0.04 0.04 0.04 0.04 0.04 0.06 0.03 0.00 0.00 0.00 0.01 0.03 0.07 0.03 0.00 0.00 0.00 0.01 0.01 0.02 0.02 0.01 0.01
0.12 0.06 0.01 0.00 0.00 0.00 0.00 0.00 0.00 0.00 0.00 0.00 0.00 0.00 0.00 0.00 0.00 0.00 0.00 0.00 0.00 0.00 0.01 0.02 0.04 0.04 0.04 0.04 0.04 0.04 0.03 0.05 0.02 0.00 0.00 0.00 0.01 0.02 0.06 0.08 0.01 0.00 0.01 0.01 0.02 0.05 0.02 0.01 0.01
0.14 0.16 0.02 0.00 0.00 0.00 0.00 0.00 0.00 0.00 0.00 0.00 0.00 0.00 0.04 0.02 0.00 0.01 0.00 0.00 0.00 0.00 0.01 0.03 0.02 0.02 0.04 0.04 0.02 0.03 0.03 0.05 0.03 0.01 0.00 0.00 0.00 0.00 0.02 0.07 0.05 0.03 0.02 0.05 0.07 0.03 0.02 0.02 0.01
0.04 0.14 0.08 0.00 0.00 0.00 0.00 0.00 0.00 0.00 0.00 0.00 0.00 0.00 0.07 0.02 0.00 0.01 0.02 0.00 0.01 0.05 0.07 0.05 0.02 0.01 0.02 0.03 0.02 0.01 0.02 0.03 0.02 0.01 0.01 0.00 0.00 0.01 0.01 0.01 0.04 0.01 0.05 0.03 0.01 0.02 0.03 0.02 0.00
0.04 0.24 0.19 0.01 0.00 0.00 0.00 0.00 0.00 0.00 0.00 0.00 0.00 0.00 0.01 0.01 0.00 0.01 0.02 0.01 0.02 0.05 0.08 0.08 0.03 0.01 0.02 0.03 0.02 0.01 0.01 0.02 0.01 0.01 0.01 0.00 0.00 0.01 0.00 0.00 0.00 0.01 0.03 0.00 0.00 0.01 0.01 0.00 0.00
0.06 0.12 0.07 0.01 0.00 0.01 0.00 0.00 0.00 0.00 0.00 0.00 0.00 0.00 0.00 0.01 0.01 0.01 0.02 0.01 0.01 0.04 0.05 0.08 0.05 0.00 0.01 0.03 0.02 0.01 0.00 0.01 0.00 0.00 0.00 0.00 0.00 0.01 0.00 0.00 0.00 0.01 0.00 0.00 0.00 0.00 0.00 0.00 0.00
0.01 0.01 0.00 0.01 0.02 0.04 0.00 0.00 0.00 0.00 0.00 0.00 0.00 0.00 0.00 0.00 0.02 0.03 0.01 0.00 0.00 0.02 0.03 0.05 0.08 0.02 0.01 0.02 0.02 0.01 0.00 0.00 0.00 0.00 0.00 0.00 0.00 0.01 0.01 0.00 0.01 0.00 0.00 0.00 0.00 0.00 0.00 0.00 0.00
0.00 0.00 0.00 0.01 0.06 0.06 0.01 0.00 0.00 0.00 0.00 0.00 0.00 0.00 0.00 0.00 0.00 0.01 0.01 0.02 0.01 0.01 0.01 0.03 0.04 0.03 0.04 0.04 0.02 0.00 0.00 0.00 0.00 0.00 0.00 0.00 0.00 0.00 0.01 0.01 0.01 0.01 0.00 0.00 0.00 0.00 0.00 0.00 0.00
0.00 0.00 0.00 0.00 0.01 0.01 0.02 0.00 0.00 0.00 0.00 0.00 0.00 0.00 0.00 0.00 0.00 0.00 0.00 0.00 0.01 0.02 0.02 0.04 0.03 0.01 0.02 0.02 0.06 0.03 0.02 0.00 0.00 0.00 0.00 0.00 0.00 0.00 0.00 0.01 0.02 0.01 0.00 0.00 0.00 0.00 0.00 0.00 0.00
0.00 0.00 0.00 0.00 0.00 0.00 0.02 0.00 0.00 0.00 0.00 0.00 0.00 0.00 0.00 0.00 0.00 0.00 0.00 0.00 0.00 0.02 0.02 0.07 0.06 0.04 0.01 0.01 0.06 0.09 0.06 0.06 0.02 0.00 0.00 0.00 0.00 0.00 0.00 0.00 0.01 0.01 0.00 0.00 0.00 0.00 0.00 0.00 0.00
0.00 0.00 0.00 0.00 0.00 0.00 0.00 0.00 0.00 0.00 0.00 0.00 0.00 0.00 0.00 0.00 0.00 0.00 0.00 0.00 0.00 0.00 0.04 0.04 0.08 0.10 0.04 0.05 0.08 0.12 0.10 0.11 0.05 0.01 0.00 0.00 0.00 0.00 0.00 0.00 0.00 0.00 0.00 0.00 0.00 0.00 0.00 0.00 0.00
0.01 0.00 0.00 0.00 0.00 0.00 0.00 0.00 0.00 0.00 0.00 0.00 0.00 0.00 0.00 0.00 0.00 0.00 0.00 0.00 0.00 0.00 0.01 0.02 0.09 0.06 0.04 0.10 0.25 0.23 0.16 0.13 0.06 0.03 0.01 0.02 0.01 0.00 0.00 0.00 0.00 0.00 0.00 0.00 0.00 0.00 0.00 0.00 0.00
0.03 0.00 0.00 0.00 0.00 0.00 0.00 0.00 0.00 0.00 0.00 0.00 0.00 0.00 0.00 0.00 0.00 0.00 0.00 0.00 0.00 0.00 0.00 0.00 0.02 0.02 0.04 0.18 0.21 0.31 0.18 0.10 0.09 0.08 0.03 0.02 0.02 0.01 0.01 0.00 0.00 0.00 0.00 0.00 0.00 0.00 0.00 0.00 0.00
0.00 0.00 0.00 0.00 0.00 0.00 0.00 0.00 0.00 0.00 0.00 0.00 0.00 0.00 0.00 0.00 0.00 0.00 0.00 0.00 0.00 0.00 0.00 0.00 0.00 0.01 0.07 0.24 0.27 0.29 0.14 0.11 0.11 0.09 0.06 0.09 0.09 0.10 0.07 0.02 0.00 0.00 0.00 0.00 0.00 0.00 0.00 0.00 0.00
0.00 0.00 0.00 0.00 0.00 0.00 0.00 0.00 0.00 0.00 0.00 0.00 0.00 0.00 0.00 0.00 0.00 0.00 0.00 0.00 0.00 0.00 0.00 0.00 0.00 0.01 0.08 0.11 0.09 0.14 0.10 0.12 0.14 0.14 0.18 0.20 0.11 0.10 0.15 0.14 0.09 0.01 0.00 0.00 0.01 0.02 0.00 0.00 0.00
0.00 0.00 0.00 0.00 0.00 0.00 0.00 0.00 0.00 0.00 0.00 0.00 0.00 0.00 0.00 0.00 0.00 0.00 0.00 0.00 0.00 0.00 0.00 0.00 0.00 0.00 0.03 0.09 0.13 0.18 0.19 0.12 0.09 0.14 0.10 0.14 0.11 0.10 0.11 0.15 0.16 0.12 0.03 0.03 0.09 0.05 0.02 0.01 0.01
0.00 0.00 0.00 0.00 0.00 0.00 0.00 0.00 0.00 0.00 0.00 0.00 0.00 0.00 0.00 0.00 0.00 0.00 0.00 0.00 0.00 0.00 0.00 0.00 0.00 0.01 0.04 0.10 0.15 0.20 0.24 0.16 0.09 0.05 0.02 0.05 0.11 0.13 0.17 0.31 0.24 0.13 0.12 0.10 0.14 0.11 0.10 0.04 0.02
0.00 0.00 0.00 0.00 0.00 0.00 0.00 0.00 0.00 0.00 0.00 0.00 0.00 0.00 0.00 0.00 0.00 0.00 0.00 0.00 0.00 0.00 0.00 0.00 0.00 0.01 0.04 0.09 0.08 0.08 0.05 0.06 0.06 0.07 0.16 0.20 0.18 0.21 0.21 0.31 0.35 0.26 0.14 0.13 0.15 0.17 0.12 0.08 0.05
0.00 0.00 0.00 0.00 0.01 0.01 0.00 0.01 0.00 0.00 0.00 0.00 0.00 0.00 0.00 0.00 0.00 0.00 0.00 0.00 0.00 0.00 0.00 0.00 0.00 0.00 0.01 0.09 0.09 0.10 0.06 0.06 0.07 0.13 0.19 0.18 0.18 0.21 0.22 0.22 0.23 0.25 0.19 0.24 0.23 0.18 0.14 0.11 0.07
0.00 0.00 0.00 0.00 0.02 0.04 0.00 0.00 0.00 0.00 0.00 0.00 0.00 0.00 0.00 0.00 0.00 0.00 0.00 0.00 0.00 0.00 0.00 0.00 0.00 0.00 0.01 0.02 0.06 0.07 0.06 0.04 0.09 0.09 0.11 0.13 0.14 0.15 0.16 0.18 0.18 0.25 0.28 0.27 0.28 0.29 0.23 0.19 0.13
0.00 0.04 0.07 0.07 0.10 0.02 0.00 0.00 0.00 0.00 0.00 0.00 0.00 0.00 0.00 0.00 0.00 0.00 0.00 0.00 0.00 0.00 0.00 0.00 0.00 0.00 0.00 0.00 0.02 0.03 0.04 0.06 0.08 0.12 0.14 0.11 0.10 0.08 0.09 0.16 0.18 0.18 0.22 0.26 0.31 0.30 0.27 0.27 0.23
0.00 0.02 0.06 0.02 0.00 0.00 0.00 0.00 0.00 0.00 0.00 0.00 0.00 0.00 0.00 0.00 0.00 0.00 0.00 0.00 0.00 0.00 0.00 0.00 0.00 0.00 0.00 0.01 0.02 0.04 0.05 0.08 0.11 0.14 0.11 0.10 0.10 0.11 0.15 0.15 0.17 0.19 0.21 0.21 0.22 0.24 0.23 0.23 0.23
0.09 0.11 0.04 0.15 0.10 0.12 0.02 0.00 0.00 0.00 0.00 0.00 0.00 0.00 0.00 0.00 0.00 0.00 0.00 0.00 0.00 0.00 0.00 0.00 0.00 0.00 0.01 0.03 0.07 0.06 0.05 0.08 0.08 0.10 0.10 0.11 0.10 0.12 0.15 0.15 0.15 0.18 0.20 0.22 0.24 0.23 0.22 0.22 0.22
0.01 0.03 0.10 0.24 0.15 0.06 0.00 0.00 0.00 0.00 0.00 0.00 0.00 0.00 0.00 0.00 0.00 0.00 0.00 0.00 0.00 0.00 0.00 0.00 0.00 0.02 0.03 0.06 0.10 0.03 0.05 0.07 0.07 0.07 0.05 0.06 0.09 0.10 0.10 0.10 0.12 0.15 0.18 0.19 0.20 0.22 0.19 0.22 0.22
0.02 0.08 0.11 0.16 0.14 0.08 0.03 0.00 0.00 0.00 0.00 0.00 0.00 0.00 0.00 0.00 0.00 0.00 0.00 0.00 0.00 0.00 0.00 0.00 0.01 0.04 0.06 0.05 0.03 0.02 0.04 0.06 0.07 0.07 0.05 0.05 0.07 0.07 0.07 0.08 0.09 0.09 0.09 0.10 0.13 0.17 0.27 0.36 0.42
0.01 0.00 0.03 0.21 0.08 0.13 0.06 0.03 0.00 0.00 0.00 0.00 0.00 0.00 0.00 0.00 0.00 0.00 0.00 0.00 0.00 0.00 0.00 0.00 0.05 0.07 0.03 0.02 0.02 0.02 0.03 0.04 0.05 0.05 0.07 0.07 0.07 0.05 0.05 0.05 0.04 0.04 0.06 0.09 0.10 0.11 0.13 0.17 0.23

GFSSGP_prec_precacc_042.txt.gz
Total_Precipitation_Accumulation
0.00 0.00 0.00 0.00 0.00 0.00 0.00 0.00 0.00 0.00 0.00 0.00 0.00 0.00 0.00 0.00 0.00 0.00 0.00 0.00 0.00 0.00 0.01 0.02 0.05 0.06 0.04 0.04 0.02 0.04 0.06 0.08 0.08 0.09 0.05 0.03 0.01 0.00 0.02 0.01 0.03 0.08 0.13 0.15 0.07 0.02 0.00 0.00 0.00
0.00 0.00 0.00 0.00 0.00 0.00 0.00 0.00 0.00 0.00 0.00 0.00 0.00 0.00 0.00 0.00 0.00 0.00 0.00 0.00 0.00 0.00 0.00 0.01 0.04 0.05 0.03 0.01 0.02 0.03 0.06 0.09 0.06 0.03 0.02 0.00 0.00 0.02 0.05 0.05 0.05 0.06 0.03 0.01 0.00 0.00 0.00 0.00 0.00
0.00 0.00 0.00 0.00 0.00 0.00 0.00 0.00 0.00 0.00 0.00 0.00 0.00 0.00 0.00 0.00 0.00 0.00 0.00 0.00 0.00 0.00 0.00 0.01 0.04 0.05 0.02 0.01 0.02 0.04 0.07 0.06 0.05 0.02 0.00 0.00 0.00 0.02 0.03 0.02 0.01 0.00 0.00 0.00 0.00 0.00 0.00 0.00 0.00
0.00 0.00 0.00 0.00 0.00 0.00 0.00 0.00 0.00 0.00 0.00 0.00 0.00 0.00 0.00 0.00 0.00 0.00 0.00 0.00 0.00 0.00 0.00 0.02 0.04 0.04 0.03 0.03 0.03 0.05 0.06 0.06 0.04 0.01 0.00 0.00 0.01 0.04 0.03 0.00 0.00 0.00 0.00 0.00 0.00 0.00 0.00 0.00 0.00
0.02 0.01 0.00 0.00 0.00 0.00 0.00 0.00 0.00 0.00 0.00 0.00 0.00 0.00 0.00 0.00 0.00 0.00 0.00 0.00 0.00 0.00 0.00 0.02 0.04 0.04 0.04 0.04 0.04 0.04 0.05 0.06 0.03 0.00 0.00 0.00 0.01 0.03 0.07 0.03 0.00 0.00 0.00 0.01 0.01 0.02 0.02 0.01 0.01
0.13 0.06 0.01 0.00 0.00 0.00 0.00 0.00 0.00 0.00 0.00 0.00 0.00 0.00 0.00 0.00 0.00 0.00 0.00 0.00 0.00 0.00 0.01 0.02 0.04 0.04 0.04 0.04 0.04 0.04 0.03 0.05 0.02 0.00 0.00 0.00 0.01 0.02 0.06 0.08 0.01 0.00 0.01 0.01 0.02 0.05 0.02 0.01 0.01
0.15 0.18 0.03 0.00 0.00 0.00 0.00 0.00 0.00 0.00 0.00 0.00 0.00 0.01 0.05 0.02 0.01 0.02 0.00 0.00 0.00 0.00 0.01 0.03 0.02 0.02 0.04 0.04 0.03 0.03 0.03 0.05 0.03 0.01 0.00 0.00 0.00 0.00 0.02 0.07 0.05 0.03 0.02 0.05 0.07 0.03 0.02 0.02 0.01
0.04 0.16 0.10 0.00 0.00 0.00 0.00 0.00 0.00 0.00 0.00 0.00 0.00 0.01 0.07 0.02 0.00 0.02 0.02 0.00 0.01 0.05 0.07 0.05 0.02 0.01 0.02 0.03 0.02 0.02 0.02 0.03 0.02 0.01 0.01 0.00 0.00 0.01 0.01 0.01 0.04 0.02 0.05 0.03 0.01 0.02 0.03 0.02 0.00
0.05 0.26 0.21 0.02 0.01 0.01 0.00 0.00 0.00 0.00 0.00 0.00 0.00 0.00 0.01 0.01 0.01 0.03 0.03 0.01 0.02 0.05 0.08 0.08 0.03 0.01 0.02 0.03 0.02 0.01 0.01 0.02 0.01 0.01 0.01 0.00 0.00 0.01 0.00 0.00 0.00 0.01 0.03 0.00 0.00 0.01 0.01 0.00 0.00
0.14 0.14 0.07 0.01 0.00 0.01 0.01 0.00 0.00 0.00 0.00 0.00 0.00 0.01 0.00 0.02 0.04 0.07 0.03 0.02 0.01 0.04 0.05 0.08 0.05 0.00 0.01 0.03 0.02 0.01 0.00 0.01 0.00 0.00 0.00 0.00 0.00 0.01 0.00 0.00 0.00 0.01 0.00 0.00 0.00 0.00 0.00 0.00 0.00
0.05 0.03 0.00 0.01 0.04 0.11 0.03 0.01 0.00 0.00 0.00 0.00 0.00 0.00 0.00 0.05 0.10 0.09 0.04 0.01 0.00 0.02 0.03 0.05 0.08 0.02 0.01 0.02 0.02 0.01 0.00 0.00 0.00 0.00 0.00 0.00 0.00 0.01 0.01 0.00 0.01 0.00 0.00 0.00 0.00 0.00 0.00 0.00 0.00
0.00 0.00 0.00 0.03 0.13 0.09 0.03 0.01 0.00 0.00 0.00 0.00 0.00 0.00 0.00 0.02 0.02 0.03 0.02 0.02 0.02 0.01 0.01 0.03 0.04 0.03 0.04 0.04 0.02 0.00 0.00 0.00 0.00 0.00 0.00 0.00 0.00 0.00 0.01 0.01 0.01 0.01 0.00 0.00 0.00 0.00 0.00 0.00 0.00
0.00 0.00 0.00 0.04 0.05 0.06 0.09 0.04 0.00 0.00 0.00 0.00 0.00 0.00 0.00 0.00 0.00 0.01 0.01 0.00 0.01 0.02 0.02 0.04 0.03 0.01 0.02 0.02 0.06 0.03 0.02 0.00 0.00 0.00 0.00 0.00 0.00 0.00 0.00 0.01 0.02 0.01 0.00 0.00 0.00 0.00 0.00 0.00 0.00
0.00 0.00 0.00 0.02 0.01 0.02 0.09 0.04 0.02 0.00 0.00 0.00 0.00 0.00 0.00 0.00 0.00 0.00 0.00 0.00 0.00 0.02 0.02 0.07 0.06 0.04 0.01 0.01 0.06 0.09 0.06 0.06 0.02 0.00 0.00 0.00 0.00 0.00 0.00 0.00 0.01 0.01 0.00 0.00 0.00 0.00 0.00 0.00 0.00
0.00 0.00 0.00 0.00 0.00 0.00 0.00 0.04 0.01 0.00 0.00 0.00 0.00 0.00 0.00 0.00 0.00 0.00 0.00 0.00 0.00 0.00 0.04 0.04 0.08 0.10 0.04 0.05 0.08 0.12 0.10 0.11 0.05 0.01 0.00 0.00 0.00 0.00 0.00 0.00 0.00 0.00 0.00 0.00 0.00 0.00 0.00 0.00 0.00
0.02 0.00 0.00 0.00 0.00 0.00 0.00 0.00 0.00 0.00 0.00 0.00 0.00 0.00 0.00 0.00 0.00 0.00 0.00 0.00 0.00 0.00 0.01 0.02 0.09 0.06 0.04 0.10 0.25 0.23 0.16 0.13 0.06 0.03 0.01 0.02 0.01 0.00 0.00 0.00 0.00 0.00 0.00 0.00 0.00 0.00 0.00 0.00 0.00
0.04 0.00 0.00 0.00 0.00 0.00 0.00 0.00 0.00 0.00 0.00 0.00 0.00 0.00 0.00 0.00 0.00 0.00 0.00 0.00 0.00 0.00 0.00 0.00 0.02 0.02 0.04 0.18 0.21 0.31 0.18 0.10 0.09 0.08 0.03 0.02 0.02 0.01 0.01 0.00 0.00 0.00 0.00 0.00 0.00 0.00 0.00 0.00 0.00
0.00 0.00 0.00 0.00 0.00 0.00 0.00 0.00 0.00 0.00 0.00 0.00 0.00 0.00 0.00 0.00 0.00 0.00 0.00 0.00 0.00 0.00 0.00 0.00 0.00 0.01 0.07 0.24 0.27 0.29 0.14 0.11 0.11 0.10 0.06 0.10 0.10 0.12 0.08 0.02 0.01 0.00 0.00 0.00 0.00 0.00 0.01 0.00 0.00
0.00 0.00 0.00 0.00 0.00 0.00 0.00 0.00 0.00 0.00 0.00 0.00 0.00 0.00 0.00 0.00 0.00 0.00 0.00 0.00 0.00 0.00 0.00 0.00 0.00 0.01 0.08 0.11 0.09 0.14 0.10 0.13 0.17 0.17 0.23 0.25 0.16 0.16 0.20 0.16 0.10 0.01 0.00 0.00 0.02 0.03 0.06 0.05 0.06
0.00 0.00 0.00 0.00 0.00 0.00 0.00 0.00 0.00 0.00 0.00 0.00 0.00 0.00 0.00 0.00 0.00 0.00 0.00 0.00 0.00 0.00 0.00 0.00 0.00 0.00 0.03 0.09 0.13 0.18 0.19 0.12 0.09 0.15 0.11 0.15 0.12 0.12 0.15 0.17 0.17 0.15 0.06 0.06 0.12 0.13 0.12 0.07 0.07
0.00 0.00 0.00 0.00 0.00 0.00 0.00 0.00 0.00 0.00 0.00 0.00 0.00 0.00 0.00 0.00 0.00 0.00 0.00 0.00 0.00 0.00 0.00 0.00 0.00 0.01 0.04 0.10 0.15 0.20 0.24 0.16 0.09 0.05 0.02 0.05 0.11 0.13 0.18 0.32 0.25 0.14 0.14 0.12 0.17 0.18 0.18 0.11 0.08
0.00 0.00 0.00 0.00 0.00 0.00 0.00 0.00 0.00 0.00 0.00 0.00 0.00 0.00 0.00 0.00 0.00 0.00 0.00 0.00 0.00 0.00 0.00 0.00 0.00 0.01 0.04 0.09 0.08 0.08 0.05 0.06 0.06 0.07 0.16 0.20 0.18 0.21 0.21 0.31 0.35 0.27 0.15 0.14 0.15 0.20 0.18 0.14 0.10
0.00 0.00 0.00 0.00 0.01 0.01 0.00 0.01 0.00 0.00 0.00 0.00 0.00 0.00 0.00 0.00 0.00 0.00 0.00 0.00 0.00 0.00 0.00 0.00 0.00 0.00 0.01 0.09 0.09 0.10 0.06 0.06 0.07 0.13 0.19 0.18 0.18 0.21 0.22 0.23 0.23 0.26 0.21 0.25 0.24 0.20 0.17 0.17 0.15
0.00 0.00 0.00 0.00 0.02 0.04 0.00 0.00 0.00 0.00 0.00 0.00 0.00 0.00 0.00 0.00 0.00 0.00 0.00 0.00 0.00 0.00 0.00 0.00 0.00 0.00 0.01 0.02 0.06 0.07 0.06 0.04 0.09 0.09 0.11 0.13 0.14 0.15 0.16 0.18 0.19 0.26 0.31 0.30 0.30 0.33 0.29 0.24 0.19
0.00 0.04 0.07 0.07 0.10 0.02 0.00 0.00 0.00 0.00 0.00 0.00 0.00 0.00 0.00 0.00 0.00 0.00 0.00 0.00 0.00 0.00 0.00 0.00 0.00 0.00 0.00 0.00 0.02 0.03 0.04 0.06 0.08 0.12 0.14 0.11 0.10 0.08 0.09 0.16 0.18 0.19 0.23 0.27 0.32 0.30 0.29 0.30 0.26
0.00 0.02 0.06 0.02 0.00 0.00 0.00 0.00 0.00 0.00 0.00 0.00 0.00 0.00 0.00 0.00 0.00 0.00 0.00 0.00 0.00 0.00 0.00 0.00 0.00 0.00 0.00 0.01 0.02 0.04 0.05 0.08 0.11 0.14 0.11 0.10 0.10 0.11 0.15 0.15 0.17 0.19 0.21 0.21 0.23 0.24 0.24 0.24 0.24
0.09 0.11 0.04 0.15 0.10 0.12 0.02 0.00 0.00 0.00 0.00 0.00 0.00 0.00 0.00 0.00 0.00 0.00 0.00 0.00 0.00 0.00 0.00 0.00 0.00 0.00 0.01 0.03 0.07 0.06 0.05 0.08 0.08 0.10 0.10 0.11 0.10 0.12 0.15 0.15 0.15 0.18 0.20 0.22 0.24 0.24 0.22 0.22 0.23
0.01 0.03 0.11 0.24 0.15 0.06 0.00 0.00 0.00 0.00 0.00 0.00 0.00 0.00 0.00 0.00 0.00 0.00 0.00 0.00 0.00 0.00 0.00 0.00 0.00 0.02 0.03 0.06 0.10 0.03 0.05 0.07 0.07 0.07 0.05 0.06 0.09 0.10 0.10 0.10 0.12 0.15 0.18 0.19 0.20 0.22 0.19 0.22 0.22
0.02 0.09 0.12 0.17 0.14 0.08 0.03 0.00 0.00 0.00 0.00 0.00 0.00 0.00 0.00 0.00 0.00 0.00 0.00 0.00 0.00 0.00 0.00 0.00 0.01 0.04 0.06 0.05 0.03 0.02 0.04 0.06 0.07 0.07 0.05 0.05 0.07 0.07 0.07 0.08 0.09 0.09 0.09 0.10 0.13 0.17 0.27 0.36 0.42
0.01 0.00 0.04 0.22 0.08 0.13 0.06 0.03 0.00 0.00 0.00 0.00 0.00 0.00 0.00 0.00 0.00 0.00 0.00 0.00 0.00 0.00 0.00 0.00 0.05 0.07 0.03 0.02 0.02 0.02 0.03 0.04 0.05 0.05 0.07 0.07 0.07 0.05 0.05 0.05 0.04 0.04 0.06 0.09 0.10 0.11 0.13 0.17 0.23

GFSSGP_prec_precacc_045.txt.gz
Total_Precipitation_Accumulation
0.00 0.00 0.00 0.00 0.00 0.00 0.00 0.00 0.00 0.00 0.00 0.00 0.00 0.00 0.00 0.00 0.00 0.00 0.00 0.00 0.00 0.00 0.01 0.02 0.05 0.06 0.05 0.04 0.03 0.05 0.06 0.09 0.08 0.09 0.05 0.03 0.01 0.00 0.02 0.01 0.04 0.08 0.13 0.15 0.07 0.02 0.00 0.00 0.00
0.00 0.00 0.00 0.00 0.00 0.00 0.00 0.00 0.00 0.00 0.00 0.00 0.00 0.00 0.00 0.00 0.00 0.00 0.00 0.00 0.00 0.00 0.00 0.01 0.04 0.06 0.03 0.01 0.02 0.04 0.08 0.09 0.06 0.03 0.02 0.00 0.00 0.03 0.05 0.06 0.07 0.06 0.03 0.01 0.00 0.00 0.00 0.00 0.00
0.00 0.00 0.00 0.00 0.00 0.00 0.00 0.00 0.00 0.00 0.00 0.00 0.00 0.00 0.00 0.00 0.00 0.00 0.00 0.00 0.00 0.00 0.00 0.01 0.04 0.06 0.02 0.01 0.02 0.04 0.08 0.06 0.05 0.02 0.00 0.00 0.01 0.03 0.04 0.03 0.01 0.00 0.00 0.00 0.00 0.00 0.00 0.00 0.00
0.00 0.00 0.00 0.00 0.00 0.00 0.00 0.00 0.00 0.00 0.00 0.00 0.00 0.00 0.00 0.00 0.00 0.00 0.00 0.00 0.00 0.00 0.00 0.02 0.04 0.04 0.03 0.03 0.03 0.05 0.06 0.06 0.04 0.01 0.00 0.00 0.02 0.05 0.04 0.00 0.00 0.00 0.00 0.00 0.00 0.00 0.00 0.00 0.00
0.02 0.01 0.00 0.00 0.00 0.00 0.00 0.00 0.00 0.00 0.00 0.00 0.00 0.00 0.00 0.00 0.00 0.00 0.00 0.00 0.00 0.00 0.00 0.02 0.05 0.04 0.04 0.04 0.04 0.04 0.05 0.06 0.03 0.00 0.00 0.00 0.02 0.04 0.07 0.03 0.00 0.00 0.00 0.01 0.01 0.02 0.02 0.01 0.01
0.13 0.06 0.01 0.00 0.00 0.00 0.00 0.00 0.00 0.00 0.00 0.00 0.00 0.00 0.00 0.00 0.00 0.00 0.00 0.00 0.00 0.00 0.01 0.02 0.04 0.04 0.04 0.05 0.04 0.04 0.03 0.05 0.02 0.00 0.00 0.00 0.01 0.03 0.06 0.08 0.01 0.00 0.01 0.01 0.02 0.05 0.02 0.01 0.01
0.15 0.18 0.03 0.00 0.00 0.00 0.00 0.00 0.00 0.00 0.00 0.00 0.00 0.01 0.05 0.02 0.01 0.02 0.00 0.00 0.00 0.00 0.01 0.03 0.02 0.02 0.04 0.04 0.03 0.03 0.03 0.05 0.03 0.01 0.00 0.00 0.00 0.00 0.02 0.07 0.05 0.03 0.02 0.05 0.07 0.03 0.02 0.02 0.01
0.05 0.16 0.10 0.00 0.00 0.00 0.00 0.00 0.00 0.00 0.00 0.00 0.00 0.01 0.07 0.02 0.00 0.02 0.02 0.00 0.01 0.05 0.07 0.05 0.02 0.01 0.02 0.03 0.02 0.02 0.02 0.03 0.02 0.01 0.01 0.00 0.00 0.01 0.01 0.01 0.04 0.02 0.05 0.03 0.01 0.02 0.03 0.02 0.00
0.08 0.27 0.21 0.02 0.02 0.02 0.00 0.00 0.00 0.00 0.00 0.00 0.00 0.00 0.01 0.01 0.01 0.03 0.03 0.01 0.02 0.05 0.08 0.08 0.03 0.01 0.02 0.03 0.02 0.01 0.01 0.02 0.01 0.01 0.01 0.00 0.00 0.01 0.00 0.00 0.00 0.02 0.03 0.00 0.00 0.01 0.01 0.00 0.00
0.28 0.22 0.08 0.01 0.00 0.02 0.01 0.00 0.00 0.00 0.00 0.01 0.02 0.01 0.00 0.02 0.05 0.08 0.03 0.02 0.01 0.04 0.05 0.08 0.05 0.00 0.01 0.03 0.02 0.01 0.00 0.01 0.00 0.00 0.00 0.00 0.00 0.01 0.00 0.00 0.00 0.01 0.00 0.00 0.00 0.00 0.00 0.00 0.00
0.09 0.06 0.00 0.01 0.06 0.15 0.03 0.01 0.00 0.00 0.00 0.00 0.03 0.01 0.04 0.09 0.11 0.09 0.04 0.01 0.00 0.02 0.03 0.05 0.08 0.02 0.01 0.02 0.02 0.01 0.00 0.00 0.00 0.00 0.00 0.00 0.00 0.01 0.01 0.00 0.01 0.00 0.00 0.00 0.00 0.00 0.00 0.00 0.00
0.01 0.00 0.00 0.03 0.14 0.10 0.04 0.03 0.00 0.00 0.00 0.00 0.02 0.05 0.03 0.02 0.02 0.03 0.03 0.02 0.02 0.01 0.01 0.03 0.04 0.03 0.04 0.04 0.02 0.00 0.00 0.00 0.00 0.00 0.00 0.00 0.00 0.00 0.01 0.01 0.01 0.01 0.00 0.00 0.00 0.00 0.00 0.00 0.00
0.02 0.00 0.01 0.05 0.07 0.07 0.11 0.09 0.01 0.00 0.00 0.00 0.01 0.03 0.02 0.00 0.01 0.01 0.02 0.00 0.01 0.02 0.02 0.04 0.03 0.01 0.02 0.02 0.06 0.03 0.02 0.00 0.00 0.00 0.00 0.00 0.00 0.00 0.00 0.01 0.02 0.01 0.00 0.00 0.00 0.00 0.00 0.00 0.00
0.01 0.01 0.02 0.05 0.03 0.05 0.11 0.07 0.12 0.00 0.00 0.00 0.01 0.01 0.01 0.01 0.00 0.01 0.00 0.00 0.00 0.02 0.02 0.07 0.06 0.04 0.01 0.01 0.06 0.09 0.06 0.06 0.02 0.00 0.00 0.00 0.00 0.00 0.00 0.00 0.01 0.01 0.00 0.00 0.00 0.00 0.00 0.00 0.00
0.01 0.03 0.04 0.02 0.03 0.03 0.03 0.13 0.18 0.01 0.00 0.00 0.03 0.02 0.00 0.00 0.00 0.00 0.00 0.01 0.00 0.00 0.04 0.04 0.08 0.10 0.04 0.05 0.08 0.12 0.10 0.11 0.05 0.01 0.00 0.00 0.00 0.00 0.00 0.00 0.00 0.00 0.00 0.00 0.00 0.00 0.00 0.00 0.00
0.02 0.02 0.01 0.00 0.01 0.01 0.02 0.03 0.02 0.01 0.00 0.00 0.00 0.00 0.00 0.00 0.00 0.00 0.00 0.00 0.00 0.00 0.01 0.02 0.09 0.06 0.04 0.10 0.25 0.23 0.16 0.13 0.06 0.03 0.01 0.02 0.01 0.00 0.00 0.00 0.00 0.00 0.00 0.00 0.00 0.00 0.00 0.00 0.00
0.04 0.00 0.00 0.00 0.00 0.00 0.00 0.00 0.01 0.00 0.00 0.00 0.00 0.00 0.00 0.00 0.00 0.00 0.00 0.00 0.00 0.00 0.00 0.00 0.02 0.02 0.04 0.18 0.21 0.31 0.18 0.10 0.09 0.08 0.03 0.02 0.02 0.01 0.01 0.00 0.00 0.00 0.00 0.00 0.00 0.00 0.00 0.00 0.00
0.00 0.00 0.00 0.00 0.00 0.00 0.00 0.00 0.01 0.01 0.00 0.00 0.00 0.00 0.00 0.00 0.00 0.00 0.00 0.00 0.00 0.00 0.00 0.00 0.00 0.01 0.07 0.24 0.27 0.29 0.14 0.11 0.11 0.10 0.06 0.11 0.11 0.12 0.08 0.02 0.01 0.00 0.00 0.00 0.00 0.00 0.01 0.00 0.00
0.00 0.00 0.00 0.00 0.00 0.00 0.00 0.00 0.00 0.01 0.00 0.00 0.00 0.00 0.00 0.00 0.00 0.00 0.00 0.00 0.00 0.00 0.00 0.00 0.00 0.01 0.08 0.11 0.09 0.14 0.10 0.13 0.17 0.17 0.25 0.28 0.20 0.19 0.21 0.16 0.10 0.02 0.00 0.01 0.03 0.06 0.12 0.12 0.14
0.00 0.00 0.00 0.00 0.00 0.00 0.00 0.00 0.00 0.00 0.00 0.00 0.00 0.00 0.00 0.00 0.00 0.00 0.00 0.00 0.00 0.00 0.00 0.00 0.00 0.00 0.03 0.09 0.13 0.18 0.19 0.12 0.09 0.15 0.11 0.15 0.13 0.14 0.17 0.19 0.20 0.16 0.07 0.06 0.13 0.15 0.15 0.10 0.16
0.00 0.00 0.00 0.00 0.00 0.00 0.00 0.00 0.00 0.00 0.00 0.00 0.00 0.00 0.00 0.00 0.00 0.00 0.00 0.00 0.00 0.00 0.00 0.00 0.00 0.01 0.04 0.10 0.15 0.20 0.24 0.16 0.09 0.05 0.02 0.05 0.12 0.14 0.19 0.32 0.25 0.14 0.14 0.12 0.18 0.18 0.19 0.15 0.13
0.00 0.00 0.00 0.00 0.00 0.00 0.00 0.00 0.00 0.00 0.00 0.00 0.00 0.00 0.00 0.00 0.00 0.00 0.00 0.00 0.00 0.00 0.00 0.00 0.00 0.01 0.04 0.09 0.08 0.08 0.05 0.06 0.06 0.07 0.16 0.20 0.18 0.21 0.21 0.31 0.35 0.27 0.15 0.14 0.15 0.20 0.19 0.15 0.11
0.00 0.00 0.00 0.00 0.01 0.01 0.00 0.01 0.00 0.00 0.00 0.00 0.00 0.00 0.00 0.00 0.00 0.00 0.00 0.00 0.00 0.00 0.00 0.00 0.00 0.00 0.01 0.09 0.09 0.10 0.06 0.06 0.07 0.13 0.19 0.18 0.18 0.21 0.22 0.23 0.23 0.26 0.21 0.25 0.24 0.20 0.17 0.17 0.17
0.00 0.00 0.00 0.00 0.02 0.04 0.00 0.00 0.00 0.00 0.00 0.00 0.00 0.00 0.00 0.00 0.00 0.00 0.00 0.00 0.00 0.00 0.00 0.00 0.00 0.00 0.01 0.02 0.06 0.07 0.06 0.04 0.09 0.09 0.11 0.13 0.14 0.15 0.16 0.18 0.19 0.26 0.31 0.31 0.31 0.33 0.30 0.25 0.19
0.00 0.04 0.08 0.08 0.10 0.02 0.00 0.00 0.00 0.00 0.00 0.00 0.00 0.00 0.00 0.00 0.00 0.00 0.00 0.00 0.00 0.00 0.00 0.00 0.00 0.00 0.00 0.00 0.02 0.03 0.04 0.06 0.08 0.12 0.14 0.11 0.10 0.08 0.09 0.16 0.18 0.19 0.24 0.27 0.32 0.30 0.29 0.30 0.26
0.00 0.02 0.06 0.02 0.00 0.00 0.00 0.00 0.00 0.00 0.00 0.00 0.00 0.00 0.00 0.00 0.00 0.00 0.00 0.00 0.00 0.00 0.00 0.00 0.00 0.00 0.00 0.01 0.02 0.04 0.05 0.08 0.11 0.14 0.11 0.10 0.10 0.11 0.15 0.15 0.17 0.19 0.21 0.21 0.23 0.24 0.24 0.24 0.24
0.09 0.11 0.04 0.15 0.10 0.12 0.02 0.00 0.00 0.00 0.00 0.00 0.00 0.00 0.00 0.00 0.00 0.00 0.00 0.00 0.00 0.00 0.00 0.00 0.00 0.00 0.01 0.03 0.07 0.06 0.05 0.08 0.08 0.10 0.10 0.11 0.10 0.12 0.15 0.15 0.15 0.18 0.20 0.22 0.24 0.24 0.22 0.22 0.23
0.01 0.03 0.11 0.24 0.15 0.06 0.00 0.00 0.00 0.00 0.00 0.00 0.00 0.00 0.00 0.00 0.00 0.00 0.00 0.00 0.00 0.00 0.00 0.00 0.00 0.02 0.03 0.06 0.10 0.03 0.05 0.07 0.07 0.07 0.05 0.06 0.09 0.10 0.10 0.10 0.12 0.15 0.18 0.19 0.20 0.22 0.19 0.22 0.22
0.02 0.09 0.12 0.17 0.14 0.08 0.03 0.00 0.00 0.00 0.00 0.00 0.00 0.00 0.00 0.00 0.00 0.00 0.00 0.00 0.00 0.00 0.00 0.00 0.01 0.04 0.06 0.05 0.03 0.02 0.04 0.06 0.07 0.07 0.05 0.05 0.07 0.07 0.07 0.08 0.09 0.09 0.09 0.10 0.13 0.17 0.27 0.36 0.42
0.01 0.00 0.04 0.22 0.08 0.13 0.06 0.03 0.00 0.00 0.00 0.00 0.00 0.00 0.00 0.00 0.00 0.00 0.00 0.00 0.00 0.00 0.00 0.00 0.05 0.07 0.03 0.02 0.02 0.02 0.03 0.04 0.05 0.05 0.07 0.07 0.07 0.05 0.05 0.05 0.04 0.04 0.06 0.09 0.10 0.11 0.13 0.17 0.23

GFSSGP_prec_precacc_048.txt.gz
Total_Precipitation_Accumulation
0.00 0.00 0.00 0.00 0.00 0.00 0.00 0.00 0.00 0.00 0.00 0.00 0.00 0.00 0.00 0.00 0.00 0.00 0.00 0.00 0.00 0.00 0.01 0.02 0.05 0.07 0.05 0.05 0.03 0.05 0.07 0.10 0.08 0.09 0.05 0.03 0.01 0.00 0.02 0.02 0.04 0.08 0.13 0.15 0.07 0.02 0.00 0.00 0.00
0.00 0.00 0.00 0.00 0.00 0.00 0.00 0.00 0.00 0.00 0.00 0.00 0.00 0.00 0.00 0.00 0.00 0.00 0.00 0.00 0.00 0.00 0.00 0.01 0.04 0.07 0.03 0.01 0.02 0.04 0.09 0.10 0.06 0.03 0.02 0.00 0.00 0.03 0.06 0.06 0.07 0.06 0.03 0.01 0.00 0.00 0.00 0.00 0.00
0.00 0.00 0.00 0.00 0.00 0.00 0.00 0.00 0.00 0.00 0.00 0.00 0.00 0.00 0.00 0.00 0.00 0.00 0.00 0.00 0.00 0.00 0.00 0.01 0.04 0.06 0.02 0.01 0.02 0.05 0.08 0.06 0.05 0.02 0.00 0.00 0.01 0.03 0.05 0.04 0.01 0.00 0.00 0.00 0.00 0.00 0.00 0.00 0.00
0.00 0.00 0.00 0.00 0.00 0.00 0.00 0.00 0.00 0.00 0.00 0.00 0.00 0.00 0.00 0.00 0.00 0.00 0.00 0.00 0.00 0.00 0.00 0.03 0.05 0.04 0.03 0.03 0.03 0.06 0.06 0.06 0.04 0.01 0.00 0.01 0.03 0.06 0.05 0.01 0.00 0.00 0.00 0.00 0.00 0.00 0.00 0.00 0.00
0.02 0.01 0.00 0.00 0.00 0.00 0.00 0.00 0.00 0.00 0.00 0.00 0.00 0.00 0.00 0.00 0.00 0.00 0.00 0.00 0.00 0.00 0.00 0.02 0.05 0.04 0.04 0.05 0.06 0.05 0.05 0.06 0.03 0.00 0.00 0.01 0.02 0.05 0.08 0.03 0.00 0.00 0.00 0.01 0.01 0.02 0.02 0.01 0.01
0.13 0.06 0.01 0.00 0.00 0.00 0.00 0.00 0.00 0.00 0.00 0.00 0.00 0.00 0.00 0.00 0.00 0.00 0.00 0.00 0.00 0.00 0.01 0.02 0.05 0.04 0.04 0.06 0.06 0.04 0.03 0.05 0.02 0.00 0.00 0.00 0.02 0.03 0.07 0.08 0.01 0.00 0.01 0.01 0.02 0.05 0.02 0.01 0.01
0.15 0.18 0.03 0.00 0.00 0.00 0.00 0.00 0.00 0.00 0.00 0.00 0.00 0.01 0.05 0.02 0.01 0.02 0.00 0.00 0.00 0.00 0.01 0.03 0.03 0.02 0.04 0.05 0.03 0.03 0.03 0.05 0.03 0.01 0.00 0.00 0.00 0.00 0.03 0.07 0.05 0.03 0.02 0.05 0.07 0.03 0.02 0.02 0.01
0.07 0.16 0.10 0.00 0.00 0.00 0.00 0.00 0.00 0.00 0.00 0.00 0.00 0.01 0.07 0.02 0.00 0.02 0.02 0.01 0.01 0.05 0.07 0.05 0.02 0.01 0.02 0.03 0.02 0.02 0.02 0.03 0.02 0.01 0.01 0.00 0.00 0.01 0.01 0.01 0.04 0.02 0.05 0.03 0.01 0.02 0.03 0.02 0.00
0.16 0.32 0.21 0.02 0.02 0.02 0.00 0.00 0.00 0.00 0.00 0.00 0.00 0.00 0.01 0.01 0.01 0.03 0.03 0.01 0.02 0.05 0.08 0.08 0.03 0.01 0.02 0.03 0.02 0.01 0.01 0.02 0.01 0.01 0.01 0.00 0.00 0.01 0.00 0.00 0.00 0.02 0.03 0.00 0.00 0.01 0.01 0.00 0.00
0.41 0.39 0.09 0.01 0.00 0.02 0.01 0.00 0.00 0.00 0.00 0.02 0.04 0.05 0.02 0.03 0.06 0.10 0.04 0.02 0.01 0.04 0.05 0.08 0.05 0.00 0.01 0.03 0.02 0.01 0.00 0.01 0.00 0.00 0.00 0.00 0.00 0.01 0.00 0.00 0.00 0.01 0.00 0.00 0.00 0.00 0.00 0.00 0.00
0.33 0.17 0.00 0.01 0.06 0.15 0.03 0.01 0.00 0.00 0.00 0.00 0.03 0.07 0.11 0.16 0.16 0.13 0.06 0.01 0.00 0.02 0.03 0.05 0.08 0.02 0.01 0.02 0.02 0.01 0.00 0.00 0.00 0.00 0.00 0.00 0.00 0.01 0.01 0.00 0.01 0.00 0.00 0.00 0.00 0.00 0.00 0.00 0.00
0.05 0.04 0.01 0.03 0.14 0.10 0.05 0.03 0.00 0.00 0.00 0.00 0.02 0.08 0.11 0.10 0.07 0.06 0.04 0.03 0.02 0.01 0.01 0.03 0.04 0.03 0.04 0.04 0.02 0.00 0.00 0.00 0.00 0.00 0.00 0.00 0.00 0.00 0.01 0.01 0.01 0.01 0.00 0.00 0.00 0.00 0.00 0.00 0.00
0.02 0.00 0.03 0.07 0.07 0.07 0.11 0.10 0.01 0.00 0.00 0.00 0.01 0.03 0.04 0.06 0.08 0.06 0.04 0.01 0.01 0.02 0.02 0.04 0.03 0.01 0.02 0.02 0.06 0.03 0.02 0.00 0.00 0.00 0.00 0.00 0.00 0.00 0.00 0.01 0.02 0.01 0.00 0.00 0.00 0.00 0.00 0.00 0.00
0.02 0.02 0.05 0.06 0.03 0.05 0.11 0.07 0.14 0.00 0.00 0.00 0.01 0.02 0.04 0.08 0.08 0.08 0.02 0.00 0.01 0.02 0.02 0.07 0.06 0.04 0.01 0.01 0.06 0.09 0.06 0.06 0.02 0.00 0.00 0.00 0.00 0.00 0.00 0.00 0.01 0.01 0.00 0.00 0.00 0.00 0.00 0.00 0.00
0.04 0.09 0.09 0.05 0.03 0.04 0.05 0.17 0.21 0.01 0.00 0.00 0.03 0.04 0.01 0.04 0.04 0.03 0.04 0.01 0.01 0.00 0.04 0.04 0.08 0.10 0.04 0.05 0.08 0.12 0.10 0.11 0.05 0.01 0.00 0.00 0.00 0.00 0.00 0.00 0.00 0.00 0.00 0.00 0.00 0.00 0.00 0.00 0.00
0.06 0.09 0.07 0.02 0.03 0.05 0.11 0.07 0.02 0.03 0.00 0.00 0.00 0.00 0.00 0.00 0.01 0.03 0.02 0.00 0.00 0.00 0.01 0.02 0.09 0.06 0.04 0.10 0.25 0.23 0.16 0.13 0.06 0.03 0.01 0.02 0.01 0.00 0.00 0.00 0.00 0.00 0.00 0.00 0.00 0.00 0.00 0.00 0.00
0.05 0.01 0.00 0.00 0.00 0.00 0.03 0.01 0.01 0.04 0.02 0.00 0.00 0.00 0.00 0.00 0.00 0.00 0.00 0.00 0.00 0.00 0.00 0.00 0.02 0.02 0.04 0.20 0.21 0.31 0.18 0.10 0.09 0.08 0.03 0.02 0.02 0.01 0.01 0.00 0.00 0.00 0.00 0.00 0.00 0.00 0.00 0.00 0.00
0.00 0.00 0.00 0.00 0.00 0.00 0.00 0.00 0.01 0.01 0.04 0.00 0.00 0.00 0.00 0.00 0.00 0.00 0.00 0.00 0.00 0.00 0.00 0.00 0.00 0.01 0.07 0.26 0.27 0.31 0.15 0.11 0.11 0.10 0.06 0.11 0.11 0.12 0.08 0.02 0.01 0.00 0.00 0.00 0.00 0.00 0.01 0.00 0.01
0.00 0.00 0.00 0.00 0.00 0.00 0.00 0.00 0.00 0.01 0.02 0.02 0.00 0.00 0.00 0.00 0.00 0.00 0.00 0.00 0.00 0.00 0.00 0.00 0.00 0.01 0.08 0.11 0.09 0.14 0.10 0.13 0.17 0.17 0.25 0.28 0.20 0.19 0.22 0.17 0.10 0.02 0.00 0.01 0.03 0.06 0.12 0.14 0.18
0.00 0.00 0.00 0.00 0.00 0.00 0.00 0.00 0.00 0.00 0.00 0.00 0.00 0.00 0.00 0.00 0.00 0.00 0.00 0.00 0.00 0.00 0.00 0.00 0.00 0.00 0.03 0.09 0.13 0.18 0.19 0.12 0.09 0.15 0.11 0.15 0.13 0.14 0.17 0.19 0.20 0.16 0.07 0.06 0.13 0.15 0.15 0.10 0.17
0.00 0.00 0.00 0.00 0.00 0.00 0.00 0.00 0.00 0.00 0.00 0.00 0.00 0.00 0.00 0.00 0.00 0.00 0.00 0.00 0.00 0.00 0.00 0.00 0.00 0.01 0.04 0.10 0.15 0.20 0.24 0.16 0.09 0.05 0.02 0.05 0.12 0.14 0.20 0.33 0.25 0.14 0.14 0.12 0.18 0.18 0.20 0.15 0.13
0.00 0.00 0.00 0.00 0.00 0.00 0.00 0.00 0.00 0.00 0.00 0.00 0.00 0.00 0.00 0.00 0.00 0.00 0.00 0.00 0.00 0.00 0.00 0.00 0.00 0.01 0.04 0.09 0.08 0.08 0.05 0.06 0.06 0.07 0.16 0.20 0.18 0.21 0.21 0.31 0.35 0.27 0.15 0.14 0.15 0.20 0.19 0.16 0.12
0.00 0.00 0.00 0.00 0.01 0.01 0.00 0.01 0.00 0.00 0.00 0.00 0.00 0.00 0.00 0.00 0.00 0.00 0.00 0.00 0.00 0.00 0.00 0.00 0.00 0.00 0.01 0.09 0.09 0.10 0.06 0.06 0.07 0.13 0.19 0.18 0.18 0.21 0.22 0.23 0.23 0.26 0.21 0.25 0.25 0.20 0.17 0.18 0.18
0.00 0.00 0.00 0.00 0.02 0.04 0.00 0.00 0.00 0.00 0.00 0.00 0.00 0.00 0.00 0.00 0.00 0.00 0.00 0.00 0.00 0.00 0.00 0.00 0.00 0.00 0.01 0.02 0.06 0.07 0.06 0.04 0.09 0.09 0.11 0.13 0.14 0.15 0.16 0.18 0.19 0.26 0.31 0.31 0.31 0.34 0.30 0.26 0.21
0.00 0.04 0.08 0.08 0.10 0.02 0.00 0.00 0.00 0.00 0.00 0.00 0.00 0.00 0.00 0.00 0.00 0.00 0.00 0.00 0.00 0.00 0.00 0.00 0.00 0.00 0.00 0.00 0.02 0.03 0.04 0.06 0.08 0.12 0.14 0.11 0.10 0.08 0.09 0.16 0.18 0.19 0.24 0.27 0.32 0.31 0.30 0.31 0.27
0.00 0.02 0.06 0.02 0.01 0.00 0.00 0.00 0.00 0.00 0.00 0.00 0.00 0.00 0.00 0.00 0.00 0.00 0.00 0.00 0.00 0.00 0.00 0.00 0.00 0.00 0.00 0.01 0.02 0.04 0.05 0.08 0.11 0.14 0.11 0.10 0.10 0.11 0.15 0.15 0.17 0.19 0.21 0.21 0.23 0.24 0.24 0.24 0.24
0.09 0.11 0.04 0.15 0.10 0.12 0.02 0.00 0.00 0.00 0.00 0.00 0.00 0.00 0.00 0.00 0.00 0.00 0.00 0.00 0.00 0.00 0.00 0.00 0.00 0.00 0.01 0.03 0.07 0.06 0.05 0.08 0.08 0.10 0.10 0.11 0.10 0.12 0.15 0.15 0.15 0.18 0.20 0.22 0.24 0.24 0.22 0.22 0.23
0.01 0.03 0.11 0.24 0.15 0.06 0.00 0.00 0.00 0.00 0.00 0.00 0.00 0.00 0.00 0.00 0.00 0.00 0.00 0.00 0.00 0.00 0.00 0.00 0.00 0.02 0.03 0.06 0.10 0.03 0.05 0.07 0.07 0.07 0.05 0.06 0.09 0.10 0.10 0.10 0.12 0.15 0.18 0.19 0.20 0.22 0.19 0.22 0.22
0.02 0.09 0.12 0.17 0.14 0.08 0.03 0.00 0.00 0.00 0.00 0.00 0.00 0.00 0.00 0.00 0.00 0.00 0.00 0.00 0.00 0.00 0.00 0.00 0.01 0.04 0.06 0.05 0.03 0.02 0.04 0.06 0.07 0.07 0.05 0.05 0.07 0.07 0.07 0.08 0.09 0.09 0.09 0.10 0.13 0.17 0.27 0.36 0.42
0.01 0.00 0.04 0.22 0.08 0.13 0.06 0.03 0.00 0.00 0.00 0.00 0.00 0.00 0.00 0.00 0.00 0.00 0.00 0.00 0.00 0.00 0.00 0.00 0.05 0.07 0.03 0.02 0.02 0.02 0.03 0.04 0.05 0.05 0.07 0.07 0.07 0.05 0.05 0.05 0.04 0.04 0.06 0.09 0.10 0.11 0.13 0.17 0.23

GFSSGP_prec_precacc_051.txt.gz
Total_Precipitation_Accumulation
0.00 0.00 0.00 0.00 0.00 0.00 0.00 0.00 0.00 0.00 0.00 0.00 0.00 0.00 0.00 0.00 0.00 0.00 0.00 0.00 0.00 0.00 0.01 0.02 0.06 0.07 0.05 0.06 0.03 0.05 0.07 0.10 0.08 0.09 0.05 0.03 0.01 0.01 0.03 0.02 0.04 0.08 0.13 0.15 0.07 0.02 0.00 0.00 0.00
0.00 0.00 0.00 0.00 0.00 0.00 0.00 0.00 0.00 0.00 0.00 0.00 0.00 0.00 0.00 0.00 0.00 0.00 0.00 0.00 0.00 0.00 0.00 0.02 0.05 0.07 0.04 0.01 0.02 0.04 0.09 0.10 0.06 0.03 0.02 0.00 0.00 0.03 0.06 0.06 0.07 0.06 0.03 0.01 0.00 0.00 0.00 0.00 0.00
0.00 0.00 0.00 0.00 0.00 0.00 0.00 0.00 0.00 0.00 0.00 0.00 0.00 0.00 0.00 0.00 0.00 0.00 0.00 0.00 0.00 0.00 0.00 0.02 0.05 0.08 0.03 0.01 0.02 0.05 0.09 0.06 0.05 0.02 0.00 0.00 0.01 0.04 0.06 0.05 0.01 0.00 0.00 0.00 0.00 0.00 0.00 0.00 0.00
0.00 0.00 0.00 0.00 0.00 0.00 0.00 0.00 0.00 0.00 0.00 0.00 0.00 0.00 0.00 0.00 0.00 0.00 0.00 0.00 0.00 0.00 0.00 0.03 0.06 0.05 0.03 0.03 0.03 0.07 0.06 0.06 0.04 0.01 0.00 0.01 0.03 0.07 0.06 0.01 0.00 0.00 0.00 0.00 0.00 0.00 0.00 0.00 0.00
0.02 0.01 0.00 0.00 0.00 0.00 0.00 0.00 0.00 0.00 0.00 0.00 0.00 0.00 0.00 0.00 0.00 0.00 0.00 0.00 0.00 0.00 0.00 0.03 0.06 0.04 0.04 0.05 0.07 0.05 0.05 0.06 0.03 0.00 0.00 0.02 0.04 0.06 0.08 0.03 0.00 0.00 0.00 0.01 0.01 0.02 0.02 0.01 0.01
0.13 0.06 0.01 0.00 0.00 0.00 0.00 0.00 0.00 0.00 0.00 0.00 0.00 0.00 0.00 0.00 0.00 0.01 0.00 0.00 0.00 0.00 0.02 0.03 0.06 0.04 0.04 0.06 0.06 0.04 0.03 0.05 0.02 0.00 0.00 0.01 0.03 0.04 0.07 0.08 0.01 0.00 0.01 0.01 0.02 0.05 0.02 0.01 0.01
0.15 0.18 0.03 0.00 0.00 0.00 0.00 0.00 0.00 0.00 0.00 0.00 0.00 0.01 0.05 0.02 0.01 0.02 0.00 0.00 0.00 0.00 0.02 0.03 0.03 0.02 0.04 0.06 0.03 0.04 0.03 0.05 0.03 0.01 0.00 0.00 0.00 0.01 0.03 0.07 0.05 0.03 0.02 0.05 0.07 0.03 0.02 0.02 0.01
0.11 0.16 0.10 0.00 0.00 0.00 0.00 0.00 0.00 0.00 0.00 0.00 0.00 0.01 0.07 0.02 0.00 0.02 0.02 0.01 0.01 0.05 0.07 0.05 0.02 0.01 0.02 0.05 0.03 0.03 0.02 0.03 0.02 0.01 0.01 0.00 0.00 0.01 0.01 0.01 0.04 0.02 0.05 0.03 0.01 0.02 0.03 0.02 0.00
0.26 0.40 0.21 0.02 0.02 0.02 0.00 0.00 0.00 0.00 0.00 0.00 0.00 0.00 0.01 0.02 0.05 0.05 0.03 0.01 0.02 0.05 0.08 0.08 0.03 0.01 0.02 0.03 0.02 0.02 0.01 0.02 0.01 0.01 0.01 0.00 0.00 0.01 0.00 0.00 0.00 0.02 0.03 0.00 0.00 0.01 0.01 0.00 0.00
0.61 0.63 0.13 0.01 0.00 0.02 0.01 0.00 0.00 0.00 0.00 0.02 0.04 0.05 0.03 0.10 0.15 0.15 0.06 0.03 0.01 0.04 0.05 0.08 0.05 0.00 0.01 0.03 0.02 0.01 0.00 0.01 0.00 0.00 0.00 0.00 0.00 0.01 0.00 0.00 0.00 0.01 0.00 0.00 0.00 0.00 0.00 0.00 0.00
0.56 0.33 0.02 0.01 0.06 0.15 0.03 0.01 0.00 0.00 0.00 0.00 0.03 0.07 0.11 0.22 0.23 0.15 0.08 0.02 0.00 0.02 0.03 0.05 0.08 0.02 0.01 0.02 0.02 0.01 0.00 0.00 0.00 0.00 0.00 0.00 0.00 0.01 0.01 0.00 0.01 0.00 0.00 0.00 0.00 0.00 0.00 0.00 0.00
0.09 0.11 0.04 0.05 0.15 0.10 0.05 0.03 0.00 0.00 0.00 0.00 0.02 0.08 0.11 0.11 0.11 0.13 0.12 0.08 0.03 0.01 0.01 0.03 0.04 0.03 0.04 0.04 0.02 0.00 0.00 0.00 0.00 0.00 0.00 0.00 0.00 0.00 0.01 0.01 0.01 0.01 0.00 0.00 0.00 0.00 0.00 0.00 0.00
0.04 0.01 0.07 0.09 0.09 0.08 0.11 0.10 0.01 0.00 0.00 0.00 0.01 0.03 0.04 0.07 0.10 0.13 0.14 0.06 0.03 0.02 0.02 0.04 0.03 0.01 0.02 0.02 0.06 0.03 0.02 0.00 0.00 0.00 0.00 0.00 0.00 0.00 0.00 0.01 0.02 0.01 0.00 0.00 0.00 0.00 0.00 0.00 0.00
0.04 0.05 0.07 0.07 0.07 0.08 0.11 0.07 0.14 0.00 0.00 0.00 0.01 0.02 0.04 0.08 0.09 0.10 0.07 0.10 0.09 0.04 0.02 0.07 0.06 0.04 0.01 0.01 0.06 0.09 0.06 0.06 0.02 0.00 0.00 0.00 0.00 0.00 0.00 0.00 0.01 0.01 0.00 0.00 0.00 0.00 0.00 0.00 0.00
0.07 0.14 0.16 0.10 0.07 0.09 0.08 0.18 0.21 0.01 0.00 0.00 0.03 0.04 0.01 0.04 0.04 0.04 0.11 0.12 0.10 0.05 0.04 0.04 0.08 0.10 0.04 0.05 0.08 0.12 0.10 0.11 0.05 0.01 0.00 0.00 0.00 0.00 0.00 0.00 0.00 0.00 0.00 0.00 0.00 0.00 0.00 0.00 0.00
0.10 0.18 0.14 0.08 0.05 0.07 0.13 0.08 0.02 0.03 0.00 0.00 0.00 0.00 0.00 0.00 0.01 0.04 0.05 0.06 0.05 0.04 0.02 0.02 0.09 0.06 0.04 0.10 0.25 0.23 0.16 0.13 0.06 0.03 0.01 0.02 0.01 0.00 0.00 0.00 0.00 0.00 0.00 0.00 0.00 0.00 0.00 0.00 0.00
0.07 0.03 0.05 0.04 0.02 0.00 0.03 0.01 0.01 0.04 0.05 0.00 0.00 0.00 0.00 0.00 0.00 0.00 0.00 0.05 0.06 0.03 0.01 0.00 0.02 0.02 0.04 0.21 0.21 0.31 0.18 0.10 0.09 0.08 0.03 0.02 0.02 0.01 0.01 0.00 0.00 0.00 0.00 0.00 0.00 0.00 0.00 0.00 0.00
0.00 0.00 0.00 0.02 0.01 0.00 0.00 0.00 0.01 0.01 0.04 0.00 0.00 0.00 0.00 0.00 0.00 0.00 0.00 0.00 0.00 0.00 0.00 0.00 0.00 0.01 0.07 0.26 0.27 0.31 0.15 0.11 0.11 0.10 0.06 0.11 0.11 0.12 0.08 0.02 0.01 0.00 0.00 0.00 0.00 0.00 0.01 0.00 0.01
0.00 0.00 0.00 0.00 0.00 0.00 0.00 0.00 0.00 0.01 0.03 0.03 0.00 0.00 0.00 0.00 0.00 0.00 0.00 0.00 0.00 0.00 0.00 0.00 0.00 0.01 0.08 0.11 0.09 0.14 0.10 0.13 0.17 0.17 0.25 0.28 0.20 0.19 0.22 0.17 0.10 0.02 0.00 0.01 0.03 0.06 0.12 0.14 0.18
0.00 0.00 0.00 0.00 0.00 0.01 0.00 0.00 0.00 0.00 0.00 0.01 0.00 0.00 0.00 0.00 0.00 0.00 0.00 0.00 0.00 0.00 0.00 0.00 0.00 0.00 0.03 0.09 0.13 0.18 0.19 0.12 0.09 0.15 0.11 0.15 0.13 0.14 0.17 0.19 0.20 0.16 0.07 0.06 0.13 0.15 0.15 0.10 0.17
0.00 0.00 0.00 0.00 0.00 0.00 0.00 0.00 0.00 0.00 0.00 0.00 0.00 0.00 0.00 0.00 0.00 0.00 0.00 0.00 0.00 0.00 0.00 0.00 0.00 0.01 0.04 0.10 0.15 0.20 0.24 0.16 0.09 0.05 0.02 0.05 0.12 0.14 0.20 0.33 0.25 0.14 0.14 0.12 0.18 0.19 0.20 0.16 0.13
0.00 0.00 0.00 0.00 0.00 0.00 0.00 0.00 0.00 0.00 0.00 0.00 0.00 0.00 0.00 0.00 0.00 0.00 0.00 0.00 0.00 0.00 0.00 0.00 0.00 0.01 0.04 0.09 0.08 0.08 0.05 0.06 0.06 0.07 0.16 0.20 0.18 0.21 0.21 0.31 0.35 0.27 0.15 0.14 0.15 0.20 0.19 0.16 0.12
0.00 0.00 0.00 0.00 0.01 0.01 0.00 0.01 0.00 0.00 0.00 0.00 0.00 0.00 0.00 0.00 0.00 0.00 0.00 0.00 0.00 0.00 0.00 0.00 0.00 0.00 0.01 0.09 0.09 0.10 0.06 0.06 0.07 0.13 0.19 0.18 0.18 0.21 0.22 0.23 0.23 0.26 0.21 0.25 0.25 0.20 0.17 0.18 0.18
0.00 0.00 0.00 0.00 0.02 0.04 0.00 0.00 0.00 0.00 0.00 0.00 0.00 0.00 0.00 0.00 0.00 0.00 0.00 0.00 0.00 0.00 0.00 0.00 0.00 0.00 0.01 0.02 0.06 0.07 0.06 0.04 0.09 0.09 0.11 0.13 0.14 0.15 0.16 0.18 0.19 0.26 0.31 0.31 0.31 0.34 0.30 0.27 0.22
0.00 0.04 0.08 0.08 0.10 0.02 0.00 0.00 0.00 0.00 0.00 0.00 0.00 0.00 0.00 0.00 0.00 0.00 0.00 0.00 0.00 0.00 0.00 0.00 0.00 0.00 0.00 0.00 0.02 0.03 0.04 0.06 0.08 0.12 0.14 0.11 0.10 0.08 0.09 0.16 0.18 0.19 0.24 0.27 0.32 0.31 0.30 0.31 0.27
0.00 0.02 0.06 0.02 0.01 0.00 0.00 0.00 0.00 0.00 0.00 0.00 0.00 0.00 0.00 0.00 0.00 0.00 0.00 0.00 0.00 0.00 0.00 0.00 0.00 0.00 0.00 0.01 0.02 0.04 0.05 0.08 0.11 0.14 0.11 0.10 0.10 0.11 0.15 0.15 0.17 0.19 0.21 0.21 0.23 0.24 0.24 0.24 0.24
0.09 0.11 0.04 0.15 0.10 0.12 0.02 0.00 0.00 0.00 0.00 0.00 0.00 0.00 0.00 0.00 0.00 0.00 0.00 0.00 0.00 0.00 0.00 0.00 0.00 0.00 0.01 0.03 0.07 0.06 0.05 0.08 0.08 0.10 0.10 0.11 0.10 0.12 0.15 0.15 0.15 0.18 0.20 0.22 0.24 0.24 0.22 0.22 0.23
0.01 0.03 0.11 0.24 0.15 0.06 0.00 0.00 0.00 0.00 0.00 0.00 0.00 0.00 0.00 0.00 0.00 0.00 0.00 0.00 0.00 0.00 0.00 0.00 0.00 0.02 0.03 0.06 0.10 0.03 0.05 0.07 0.07 0.07 0.05 0.06 0.09 0.10 0.10 0.10 0.12 0.15 0.18 0.19 0.20 0.22 0.19 0.22 0.22
0.02 0.09 0.12 0.17 0.14 0.08 0.03 0.00 0.00 0.00 0.00 0.00 0.00 0.00 0.00 0.00 0.00 0.00 0.00 0.00 0.00 0.00 0.00 0.00 0.01 0.04 0.06 0.05 0.03 0.02 0.04 0.06 0.07 0.07 0.05 0.05 0.07 0.07 0.07 0.08 0.09 0.09 0.09 0.10 0.13 0.17 0.27 0.36 0.42
0.01 0.00 0.04 0.22 0.08 0.13 0.06 0.03 0.00 0.00 0.00 0.00 0.00 0.00 0.00 0.00 0.00 0.00 0.00 0.00 0.00 0.00 0.00 0.00 0.05 0.07 0.03 0.02 0.02 0.02 0.03 0.04 0.05 0.05 0.07 0.07 0.07 0.05 0.05 0.05 0.04 0.04 0.06 0.09 0.10 0.11 0.13 0.17 0.23

GFSSGP_prec_precacc_054.txt.gz
Total_Precipitation_Accumulation
0.00 0.00 0.00 0.00 0.00 0.00 0.00 0.00 0.00 0.00 0.00 0.00 0.00 0.00 0.00 0.00 0.00 0.00 0.00 0.00 0.00 0.00 0.01 0.03 0.07 0.08 0.06 0.07 0.05 0.06 0.08 0.10 0.08 0.09 0.05 0.03 0.01 0.01 0.03 0.02 0.04 0.08 0.13 0.15 0.07 0.02 0.00 0.00 0.00
0.00 0.00 0.00 0.00 0.00 0.00 0.00 0.00 0.00 0.00 0.00 0.00 0.00 0.00 0.00 0.00 0.00 0.00 0.00 0.00 0.00 0.00 0.00 0.02 0.05 0.08 0.05 0.01 0.02 0.05 0.09 0.10 0.06 0.03 0.02 0.00 0.01 0.04 0.06 0.06 0.07 0.06 0.03 0.01 0.00 0.00 0.00 0.00 0.00
0.00 0.00 0.00 0.00 0.00 0.00 0.00 0.00 0.00 0.00 0.00 0.00 0.00 0.00 0.00 0.00 0.00 0.00 0.00 0.00 0.00 0.00 0.00 0.02 0.05 0.08 0.04 0.01 0.02 0.05 0.09 0.06 0.05 0.02 0.00 0.00 0.02 0.05 0.06 0.05 0.01 0.00 0.00 0.00 0.00 0.00 0.00 0.00 0.00
0.00 0.00 0.00 0.00 0.00 0.00 0.00 0.00 0.00 0.00 0.00 0.00 0.00 0.00 0.00 0.00 0.00 0.00 0.00 0.00 0.00 0.00 0.00 0.03 0.06 0.06 0.03 0.04 0.04 0.07 0.06 0.06 0.04 0.01 0.00 0.01 0.04 0.08 0.06 0.01 0.00 0.00 0.00 0.00 0.00 0.00 0.00 0.00 0.00
0.02 0.01 0.00 0.00 0.00 0.00 0.00 0.00 0.00 0.00 0.00 0.00 0.00 0.00 0.00 0.00 0.00 0.00 0.00 0.00 0.00 0.00 0.00 0.03 0.08 0.05 0.04 0.05 0.07 0.05 0.05 0.06 0.03 0.00 0.00 0.02 0.05 0.07 0.08 0.03 0.00 0.00 0.00 0.01 0.01 0.02 0.02 0.01 0.01
0.13 0.06 0.01 0.00 0.00 0.00 0.00 0.00 0.00 0.00 0.00 0.00 0.00 0.00 0.00 0.00 0.00 0.01 0.00 0.00 0.00 0.00 0.02 0.03 0.07 0.04 0.04 0.07 0.07 0.04 0.03 0.05 0.02 0.00 0.01 0.03 0.04 0.04 0.07 0.08 0.01 0.00 0.01 0.01 0.02 0.05 0.02 0.01 0.01
0.15 0.18 0.03 0.00 0.00 0.00 0.00 0.00 0.00 0.00 0.00 0.00 0.00 0.01 0.05 0.02 0.02 0.03 0.01 0.00 0.00 0.01 0.02 0.04 0.04 0.02 0.05 0.07 0.04 0.04 0.03 0.05 0.03 0.01 0.00 0.00 0.00 0.01 0.03 0.07 0.05 0.03 0.02 0.05 0.07 0.03 0.02 0.02 0.01
0.11 0.16 0.10 0.00 0.00 0.00 0.00 0.00 0.00 0.00 0.00 0.00 0.00 0.01 0.07 0.02 0.01 0.03 0.03 0.01 0.01 0.05 0.07 0.05 0.03 0.01 0.03 0.06 0.04 0.03 0.03 0.03 0.02 0.01 0.01 0.00 0.00 0.01 0.01 0.01 0.04 0.02 0.05 0.03 0.01 0.02 0.03 0.02 0.00
0.29 0.43 0.21 0.02 0.02 0.02 0.00 0.00 0.00 0.00 0.00 0.00 0.00 0.00 0.01 0.02 0.06 0.06 0.04 0.01 0.02 0.05 0.08 0.08 0.03 0.01 0.03 0.05 0.03 0.02 0.01 0.02 0.01 0.01 0.01 0.00 0.00 0.01 0.00 0.00 0.00 0.02 0.03 0.00 0.00 0.01 0.01 0.00 0.00
0.64 0.67 0.14 0.01 0.00 0.02 0.01 0.00 0.00 0.00 0.00 0.02 0.04 0.05 0.03 0.11 0.16 0.16 0.06 0.03 0.01 0.04 0.05 0.09 0.05 0.00 0.02 0.04 0.02 0.01 0.00 0.01 0.00 0.00 0.00 0.00 0.00 0.01 0.00 0.00 0.00 0.01 0.00 0.00 0.00 0.00 0.00 0.00 0.00
0.63 0.35 0.02 0.01 0.06 0.15 0.03 0.01 0.00 0.00 0.00 0.00 0.03 0.07 0.12 0.23 0.25 0.16 0.08 0.02 0.00 0.02 0.03 0.05 0.08 0.03 0.02 0.02 0.02 0.01 0.00 0.00 0.00 0.00 0.00 0.00 0.00 0.01 0.01 0.00 0.01 0.00 0.00 0.00 0.00 0.00 0.00 0.00 0.00
0.19 0.17 0.05 0.05 0.15 0.10 0.05 0.03 0.00 0.00 0.00 0.00 0.02 0.08 0.12 0.13 0.12 0.14 0.14 0.09 0.03 0.01 0.01 0.03 0.04 0.03 0.04 0.04 0.03 0.00 0.00 0.00 0.00 0.00 0.00 0.00 0.00 0.00 0.01 0.01 0.01 0.01 0.00 0.00 0.00 0.00 0.00 0.00 0.00
0.05 0.05 0.10 0.13 0.14 0.08 0.11 0.10 0.01 0.00 0.00 0.00 0.01 0.03 0.04 0.07 0.11 0.14 0.15 0.06 0.04 0.02 0.02 0.04 0.03 0.01 0.02 0.02 0.07 0.03 0.02 0.00 0.00 0.00 0.00 0.00 0.00 0.00 0.00 0.01 0.02 0.01 0.00 0.00 0.00 0.00 0.00 0.00 0.00
0.05 0.07 0.09 0.12 0.15 0.11 0.11 0.07 0.14 0.00 0.00 0.00 0.01 0.02 0.04 0.09 0.09 0.10 0.07 0.10 0.14 0.07 0.03 0.07 0.06 0.04 0.01 0.01 0.06 0.09 0.06 0.06 0.02 0.00 0.00 0.00 0.00 0.00 0.00 0.00 0.01 0.01 0.00 0.00 0.00 0.00 0.00 0.00 0.00
0.10 0.16 0.21 0.12 0.09 0.12 0.11 0.19 0.21 0.01 0.00 0.00 0.03 0.04 0.01 0.05 0.04 0.04 0.11 0.13 0.13 0.10 0.08 0.04 0.08 0.10 0.04 0.05 0.08 0.12 0.10 0.11 0.05 0.01 0.00 0.00 0.00 0.00 0.00 0.00 0.00 0.00 0.00 0.00 0.00 0.00 0.00 0.00 0.00
0.13 0.23 0.18 0.10 0.08 0.10 0.16 0.10 0.02 0.03 0.00 0.00 0.00 0.00 0.00 0.00 0.01 0.04 0.05 0.06 0.07 0.07 0.07 0.06 0.09 0.06 0.04 0.10 0.25 0.23 0.16 0.13 0.06 0.03 0.01 0.02 0.01 0.00 0.00 0.00 0.00 0.00 0.00 0.00 0.00 0.00 0.00 0.00 0.00
0.09 0.04 0.06 0.08 0.04 0.01 0.04 0.01 0.01 0.04 0.05 0.00 0.00 0.00 0.00 0.00 0.00 0.00 0.00 0.05 0.07 0.06 0.07 0.06 0.06 0.04 0.05 0.21 0.21 0.31 0.18 0.10 0.09 0.08 0.03 0.02 0.02 0.01 0.01 0.00 0.00 0.00 0.00 0.00 0.00 0.00 0.00 0.00 0.00
0.00 0.00 0.01 0.04 0.03 0.02 0.00 0.00 0.01 0.01 0.04 0.00 0.00 0.00 0.00 0.00 0.00 0.00 0.00 0.00 0.00 0.01 0.02 0.04 0.03 0.04 0.11 0.27 0.28 0.31 0.15 0.11 0.11 0.10 0.06 0.11 0.11 0.12 0.08 0.02 0.01 0.00 0.00 0.00 0.00 0.01 0.01 0.00 0.01
0.00 0.00 0.00 0.01 0.04 0.02 0.01 0.00 0.00 0.01 0.03 0.03 0.00 0.00 0.00 0.00 0.00 0.00 0.00 0.00 0.00 0.00 0.00 0.00 0.01 0.02 0.09 0.11 0.09 0.14 0.10 0.13 0.17 0.17 0.25 0.28 0.20 0.19 0.22 0.17 0.10 0.02 0.00 0.01 0.03 0.06 0.12 0.14 0.18
0.00 0.00 0.00 0.00 0.04 0.06 0.02 0.00 0.00 0.00 0.00 0.01 0.00 0.00 0.00 0.00 0.00 0.00 0.00 0.00 0.00 0.00 0.00 0.00 0.00 0.00 0.03 0.09 0.13 0.18 0.19 0.12 0.09 0.15 0.11 0.15 0.13 0.14 0.17 0.19 0.20 0.16 0.07 0.07 0.13 0.15 0.15 0.10 0.17
0.00 0.00 0.00 0.00 0.01 0.03 0.00 0.00 0.00 0.00 0.00 0.00 0.00 0.00 0.00 0.00 0.00 0.00 0.00 0.00 0.00 0.00 0.00 0.00 0.00 0.01 0.04 0.10 0.15 0.20 0.24 0.16 0.09 0.05 0.02 0.05 0.12 0.14 0.20 0.33 0.25 0.14 0.14 0.12 0.19 0.19 0.21 0.17 0.13
0.00 0.00 0.00 0.00 0.00 0.00 0.00 0.00 0.00 0.00 0.00 0.00 0.00 0.00 0.00 0.00 0.00 0.00 0.00 0.00 0.00 0.00 0.00 0.00 0.00 0.01 0.04 0.09 0.08 0.08 0.05 0.06 0.06 0.07 0.16 0.20 0.18 0.21 0.21 0.31 0.35 0.27 0.15 0.14 0.15 0.20 0.19 0.16 0.12
0.00 0.00 0.00 0.00 0.01 0.01 0.00 0.01 0.00 0.00 0.00 0.00 0.00 0.00 0.00 0.00 0.00 0.00 0.00 0.00 0.00 0.00 0.00 0.00 0.00 0.00 0.01 0.09 0.09 0.10 0.06 0.06 0.07 0.13 0.19 0.18 0.18 0.21 0.22 0.23 0.23 0.26 0.21 0.25 0.25 0.20 0.17 0.18 0.18
0.00 0.00 0.00 0.00 0.02 0.04 0.00 0.00 0.00 0.00 0.00 0.00 0.00 0.00 0.00 0.00 0.00 0.00 0.00 0.00 0.00 0.00 0.00 0.00 0.00 0.00 0.01 0.02 0.06 0.07 0.06 0.04 0.09 0.09 0.11 0.13 0.14 0.15 0.16 0.18 0.19 0.26 0.31 0.31 0.31 0.34 0.30 0.27 0.23
0.00 0.04 0.08 0.09 0.10 0.03 0.00 0.00 0.00 0.00 0.00 0.00 0.00 0.00 0.00 0.00 0.00 0.00 0.00 0.00 0.00 0.00 0.00 0.00 0.00 0.00 0.00 0.00 0.02 0.03 0.04 0.06 0.08 0.12 0.14 0.11 0.10 0.08 0.09 0.16 0.18 0.19 0.24 0.27 0.32 0.31 0.31 0.31 0.28
0.00 0.02 0.06 0.02 0.01 0.00 0.00 0.00 0.00 0.00 0.00 0.00 0.00 0.00 0.00 0.00 0.00 0.00 0.00 0.00 0.00 0.00 0.00 0.00 0.00 0.00 0.00 0.01 0.02 0.04 0.05 0.08 0.11 0.14 0.11 0.10 0.10 0.11 0.15 0.15 0.17 0.19 0.21 0.21 0.23 0.24 0.24 0.24 0.25
0.10 0.12 0.04 0.15 0.10 0.12 0.02 0.00 0.00 0.00 0.00 0.00 0.00 0.00 0.00 0.00 0.00 0.00 0.00 0.00 0.00 0.00 0.00 0.00 0.00 0.00 0.01 0.03 0.07 0.06 0.05 0.08 0.08 0.10 0.10 0.11 0.10 0.12 0.15 0.15 0.15 0.18 0.20 0.22 0.24 0.24 0.22 0.22 0.23
0.01 0.03 0.11 0.24 0.15 0.06 0.00 0.00 0.00 0.00 0.00 0.00 0.00 0.00 0.00 0.00 0.00 0.00 0.00 0.00 0.00 0.00 0.00 0.00 0.00 0.02 0.03 0.06 0.10 0.03 0.05 0.07 0.07 0.07 0.05 0.06 0.09 0.10 0.10 0.10 0.12 0.15 0.18 0.19 0.20 0.22 0.19 0.22 0.22
0.02 0.09 0.12 0.17 0.14 0.08 0.03 0.00 0.00 0.00 0.00 0.00 0.00 0.00 0.00 0.00 0.00 0.00 0.00 0.00 0.00 0.00 0.00 0.00 0.01 0.04 0.06 0.05 0.03 0.02 0.04 0.06 0.07 0.07 0.05 0.05 0.07 0.07 0.07 0.08 0.09 0.09 0.09 0.10 0.13 0.17 0.27 0.36 0.42
0.01 0.00 0.04 0.22 0.08 0.13 0.06 0.03 0.00 0.00 0.00 0.00 0.00 0.00 0.00 0.00 0.00 0.00 0.00 0.00 0.00 0.00 0.00 0.00 0.05 0.07 0.03 0.02 0.02 0.02 0.03 0.04 0.05 0.05 0.07 0.07 0.07 0.05 0.05 0.05 0.04 0.04 0.06 0.09 0.10 0.11 0.13 0.17 0.23

GFSSGP_prec_precacc_057.txt.gz
Total_Precipitation_Accumulation
0.00 0.00 0.00 0.00 0.00 0.00 0.00 0.00 0.00 0.00 0.00 0.00 0.00 0.00 0.00 0.00 0.00 0.00 0.00 0.00 0.00 0.00 0.01 0.03 0.07 0.08 0.07 0.08 0.06 0.07 0.08 0.11 0.09 0.09 0.05 0.05 0.02 0.01 0.03 0.02 0.04 0.08 0.13 0.15 0.08 0.02 0.00 0.00 0.00
0.00 0.00 0.00 0.00 0.00 0.00 0.00 0.00 0.00 0.00 0.00 0.00 0.00 0.00 0.00 0.00 0.00 0.00 0.00 0.00 0.00 0.00 0.00 0.02 0.05 0.08 0.06 0.02 0.03 0.05 0.09 0.10 0.06 0.03 0.02 0.02 0.01 0.04 0.06 0.06 0.07 0.06 0.03 0.01 0.00 0.00 0.00 0.00 0.00
0.00 0.00 0.00 0.00 0.00 0.00 0.00 0.00 0.00 0.00 0.00 0.00 0.00 0.00 0.00 0.00 0.00 0.00 0.00 0.00 0.00 0.00 0.00 0.02 0.05 0.08 0.04 0.01 0.02 0.05 0.09 0.06 0.05 0.02 0.00 0.01 0.03 0.05 0.06 0.05 0.01 0.00 0.00 0.00 0.00 0.00 0.00 0.00 0.00
0.00 0.00 0.00 0.00 0.00 0.00 0.00 0.00 0.00 0.00 0.00 0.00 0.00 0.00 0.00 0.00 0.00 0.00 0.00 0.00 0.00 0.00 0.00 0.03 0.06 0.06 0.04 0.04 0.04 0.07 0.06 0.06 0.04 0.01 0.00 0.02 0.06 0.09 0.06 0.01 0.00 0.00 0.00 0.00 0.00 0.00 0.00 0.00 0.00
0.02 0.01 0.00 0.00 0.00 0.00 0.00 0.00 0.00 0.00 0.00 0.00 0.00 0.00 0.00 0.00 0.00 0.00 0.00 0.00 0.00 0.00 0.00 0.03 0.09 0.06 0.05 0.05 0.07 0.05 0.05 0.06 0.03 0.00 0.00 0.03 0.07 0.07 0.08 0.03 0.00 0.00 0.00 0.01 0.01 0.02 0.02 0.01 0.01
0.13 0.06 0.01 0.00 0.00 0.00 0.00 0.00 0.00 0.00 0.00 0.00 0.00 0.00 0.00 0.00 0.00 0.01 0.00 0.00 0.00 0.00 0.02 0.03 0.08 0.05 0.05 0.08 0.07 0.04 0.03 0.05 0.02 0.00 0.02 0.06 0.05 0.05 0.07 0.08 0.01 0.00 0.01 0.01 0.02 0.05 0.02 0.01 0.01
0.16 0.18 0.03 0.00 0.00 0.00 0.00 0.00 0.00 0.00 0.00 0.00 0.00 0.01 0.05 0.03 0.03 0.03 0.01 0.00 0.00 0.01 0.02 0.04 0.04 0.03 0.06 0.08 0.04 0.04 0.03 0.05 0.03 0.01 0.01 0.01 0.00 0.01 0.03 0.07 0.05 0.03 0.02 0.05 0.07 0.03 0.02 0.02 0.01
0.12 0.16 0.10 0.00 0.00 0.00 0.00 0.00 0.00 0.00 0.00 0.00 0.00 0.01 0.07 0.02 0.02 0.04 0.03 0.01 0.01 0.05 0.08 0.06 0.03 0.01 0.03 0.07 0.04 0.03 0.03 0.03 0.02 0.01 0.01 0.00 0.00 0.01 0.01 0.01 0.04 0.02 0.05 0.03 0.01 0.02 0.03 0.02 0.00
0.31 0.46 0.24 0.03 0.02 0.02 0.00 0.00 0.00 0.00 0.00 0.00 0.00 0.00 0.02 0.03 0.08 0.08 0.05 0.01 0.02 0.06 0.08 0.09 0.04 0.01 0.03 0.06 0.03 0.02 0.01 0.02 0.01 0.01 0.01 0.00 0.00 0.01 0.00 0.00 0.00 0.02 0.03 0.00 0.00 0.01 0.01 0.00 0.00
0.68 0.70 0.15 0.02 0.00 0.02 0.01 0.00 0.00 0.00 0.00 0.02 0.04 0.05 0.03 0.14 0.18 0.17 0.07 0.03 0.01 0.04 0.06 0.10 0.06 0.00 0.02 0.05 0.02 0.01 0.00 0.01 0.00 0.00 0.00 0.00 0.00 0.01 0.00 0.00 0.00 0.01 0.00 0.00 0.00 0.00 0.00 0.00 0.00
0.67 0.37 0.04 0.02 0.07 0.15 0.03 0.01 0.00 0.00 0.00 0.00 0.03 0.07 0.12 0.25 0.26 0.16 0.08 0.02 0.00 0.02 0.03 0.05 0.09 0.03 0.02 0.03 0.02 0.01 0.00 0.00 0.00 0.00 0.00 0.00 0.00 0.01 0.01 0.00 0.01 0.00 0.00 0.00 0.00 0.00 0.00 0.00 0.00
0.24 0.18 0.06 0.08 0.16 0.10 0.05 0.03 0.00 0.00 0.00 0.00 0.02 0.08 0.12 0.16 0.15 0.18 0.15 0.09 0.03 0.01 0.01 0.03 0.04 0.04 0.04 0.05 0.03 0.00 0.00 0.00 0.00 0.00 0.00 0.00 0.00 0.00 0.01 0.01 0.01 0.01 0.00 0.00 0.00 0.00 0.00 0.00 0.00
0.13 0.07 0.11 0.17 0.16 0.09 0.11 0.10 0.01 0.00 0.00 0.00 0.01 0.03 0.04 0.08 0.12 0.16 0.16 0.08 0.05 0.03 0.03 0.04 0.03 0.01 0.02 0.02 0.07 0.03 0.02 0.00 0.00 0.00 0.00 0.00 0.00 0.00 0.00 0.01 0.02 0.01 0.00 0.00 0.00 0.00 0.00 0.00 0.00
0.14 0.11 0.12 0.12 0.16 0.11 0.12 0.08 0.14 0.00 0.00 0.00 0.01 0.02 0.04 0.09 0.10 0.10 0.07 0.10 0.14 0.08 0.05 0.08 0.06 0.04 0.01 0.01 0.06 0.09 0.06 0.06 0.02 0.00 0.00 0.00 0.00 0.00 0.00 0.00 0.01 0.01 0.00 0.00 0.00 0.00 0.00 0.00 0.00
0.16 0.23 0.27 0.14 0.09 0.12 0.13 0.20 0.21 0.01 0.00 0.00 0.03 0.04 0.01 0.05 0.05 0.04 0.11 0.13 0.13 0.10 0.11 0.06 0.09 0.10 0.04 0.05 0.08 0.12 0.10 0.11 0.05 0.01 0.00 0.00 0.00 0.00 0.00 0.00 0.00 0.00 0.00 0.00 0.00 0.00 0.00 0.00 0.00
0.18 0.36 0.25 0.11 0.08 0.10 0.18 0.12 0.02 0.03 0.00 0.00 0.00 0.00 0.00 0.00 0.01 0.04 0.05 0.06 0.07 0.07 0.07 0.06 0.09 0.06 0.04 0.10 0.25 0.23 0.16 0.13 0.06 0.03 0.01 0.02 0.01 0.00 0.00 0.00 0.00 0.00 0.00 0.00 0.00 0.00 0.00 0.00 0.00
0.11 0.08 0.10 0.10 0.05 0.02 0.04 0.02 0.01 0.04 0.05 0.00 0.00 0.00 0.00 0.00 0.00 0.00 0.00 0.05 0.07 0.06 0.07 0.06 0.06 0.04 0.05 0.21 0.21 0.31 0.18 0.10 0.09 0.08 0.03 0.02 0.02 0.01 0.01 0.00 0.00 0.00 0.00 0.00 0.00 0.00 0.00 0.00 0.00
0.00 0.00 0.02 0.05 0.05 0.04 0.02 0.01 0.01 0.01 0.04 0.00 0.00 0.00 0.00 0.00 0.00 0.00 0.00 0.00 0.00 0.01 0.02 0.04 0.03 0.04 0.11 0.27 0.28 0.31 0.15 0.11 0.11 0.10 0.06 0.11 0.11 0.12 0.08 0.02 0.01 0.01 0.00 0.00 0.01 0.01 0.03 0.01 0.01
0.00 0.00 0.01 0.04 0.07 0.05 0.03 0.02 0.00 0.01 0.03 0.03 0.00 0.00 0.00 0.00 0.00 0.00 0.00 0.00 0.00 0.00 0.00 0.00 0.01 0.02 0.09 0.11 0.09 0.14 0.10 0.13 0.17 0.17 0.25 0.28 0.20 0.19 0.22 0.17 0.10 0.02 0.01 0.01 0.04 0.07 0.12 0.14 0.18
0.00 0.00 0.00 0.02 0.05 0.09 0.06 0.02 0.00 0.00 0.00 0.01 0.00 0.00 0.00 0.00 0.00 0.00 0.00 0.00 0.00 0.00 0.00 0.00 0.00 0.00 0.03 0.09 0.13 0.18 0.20 0.12 0.09 0.15 0.11 0.15 0.13 0.14 0.17 0.19 0.20 0.17 0.07 0.07 0.14 0.16 0.16 0.11 0.17
0.00 0.00 0.00 0.01 0.03 0.05 0.02 0.02 0.00 0.00 0.00 0.00 0.00 0.00 0.00 0.00 0.00 0.00 0.00 0.00 0.00 0.00 0.00 0.00 0.00 0.01 0.04 0.10 0.15 0.20 0.24 0.16 0.09 0.05 0.02 0.05 0.12 0.14 0.20 0.33 0.25 0.14 0.15 0.13 0.20 0.21 0.23 0.19 0.14
0.00 0.00 0.00 0.00 0.00 0.00 0.00 0.00 0.00 0.00 0.00 0.00 0.00 0.00 0.00 0.00 0.00 0.00 0.00 0.00 0.00 0.00 0.00 0.00 0.00 0.01 0.04 0.09 0.08 0.08 0.05 0.06 0.06 0.07 0.16 0.20 0.18 0.21 0.21 0.31 0.35 0.27 0.15 0.14 0.15 0.20 0.19 0.16 0.12
0.00 0.00 0.00 0.00 0.01 0.01 0.00 0.01 0.00 0.00 0.00 0.00 0.00 0.00 0.00 0.00 0.00 0.00 0.00 0.00 0.00 0.00 0.00 0.00 0.00 0.00 0.01 0.09 0.09 0.10 0.06 0.06 0.07 0.13 0.19 0.18 0.18 0.21 0.22 0.23 0.23 0.26 0.21 0.25 0.25 0.20 0.17 0.18 0.18
0.00 0.00 0.00 0.00 0.02 0.04 0.00 0.00 0.00 0.00 0.00 0.00 0.00 0.00 0.00 0.00 0.00 0.00 0.00 0.00 0.00 0.00 0.00 0.00 0.00 0.00 0.01 0.02 0.06 0.07 0.06 0.04 0.09 0.09 0.11 0.13 0.14 0.15 0.16 0.18 0.19 0.26 0.31 0.31 0.31 0.34 0.30 0.27 0.23
0.00 0.04 0.09 0.09 0.11 0.03 0.00 0.00 0.00 0.00 0.00 0.00 0.00 0.00 0.00 0.00 0.00 0.00 0.00 0.00 0.00 0.00 0.00 0.00 0.00 0.00 0.00 0.00 0.02 0.03 0.04 0.06 0.08 0.12 0.14 0.11 0.10 0.08 0.09 0.16 0.18 0.19 0.24 0.27 0.32 0.31 0.31 0.31 0.29
0.00 0.02 0.06 0.02 0.01 0.00 0.00 0.00 0.00 0.00 0.00 0.00 0.00 0.00 0.00 0.00 0.00 0.00 0.00 0.00 0.00 0.00 0.00 0.00 0.00 0.00 0.00 0.01 0.02 0.04 0.05 0.08 0.11 0.14 0.11 0.10 0.10 0.11 0.15 0.15 0.17 0.19 0.21 0.21 0.23 0.24 0.25 0.25 0.26
0.10 0.12 0.04 0.15 0.10 0.12 0.02 0.00 0.00 0.00 0.00 0.00 0.00 0.00 0.00 0.00 0.00 0.00 0.00 0.00 0.00 0.00 0.00 0.00 0.00 0.00 0.01 0.03 0.07 0.06 0.05 0.08 0.08 0.10 0.10 0.11 0.10 0.12 0.15 0.15 0.15 0.18 0.20 0.22 0.24 0.24 0.22 0.22 0.23
0.02 0.03 0.11 0.24 0.15 0.06 0.00 0.00 0.00 0.00 0.00 0.00 0.00 0.00 0.00 0.00 0.00 0.00 0.00 0.00 0.00 0.00 0.00 0.00 0.00 0.02 0.03 0.06 0.10 0.03 0.05 0.07 0.07 0.07 0.05 0.06 0.09 0.10 0.10 0.10 0.12 0.15 0.18 0.19 0.20 0.22 0.19 0.22 0.22
0.02 0.09 0.12 0.17 0.14 0.08 0.03 0.00 0.00 0.00 0.00 0.00 0.00 0.00 0.00 0.00 0.00 0.00 0.00 0.00 0.00 0.00 0.00 0.00 0.01 0.04 0.06 0.05 0.03 0.02 0.04 0.06 0.07 0.07 0.05 0.05 0.07 0.07 0.07 0.08 0.09 0.09 0.09 0.10 0.13 0.17 0.27 0.36 0.42
0.01 0.01 0.04 0.22 0.08 0.13 0.06 0.03 0.00 0.00 0.00 0.00 0.00 0.00 0.00 0.00 0.00 0.00 0.00 0.00 0.00 0.00 0.00 0.00 0.05 0.07 0.03 0.02 0.02 0.02 0.03 0.04 0.05 0.05 0.07 0.07 0.07 0.05 0.05 0.05 0.04 0.04 0.06 0.09 0.10 0.11 0.13 0.17 0.23

GFSSGP_prec_precacc_060.txt.gz
Total_Precipitation_Accumulation
0.00 0.00 0.00 0.00 0.00 0.00 0.00 0.00 0.00 0.00 0.00 0.00 0.00 0.00 0.01 0.00 0.00 0.01 0.00 0.00 0.00 0.00 0.01 0.03 0.07 0.09 0.08 0.08 0.06 0.07 0.09 0.11 0.09 0.09 0.07 0.05 0.02 0.01 0.03 0.02 0.04 0.08 0.14 0.16 0.08 0.03 0.00 0.00 0.00
0.00 0.00 0.00 0.00 0.00 0.00 0.00 0.00 0.00 0.00 0.00 0.00 0.00 0.01 0.01 0.00 0.00 0.00 0.00 0.00 0.00 0.00 0.00 0.02 0.06 0.09 0.06 0.02 0.03 0.05 0.09 0.10 0.06 0.03 0.03 0.02 0.01 0.04 0.06 0.06 0.07 0.06 0.03 0.02 0.01 0.00 0.00 0.00 0.00
0.00 0.00 0.00 0.00 0.00 0.00 0.00 0.00 0.00 0.00 0.00 0.00 0.00 0.00 0.00 0.02 0.01 0.00 0.00 0.00 0.00 0.00 0.00 0.02 0.06 0.09 0.04 0.01 0.02 0.05 0.09 0.06 0.05 0.02 0.01 0.02 0.03 0.05 0.06 0.05 0.01 0.00 0.00 0.00 0.00 0.00 0.00 0.00 0.00
0.00 0.00 0.00 0.00 0.00 0.00 0.00 0.00 0.00 0.00 0.00 0.00 0.00 0.00 0.02 0.07 0.02 0.02 0.00 0.00 0.00 0.00 0.00 0.03 0.07 0.07 0.04 0.04 0.04 0.07 0.06 0.06 0.04 0.01 0.01 0.04 0.06 0.09 0.06 0.01 0.00 0.00 0.00 0.00 0.00 0.00 0.00 0.00 0.00
0.02 0.01 0.00 0.00 0.00 0.00 0.00 0.00 0.00 0.00 0.00 0.00 0.00 0.00 0.05 0.01 0.01 0.02 0.00 0.00 0.00 0.00 0.00 0.03 0.09 0.07 0.05 0.05 0.07 0.05 0.05 0.06 0.03 0.00 0.01 0.05 0.07 0.07 0.08 0.03 0.00 0.00 0.00 0.01 0.01 0.02 0.02 0.01 0.01
0.16 0.06 0.02 0.00 0.00 0.00 0.00 0.00 0.00 0.00 0.00 0.00 0.00 0.06 0.07 0.02 0.01 0.03 0.00 0.00 0.00 0.00 0.02 0.03 0.08 0.06 0.05 0.08 0.07 0.04 0.03 0.05 0.02 0.00 0.04 0.07 0.05 0.05 0.07 0.08 0.01 0.00 0.01 0.01 0.02 0.05 0.02 0.01 0.01
0.22 0.18 0.03 0.00 0.00 0.00 0.00 0.00 0.00 0.00 0.00 0.00 0.00 0.01 0.08 0.04 0.03 0.03 0.01 0.00 0.00 0.01 0.02 0.04 0.04 0.03 0.06 0.08 0.04 0.04 0.03 0.05 0.03 0.01 0.02 0.02 0.00 0.01 0.03 0.07 0.05 0.03 0.02 0.05 0.07 0.03 0.02 0.02 0.01
0.14 0.17 0.11 0.00 0.00 0.00 0.00 0.00 0.00 0.00 0.00 0.00 0.00 0.07 0.14 0.04 0.03 0.04 0.03 0.01 0.01 0.05 0.08 0.06 0.03 0.02 0.03 0.07 0.05 0.03 0.03 0.03 0.02 0.01 0.01 0.00 0.00 0.01 0.01 0.01 0.04 0.02 0.05 0.03 0.01 0.02 0.03 0.02 0.00
0.34 0.50 0.24 0.03 0.02 0.02 0.00 0.00 0.00 0.00 0.00 0.00 0.00 0.04 0.08 0.03 0.11 0.09 0.05 0.02 0.03 0.06 0.09 0.10 0.04 0.01 0.03 0.06 0.03 0.02 0.01 0.02 0.01 0.01 0.01 0.00 0.00 0.01 0.00 0.00 0.00 0.02 0.03 0.00 0.00 0.01 0.01 0.00 0.00
0.78 0.84 0.16 0.02 0.01 0.02 0.01 0.00 0.00 0.00 0.00 0.02 0.04 0.05 0.03 0.17 0.20 0.19 0.07 0.04 0.02 0.05 0.08 0.11 0.07 0.00 0.02 0.05 0.02 0.02 0.00 0.01 0.00 0.00 0.00 0.00 0.00 0.01 0.00 0.00 0.00 0.01 0.00 0.00 0.00 0.00 0.00 0.00 0.00
0.75 0.40 0.06 0.05 0.10 0.15 0.03 0.01 0.00 0.00 0.01 0.00 0.03 0.07 0.12 0.29 0.31 0.20 0.08 0.02 0.01 0.03 0.05 0.07 0.09 0.03 0.03 0.03 0.02 0.01 0.00 0.00 0.00 0.00 0.00 0.00 0.00 0.01 0.01 0.00 0.01 0.00 0.00 0.00 0.00 0.00 0.00 0.00 0.00
0.32 0.18 0.09 0.12 0.19 0.11 0.05 0.03 0.00 0.00 0.00 0.00 0.02 0.08 0.12 0.21 0.19 0.25 0.19 0.13 0.05 0.01 0.01 0.04 0.05 0.04 0.05 0.05 0.03 0.00 0.00 0.00 0.00 0.00 0.00 0.00 0.00 0.00 0.01 0.01 0.01 0.01 0.00 0.00 0.00 0.00 0.00 0.00 0.00
0.19 0.10 0.17 0.26 0.20 0.13 0.12 0.10 0.01 0.00 0.00 0.00 0.01 0.03 0.04 0.09 0.15 0.21 0.21 0.11 0.09 0.06 0.04 0.04 0.04 0.01 0.02 0.03 0.07 0.03 0.02 0.00 0.00 0.00 0.00 0.00 0.00 0.00 0.00 0.01 0.02 0.01 0.00 0.00 0.00 0.00 0.00 0.00 0.00
0.21 0.18 0.18 0.23 0.19 0.18 0.14 0.08 0.14 0.00 0.00 0.00 0.01 0.02 0.04 0.09 0.11 0.13 0.11 0.14 0.18 0.13 0.11 0.11 0.06 0.05 0.01 0.01 0.06 0.09 0.06 0.06 0.02 0.00 0.00 0.00 0.00 0.00 0.00 0.00 0.01 0.01 0.00 0.00 0.00 0.00 0.00 0.00 0.00
0.20 0.30 0.39 0.24 0.15 0.15 0.14 0.20 0.21 0.01 0.00 0.00 0.03 0.04 0.01 0.05 0.05 0.04 0.13 0.19 0.16 0.11 0.14 0.11 0.10 0.11 0.04 0.06 0.08 0.12 0.10 0.11 0.05 0.01 0.00 0.00 0.00 0.00 0.00 0.00 0.00 0.00 0.00 0.00 0.00 0.00 0.00 0.00 0.00
0.21 0.50 0.39 0.20 0.17 0.13 0.19 0.12 0.02 0.03 0.00 0.00 0.00 0.00 0.00 0.00 0.01 0.04 0.06 0.06 0.07 0.09 0.08 0.08 0.11 0.08 0.05 0.10 0.25 0.23 0.16 0.13 0.06 0.03 0.01 0.02 0.01 0.00 0.00 0.00 0.00 0.00 0.00 0.00 0.00 0.00 0.00 0.00 0.00
0.17 0.21 0.30 0.17 0.06 0.04 0.04 0.02 0.01 0.04 0.05 0.00 0.00 0.00 0.00 0.00 0.00 0.00 0.00 0.05 0.07 0.06 0.07 0.06 0.07 0.04 0.05 0.21 0.21 0.31 0.18 0.10 0.09 0.08 0.03 0.02 0.02 0.01 0.01 0.00 0.00 0.00 0.00 0.00 0.00 0.00 0.00 0.00 0.01
0.02 0.02 0.09 0.15 0.07 0.04 0.02 0.01 0.01 0.01 0.04 0.00 0.00 0.00 0.00 0.00 0.00 0.00 0.00 0.00 0.00 0.01 0.03 0.04 0.03 0.04 0.11 0.27 0.28 0.31 0.15 0.11 0.11 0.10 0.06 0.11 0.11 0.12 0.08 0.02 0.01 0.01 0.01 0.00 0.01 0.02 0.03 0.01 0.01
0.00 0.00 0.01 0.05 0.10 0.06 0.03 0.02 0.00 0.01 0.03 0.03 0.00 0.00 0.00 0.00 0.00 0.00 0.00 0.00 0.00 0.01 0.01 0.00 0.02 0.02 0.09 0.11 0.09 0.14 0.10 0.13 0.17 0.17 0.25 0.28 0.20 0.19 0.22 0.17 0.10 0.02 0.01 0.01 0.04 0.07 0.13 0.14 0.19
0.00 0.00 0.02 0.07 0.10 0.11 0.07 0.02 0.00 0.00 0.00 0.01 0.00 0.00 0.00 0.00 0.00 0.00 0.00 0.00 0.00 0.01 0.05 0.00 0.00 0.00 0.03 0.09 0.13 0.18 0.20 0.13 0.10 0.15 0.11 0.15 0.13 0.14 0.17 0.19 0.20 0.17 0.08 0.07 0.14 0.16 0.17 0.12 0.18
0.00 0.00 0.03 0.03 0.06 0.06 0.03 0.02 0.00 0.00 0.00 0.00 0.00 0.00 0.00 0.00 0.00 0.00 0.00 0.00 0.00 0.00 0.02 0.07 0.02 0.01 0.04 0.10 0.15 0.20 0.28 0.18 0.11 0.07 0.02 0.05 0.12 0.14 0.20 0.33 0.26 0.14 0.15 0.13 0.20 0.21 0.24 0.19 0.14
0.00 0.00 0.01 0.01 0.01 0.01 0.00 0.00 0.00 0.00 0.00 0.00 0.00 0.00 0.00 0.00 0.00 0.00 0.00 0.00 0.00 0.00 0.00 0.02 0.08 0.07 0.07 0.11 0.10 0.16 0.14 0.10 0.09 0.07 0.16 0.20 0.18 0.21 0.21 0.31 0.35 0.27 0.15 0.14 0.15 0.20 0.19 0.16 0.12
0.00 0.00 0.01 0.02 0.01 0.01 0.00 0.01 0.00 0.00 0.00 0.00 0.00 0.00 0.00 0.00 0.00 0.00 0.00 0.00 0.00 0.00 0.00 0.00 0.01 0.02 0.04 0.11 0.10 0.12 0.08 0.07 0.08 0.13 0.19 0.18 0.18 0.21 0.22 0.23 0.23 0.26 0.21 0.25 0.25 0.20 0.17 0.18 0.18
0.00 0.00 0.00 0.00 0.02 0.04 0.00 0.00 0.00 0.00 0.00 0.00 0.00 0.00 0.00 0.00 0.00 0.00 0.00 0.00 0.00 0.00 0.00 0.00 0.00 0.00 0.01 0.03 0.06 0.08 0.06 0.05 0.09 0.09 0.11 0.13 0.14 0.15 0.16 0.18 0.19 0.26 0.31 0.31 0.31 0.34 0.30 0.27 0.23
0.00 0.04 0.09 0.10 0.11 0.03 0.00 0.00 0.00 0.00 0.00 0.00 0.00 0.00 0.00 0.00 0.00 0.00 0.00 0.00 0.00 0.00 0.00 0.00 0.00 0.00 0.00 0.00 0.02 0.03 0.04 0.06 0.08 0.12 0.14 0.11 0.10 0.08 0.09 0.16 0.18 0.19 0.24 0.27 0.32 0.31 0.31 0.32 0.29
0.01 0.02 0.07 0.03 0.01 0.00 0.00 0.00 0.00 0.00 0.00 0.00 0.00 0.00 0.00 0.00 0.00 0.00 0.00 0.00 0.00 0.00 0.00 0.00 0.00 0.00 0.00 0.01 0.02 0.04 0.05 0.08 0.11 0.14 0.11 0.10 0.10 0.11 0.15 0.15 0.17 0.19 0.21 0.21 0.23 0.25 0.25 0.25 0.26
0.10 0.12 0.04 0.15 0.10 0.12 0.02 0.00 0.00 0.00 0.00 0.00 0.00 0.00 0.00 0.00 0.00 0.00 0.00 0.00 0.00 0.00 0.00 0.00 0.00 0.00 0.01 0.03 0.07 0.06 0.05 0.08 0.08 0.10 0.10 0.11 0.10 0.12 0.15 0.15 0.15 0.18 0.20 0.22 0.24 0.24 0.22 0.22 0.24
0.02 0.03 0.11 0.25 0.15 0.06 0.00 0.00 0.00 0.00 0.00 0.00 0.00 0.00 0.00 0.00 0.00 0.00 0.00 0.00 0.00 0.00 0.00 0.00 0.00 0.02 0.03 0.06 0.10 0.03 0.05 0.07 0.07 0.07 0.05 0.06 0.09 0.10 0.10 0.10 0.12 0.15 0.18 0.19 0.20 0.22 0.19 0.22 0.22
0.02 0.09 0.12 0.17 0.14 0.09 0.03 0.00 0.00 0.00 0.00 0.00 0.00 0.00 0.00 0.00 0.00 0.00 0.00 0.00 0.00 0.00 0.00 0.00 0.01 0.04 0.06 0.05 0.03 0.02 0.04 0.06 0.07 0.07 0.05 0.05 0.07 0.07 0.07 0.08 0.09 0.09 0.09 0.10 0.13 0.17 0.27 0.36 0.42
0.02 0.01 0.04 0.23 0.09 0.13 0.06 0.03 0.00 0.00 0.00 0.00 0.00 0.00 0.00 0.00 0.00 0.00 0.00 0.00 0.00 0.00 0.00 0.00 0.05 0.07 0.03 0.02 0.02 0.02 0.03 0.04 0.05 0.05 0.07 0.07 0.07 0.05 0.05 0.05 0.04 0.04 0.06 0.09 0.10 0.11 0.13 0.17 0.23

GFSSGP_prec_precacc_063.txt.gz
Total_Precipitation_Accumulation
0.00 0.00 0.00 0.00 0.00 0.00 0.00 0.00 0.00 0.00 0.00 0.00 0.00 0.00 0.03 0.01 0.00 0.01 0.00 0.00 0.00 0.00 0.01 0.03 0.07 0.09 0.08 0.09 0.06 0.07 0.09 0.11 0.09 0.10 0.07 0.05 0.02 0.01 0.03 0.02 0.04 0.09 0.14 0.16 0.08 0.03 0.00 0.00 0.00
0.00 0.00 0.00 0.00 0.00 0.00 0.00 0.00 0.00 0.00 0.00 0.00 0.00 0.01 0.07 0.01 0.00 0.00 0.00 0.00 0.00 0.00 0.00 0.02 0.06 0.09 0.07 0.03 0.03 0.05 0.09 0.10 0.07 0.04 0.03 0.02 0.01 0.04 0.06 0.06 0.07 0.06 0.04 0.02 0.01 0.00 0.00 0.00 0.00
0.02 0.03 0.00 0.00 0.00 0.00 0.00 0.00 0.00 0.00 0.00 0.00 0.00 0.01 0.13 0.05 0.01 0.00 0.00 0.00 0.00 0.00 0.00 0.02 0.07 0.10 0.05 0.01 0.02 0.05 0.09 0.06 0.05 0.03 0.02 0.02 0.03 0.05 0.06 0.05 0.01 0.00 0.00 0.00 0.00 0.00 0.00 0.00 0.00
0.06 0.06 0.01 0.00 0.00 0.00 0.00 0.00 0.00 0.00 0.00 0.00 0.00 0.01 0.13 0.24 0.04 0.03 0.00 0.00 0.00 0.00 0.00 0.04 0.08 0.07 0.04 0.04 0.04 0.07 0.06 0.06 0.04 0.01 0.02 0.04 0.06 0.09 0.06 0.01 0.00 0.00 0.00 0.00 0.00 0.00 0.00 0.00 0.00
0.18 0.05 0.00 0.00 0.00 0.00 0.00 0.00 0.00 0.00 0.00 0.00 0.00 0.01 0.13 0.19 0.04 0.02 0.00 0.00 0.00 0.00 0.00 0.04 0.09 0.07 0.05 0.05 0.07 0.05 0.05 0.06 0.03 0.00 0.03 0.06 0.07 0.07 0.08 0.03 0.00 0.00 0.00 0.01 0.01 0.02 0.02 0.01 0.01
0.32 0.12 0.02 0.00 0.00 0.00 0.00 0.00 0.00 0.00 0.00 0.00 0.00 0.06 0.12 0.13 0.05 0.04 0.00 0.00 0.00 0.00 0.02 0.03 0.08 0.06 0.05 0.08 0.07 0.04 0.03 0.05 0.02 0.01 0.05 0.07 0.05 0.05 0.07 0.08 0.01 0.00 0.01 0.01 0.02 0.05 0.02 0.01 0.01
0.33 0.21 0.03 0.00 0.00 0.00 0.00 0.00 0.00 0.00 0.00 0.00 0.00 0.02 0.14 0.15 0.11 0.03 0.02 0.02 0.00 0.01 0.02 0.04 0.04 0.03 0.06 0.08 0.04 0.04 0.03 0.05 0.03 0.01 0.03 0.02 0.00 0.01 0.03 0.07 0.05 0.03 0.02 0.05 0.07 0.03 0.02 0.02 0.01
0.24 0.23 0.11 0.00 0.00 0.00 0.00 0.00 0.00 0.00 0.00 0.00 0.01 0.08 0.16 0.09 0.09 0.05 0.05 0.09 0.03 0.05 0.08 0.06 0.03 0.02 0.03 0.07 0.05 0.03 0.03 0.03 0.02 0.01 0.01 0.00 0.00 0.01 0.01 0.01 0.04 0.02 0.05 0.03 0.01 0.02 0.03 0.02 0.00
0.46 0.57 0.24 0.03 0.02 0.02 0.00 0.00 0.00 0.00 0.00 0.00 0.00 0.06 0.09 0.04 0.12 0.16 0.11 0.11 0.07 0.07 0.09 0.10 0.04 0.01 0.03 0.06 0.03 0.02 0.01 0.02 0.01 0.01 0.01 0.00 0.00 0.01 0.00 0.00 0.00 0.02 0.03 0.00 0.00 0.01 0.01 0.00 0.00
0.91 0.92 0.16 0.03 0.02 0.03 0.01 0.00 0.00 0.00 0.00 0.02 0.04 0.05 0.03 0.18 0.21 0.28 0.32 0.16 0.15 0.09 0.09 0.11 0.07 0.00 0.02 0.05 0.02 0.02 0.00 0.01 0.00 0.00 0.00 0.00 0.00 0.01 0.00 0.00 0.00 0.01 0.00 0.00 0.00 0.00 0.00 0.00 0.00
0.92 0.49 0.08 0.08 0.11 0.15 0.03 0.01 0.00 0.00 0.02 0.00 0.03 0.07 0.13 0.32 0.36 0.29 0.22 0.21 0.13 0.18 0.12 0.08 0.10 0.03 0.03 0.03 0.02 0.01 0.00 0.00 0.00 0.00 0.00 0.00 0.00 0.01 0.01 0.00 0.01 0.00 0.00 0.00 0.00 0.00 0.00 0.00 0.00
0.52 0.26 0.13 0.15 0.21 0.11 0.05 0.03 0.00 0.01 0.00 0.00 0.02 0.08 0.13 0.25 0.23 0.35 0.26 0.19 0.20 0.08 0.05 0.06 0.06 0.06 0.06 0.05 0.03 0.00 0.00 0.00 0.00 0.00 0.00 0.00 0.00 0.00 0.01 0.01 0.01 0.01 0.00 0.00 0.00 0.00 0.00 0.00 0.00
0.33 0.31 0.27 0.35 0.24 0.15 0.12 0.10 0.01 0.00 0.00 0.00 0.01 0.03 0.04 0.10 0.18 0.35 0.33 0.22 0.20 0.16 0.07 0.05 0.05 0.03 0.03 0.03 0.07 0.03 0.02 0.00 0.00 0.00 0.00 0.00 0.00 0.00 0.00 0.01 0.02 0.01 0.00 0.00 0.00 0.00 0.00 0.00 0.00
0.28 0.40 0.33 0.43 0.32 0.21 0.15 0.09 0.14 0.00 0.00 0.00 0.01 0.02 0.04 0.10 0.13 0.20 0.19 0.18 0.31 0.25 0.13 0.12 0.07 0.06 0.02 0.02 0.07 0.09 0.06 0.06 0.02 0.00 0.00 0.00 0.00 0.00 0.00 0.00 0.01 0.01 0.00 0.00 0.00 0.00 0.00 0.00 0.00
0.26 0.39 0.52 0.49 0.33 0.25 0.16 0.21 0.21 0.01 0.00 0.00 0.03 0.04 0.01 0.05 0.05 0.05 0.24 0.31 0.22 0.19 0.22 0.12 0.11 0.12 0.05 0.06 0.08 0.12 0.11 0.11 0.05 0.01 0.00 0.00 0.00 0.00 0.00 0.00 0.00 0.00 0.00 0.00 0.00 0.00 0.00 0.00 0.00
0.26 0.64 0.60 0.31 0.47 0.17 0.20 0.13 0.02 0.03 0.00 0.00 0.00 0.00 0.00 0.00 0.02 0.07 0.10 0.11 0.17 0.18 0.11 0.12 0.13 0.14 0.06 0.11 0.25 0.23 0.16 0.13 0.06 0.03 0.01 0.02 0.01 0.00 0.00 0.00 0.00 0.00 0.00 0.00 0.00 0.00 0.00 0.00 0.00
0.19 0.29 0.36 0.29 0.27 0.24 0.05 0.02 0.01 0.04 0.05 0.00 0.00 0.00 0.00 0.00 0.00 0.00 0.01 0.11 0.09 0.08 0.08 0.09 0.08 0.09 0.06 0.21 0.22 0.32 0.19 0.10 0.10 0.08 0.03 0.02 0.02 0.01 0.01 0.00 0.00 0.00 0.00 0.00 0.00 0.00 0.00 0.00 0.01
0.03 0.02 0.10 0.19 0.16 0.10 0.05 0.01 0.01 0.01 0.04 0.00 0.00 0.00 0.00 0.00 0.00 0.00 0.00 0.01 0.08 0.08 0.05 0.09 0.03 0.04 0.11 0.27 0.28 0.31 0.15 0.12 0.11 0.10 0.06 0.11 0.11 0.12 0.08 0.02 0.01 0.01 0.01 0.00 0.01 0.02 0.03 0.01 0.01
0.00 0.00 0.01 0.05 0.14 0.13 0.04 0.02 0.00 0.01 0.03 0.03 0.00 0.00 0.00 0.00 0.00 0.00 0.00 0.00 0.01 0.07 0.15 0.12 0.09 0.04 0.09 0.11 0.09 0.14 0.10 0.13 0.17 0.17 0.25 0.28 0.20 0.19 0.22 0.17 0.10 0.02 0.01 0.01 0.04 0.07 0.13 0.14 0.19
0.01 0.00 0.03 0.07 0.12 0.13 0.07 0.02 0.00 0.00 0.00 0.01 0.00 0.00 0.00 0.00 0.00 0.00 0.00 0.00 0.00 0.05 0.12 0.10 0.12 0.08 0.03 0.09 0.13 0.18 0.20 0.13 0.10 0.15 0.11 0.15 0.13 0.14 0.18 0.19 0.20 0.17 0.08 0.07 0.14 0.17 0.17 0.12 0.18
0.01 0.00 0.05 0.06 0.13 0.10 0.04 0.02 0.00 0.00 0.00 0.00 0.00 0.00 0.00 0.00 0.00 0.00 0.00 0.00 0.00 0.00 0.03 0.08 0.09 0.06 0.11 0.11 0.16 0.22 0.28 0.19 0.13 0.10 0.02 0.06 0.12 0.15 0.20 0.33 0.26 0.14 0.15 0.13 0.20 0.21 0.24 0.20 0.15
0.00 0.00 0.02 0.09 0.06 0.03 0.01 0.00 0.00 0.00 0.00 0.00 0.00 0.00 0.00 0.00 0.00 0.00 0.00 0.00 0.00 0.00 0.00 0.02 0.16 0.19 0.12 0.15 0.17 0.29 0.24 0.17 0.14 0.11 0.16 0.20 0.18 0.21 0.21 0.31 0.35 0.27 0.15 0.14 0.15 0.20 0.19 0.16 0.12
0.02 0.00 0.04 0.08 0.03 0.02 0.00 0.01 0.00 0.00 0.00 0.00 0.00 0.00 0.00 0.00 0.00 0.00 0.00 0.00 0.00 0.00 0.00 0.00 0.06 0.11 0.20 0.33 0.32 0.28 0.19 0.15 0.12 0.15 0.20 0.20 0.19 0.21 0.22 0.23 0.23 0.26 0.21 0.25 0.25 0.20 0.17 0.18 0.18
0.01 0.01 0.08 0.04 0.03 0.04 0.00 0.00 0.00 0.00 0.00 0.00 0.00 0.00 0.00 0.00 0.00 0.00 0.00 0.00 0.00 0.00 0.00 0.00 0.00 0.01 0.06 0.09 0.14 0.17 0.14 0.10 0.14 0.12 0.13 0.14 0.14 0.15 0.16 0.18 0.19 0.26 0.31 0.31 0.31 0.34 0.30 0.27 0.23
0.00 0.04 0.15 0.13 0.11 0.03 0.00 0.00 0.00 0.00 0.00 0.00 0.00 0.00 0.00 0.00 0.00 0.00 0.00 0.00 0.00 0.00 0.00 0.00 0.00 0.00 0.01 0.03 0.04 0.05 0.05 0.08 0.10 0.13 0.14 0.11 0.10 0.08 0.09 0.16 0.18 0.19 0.24 0.27 0.32 0.31 0.31 0.32 0.29
0.01 0.02 0.07 0.03 0.01 0.00 0.00 0.00 0.00 0.00 0.00 0.00 0.00 0.00 0.00 0.00 0.00 0.00 0.00 0.00 0.00 0.00 0.00 0.00 0.00 0.00 0.00 0.01 0.02 0.05 0.05 0.08 0.11 0.14 0.11 0.10 0.10 0.11 0.15 0.15 0.17 0.19 0.21 0.21 0.23 0.25 0.25 0.25 0.26
0.10 0.12 0.04 0.15 0.10 0.12 0.02 0.00 0.00 0.00 0.00 0.00 0.00 0.00 0.00 0.00 0.00 0.00 0.00 0.00 0.00 0.00 0.00 0.00 0.00 0.00 0.01 0.03 0.07 0.06 0.05 0.08 0.08 0.10 0.10 0.11 0.10 0.12 0.15 0.15 0.15 0.18 0.20 0.22 0.24 0.24 0.22 0.22 0.24
0.02 0.03 0.11 0.25 0.15 0.06 0.00 0.00 0.00 0.00 0.00 0.00 0.00 0.00 0.00 0.00 0.00 0.00 0.00 0.00 0.00 0.00 0.00 0.00 0.00 0.02 0.03 0.06 0.10 0.03 0.05 0.07 0.07 0.07 0.05 0.06 0.09 0.10 0.10 0.10 0.12 0.15 0.18 0.19 0.20 0.22 0.19 0.22 0.22
0.02 0.09 0.12 0.17 0.14 0.09 0.03 0.00 0.00 0.00 0.00 0.00 0.00 0.00 0.00 0.00 0.00 0.00 0.00 0.00 0.00 0.00 0.00 0.00 0.01 0.04 0.06 0.05 0.03 0.02 0.04 0.06 0.07 0.07 0.05 0.05 0.07 0.07 0.07 0.08 0.09 0.09 0.09 0.10 0.13 0.17 0.27 0.36 0.42
0.02 0.01 0.04 0.23 0.09 0.13 0.06 0.03 0.00 0.00 0.00 0.00 0.00 0.00 0.00 0.00 0.00 0.00 0.00 0.00 0.00 0.00 0.00 0.00 0.05 0.07 0.03 0.02 0.02 0.02 0.03 0.04 0.05 0.05 0.07 0.07 0.07 0.05 0.05 0.05 0.04 0.04 0.06 0.09 0.10 0.11 0.13 0.17 0.23

GFSSGP_prec_precacc_066.txt.gz
Total_Precipitation_Accumulation
0.00 0.00 0.00 0.00 0.00 0.00 0.00 0.00 0.00 0.01 0.00 0.00 0.00 0.00 0.03 0.01 0.00 0.01 0.00 0.00 0.00 0.00 0.01 0.03 0.07 0.09 0.09 0.09 0.06 0.07 0.09 0.13 0.10 0.10 0.07 0.05 0.02 0.01 0.03 0.02 0.04 0.09 0.14 0.16 0.08 0.03 0.00 0.00 0.00
0.00 0.01 0.00 0.00 0.00 0.00 0.00 0.00 0.00 0.02 0.01 0.00 0.00 0.02 0.07 0.02 0.00 0.00 0.00 0.00 0.00 0.00 0.00 0.02 0.06 0.09 0.07 0.03 0.03 0.05 0.10 0.10 0.07 0.04 0.03 0.02 0.01 0.04 0.06 0.07 0.07 0.06 0.04 0.02 0.01 0.00 0.00 0.00 0.00
0.05 0.12 0.01 0.00 0.00 0.00 0.00 0.00 0.00 0.00 0.00 0.00 0.00 0.02 0.15 0.05 0.01 0.00 0.00 0.00 0.00 0.00 0.00 0.02 0.07 0.11 0.05 0.01 0.02 0.05 0.09 0.07 0.05 0.03 0.02 0.02 0.03 0.05 0.06 0.05 0.01 0.00 0.00 0.00 0.00 0.00 0.00 0.00 0.00
0.14 0.21 0.05 0.00 0.00 0.00 0.00 0.00 0.00 0.00 0.01 0.00 0.00 0.03 0.20 0.28 0.05 0.04 0.00 0.00 0.00 0.00 0.00 0.04 0.09 0.07 0.04 0.04 0.04 0.07 0.06 0.06 0.05 0.02 0.02 0.04 0.06 0.09 0.06 0.01 0.00 0.00 0.00 0.00 0.00 0.00 0.00 0.00 0.00
0.32 0.15 0.02 0.00 0.00 0.00 0.00 0.00 0.00 0.00 0.00 0.00 0.00 0.06 0.28 0.28 0.07 0.06 0.01 0.00 0.00 0.00 0.00 0.04 0.10 0.07 0.05 0.05 0.07 0.05 0.05 0.06 0.04 0.01 0.03 0.06 0.07 0.07 0.08 0.03 0.00 0.00 0.00 0.01 0.01 0.02 0.02 0.01 0.01
0.47 0.19 0.03 0.00 0.00 0.00 0.00 0.00 0.00 0.00 0.00 0.00 0.00 0.07 0.37 0.43 0.19 0.10 0.01 0.00 0.00 0.00 0.02 0.05 0.09 0.06 0.05 0.08 0.07 0.04 0.03 0.05 0.03 0.02 0.05 0.07 0.05 0.05 0.07 0.08 0.01 0.00 0.01 0.01 0.02 0.05 0.02 0.01 0.01
0.40 0.27 0.05 0.00 0.00 0.00 0.00 0.00 0.00 0.00 0.00 0.00 0.00 0.02 0.28 0.40 0.34 0.14 0.08 0.08 0.00 0.01 0.03 0.05 0.05 0.03 0.06 0.08 0.04 0.04 0.03 0.05 0.04 0.02 0.03 0.02 0.00 0.01 0.03 0.07 0.05 0.03 0.02 0.05 0.07 0.03 0.02 0.02 0.01
0.30 0.31 0.11 0.00 0.00 0.00 0.00 0.00 0.00 0.00 0.00 0.00 0.01 0.08 0.20 0.16 0.17 0.16 0.27 0.21 0.06 0.06 0.08 0.06 0.03 0.02 0.03 0.07 0.05 0.03 0.03 0.03 0.02 0.02 0.01 0.00 0.00 0.01 0.01 0.01 0.04 0.02 0.05 0.03 0.01 0.02 0.03 0.02 0.00
0.55 0.72 0.26 0.03 0.02 0.02 0.00 0.00 0.00 0.00 0.00 0.00 0.00 0.06 0.09 0.05 0.17 0.25 0.34 0.32 0.15 0.09 0.10 0.10 0.04 0.01 0.03 0.06 0.03 0.02 0.01 0.02 0.01 0.01 0.01 0.00 0.00 0.01 0.00 0.00 0.00 0.02 0.03 0.00 0.00 0.01 0.01 0.00 0.00
1.04 1.14 0.21 0.03 0.02 0.03 0.01 0.00 0.00 0.00 0.00 0.03 0.05 0.05 0.03 0.18 0.23 0.44 0.55 0.38 0.34 0.12 0.10 0.11 0.07 0.00 0.02 0.05 0.02 0.02 0.00 0.01 0.00 0.00 0.00 0.00 0.00 0.01 0.00 0.00 0.00 0.01 0.00 0.00 0.00 0.00 0.00 0.00 0.00
1.02 0.66 0.11 0.08 0.11 0.15 0.03 0.01 0.00 0.00 0.02 0.01 0.03 0.07 0.13 0.32 0.36 0.31 0.43 0.54 0.47 0.46 0.18 0.09 0.10 0.04 0.03 0.03 0.02 0.01 0.00 0.00 0.00 0.00 0.00 0.00 0.00 0.01 0.01 0.00 0.01 0.00 0.00 0.00 0.00 0.00 0.00 0.00 0.00
0.57 0.31 0.19 0.17 0.23 0.13 0.05 0.03 0.00 0.01 0.00 0.00 0.02 0.09 0.13 0.25 0.23 0.36 0.27 0.35 0.54 0.47 0.28 0.14 0.06 0.06 0.06 0.05 0.03 0.00 0.00 0.00 0.00 0.00 0.00 0.00 0.00 0.00 0.01 0.01 0.01 0.01 0.00 0.00 0.00 0.00 0.00 0.00 0.00
0.39 0.35 0.33 0.39 0.30 0.18 0.12 0.10 0.02 0.00 0.00 0.00 0.01 0.03 0.08 0.14 0.19 0.36 0.35 0.25 0.30 0.46 0.40 0.23 0.11 0.04 0.03 0.03 0.08 0.03 0.02 0.00 0.00 0.00 0.00 0.00 0.00 0.00 0.00 0.01 0.02 0.01 0.00 0.00 0.00 0.00 0.00 0.00 0.00
0.40 0.44 0.43 0.51 0.40 0.26 0.16 0.09 0.14 0.01 0.00 0.00 0.01 0.02 0.12 0.20 0.17 0.21 0.22 0.19 0.33 0.34 0.32 0.31 0.18 0.12 0.03 0.02 0.07 0.09 0.06 0.06 0.02 0.00 0.00 0.00 0.00 0.00 0.00 0.00 0.01 0.01 0.00 0.00 0.00 0.00 0.00 0.00 0.00
0.39 0.45 0.73 0.68 0.48 0.40 0.19 0.22 0.22 0.01 0.00 0.00 0.03 0.04 0.03 0.12 0.13 0.09 0.26 0.35 0.27 0.29 0.35 0.24 0.21 0.24 0.13 0.09 0.08 0.12 0.11 0.11 0.05 0.01 0.00 0.00 0.00 0.00 0.00 0.00 0.00 0.00 0.00 0.00 0.00 0.00 0.00 0.00 0.00
0.37 0.78 0.80 0.67 0.67 0.47 0.34 0.15 0.03 0.03 0.00 0.00 0.00 0.00 0.00 0.00 0.06 0.11 0.13 0.16 0.27 0.30 0.21 0.16 0.15 0.16 0.11 0.13 0.26 0.24 0.17 0.13 0.06 0.03 0.01 0.02 0.01 0.00 0.00 0.00 0.00 0.00 0.00 0.00 0.00 0.00 0.00 0.00 0.00
0.36 0.50 0.56 0.59 0.44 0.52 0.36 0.10 0.01 0.04 0.05 0.00 0.00 0.00 0.00 0.00 0.00 0.00 0.02 0.14 0.11 0.13 0.18 0.15 0.16 0.16 0.09 0.21 0.22 0.33 0.22 0.11 0.10 0.09 0.03 0.02 0.02 0.01 0.01 0.00 0.00 0.00 0.00 0.00 0.00 0.00 0.00 0.00 0.01
0.08 0.12 0.24 0.37 0.30 0.35 0.24 0.12 0.02 0.02 0.04 0.00 0.00 0.00 0.00 0.00 0.00 0.00 0.00 0.02 0.13 0.14 0.18 0.27 0.11 0.08 0.15 0.29 0.28 0.31 0.17 0.14 0.13 0.10 0.06 0.11 0.11 0.12 0.08 0.02 0.01 0.01 0.01 0.00 0.01 0.02 0.03 0.01 0.02
0.00 0.01 0.04 0.10 0.21 0.24 0.16 0.05 0.02 0.01 0.03 0.03 0.00 0.00 0.00 0.00 0.00 0.00 0.00 0.00 0.03 0.13 0.26 0.25 0.21 0.12 0.10 0.12 0.10 0.14 0.10 0.14 0.17 0.17 0.25 0.28 0.20 0.19 0.22 0.17 0.10 0.02 0.01 0.01 0.04 0.07 0.13 0.15 0.19
0.02 0.01 0.03 0.09 0.13 0.18 0.15 0.03 0.00 0.00 0.00 0.01 0.00 0.00 0.00 0.00 0.00 0.00 0.00 0.00 0.00 0.08 0.15 0.18 0.18 0.21 0.05 0.09 0.14 0.18 0.20 0.13 0.10 0.15 0.11 0.16 0.13 0.15 0.18 0.20 0.21 0.17 0.08 0.07 0.15 0.17 0.18 0.12 0.19
0.02 0.00 0.05 0.06 0.13 0.12 0.09 0.07 0.00 0.00 0.00 0.00 0.00 0.00 0.00 0.00 0.00 0.00 0.00 0.00 0.00 0.00 0.03 0.08 0.09 0.08 0.16 0.19 0.30 0.25 0.28 0.19 0.13 0.10 0.02 0.06 0.13 0.15 0.21 0.34 0.26 0.14 0.15 0.13 0.20 0.21 0.25 0.20 0.15
0.00 0.00 0.03 0.10 0.09 0.08 0.03 0.00 0.00 0.00 0.00 0.00 0.00 0.00 0.00 0.00 0.00 0.00 0.00 0.00 0.00 0.00 0.00 0.03 0.20 0.24 0.25 0.28 0.39 0.52 0.48 0.40 0.33 0.27 0.21 0.22 0.21 0.24 0.23 0.31 0.35 0.27 0.15 0.14 0.15 0.20 0.19 0.16 0.12
0.02 0.00 0.07 0.11 0.08 0.06 0.03 0.01 0.00 0.00 0.00 0.00 0.00 0.00 0.00 0.00 0.00 0.00 0.00 0.00 0.00 0.00 0.00 0.02 0.16 0.20 0.26 0.43 0.45 0.47 0.31 0.24 0.25 0.29 0.40 0.39 0.38 0.36 0.31 0.28 0.24 0.26 0.21 0.25 0.25 0.20 0.17 0.18 0.18
0.01 0.01 0.11 0.08 0.07 0.07 0.00 0.00 0.00 0.00 0.00 0.00 0.00 0.00 0.00 0.00 0.00 0.00 0.00 0.00 0.00 0.00 0.00 0.00 0.05 0.08 0.10 0.16 0.24 0.30 0.24 0.20 0.22 0.23 0.26 0.24 0.21 0.20 0.20 0.20 0.19 0.26 0.31 0.31 0.31 0.34 0.30 0.27 0.23
0.00 0.04 0.30 0.26 0.21 0.04 0.00 0.00 0.00 0.00 0.00 0.00 0.00 0.00 0.00 0.00 0.00 0.00 0.00 0.00 0.00 0.00 0.00 0.00 0.00 0.02 0.04 0.12 0.12 0.14 0.13 0.12 0.15 0.18 0.18 0.14 0.11 0.09 0.10 0.16 0.18 0.19 0.24 0.27 0.32 0.31 0.31 0.32 0.29
0.01 0.03 0.12 0.07 0.02 0.00 0.00 0.00 0.00 0.00 0.00 0.00 0.00 0.00 0.00 0.00 0.00 0.00 0.00 0.00 0.00 0.00 0.00 0.00 0.00 0.00 0.00 0.03 0.05 0.16 0.15 0.12 0.14 0.16 0.13 0.11 0.10 0.11 0.15 0.15 0.17 0.19 0.21 0.21 0.23 0.25 0.25 0.25 0.26
0.10 0.12 0.04 0.15 0.10 0.12 0.02 0.00 0.00 0.00 0.00 0.00 0.00 0.00 0.00 0.00 0.00 0.00 0.00 0.00 0.00 0.00 0.00 0.00 0.00 0.00 0.01 0.03 0.07 0.07 0.07 0.11 0.10 0.10 0.10 0.11 0.10 0.12 0.15 0.15 0.15 0.18 0.20 0.22 0.24 0.24 0.22 0.22 0.24
0.02 0.03 0.11 0.25 0.15 0.06 0.00 0.00 0.00 0.00 0.00 0.00 0.00 0.00 0.00 0.00 0.00 0.00 0.00 0.00 0.00 0.00 0.00 0.00 0.00 0.02 0.03 0.06 0.10 0.03 0.05 0.07 0.07 0.07 0.05 0.06 0.09 0.10 0.10 0.10 0.12 0.15 0.18 0.19 0.20 0.22 0.19 0.22 0.22
0.02 0.09 0.12 0.17 0.14 0.09 0.03 0.00 0.00 0.00 0.00 0.00 0.00 0.00 0.00 0.00 0.00 0.00 0.00 0.00 0.00 0.00 0.00 0.00 0.01 0.04 0.06 0.05 0.03 0.02 0.04 0.06 0.07 0.07 0.05 0.05 0.07 0.07 0.07 0.08 0.09 0.09 0.09 0.10 0.13 0.17 0.27 0.36 0.42
0.02 0.01 0.04 0.23 0.09 0.13 0.06 0.03 0.00 0.00 0.00 0.00 0.00 0.00 0.00 0.00 0.00 0.00 0.00 0.00 0.00 0.00 0.00 0.00 0.05 0.07 0.03 0.02 0.02 0.02 0.03 0.04 0.05 0.05 0.07 0.07 0.07 0.05 0.05 0.05 0.04 0.04 0.06 0.09 0.10 0.11 0.13 0.17 0.23

GFSSGP_prec_precacc_069.txt.gz
Total_Precipitation_Accumulation
0.01 0.01 0.00 0.01 0.00 0.01 0.00 0.00 0.00 0.01 0.01 0.00 0.00 0.00 0.03 0.01 0.00 0.01 0.00 0.00 0.00 0.00 0.02 0.03 0.08 0.11 0.10 0.09 0.06 0.07 0.10 0.14 0.10 0.10 0.07 0.05 0.02 0.02 0.03 0.02 0.04 0.09 0.14 0.16 0.08 0.03 0.00 0.00 0.00
0.03 0.04 0.03 0.06 0.01 0.00 0.00 0.00 0.00 0.04 0.02 0.00 0.00 0.03 0.08 0.02 0.00 0.01 0.01 0.00 0.00 0.00 0.01 0.02 0.07 0.10 0.07 0.03 0.03 0.06 0.10 0.10 0.07 0.04 0.03 0.02 0.01 0.04 0.07 0.07 0.07 0.06 0.04 0.02 0.01 0.00 0.00 0.00 0.00
0.12 0.24 0.09 0.05 0.01 0.00 0.00 0.00 0.00 0.00 0.00 0.00 0.00 0.05 0.18 0.07 0.02 0.00 0.00 0.01 0.00 0.00 0.01 0.03 0.08 0.11 0.05 0.01 0.02 0.06 0.09 0.07 0.05 0.03 0.02 0.02 0.03 0.05 0.06 0.05 0.01 0.00 0.00 0.00 0.00 0.00 0.00 0.00 0.00
0.37 0.35 0.16 0.01 0.00 0.00 0.00 0.00 0.00 0.01 0.05 0.03 0.00 0.08 0.30 0.32 0.06 0.04 0.00 0.00 0.00 0.01 0.02 0.05 0.10 0.08 0.04 0.04 0.04 0.07 0.06 0.06 0.05 0.02 0.02 0.04 0.06 0.09 0.06 0.01 0.00 0.00 0.00 0.00 0.00 0.00 0.00 0.00 0.00
0.61 0.27 0.10 0.03 0.00 0.00 0.00 0.00 0.00 0.01 0.03 0.04 0.00 0.08 0.42 0.37 0.09 0.06 0.01 0.00 0.00 0.01 0.03 0.05 0.11 0.08 0.05 0.05 0.07 0.06 0.06 0.07 0.04 0.01 0.03 0.06 0.07 0.07 0.08 0.03 0.00 0.00 0.00 0.01 0.01 0.02 0.02 0.01 0.01
0.69 0.30 0.18 0.09 0.00 0.00 0.00 0.00 0.00 0.00 0.01 0.03 0.01 0.07 0.43 0.60 0.34 0.13 0.02 0.00 0.00 0.01 0.05 0.06 0.10 0.06 0.05 0.08 0.07 0.04 0.04 0.07 0.03 0.02 0.05 0.07 0.05 0.05 0.07 0.08 0.01 0.00 0.01 0.01 0.02 0.05 0.02 0.01 0.01
0.58 0.42 0.22 0.04 0.00 0.00 0.00 0.00 0.00 0.00 0.00 0.01 0.01 0.03 0.30 0.94 0.57 0.32 0.20 0.11 0.00 0.02 0.05 0.08 0.07 0.03 0.06 0.08 0.04 0.04 0.04 0.07 0.05 0.02 0.03 0.02 0.00 0.01 0.03 0.07 0.05 0.03 0.02 0.05 0.07 0.03 0.02 0.02 0.01
0.41 0.49 0.24 0.02 0.00 0.00 0.00 0.00 0.00 0.00 0.00 0.00 0.01 0.09 0.21 0.55 0.68 0.46 0.48 0.38 0.08 0.07 0.08 0.07 0.04 0.02 0.03 0.07 0.05 0.03 0.03 0.04 0.03 0.02 0.01 0.00 0.00 0.01 0.01 0.01 0.04 0.02 0.05 0.03 0.01 0.02 0.03 0.02 0.00
0.64 0.91 0.42 0.04 0.02 0.02 0.00 0.00 0.00 0.01 0.00 0.00 0.00 0.06 0.09 0.07 0.34 0.59 0.62 0.56 0.21 0.12 0.10 0.10 0.04 0.01 0.03 0.06 0.03 0.02 0.01 0.02 0.01 0.01 0.01 0.00 0.00 0.01 0.00 0.00 0.00 0.02 0.03 0.00 0.00 0.01 0.01 0.00 0.00
1.17 1.28 0.32 0.04 0.02 0.03 0.01 0.00 0.00 0.00 0.01 0.08 0.08 0.05 0.03 0.19 0.31 0.55 0.84 0.70 0.54 0.15 0.11 0.11 0.07 0.00 0.02 0.05 0.02 0.02 0.00 0.01 0.00 0.00 0.00 0.00 0.00 0.01 0.00 0.00 0.00 0.01 0.00 0.00 0.00 0.00 0.00 0.00 0.00
1.18 0.79 0.13 0.09 0.13 0.16 0.03 0.01 0.00 0.00 0.04 0.02 0.08 0.09 0.13 0.32 0.36 0.36 0.60 0.77 0.81 0.77 0.22 0.09 0.10 0.04 0.03 0.03 0.02 0.01 0.00 0.00 0.00 0.00 0.00 0.00 0.00 0.01 0.01 0.00 0.01 0.00 0.00 0.00 0.00 0.00 0.00 0.00 0.00
0.87 0.40 0.22 0.19 0.28 0.15 0.05 0.04 0.00 0.01 0.00 0.00 0.09 0.12 0.13 0.25 0.23 0.36 0.31 0.44 0.69 0.85 0.61 0.32 0.08 0.06 0.06 0.05 0.03 0.00 0.00 0.00 0.00 0.00 0.00 0.00 0.00 0.00 0.01 0.01 0.01 0.01 0.00 0.00 0.00 0.00 0.00 0.00 0.00
0.63 0.50 0.38 0.44 0.33 0.21 0.13 0.10 0.02 0.00 0.00 0.00 0.01 0.09 0.13 0.17 0.20 0.37 0.36 0.28 0.34 0.68 0.77 0.59 0.38 0.09 0.05 0.03 0.08 0.03 0.02 0.00 0.00 0.00 0.00 0.00 0.00 0.00 0.00 0.01 0.02 0.01 0.00 0.00 0.00 0.00 0.00 0.00 0.00
0.60 0.68 0.49 0.58 0.45 0.32 0.18 0.09 0.14 0.01 0.00 0.00 0.03 0.09 0.21 0.22 0.19 0.21 0.22 0.21 0.34 0.34 0.40 0.62 0.53 0.41 0.14 0.06 0.15 0.15 0.07 0.06 0.02 0.00 0.00 0.00 0.00 0.00 0.00 0.00 0.01 0.01 0.00 0.00 0.00 0.00 0.00 0.00 0.00
0.64 0.73 0.89 0.76 0.56 0.46 0.23 0.24 0.23 0.01 0.00 0.00 0.03 0.05 0.15 0.19 0.19 0.14 0.27 0.36 0.28 0.30 0.38 0.32 0.43 0.52 0.38 0.30 0.28 0.24 0.16 0.13 0.05 0.01 0.00 0.00 0.00 0.00 0.00 0.00 0.00 0.00 0.00 0.00 0.00 0.00 0.00 0.00 0.00
0.61 1.12 0.93 0.75 0.94 0.72 0.39 0.16 0.03 0.03 0.00 0.00 0.00 0.01 0.08 0.11 0.20 0.20 0.18 0.22 0.34 0.35 0.24 0.19 0.17 0.24 0.22 0.37 0.47 0.37 0.24 0.14 0.06 0.03 0.01 0.02 0.01 0.00 0.00 0.00 0.00 0.00 0.00 0.00 0.00 0.00 0.00 0.00 0.00
0.51 0.91 0.64 0.66 0.64 1.01 0.52 0.12 0.02 0.04 0.05 0.00 0.00 0.00 0.00 0.02 0.02 0.03 0.14 0.24 0.17 0.18 0.27 0.26 0.18 0.21 0.16 0.36 0.35 0.42 0.31 0.14 0.10 0.09 0.03 0.02 0.02 0.01 0.01 0.00 0.00 0.00 0.00 0.00 0.00 0.00 0.00 0.00 0.01
0.11 0.33 0.29 0.41 0.42 0.57 0.50 0.22 0.03 0.02 0.04 0.00 0.00 0.00 0.00 0.00 0.01 0.01 0.04 0.15 0.19 0.16 0.25 0.33 0.16 0.19 0.28 0.47 0.46 0.43 0.22 0.19 0.16 0.11 0.10 0.13 0.11 0.12 0.08 0.02 0.01 0.01 0.01 0.00 0.01 0.02 0.03 0.01 0.02
0.01 0.07 0.13 0.17 0.34 0.33 0.36 0.22 0.15 0.02 0.03 0.03 0.00 0.00 0.00 0.00 0.00 0.00 0.01 0.05 0.14 0.18 0.40 0.32 0.31 0.25 0.24 0.28 0.21 0.22 0.16 0.18 0.20 0.21 0.26 0.29 0.20 0.19 0.22 0.17 0.10 0.02 0.01 0.01 0.04 0.07 0.13 0.15 0.19
0.03 0.03 0.22 0.29 0.25 0.29 0.26 0.14 0.15 0.09 0.01 0.01 0.00 0.00 0.00 0.00 0.00 0.00 0.00 0.00 0.01 0.13 0.25 0.19 0.20 0.23 0.06 0.12 0.16 0.22 0.30 0.19 0.11 0.16 0.11 0.16 0.14 0.15 0.18 0.20 0.21 0.17 0.08 0.07 0.15 0.17 0.18 0.12 0.19
0.03 0.01 0.11 0.16 0.21 0.20 0.16 0.09 0.07 0.12 0.02 0.00 0.00 0.00 0.00 0.00 0.00 0.00 0.00 0.00 0.00 0.02 0.08 0.12 0.10 0.08 0.16 0.20 0.36 0.33 0.41 0.23 0.15 0.11 0.02 0.07 0.14 0.18 0.24 0.36 0.28 0.17 0.17 0.13 0.20 0.21 0.25 0.20 0.15
0.00 0.00 0.03 0.11 0.11 0.11 0.06 0.02 0.00 0.01 0.00 0.00 0.00 0.00 0.00 0.00 0.00 0.00 0.00 0.00 0.00 0.00 0.01 0.07 0.30 0.38 0.42 0.49 0.64 0.69 0.71 0.59 0.46 0.41 0.35 0.32 0.33 0.40 0.39 0.45 0.46 0.34 0.19 0.15 0.15 0.20 0.19 0.16 0.12
0.03 0.00 0.11 0.13 0.09 0.06 0.04 0.02 0.00 0.00 0.00 0.00 0.00 0.00 0.00 0.00 0.00 0.00 0.00 0.00 0.00 0.00 0.00 0.04 0.20 0.26 0.32 0.49 0.56 0.67 0.55 0.46 0.37 0.36 0.49 0.51 0.53 0.55 0.52 0.48 0.36 0.32 0.24 0.27 0.25 0.20 0.17 0.18 0.18
0.01 0.01 0.21 0.11 0.13 0.10 0.00 0.00 0.00 0.00 0.00 0.00 0.00 0.00 0.00 0.00 0.00 0.00 0.00 0.00 0.00 0.00 0.00 0.00 0.05 0.08 0.12 0.18 0.28 0.38 0.31 0.32 0.34 0.32 0.34 0.33 0.31 0.28 0.26 0.24 0.20 0.27 0.31 0.31 0.31 0.34 0.30 0.27 0.23
0.00 0.04 0.37 0.32 0.33 0.09 0.00 0.00 0.00 0.00 0.00 0.00 0.00 0.00 0.00 0.00 0.00 0.00 0.00 0.00 0.00 0.00 0.00 0.00 0.00 0.02 0.05 0.17 0.21 0.27 0.21 0.20 0.24 0.28 0.29 0.22 0.18 0.13 0.11 0.17 0.18 0.19 0.24 0.27 0.32 0.31 0.31 0.32 0.29
0.01 0.03 0.12 0.07 0.04 0.01 0.00 0.00 0.00 0.00 0.00 0.00 0.00 0.00 0.00 0.00 0.00 0.00 0.00 0.00 0.00 0.00 0.00 0.00 0.00 0.00 0.01 0.06 0.12 0.22 0.26 0.24 0.24 0.27 0.21 0.17 0.14 0.13 0.17 0.16 0.17 0.19 0.21 0.21 0.23 0.25 0.25 0.25 0.26
0.11 0.12 0.04 0.16 0.10 0.12 0.02 0.00 0.00 0.00 0.00 0.00 0.00 0.00 0.00 0.00 0.00 0.00 0.00 0.00 0.00 0.00 0.00 0.00 0.00 0.00 0.01 0.03 0.07 0.07 0.09 0.17 0.17 0.17 0.14 0.14 0.13 0.13 0.15 0.15 0.15 0.18 0.20 0.22 0.24 0.24 0.22 0.22 0.24
0.02 0.03 0.11 0.25 0.15 0.06 0.00 0.00 0.00 0.00 0.00 0.00 0.00 0.00 0.00 0.00 0.00 0.00 0.00 0.00 0.00 0.00 0.00 0.00 0.00 0.02 0.03 0.06 0.10 0.03 0.05 0.07 0.08 0.08 0.06 0.06 0.09 0.10 0.10 0.10 0.12 0.15 0.18 0.19 0.20 0.22 0.19 0.22 0.22
0.02 0.09 0.12 0.17 0.14 0.09 0.03 0.00 0.00 0.00 0.00 0.00 0.00 0.00 0.00 0.00 0.00 0.00 0.00 0.00 0.00 0.00 0.00 0.00 0.01 0.04 0.06 0.05 0.03 0.02 0.04 0.06 0.07 0.07 0.05 0.05 0.07 0.07 0.07 0.08 0.09 0.09 0.09 0.10 0.13 0.17 0.27 0.36 0.42
0.02 0.01 0.04 0.23 0.09 0.13 0.06 0.03 0.00 0.00 0.00 0.00 0.00 0.00 0.00 0.00 0.00 0.00 0.00 0.00 0.00 0.00 0.00 0.00 0.05 0.07 0.03 0.02 0.02 0.02 0.03 0.04 0.05 0.05 0.07 0.07 0.07 0.05 0.05 0.05 0.04 0.04 0.06 0.09 0.10 0.11 0.13 0.17 0.23

GFSSGP_prec_precacc_072.txt.gz
Total_Precipitation_Accumulation
0.08 0.06 0.00 0.02 0.03 0.01 0.00 0.00 0.00 0.02 0.02 0.00 0.00 0.01 0.03 0.01 0.00 0.01 0.00 0.00 0.00 0.00 0.02 0.04 0.10 0.12 0.12 0.09 0.06 0.08 0.11 0.14 0.10 0.10 0.08 0.08 0.07 0.04 0.03 0.03 0.04 0.09 0.14 0.16 0.08 0.03 0.00 0.00 0.00
0.10 0.18 0.11 0.12 0.04 0.00 0.00 0.00 0.00 0.04 0.05 0.00 0.00 0.06 0.09 0.03 0.00 0.02 0.02 0.01 0.00 0.00 0.01 0.03 0.08 0.11 0.08 0.03 0.03 0.06 0.10 0.10 0.07 0.04 0.04 0.03 0.04 0.04 0.07 0.07 0.07 0.06 0.04 0.02 0.01 0.00 0.00 0.00 0.00
0.24 0.46 0.24 0.09 0.02 0.00 0.00 0.00 0.00 0.00 0.00 0.01 0.00 0.08 0.25 0.10 0.04 0.01 0.01 0.02 0.00 0.00 0.01 0.04 0.09 0.13 0.05 0.01 0.03 0.06 0.09 0.07 0.05 0.03 0.02 0.03 0.04 0.06 0.07 0.05 0.01 0.00 0.00 0.00 0.00 0.00 0.00 0.00 0.00
0.47 0.63 0.34 0.06 0.02 0.00 0.00 0.00 0.00 0.01 0.07 0.13 0.03 0.08 0.37 0.39 0.08 0.05 0.01 0.01 0.00 0.01 0.03 0.07 0.12 0.09 0.04 0.04 0.05 0.08 0.06 0.06 0.05 0.02 0.02 0.04 0.06 0.09 0.06 0.01 0.00 0.00 0.00 0.00 0.00 0.00 0.00 0.00 0.00
0.69 0.44 0.22 0.14 0.01 0.00 0.00 0.00 0.00 0.01 0.03 0.06 0.04 0.09 0.45 0.47 0.17 0.08 0.02 0.00 0.00 0.02 0.05 0.06 0.14 0.08 0.05 0.05 0.08 0.06 0.06 0.07 0.04 0.01 0.03 0.06 0.07 0.07 0.08 0.03 0.00 0.00 0.00 0.01 0.01 0.02 0.02 0.01 0.01
0.77 0.42 0.31 0.24 0.05 0.00 0.00 0.00 0.00 0.00 0.01 0.04 0.16 0.10 0.45 0.75 0.54 0.27 0.04 0.00 0.01 0.02 0.07 0.07 0.13 0.07 0.05 0.08 0.07 0.06 0.05 0.07 0.03 0.02 0.05 0.07 0.05 0.05 0.07 0.08 0.01 0.00 0.01 0.01 0.02 0.05 0.02 0.01 0.01
0.62 0.51 0.31 0.08 0.03 0.00 0.00 0.00 0.00 0.00 0.00 0.01 0.04 0.04 0.32 1.09 0.89 0.58 0.29 0.13 0.02 0.04 0.06 0.10 0.08 0.04 0.06 0.08 0.04 0.05 0.05 0.07 0.05 0.02 0.03 0.02 0.00 0.01 0.03 0.07 0.05 0.03 0.02 0.05 0.07 0.03 0.02 0.02 0.01
0.42 0.57 0.31 0.04 0.00 0.00 0.00 0.00 0.00 0.00 0.00 0.00 0.02 0.12 0.22 0.65 0.99 0.76 0.71 0.47 0.13 0.14 0.12 0.09 0.05 0.02 0.03 0.07 0.05 0.04 0.05 0.05 0.03 0.02 0.01 0.00 0.00 0.01 0.01 0.01 0.04 0.02 0.05 0.03 0.01 0.02 0.03 0.02 0.00
0.70 0.99 0.47 0.06 0.02 0.02 0.00 0.00 0.00 0.01 0.00 0.00 0.00 0.06 0.09 0.09 0.58 0.97 0.87 0.66 0.26 0.18 0.15 0.12 0.05 0.01 0.03 0.06 0.03 0.03 0.03 0.04 0.01 0.01 0.01 0.00 0.00 0.01 0.00 0.00 0.00 0.02 0.03 0.00 0.00 0.01 0.01 0.00 0.00
1.21 1.34 0.33 0.04 0.02 0.03 0.01 0.00 0.00 0.01 0.01 0.08 0.08 0.05 0.05 0.22 0.40 0.98 1.53 0.87 0.60 0.18 0.12 0.13 0.07 0.00 0.02 0.05 0.02 0.02 0.00 0.02 0.00 0.00 0.00 0.00 0.00 0.01 0.00 0.00 0.00 0.01 0.00 0.00 0.00 0.00 0.00 0.00 0.00
1.21 0.81 0.14 0.09 0.14 0.16 0.03 0.01 0.00 0.03 0.08 0.02 0.08 0.09 0.13 0.33 0.37 0.47 1.18 1.47 1.05 0.88 0.28 0.11 0.10 0.04 0.03 0.03 0.02 0.01 0.00 0.00 0.00 0.00 0.00 0.00 0.00 0.01 0.01 0.00 0.01 0.00 0.00 0.00 0.00 0.00 0.00 0.00 0.00
0.92 0.41 0.23 0.19 0.30 0.18 0.06 0.05 0.00 0.01 0.01 0.00 0.10 0.13 0.13 0.25 0.23 0.39 0.46 1.20 1.11 1.21 0.92 0.42 0.12 0.07 0.06 0.05 0.03 0.00 0.00 0.00 0.00 0.00 0.00 0.00 0.00 0.00 0.01 0.01 0.01 0.01 0.00 0.00 0.00 0.00 0.00 0.00 0.00
0.70 0.52 0.41 0.46 0.38 0.27 0.17 0.12 0.03 0.00 0.00 0.01 0.08 0.11 0.13 0.18 0.20 0.39 0.37 0.36 0.47 0.84 1.03 0.94 0.64 0.23 0.08 0.04 0.08 0.03 0.02 0.00 0.00 0.00 0.00 0.00 0.00 0.00 0.00 0.01 0.02 0.01 0.00 0.00 0.00 0.00 0.00 0.00 0.00
0.65 0.72 0.54 0.71 0.53 0.40 0.24 0.12 0.16 0.02 0.02 0.07 0.17 0.24 0.29 0.23 0.20 0.29 0.25 0.23 0.42 0.43 0.46 0.67 0.62 0.62 0.34 0.21 0.18 0.16 0.07 0.06 0.02 0.00 0.00 0.00 0.00 0.00 0.00 0.00 0.01 0.01 0.00 0.00 0.00 0.00 0.00 0.00 0.00
0.69 0.77 0.95 0.90 0.71 0.59 0.31 0.29 0.27 0.05 0.04 0.05 0.13 0.10 0.23 0.25 0.24 0.18 0.42 0.45 0.31 0.33 0.41 0.32 0.45 0.58 0.49 0.53 0.47 0.35 0.26 0.18 0.06 0.01 0.00 0.00 0.00 0.00 0.00 0.00 0.00 0.00 0.00 0.00 0.00 0.00 0.00 0.00 0.00
0.65 1.19 1.19 0.94 1.21 0.90 0.45 0.24 0.06 0.09 0.07 0.02 0.08 0.13 0.19 0.28 0.35 0.33 0.23 0.24 0.39 0.35 0.24 0.21 0.18 0.25 0.23 0.52 0.76 0.47 0.36 0.34 0.15 0.07 0.01 0.02 0.01 0.00 0.00 0.00 0.00 0.00 0.00 0.00 0.00 0.00 0.00 0.00 0.00
0.52 0.96 0.93 0.85 0.95 1.19 0.62 0.17 0.06 0.08 0.10 0.02 0.03 0.05 0.06 0.08 0.07 0.08 0.16 0.26 0.17 0.18 0.27 0.33 0.34 0.27 0.19 0.45 0.47 0.58 0.47 0.41 0.31 0.24 0.07 0.02 0.02 0.01 0.01 0.00 0.00 0.00 0.00 0.00 0.00 0.00 0.00 0.00 0.01
0.11 0.41 0.61 0.59 0.60 0.69 0.75 0.26 0.05 0.04 0.06 0.02 0.01 0.01 0.04 0.05 0.06 0.07 0.14 0.27 0.28 0.19 0.27 0.37 0.22 0.25 0.30 0.57 0.53 0.54 0.31 0.29 0.22 0.19 0.11 0.14 0.12 0.13 0.08 0.02 0.01 0.01 0.01 0.00 0.01 0.02 0.03 0.01 0.02
0.01 0.08 0.48 0.40 0.43 0.40 0.52 0.40 0.17 0.03 0.04 0.04 0.01 0.00 0.01 0.04 0.06 0.11 0.15 0.19 0.18 0.24 0.50 0.37 0.33 0.28 0.28 0.33 0.24 0.31 0.21 0.26 0.26 0.24 0.28 0.31 0.22 0.21 0.22 0.17 0.10 0.02 0.01 0.01 0.04 0.07 0.13 0.15 0.19
0.04 0.05 0.41 0.52 0.36 0.33 0.34 0.46 0.28 0.11 0.01 0.01 0.01 0.00 0.00 0.00 0.00 0.01 0.03 0.04 0.05 0.22 0.66 0.53 0.40 0.36 0.13 0.13 0.17 0.25 0.35 0.29 0.21 0.26 0.17 0.17 0.15 0.16 0.19 0.20 0.21 0.17 0.08 0.08 0.15 0.17 0.18 0.13 0.19
0.04 0.01 0.16 0.47 0.39 0.26 0.23 0.25 0.33 0.17 0.04 0.00 0.00 0.00 0.00 0.00 0.00 0.00 0.00 0.00 0.01 0.05 0.21 0.25 0.21 0.33 0.52 0.57 0.73 0.65 0.66 0.47 0.35 0.23 0.10 0.09 0.15 0.21 0.29 0.40 0.32 0.20 0.25 0.23 0.26 0.23 0.25 0.20 0.15
0.01 0.00 0.03 0.17 0.15 0.18 0.09 0.08 0.08 0.11 0.08 0.01 0.00 0.00 0.00 0.00 0.00 0.00 0.00 0.00 0.00 0.00 0.02 0.10 0.41 0.57 0.74 0.81 1.05 1.15 1.09 0.96 0.84 0.73 0.56 0.44 0.38 0.42 0.50 0.63 0.70 0.59 0.45 0.31 0.23 0.22 0.19 0.16 0.12
0.04 0.01 0.11 0.13 0.09 0.07 0.05 0.03 0.00 0.01 0.02 0.02 0.00 0.00 0.00 0.00 0.00 0.00 0.00 0.00 0.00 0.00 0.00 0.04 0.21 0.31 0.36 0.53 0.59 0.74 0.65 0.55 0.54 0.57 0.71 0.71 0.70 0.68 0.67 0.68 0.60 0.49 0.31 0.30 0.28 0.22 0.18 0.18 0.18
0.01 0.01 0.23 0.12 0.13 0.11 0.01 0.01 0.00 0.00 0.00 0.00 0.00 0.00 0.00 0.00 0.00 0.00 0.00 0.00 0.00 0.00 0.00 0.00 0.05 0.08 0.16 0.26 0.35 0.45 0.42 0.46 0.46 0.40 0.42 0.42 0.38 0.37 0.38 0.35 0.28 0.30 0.33 0.32 0.32 0.34 0.30 0.27 0.23
0.01 0.06 0.49 0.40 0.43 0.12 0.00 0.00 0.00 0.00 0.00 0.00 0.00 0.00 0.00 0.00 0.00 0.00 0.00 0.00 0.00 0.00 0.00 0.00 0.00 0.02 0.07 0.22 0.26 0.34 0.31 0.27 0.30 0.38 0.40 0.37 0.29 0.24 0.24 0.27 0.23 0.21 0.25 0.28 0.32 0.31 0.31 0.32 0.29
0.01 0.03 0.13 0.08 0.08 0.06 0.01 0.00 0.00 0.00 0.00 0.00 0.00 0.00 0.00 0.00 0.00 0.00 0.00 0.00 0.00 0.00 0.00 0.00 0.00 0.00 0.01 0.07 0.13 0.22 0.26 0.25 0.29 0.36 0.31 0.29 0.28 0.30 0.41 0.45 0.32 0.21 0.21 0.21 0.23 0.25 0.25 0.25 0.26
0.11 0.12 0.04 0.16 0.10 0.14 0.03 0.00 0.00 0.00 0.00 0.00 0.00 0.00 0.00 0.00 0.00 0.00 0.00 0.00 0.00 0.00 0.00 0.00 0.00 0.00 0.01 0.03 0.07 0.07 0.09 0.17 0.18 0.19 0.19 0.21 0.22 0.21 0.22 0.19 0.17 0.18 0.20 0.22 0.24 0.24 0.22 0.22 0.24
0.02 0.03 0.11 0.25 0.15 0.06 0.00 0.00 0.00 0.00 0.00 0.00 0.00 0.00 0.00 0.00 0.00 0.00 0.00 0.00 0.00 0.00 0.00 0.00 0.00 0.02 0.03 0.06 0.10 0.03 0.05 0.07 0.08 0.08 0.08 0.09 0.12 0.11 0.11 0.10 0.12 0.15 0.18 0.19 0.20 0.22 0.19 0.22 0.22
0.02 0.09 0.12 0.17 0.14 0.09 0.03 0.00 0.00 0.00 0.00 0.00 0.00 0.00 0.00 0.00 0.00 0.00 0.00 0.00 0.00 0.00 0.00 0.00 0.01 0.04 0.06 0.05 0.03 0.02 0.04 0.06 0.07 0.07 0.05 0.05 0.07 0.07 0.07 0.08 0.09 0.09 0.09 0.10 0.13 0.17 0.27 0.36 0.42
0.02 0.01 0.04 0.23 0.09 0.13 0.06 0.03 0.00 0.00 0.00 0.00 0.00 0.00 0.00 0.00 0.00 0.00 0.00 0.00 0.00 0.00 0.00 0.00 0.05 0.07 0.03 0.02 0.02 0.02 0.03 0.04 0.05 0.05 0.07 0.07 0.07 0.05 0.05 0.05 0.04 0.04 0.06 0.09 0.10 0.11 0.13 0.17 0.23

GFSSGP_prec_precacc_078.txt.gz
Total_Precipitation_Accumulation
0.09 0.10 0.06 0.08 0.05 0.02 0.00 0.00 0.00 0.02 0.03 0.02 0.00 0.03 0.03 0.02 0.00 0.01 0.00 0.00 0.00 0.00 0.02 0.04 0.14 0.13 0.12 0.09 0.06 0.08 0.11 0.15 0.13 0.18 0.16 0.14 0.14 0.05 0.03 0.03 0.04 0.09 0.14 0.16 0.08 0.03 0.00 0.00 0.00
0.11 0.22 0.21 0.20 0.06 0.01 0.00 0.00 0.00 0.04 0.05 0.03 0.03 0.07 0.15 0.11 0.01 0.03 0.04 0.03 0.01 0.00 0.01 0.03 0.11 0.13 0.08 0.03 0.03 0.07 0.10 0.11 0.13 0.15 0.15 0.18 0.12 0.05 0.07 0.07 0.07 0.06 0.04 0.02 0.01 0.00 0.00 0.00 0.00
0.24 0.51 0.39 0.19 0.03 0.00 0.00 0.00 0.00 0.00 0.00 0.02 0.04 0.11 0.38 0.17 0.07 0.03 0.03 0.05 0.03 0.01 0.02 0.05 0.13 0.17 0.06 0.02 0.04 0.06 0.09 0.08 0.10 0.18 0.23 0.20 0.09 0.06 0.07 0.05 0.01 0.00 0.00 0.00 0.00 0.00 0.00 0.00 0.00
0.47 0.72 0.46 0.13 0.03 0.00 0.00 0.00 0.00 0.01 0.07 0.14 0.13 0.13 0.43 0.46 0.14 0.10 0.05 0.04 0.03 0.03 0.04 0.09 0.18 0.13 0.05 0.05 0.06 0.08 0.06 0.07 0.08 0.09 0.16 0.14 0.08 0.09 0.06 0.01 0.00 0.00 0.00 0.00 0.00 0.00 0.00 0.00 0.00
0.71 0.51 0.29 0.21 0.03 0.00 0.00 0.00 0.00 0.01 0.03 0.06 0.10 0.23 0.51 0.49 0.27 0.21 0.16 0.04 0.02 0.04 0.08 0.09 0.24 0.12 0.05 0.07 0.09 0.06 0.06 0.07 0.05 0.06 0.11 0.10 0.08 0.07 0.08 0.03 0.00 0.00 0.00 0.01 0.01 0.02 0.02 0.01 0.01
0.79 0.46 0.36 0.31 0.07 0.00 0.00 0.00 0.00 0.00 0.01 0.04 0.17 0.25 0.55 0.80 0.71 0.54 0.31 0.09 0.06 0.05 0.11 0.10 0.27 0.14 0.06 0.09 0.09 0.06 0.05 0.07 0.03 0.04 0.10 0.09 0.05 0.05 0.07 0.08 0.01 0.00 0.01 0.01 0.02 0.05 0.02 0.01 0.01
0.63 0.53 0.33 0.10 0.04 0.01 0.00 0.00 0.00 0.00 0.00 0.01 0.04 0.07 0.38 1.12 1.10 0.95 0.76 0.39 0.12 0.12 0.12 0.14 0.16 0.06 0.07 0.09 0.05 0.06 0.05 0.07 0.05 0.02 0.04 0.02 0.01 0.01 0.03 0.08 0.05 0.03 0.02 0.05 0.07 0.03 0.02 0.02 0.01
0.46 0.60 0.32 0.05 0.03 0.01 0.00 0.00 0.00 0.00 0.00 0.00 0.02 0.15 0.24 0.69 1.13 1.49 1.48 1.09 0.40 0.34 0.23 0.14 0.13 0.04 0.04 0.08 0.05 0.06 0.05 0.05 0.03 0.02 0.01 0.00 0.00 0.01 0.01 0.01 0.04 0.02 0.05 0.03 0.01 0.02 0.03 0.02 0.00
0.74 1.04 0.48 0.07 0.03 0.02 0.00 0.01 0.01 0.01 0.00 0.00 0.00 0.06 0.09 0.12 0.71 1.84 2.44 2.32 0.76 0.45 0.34 0.20 0.10 0.03 0.03 0.08 0.05 0.05 0.04 0.05 0.01 0.01 0.01 0.00 0.00 0.01 0.00 0.00 0.00 0.02 0.03 0.00 0.00 0.01 0.01 0.00 0.00
1.24 1.35 0.33 0.04 0.02 0.03 0.01 0.01 0.01 0.03 0.01 0.08 0.08 0.05 0.05 0.25 0.53 1.51 2.81 2.74 1.60 0.52 0.31 0.25 0.12 0.01 0.02 0.06 0.05 0.04 0.03 0.03 0.00 0.00 0.00 0.00 0.00 0.01 0.00 0.00 0.00 0.01 0.00 0.00 0.00 0.00 0.00 0.00 0.00
1.22 0.82 0.14 0.09 0.14 0.16 0.04 0.03 0.01 0.08 0.11 0.02 0.08 0.09 0.13 0.33 0.40 0.71 1.74 2.84 2.54 1.74 0.67 0.25 0.17 0.04 0.03 0.03 0.04 0.05 0.03 0.02 0.00 0.00 0.00 0.00 0.00 0.01 0.01 0.00 0.01 0.00 0.00 0.00 0.00 0.00 0.00 0.00 0.00
0.93 0.41 0.23 0.19 0.30 0.19 0.07 0.05 0.02 0.04 0.02 0.00 0.10 0.13 0.14 0.25 0.24 0.49 0.77 1.83 1.88 2.08 1.75 0.63 0.17 0.07 0.06 0.05 0.03 0.02 0.02 0.01 0.00 0.00 0.00 0.00 0.00 0.00 0.01 0.01 0.01 0.01 0.00 0.00 0.00 0.00 0.00 0.00 0.00
0.72 0.52 0.42 0.47 0.38 0.29 0.23 0.15 0.04 0.01 0.02 0.03 0.12 0.11 0.15 0.18 0.20 0.41 0.48 0.61 1.07 1.46 2.29 1.75 0.87 0.29 0.08 0.04 0.08 0.04 0.03 0.01 0.00 0.00 0.00 0.00 0.00 0.00 0.00 0.01 0.02 0.01 0.00 0.00 0.00 0.00 0.00 0.00 0.00
0.66 0.73 0.55 0.72 0.55 0.43 0.29 0.17 0.21 0.03 0.06 0.15 0.26 0.30 0.31 0.23 0.20 0.30 0.26 0.32 0.73 0.89 1.07 1.61 1.32 0.91 0.41 0.25 0.18 0.16 0.07 0.07 0.04 0.02 0.01 0.00 0.00 0.00 0.00 0.00 0.01 0.01 0.00 0.00 0.00 0.00 0.00 0.00 0.00
0.71 0.82 1.00 0.92 0.74 0.66 0.43 0.37 0.31 0.06 0.10 0.18 0.28 0.28 0.42 0.31 0.29 0.21 0.42 0.47 0.39 0.54 0.67 0.71 0.67 0.80 0.72 0.62 0.51 0.36 0.26 0.18 0.07 0.01 0.01 0.01 0.00 0.00 0.00 0.00 0.00 0.00 0.00 0.00 0.00 0.00 0.00 0.00 0.00
0.74 1.32 1.30 0.96 1.25 1.00 0.62 0.29 0.09 0.11 0.13 0.11 0.20 0.38 0.56 0.52 0.41 0.42 0.28 0.25 0.42 0.40 0.35 0.34 0.28 0.30 0.31 0.66 0.94 0.54 0.39 0.36 0.17 0.08 0.01 0.02 0.01 0.00 0.00 0.00 0.00 0.00 0.00 0.00 0.00 0.00 0.00 0.00 0.00
0.74 1.12 1.00 0.90 1.01 1.40 0.75 0.23 0.10 0.12 0.17 0.09 0.11 0.31 0.46 0.52 0.33 0.24 0.30 0.39 0.22 0.21 0.30 0.39 0.42 0.30 0.21 0.48 0.56 0.61 0.47 0.50 0.36 0.28 0.13 0.08 0.04 0.02 0.01 0.00 0.00 0.00 0.00 0.00 0.00 0.00 0.00 0.00 0.01
0.38 0.47 0.64 0.67 0.66 0.96 1.04 0.35 0.13 0.08 0.14 0.07 0.04 0.11 0.36 0.50 0.57 0.37 0.28 0.41 0.41 0.24 0.30 0.40 0.26 0.27 0.32 0.66 0.66 0.63 0.41 0.32 0.27 0.23 0.18 0.22 0.18 0.16 0.09 0.03 0.01 0.01 0.01 0.00 0.01 0.02 0.03 0.01 0.02
0.28 0.18 0.52 0.50 0.51 0.51 0.89 0.66 0.22 0.07 0.09 0.08 0.04 0.05 0.18 0.36 0.64 0.82 0.51 0.45 0.47 0.41 0.55 0.40 0.36 0.29 0.30 0.37 0.31 0.39 0.27 0.28 0.28 0.25 0.35 0.43 0.41 0.36 0.34 0.24 0.11 0.02 0.01 0.01 0.04 0.07 0.13 0.15 0.20
0.17 0.11 0.51 0.65 0.60 0.57 0.53 0.82 0.41 0.13 0.07 0.05 0.03 0.04 0.08 0.16 0.31 0.51 0.89 0.41 0.43 0.95 1.24 0.91 0.62 0.54 0.27 0.25 0.24 0.30 0.39 0.33 0.22 0.28 0.23 0.33 0.37 0.39 0.37 0.34 0.34 0.23 0.09 0.08 0.15 0.18 0.21 0.15 0.22
0.11 0.03 0.20 0.73 0.73 0.48 0.38 0.51 0.64 0.24 0.10 0.06 0.06 0.03 0.04 0.08 0.09 0.16 0.35 0.19 0.26 0.64 0.87 0.65 0.45 0.46 0.72 0.68 1.02 0.89 0.87 0.64 0.58 0.46 0.29 0.33 0.35 0.42 0.60 0.74 0.62 0.45 0.40 0.35 0.42 0.42 0.44 0.34 0.21
0.04 0.01 0.10 0.43 0.36 0.34 0.26 0.37 0.39 0.28 0.19 0.10 0.07 0.03 0.03 0.05 0.03 0.03 0.03 0.04 0.03 0.05 0.14 0.37 0.77 0.89 1.07 1.17 1.58 2.01 2.25 2.09 1.74 1.55 1.25 1.00 0.86 0.94 1.18 1.45 1.55 1.33 0.92 0.68 0.54 0.50 0.39 0.32 0.24
0.07 0.03 0.15 0.17 0.11 0.12 0.19 0.20 0.15 0.17 0.17 0.16 0.04 0.05 0.05 0.03 0.01 0.00 0.00 0.00 0.00 0.00 0.00 0.08 0.28 0.43 0.65 0.93 0.94 1.19 1.25 1.21 1.11 1.03 1.13 1.17 1.18 1.12 1.15 1.32 1.30 1.09 0.84 0.89 0.78 0.42 0.24 0.21 0.21
0.06 0.03 0.24 0.12 0.15 0.19 0.16 0.05 0.05 0.06 0.05 0.10 0.06 0.03 0.05 0.02 0.01 0.00 0.00 0.00 0.00 0.00 0.00 0.00 0.05 0.09 0.23 0.37 0.48 0.72 0.82 0.88 0.85 0.75 0.74 0.73 0.62 0.62 0.69 0.69 0.66 0.69 0.63 0.58 0.64 0.65 0.46 0.31 0.24
0.03 0.07 0.53 0.45 0.48 0.28 0.09 0.01 0.02 0.00 0.00 0.04 0.07 0.06 0.04 0.02 0.00 0.00 0.00 0.00 0.00 0.00 0.00 0.00 0.00 0.02 0.07 0.23 0.29 0.40 0.40 0.37 0.40 0.47 0.50 0.49 0.45 0.37 0.39 0.44 0.45 0.45 0.49 0.49 0.51 0.50 0.50 0.44 0.33
0.04 0.04 0.13 0.10 0.13 0.24 0.06 0.02 0.02 0.00 0.00 0.00 0.04 0.09 0.04 0.02 0.00 0.00 0.00 0.00 0.00 0.00 0.00 0.00 0.00 0.00 0.01 0.07 0.13 0.22 0.27 0.27 0.31 0.40 0.37 0.33 0.35 0.40 0.54 0.65 0.63 0.56 0.54 0.56 0.53 0.42 0.34 0.32 0.32
0.12 0.12 0.04 0.16 0.13 0.19 0.07 0.00 0.00 0.00 0.00 0.00 0.01 0.07 0.07 0.02 0.00 0.00 0.00 0.00 0.00 0.00 0.00 0.00 0.00 0.00 0.01 0.03 0.07 0.07 0.09 0.17 0.18 0.19 0.19 0.21 0.24 0.29 0.33 0.29 0.27 0.28 0.28 0.29 0.32 0.31 0.28 0.26 0.26
0.02 0.03 0.11 0.25 0.15 0.09 0.02 0.00 0.00 0.00 0.00 0.00 0.00 0.01 0.03 0.01 0.00 0.00 0.00 0.00 0.00 0.00 0.00 0.00 0.00 0.02 0.03 0.06 0.10 0.03 0.05 0.07 0.08 0.08 0.08 0.09 0.13 0.12 0.12 0.11 0.13 0.16 0.18 0.19 0.20 0.22 0.19 0.22 0.22
0.02 0.09 0.12 0.17 0.14 0.09 0.03 0.00 0.00 0.00 0.00 0.00 0.00 0.00 0.00 0.00 0.00 0.00 0.00 0.00 0.00 0.00 0.00 0.00 0.01 0.04 0.06 0.05 0.03 0.02 0.04 0.06 0.07 0.07 0.05 0.05 0.07 0.07 0.08 0.08 0.09 0.09 0.09 0.10 0.13 0.17 0.27 0.36 0.42
0.02 0.01 0.04 0.23 0.09 0.13 0.06 0.03 0.00 0.00 0.00 0.00 0.00 0.00 0.00 0.00 0.00 0.00 0.00 0.00 0.00 0.00 0.00 0.00 0.05 0.07 0.03 0.02 0.02 0.02 0.03 0.04 0.05 0.05 0.07 0.07 0.07 0.05 0.05 0.06 0.05 0.04 0.06 0.09 0.10 0.11 0.13 0.17 0.23

GFSSGP_prec_precacc_081.txt.gz
Total_Precipitation_Accumulation
0.09 0.10 0.06 0.08 0.05 0.02 0.00 0.00 0.00 0.02 0.03 0.02 0.00 0.03 0.03 0.02 0.00 0.05 0.01 0.00 0.00 0.00 0.02 0.05 0.15 0.14 0.12 0.09 0.06 0.08 0.11 0.15 0.13 0.19 0.17 0.15 0.14 0.07 0.03 0.03 0.04 0.09 0.15 0.17 0.09 0.03 0.00 0.00 0.00
0.11 0.22 0.21 0.21 0.06 0.01 0.00 0.00 0.00 0.04 0.05 0.03 0.03 0.07 0.15 0.12 0.01 0.03 0.05 0.03 0.01 0.00 0.01 0.04 0.13 0.13 0.08 0.03 0.03 0.07 0.10 0.12 0.14 0.16 0.16 0.19 0.14 0.06 0.07 0.07 0.07 0.06 0.04 0.02 0.01 0.00 0.00 0.00 0.00
0.24 0.51 0.39 0.19 0.03 0.00 0.00 0.00 0.00 0.00 0.00 0.02 0.05 0.11 0.39 0.24 0.09 0.03 0.04 0.05 0.03 0.01 0.02 0.05 0.14 0.17 0.06 0.02 0.04 0.06 0.09 0.09 0.15 0.22 0.26 0.26 0.14 0.06 0.07 0.05 0.01 0.00 0.00 0.00 0.00 0.00 0.00 0.00 0.00
0.47 0.73 0.47 0.13 0.03 0.00 0.00 0.00 0.00 0.01 0.07 0.14 0.14 0.14 0.43 0.47 0.16 0.11 0.07 0.05 0.03 0.03 0.05 0.10 0.19 0.14 0.05 0.05 0.06 0.08 0.06 0.09 0.15 0.18 0.28 0.30 0.14 0.09 0.06 0.01 0.00 0.00 0.00 0.00 0.00 0.01 0.01 0.00 0.00
0.71 0.51 0.29 0.21 0.03 0.00 0.00 0.00 0.00 0.01 0.03 0.06 0.10 0.24 0.52 0.49 0.27 0.27 0.20 0.08 0.03 0.05 0.11 0.13 0.28 0.13 0.06 0.07 0.09 0.06 0.06 0.08 0.10 0.18 0.30 0.22 0.09 0.07 0.08 0.03 0.00 0.00 0.00 0.01 0.01 0.02 0.03 0.01 0.01
0.79 0.46 0.36 0.31 0.07 0.00 0.00 0.00 0.00 0.00 0.01 0.04 0.17 0.25 0.55 0.80 0.72 0.59 0.40 0.18 0.12 0.07 0.18 0.16 0.34 0.25 0.08 0.09 0.09 0.06 0.05 0.08 0.06 0.15 0.31 0.19 0.05 0.05 0.07 0.08 0.02 0.00 0.01 0.01 0.02 0.05 0.02 0.01 0.01
0.63 0.53 0.33 0.10 0.04 0.01 0.00 0.00 0.00 0.00 0.00 0.01 0.04 0.07 0.38 1.12 1.10 0.98 0.86 0.55 0.28 0.19 0.17 0.21 0.20 0.14 0.11 0.09 0.05 0.06 0.05 0.07 0.06 0.07 0.14 0.05 0.01 0.01 0.03 0.08 0.05 0.04 0.02 0.05 0.07 0.03 0.02 0.02 0.01
0.46 0.60 0.32 0.05 0.03 0.01 0.00 0.00 0.00 0.00 0.00 0.00 0.02 0.15 0.24 0.69 1.13 1.51 1.61 1.39 0.75 0.51 0.34 0.25 0.18 0.06 0.05 0.10 0.05 0.06 0.05 0.05 0.03 0.03 0.01 0.00 0.00 0.01 0.02 0.01 0.04 0.02 0.05 0.03 0.01 0.02 0.03 0.02 0.00
0.74 1.05 0.49 0.07 0.03 0.02 0.00 0.01 0.01 0.01 0.00 0.00 0.00 0.06 0.09 0.12 0.71 1.85 2.59 2.60 1.16 0.58 0.48 0.39 0.20 0.06 0.04 0.13 0.06 0.05 0.04 0.05 0.01 0.01 0.01 0.00 0.00 0.01 0.00 0.00 0.00 0.02 0.03 0.00 0.00 0.01 0.01 0.00 0.00
1.24 1.35 0.33 0.04 0.02 0.03 0.01 0.01 0.01 0.03 0.01 0.08 0.08 0.05 0.05 0.25 0.53 1.51 2.84 3.00 2.02 0.86 0.53 0.58 0.38 0.11 0.03 0.11 0.10 0.05 0.03 0.03 0.00 0.00 0.00 0.00 0.00 0.01 0.00 0.00 0.00 0.01 0.00 0.00 0.00 0.00 0.00 0.00 0.00
1.22 0.82 0.14 0.09 0.14 0.16 0.04 0.03 0.01 0.08 0.11 0.02 0.08 0.09 0.14 0.33 0.40 0.71 1.74 2.93 2.82 2.07 1.08 0.66 0.56 0.27 0.05 0.05 0.10 0.08 0.03 0.02 0.00 0.00 0.00 0.00 0.00 0.01 0.01 0.00 0.01 0.00 0.00 0.00 0.00 0.00 0.00 0.00 0.00
0.93 0.41 0.23 0.19 0.30 0.19 0.07 0.05 0.02 0.04 0.02 0.00 0.10 0.14 0.16 0.27 0.26 0.50 0.77 1.88 2.01 2.31 2.05 1.30 0.72 0.46 0.10 0.05 0.07 0.05 0.04 0.01 0.00 0.00 0.00 0.00 0.00 0.00 0.01 0.01 0.01 0.01 0.00 0.00 0.00 0.00 0.00 0.00 0.00
0.72 0.52 0.42 0.47 0.38 0.29 0.23 0.15 0.04 0.01 0.02 0.03 0.13 0.13 0.18 0.32 0.26 0.41 0.48 0.61 1.10 1.60 2.53 2.30 1.55 0.84 0.19 0.04 0.11 0.08 0.07 0.03 0.01 0.00 0.00 0.00 0.00 0.00 0.00 0.01 0.02 0.01 0.00 0.00 0.00 0.00 0.00 0.00 0.00
0.66 0.73 0.55 0.72 0.55 0.43 0.29 0.17 0.21 0.03 0.06 0.15 0.26 0.30 0.31 0.31 0.28 0.32 0.26 0.32 0.73 0.94 1.21 2.04 2.02 1.81 0.76 0.25 0.19 0.19 0.12 0.11 0.05 0.02 0.01 0.00 0.00 0.00 0.00 0.00 0.01 0.01 0.00 0.00 0.00 0.00 0.00 0.00 0.00
0.71 0.82 1.00 0.92 0.74 0.66 0.44 0.37 0.31 0.06 0.10 0.18 0.28 0.28 0.42 0.38 0.37 0.22 0.42 0.47 0.39 0.56 0.76 0.89 1.26 1.98 1.40 0.64 0.51 0.38 0.30 0.22 0.10 0.02 0.01 0.01 0.00 0.00 0.00 0.00 0.00 0.00 0.00 0.00 0.00 0.00 0.00 0.00 0.00
0.76 1.35 1.32 0.96 1.25 1.00 0.63 0.29 0.09 0.11 0.13 0.11 0.20 0.38 0.56 0.60 0.54 0.45 0.29 0.25 0.42 0.40 0.39 0.46 0.58 0.93 0.77 0.77 0.96 0.54 0.40 0.38 0.20 0.09 0.02 0.02 0.01 0.00 0.00 0.00 0.00 0.00 0.00 0.00 0.00 0.00 0.00 0.00 0.00
0.75 1.13 1.00 0.90 1.01 1.40 0.76 0.23 0.10 0.12 0.17 0.09 0.11 0.31 0.46 0.63 0.53 0.38 0.34 0.39 0.22 0.21 0.30 0.42 0.57 0.55 0.36 0.54 0.65 0.63 0.47 0.50 0.36 0.29 0.14 0.08 0.04 0.02 0.01 0.00 0.00 0.00 0.00 0.00 0.00 0.00 0.00 0.00 0.01
0.45 0.55 0.66 0.68 0.66 0.96 1.05 0.35 0.17 0.13 0.16 0.07 0.04 0.11 0.37 0.57 0.91 0.54 0.32 0.41 0.41 0.24 0.31 0.40 0.30 0.36 0.36 0.69 0.82 0.78 0.51 0.37 0.27 0.23 0.18 0.22 0.18 0.16 0.09 0.03 0.01 0.01 0.01 0.00 0.01 0.02 0.03 0.01 0.02
0.34 0.28 0.58 0.54 0.52 0.52 0.90 0.67 0.23 0.08 0.10 0.08 0.04 0.05 0.19 0.45 0.99 1.17 0.68 0.48 0.50 0.43 0.56 0.44 0.39 0.33 0.33 0.41 0.39 0.50 0.41 0.46 0.41 0.31 0.39 0.47 0.48 0.42 0.37 0.26 0.15 0.03 0.01 0.01 0.04 0.07 0.13 0.15 0.20
0.20 0.16 0.61 0.81 0.68 0.59 0.55 0.85 0.42 0.14 0.07 0.07 0.05 0.05 0.14 0.24 0.69 1.07 1.28 0.56 0.49 1.07 1.34 1.01 0.72 0.67 0.36 0.36 0.37 0.35 0.50 0.44 0.28 0.30 0.24 0.33 0.39 0.44 0.42 0.38 0.37 0.28 0.12 0.10 0.17 0.18 0.21 0.16 0.23
0.12 0.05 0.37 0.98 0.82 0.56 0.42 0.54 0.64 0.24 0.11 0.07 0.06 0.04 0.08 0.15 0.22 0.52 1.11 0.73 0.53 1.12 1.30 0.93 0.81 0.79 0.87 0.72 1.12 1.01 1.01 0.77 0.67 0.48 0.29 0.33 0.35 0.42 0.60 0.75 0.63 0.49 0.55 0.57 0.60 0.51 0.51 0.40 0.30
0.13 0.08 0.17 0.55 0.42 0.38 0.28 0.40 0.41 0.30 0.20 0.12 0.14 0.07 0.07 0.10 0.12 0.20 0.37 0.47 0.38 0.32 0.36 0.63 1.20 1.24 1.22 1.24 1.74 2.18 2.39 2.22 1.87 1.62 1.27 1.02 0.88 0.94 1.19 1.47 1.57 1.46 1.20 0.92 0.92 0.88 0.64 0.49 0.36
0.21 0.08 0.21 0.25 0.17 0.14 0.20 0.23 0.20 0.23 0.22 0.25 0.22 0.13 0.10 0.05 0.15 0.16 0.19 0.14 0.10 0.07 0.09 0.17 0.41 0.55 0.83 1.12 1.21 1.50 1.42 1.36 1.26 1.16 1.21 1.23 1.30 1.25 1.22 1.35 1.35 1.21 1.07 1.19 1.16 1.06 1.03 0.74 0.39
0.10 0.06 0.27 0.16 0.20 0.27 0.20 0.09 0.13 0.19 0.17 0.31 0.22 0.12 0.08 0.02 0.05 0.17 0.05 0.01 0.00 0.00 0.00 0.01 0.08 0.15 0.36 0.48 0.58 0.98 1.21 1.26 1.20 0.94 0.88 0.84 0.75 0.76 0.83 0.81 0.78 0.80 0.77 0.78 0.93 1.08 0.99 0.80 0.49
0.05 0.11 0.58 0.52 0.57 0.41 0.17 0.04 0.07 0.09 0.03 0.19 0.25 0.11 0.05 0.06 0.02 0.07 0.05 0.01 0.00 0.00 0.00 0.00 0.00 0.02 0.09 0.27 0.37 0.52 0.54 0.57 0.49 0.53 0.52 0.50 0.46 0.39 0.41 0.48 0.52 0.57 0.60 0.60 0.63 0.64 0.68 0.70 0.61
0.08 0.07 0.16 0.15 0.18 0.29 0.07 0.07 0.08 0.06 0.04 0.10 0.12 0.10 0.06 0.12 0.05 0.04 0.01 0.01 0.00 0.00 0.00 0.00 0.00 0.00 0.01 0.07 0.13 0.24 0.33 0.35 0.38 0.44 0.37 0.34 0.35 0.40 0.55 0.66 0.66 0.59 0.59 0.60 0.58 0.55 0.51 0.47 0.45
0.12 0.12 0.04 0.17 0.14 0.20 0.09 0.02 0.01 0.01 0.02 0.02 0.02 0.08 0.08 0.07 0.10 0.02 0.02 0.00 0.00 0.00 0.00 0.00 0.00 0.00 0.01 0.03 0.07 0.07 0.09 0.17 0.21 0.22 0.20 0.21 0.24 0.31 0.38 0.34 0.32 0.32 0.30 0.32 0.35 0.35 0.31 0.29 0.28
0.02 0.03 0.11 0.25 0.16 0.09 0.03 0.00 0.00 0.00 0.01 0.03 0.03 0.07 0.07 0.06 0.03 0.01 0.00 0.00 0.00 0.00 0.00 0.00 0.00 0.02 0.03 0.06 0.10 0.03 0.05 0.07 0.08 0.08 0.08 0.09 0.13 0.12 0.13 0.12 0.14 0.16 0.18 0.20 0.22 0.23 0.20 0.22 0.22
0.02 0.09 0.12 0.17 0.14 0.09 0.03 0.00 0.00 0.00 0.00 0.00 0.01 0.03 0.02 0.02 0.01 0.00 0.00 0.00 0.00 0.00 0.00 0.00 0.01 0.04 0.06 0.05 0.03 0.02 0.04 0.06 0.07 0.07 0.05 0.05 0.07 0.07 0.08 0.08 0.09 0.10 0.10 0.11 0.13 0.17 0.27 0.36 0.42
0.02 0.01 0.04 0.23 0.09 0.13 0.06 0.03 0.00 0.00 0.00 0.00 0.00 0.00 0.00 0.00 0.00 0.00 0.00 0.00 0.00 0.00 0.00 0.00 0.05 0.07 0.03 0.02 0.02 0.02 0.03 0.04 0.05 0.05 0.07 0.07 0.07 0.05 0.05 0.06 0.06 0.06 0.08 0.10 0.10 0.11 0.13 0.17 0.23

GFSSGP_prec_precacc_084.txt.gz
Total_Precipitation_Accumulation
0.09 0.10 0.06 0.09 0.06 0.02 0.00 0.00 0.00 0.02 0.03 0.02 0.00 0.03 0.03 0.02 0.00 0.07 0.01 0.00 0.00 0.00 0.02 0.05 0.16 0.14 0.12 0.09 0.06 0.08 0.11 0.15 0.13 0.19 0.17 0.15 0.15 0.07 0.03 0.03 0.04 0.09 0.15 0.17 0.09 0.03 0.01 0.00 0.00
0.11 0.22 0.22 0.22 0.07 0.01 0.00 0.00 0.00 0.04 0.05 0.03 0.03 0.07 0.15 0.12 0.02 0.04 0.05 0.03 0.01 0.00 0.01 0.04 0.15 0.14 0.08 0.03 0.03 0.07 0.10 0.12 0.14 0.17 0.16 0.20 0.16 0.06 0.07 0.07 0.07 0.07 0.05 0.03 0.01 0.00 0.00 0.01 0.00
0.24 0.51 0.40 0.20 0.03 0.00 0.00 0.00 0.00 0.00 0.00 0.02 0.05 0.11 0.40 0.26 0.13 0.04 0.05 0.05 0.03 0.02 0.02 0.05 0.16 0.19 0.06 0.02 0.04 0.06 0.09 0.10 0.15 0.24 0.27 0.27 0.17 0.06 0.07 0.05 0.01 0.01 0.01 0.00 0.00 0.00 0.00 0.00 0.00
0.47 0.73 0.48 0.13 0.03 0.00 0.00 0.00 0.00 0.01 0.07 0.14 0.14 0.14 0.44 0.48 0.18 0.12 0.08 0.05 0.04 0.04 0.05 0.11 0.23 0.17 0.05 0.06 0.06 0.08 0.06 0.10 0.15 0.19 0.29 0.35 0.19 0.09 0.06 0.01 0.00 0.01 0.00 0.00 0.01 0.01 0.01 0.00 0.00
0.71 0.51 0.29 0.21 0.03 0.00 0.00 0.00 0.00 0.01 0.03 0.06 0.10 0.25 0.57 0.51 0.28 0.31 0.26 0.10 0.04 0.07 0.12 0.17 0.35 0.17 0.06 0.08 0.09 0.06 0.06 0.11 0.12 0.22 0.36 0.36 0.14 0.07 0.08 0.03 0.00 0.00 0.00 0.01 0.01 0.02 0.03 0.01 0.01
0.79 0.46 0.36 0.31 0.07 0.00 0.00 0.00 0.00 0.00 0.01 0.04 0.17 0.25 0.56 0.82 0.72 0.60 0.53 0.30 0.19 0.19 0.29 0.26 0.42 0.36 0.11 0.11 0.09 0.06 0.05 0.10 0.11 0.21 0.44 0.33 0.08 0.05 0.07 0.09 0.02 0.01 0.02 0.01 0.02 0.05 0.03 0.01 0.01
0.63 0.53 0.33 0.10 0.04 0.01 0.00 0.00 0.00 0.00 0.00 0.01 0.04 0.07 0.39 1.13 1.11 0.99 0.91 0.68 0.50 0.53 0.34 0.42 0.28 0.23 0.19 0.14 0.05 0.06 0.05 0.08 0.12 0.14 0.27 0.12 0.01 0.01 0.03 0.08 0.06 0.04 0.02 0.05 0.07 0.03 0.02 0.02 0.01
0.46 0.60 0.32 0.05 0.03 0.01 0.00 0.00 0.00 0.00 0.00 0.00 0.02 0.15 0.24 0.69 1.13 1.51 1.61 1.44 1.05 0.98 0.94 0.62 0.37 0.10 0.08 0.13 0.06 0.06 0.05 0.06 0.09 0.11 0.08 0.01 0.00 0.01 0.02 0.02 0.05 0.02 0.05 0.03 0.01 0.02 0.03 0.02 0.00
0.74 1.05 0.49 0.07 0.03 0.02 0.00 0.01 0.01 0.01 0.00 0.00 0.00 0.06 0.09 0.12 0.73 1.85 2.59 2.62 1.48 1.18 1.16 1.17 0.61 0.17 0.11 0.18 0.06 0.05 0.04 0.05 0.04 0.07 0.04 0.00 0.00 0.01 0.00 0.00 0.01 0.02 0.03 0.00 0.00 0.01 0.01 0.00 0.00
1.24 1.35 0.33 0.04 0.02 0.03 0.01 0.01 0.01 0.03 0.01 0.08 0.08 0.05 0.05 0.25 0.54 1.53 2.84 3.00 2.16 1.28 1.03 0.93 0.96 0.45 0.20 0.24 0.13 0.05 0.03 0.03 0.01 0.02 0.02 0.00 0.00 0.01 0.00 0.00 0.00 0.01 0.00 0.00 0.00 0.00 0.00 0.00 0.00
1.22 0.82 0.14 0.09 0.14 0.16 0.04 0.03 0.01 0.08 0.11 0.02 0.08 0.09 0.14 0.35 0.46 0.75 1.75 2.93 2.83 2.23 1.33 0.83 0.83 0.83 0.29 0.44 0.25 0.09 0.03 0.02 0.00 0.00 0.01 0.00 0.00 0.01 0.01 0.00 0.01 0.00 0.00 0.00 0.00 0.00 0.00 0.00 0.00
0.93 0.41 0.23 0.19 0.30 0.19 0.07 0.05 0.02 0.04 0.02 0.00 0.10 0.14 0.17 0.31 0.39 0.62 0.79 1.88 2.01 2.33 2.11 1.37 0.80 0.86 0.55 0.57 0.45 0.11 0.04 0.01 0.00 0.00 0.00 0.00 0.00 0.00 0.01 0.01 0.01 0.01 0.00 0.00 0.00 0.00 0.00 0.00 0.00
0.72 0.52 0.42 0.47 0.38 0.29 0.23 0.15 0.04 0.01 0.02 0.03 0.13 0.14 0.19 0.34 0.32 0.54 0.53 0.61 1.10 1.60 2.53 2.32 1.57 0.96 0.74 0.45 0.65 0.21 0.08 0.03 0.01 0.00 0.00 0.00 0.00 0.00 0.00 0.01 0.02 0.01 0.00 0.00 0.00 0.00 0.00 0.00 0.00
0.66 0.73 0.55 0.72 0.55 0.43 0.29 0.17 0.21 0.03 0.06 0.15 0.26 0.30 0.32 0.32 0.36 0.50 0.33 0.34 0.73 0.94 1.22 2.05 2.03 1.88 1.30 0.85 0.89 0.47 0.21 0.13 0.05 0.02 0.01 0.00 0.00 0.00 0.00 0.00 0.01 0.01 0.00 0.00 0.00 0.00 0.00 0.00 0.00
0.71 0.82 1.01 0.92 0.74 0.66 0.44 0.37 0.31 0.06 0.10 0.18 0.28 0.28 0.42 0.38 0.37 0.26 0.44 0.51 0.41 0.56 0.76 0.91 1.29 2.07 2.00 1.25 0.94 0.70 0.47 0.32 0.12 0.02 0.01 0.01 0.00 0.00 0.00 0.00 0.00 0.00 0.00 0.00 0.00 0.00 0.00 0.00 0.00
0.76 1.36 1.33 0.96 1.25 1.00 0.65 0.30 0.09 0.11 0.13 0.11 0.20 0.38 0.56 0.60 0.54 0.47 0.33 0.29 0.45 0.40 0.39 0.47 0.59 1.07 1.48 1.16 1.10 0.70 0.60 0.59 0.36 0.12 0.02 0.02 0.01 0.00 0.00 0.00 0.00 0.00 0.00 0.00 0.00 0.00 0.00 0.00 0.00
0.76 1.14 1.00 0.90 1.01 1.40 0.77 0.24 0.10 0.12 0.17 0.09 0.11 0.31 0.46 0.63 0.53 0.39 0.41 0.51 0.27 0.24 0.31 0.42 0.57 0.60 0.68 0.79 0.77 0.75 0.53 0.61 0.45 0.40 0.16 0.08 0.04 0.02 0.01 0.00 0.00 0.00 0.00 0.00 0.00 0.00 0.00 0.00 0.01
0.45 0.58 0.69 0.69 0.67 0.97 1.05 0.35 0.19 0.15 0.17 0.08 0.04 0.11 0.37 0.57 0.91 0.56 0.41 0.57 0.50 0.27 0.31 0.41 0.30 0.38 0.43 0.88 0.95 0.88 0.56 0.42 0.35 0.27 0.21 0.24 0.20 0.18 0.10 0.03 0.01 0.01 0.01 0.00 0.01 0.02 0.03 0.01 0.02
0.35 0.29 0.60 0.54 0.54 0.59 0.91 0.67 0.24 0.15 0.16 0.14 0.05 0.05 0.20 0.48 0.99 1.18 0.77 0.62 0.70 0.49 0.57 0.45 0.40 0.35 0.38 0.53 0.50 0.58 0.59 0.63 0.51 0.38 0.48 0.52 0.53 0.48 0.39 0.27 0.15 0.04 0.01 0.01 0.04 0.07 0.13 0.15 0.20
0.20 0.17 0.62 0.83 0.70 0.65 0.57 0.85 0.43 0.17 0.14 0.09 0.09 0.09 0.18 0.35 0.70 1.15 1.53 0.72 0.65 1.20 1.39 1.06 0.78 0.74 0.48 0.54 0.54 0.45 0.62 0.59 0.47 0.50 0.35 0.41 0.44 0.47 0.43 0.41 0.41 0.30 0.18 0.12 0.17 0.19 0.21 0.16 0.23
0.13 0.07 0.38 1.18 0.89 0.58 0.46 0.57 0.69 0.26 0.11 0.07 0.09 0.08 0.16 0.29 0.24 0.71 1.55 1.18 1.03 1.36 1.46 1.12 1.05 0.95 1.01 0.90 1.22 1.08 1.07 0.85 0.76 0.60 0.48 0.48 0.44 0.48 0.61 0.75 0.63 0.50 0.60 0.66 0.67 0.60 0.59 0.46 0.35
0.16 0.09 0.35 0.72 0.44 0.44 0.31 0.43 0.41 0.30 0.20 0.12 0.16 0.07 0.08 0.18 0.16 0.29 0.60 1.08 1.09 0.52 0.49 0.87 1.53 1.56 1.34 1.40 1.88 2.29 2.48 2.34 2.01 1.78 1.38 1.11 0.92 0.94 1.19 1.47 1.57 1.46 1.20 0.93 0.94 0.94 0.78 0.77 0.66
0.34 0.08 0.28 0.33 0.20 0.17 0.21 0.30 0.21 0.23 0.22 0.28 0.26 0.14 0.13 0.09 0.18 0.21 0.33 0.50 0.39 0.27 0.27 0.33 0.57 0.72 0.93 1.26 1.33 1.63 1.55 1.48 1.36 1.26 1.33 1.31 1.35 1.26 1.23 1.35 1.35 1.21 1.07 1.19 1.17 1.07 1.09 1.07 0.88
0.13 0.06 0.31 0.26 0.30 0.32 0.21 0.11 0.14 0.20 0.20 0.39 0.30 0.14 0.24 0.14 0.08 0.25 0.19 0.21 0.18 0.16 0.16 0.13 0.18 0.30 0.59 0.67 0.76 1.09 1.35 1.54 1.43 1.11 1.01 0.95 0.80 0.77 0.84 0.81 0.78 0.82 0.78 0.78 0.94 1.09 1.06 0.96 0.94
0.06 0.20 0.71 0.68 0.81 0.49 0.19 0.05 0.09 0.11 0.09 0.21 0.29 0.20 0.19 0.20 0.05 0.12 0.26 0.12 0.07 0.05 0.02 0.01 0.01 0.05 0.24 0.41 0.50 0.70 0.65 0.75 0.60 0.68 0.62 0.51 0.47 0.40 0.41 0.48 0.53 0.57 0.63 0.63 0.70 0.70 0.73 0.76 0.73
0.14 0.17 0.35 0.35 0.22 0.33 0.11 0.11 0.14 0.15 0.11 0.15 0.23 0.27 0.19 0.28 0.07 0.05 0.12 0.10 0.03 0.01 0.00 0.00 0.00 0.00 0.01 0.08 0.19 0.31 0.48 0.57 0.48 0.52 0.45 0.41 0.36 0.40 0.56 0.67 0.66 0.60 0.59 0.62 0.61 0.64 0.60 0.56 0.54
0.13 0.13 0.08 0.21 0.14 0.23 0.18 0.11 0.16 0.14 0.16 0.15 0.21 0.30 0.17 0.12 0.16 0.06 0.04 0.02 0.01 0.00 0.00 0.00 0.00 0.00 0.01 0.03 0.07 0.07 0.10 0.18 0.29 0.34 0.29 0.33 0.32 0.33 0.41 0.47 0.39 0.35 0.33 0.35 0.39 0.38 0.34 0.30 0.29
0.02 0.03 0.11 0.26 0.17 0.11 0.05 0.02 0.07 0.10 0.10 0.10 0.09 0.14 0.13 0.10 0.10 0.04 0.01 0.01 0.00 0.00 0.00 0.00 0.00 0.02 0.03 0.06 0.10 0.03 0.05 0.07 0.08 0.08 0.08 0.10 0.15 0.14 0.15 0.15 0.14 0.16 0.19 0.21 0.23 0.25 0.23 0.24 0.27
0.02 0.09 0.12 0.17 0.14 0.09 0.04 0.02 0.00 0.01 0.03 0.03 0.04 0.08 0.05 0.04 0.01 0.00 0.00 0.00 0.00 0.00 0.00 0.00 0.01 0.04 0.06 0.05 0.03 0.02 0.04 0.06 0.07 0.07 0.05 0.05 0.07 0.07 0.08 0.08 0.09 0.10 0.10 0.11 0.14 0.19 0.29 0.38 0.44
0.02 0.01 0.04 0.23 0.09 0.13 0.06 0.03 0.00 0.00 0.00 0.00 0.00 0.01 0.00 0.00 0.00 0.00 0.00 0.00 0.00 0.00 0.00 0.00 0.05 0.07 0.03 0.02 0.02 0.02 0.03 0.04 0.05 0.05 0.07 0.07 0.07 0.05 0.05 0.06 0.06 0.06 0.10 0.13 0.13 0.13 0.15 0.19 0.23

GFSSGP_prec_precacc_087.txt.gz
Total_Precipitation_Accumulation
0.09 0.10 0.06 0.09 0.06 0.02 0.00 0.00 0.00 0.02 0.03 0.02 0.00 0.03 0.03 0.02 0.00 0.07 0.01 0.00 0.00 0.00 0.02 0.05 0.16 0.14 0.12 0.09 0.06 0.08 0.11 0.15 0.13 0.20 0.18 0.15 0.15 0.07 0.03 0.03 0.04 0.09 0.15 0.17 0.09 0.04 0.01 0.00 0.00
0.11 0.22 0.22 0.22 0.07 0.01 0.00 0.00 0.00 0.04 0.05 0.03 0.03 0.07 0.15 0.12 0.02 0.04 0.05 0.03 0.01 0.00 0.01 0.04 0.15 0.14 0.08 0.03 0.03 0.07 0.10 0.12 0.14 0.17 0.17 0.21 0.17 0.06 0.07 0.07 0.07 0.07 0.05 0.03 0.01 0.01 0.01 0.01 0.00
0.24 0.51 0.40 0.20 0.03 0.00 0.00 0.00 0.00 0.00 0.00 0.02 0.05 0.11 0.40 0.26 0.13 0.04 0.05 0.05 0.03 0.02 0.02 0.05 0.16 0.20 0.06 0.03 0.04 0.06 0.09 0.10 0.16 0.25 0.28 0.28 0.20 0.07 0.07 0.05 0.02 0.01 0.01 0.01 0.00 0.01 0.01 0.00 0.00
0.47 0.73 0.48 0.13 0.03 0.00 0.00 0.00 0.00 0.01 0.07 0.14 0.14 0.14 0.44 0.48 0.18 0.12 0.08 0.05 0.05 0.04 0.05 0.11 0.23 0.19 0.05 0.07 0.07 0.08 0.07 0.10 0.15 0.21 0.31 0.37 0.24 0.11 0.07 0.01 0.01 0.01 0.00 0.00 0.01 0.02 0.01 0.00 0.00
0.71 0.51 0.29 0.21 0.03 0.00 0.00 0.00 0.00 0.01 0.03 0.06 0.10 0.25 0.57 0.51 0.28 0.31 0.28 0.12 0.11 0.10 0.13 0.19 0.37 0.22 0.09 0.09 0.10 0.06 0.06 0.13 0.12 0.23 0.37 0.39 0.20 0.11 0.09 0.03 0.00 0.00 0.01 0.02 0.01 0.02 0.03 0.01 0.01
0.79 0.46 0.36 0.31 0.07 0.00 0.00 0.00 0.00 0.00 0.01 0.04 0.17 0.25 0.56 0.82 0.72 0.61 0.56 0.36 0.30 0.25 0.31 0.29 0.45 0.47 0.17 0.13 0.09 0.06 0.05 0.14 0.12 0.23 0.47 0.40 0.17 0.07 0.08 0.09 0.02 0.01 0.02 0.02 0.03 0.05 0.03 0.02 0.01
0.63 0.53 0.33 0.10 0.04 0.01 0.00 0.00 0.00 0.00 0.00 0.01 0.04 0.07 0.39 1.13 1.11 0.99 0.93 0.74 0.60 0.70 0.50 0.45 0.39 0.36 0.30 0.19 0.08 0.06 0.05 0.12 0.17 0.17 0.31 0.20 0.08 0.02 0.04 0.08 0.06 0.05 0.02 0.05 0.07 0.03 0.02 0.02 0.01
0.46 0.60 0.32 0.05 0.03 0.01 0.00 0.00 0.00 0.00 0.00 0.00 0.02 0.15 0.24 0.69 1.13 1.51 1.62 1.48 1.15 1.17 1.18 0.78 0.61 0.29 0.19 0.25 0.15 0.08 0.06 0.07 0.18 0.15 0.12 0.04 0.01 0.01 0.02 0.02 0.06 0.03 0.06 0.03 0.01 0.02 0.03 0.02 0.00
0.74 1.05 0.49 0.07 0.03 0.02 0.00 0.01 0.01 0.01 0.00 0.00 0.00 0.06 0.09 0.12 0.73 1.85 2.60 2.64 1.51 1.24 1.35 1.59 1.01 0.43 0.21 0.34 0.19 0.12 0.08 0.05 0.13 0.15 0.09 0.04 0.00 0.01 0.00 0.00 0.01 0.02 0.03 0.00 0.00 0.01 0.01 0.00 0.00
1.24 1.35 0.33 0.04 0.02 0.03 0.01 0.01 0.01 0.03 0.01 0.08 0.08 0.05 0.05 0.25 0.54 1.53 2.84 3.00 2.16 1.29 1.05 1.40 1.56 0.77 0.38 0.38 0.25 0.15 0.10 0.06 0.05 0.11 0.08 0.03 0.00 0.01 0.00 0.00 0.01 0.02 0.00 0.00 0.00 0.00 0.00 0.00 0.00
1.22 0.82 0.14 0.09 0.14 0.16 0.04 0.03 0.01 0.08 0.11 0.02 0.08 0.09 0.14 0.35 0.47 0.76 1.75 2.93 2.83 2.23 1.33 0.89 1.19 1.15 0.52 0.68 0.41 0.22 0.09 0.07 0.01 0.07 0.07 0.03 0.00 0.01 0.01 0.00 0.01 0.00 0.00 0.00 0.00 0.00 0.00 0.00 0.00
0.93 0.41 0.23 0.19 0.30 0.19 0.07 0.05 0.02 0.04 0.02 0.00 0.10 0.14 0.17 0.31 0.41 0.63 0.81 1.89 2.01 2.33 2.11 1.38 0.86 1.02 0.69 0.72 0.57 0.19 0.08 0.06 0.01 0.01 0.08 0.03 0.00 0.00 0.01 0.01 0.01 0.01 0.00 0.00 0.00 0.00 0.00 0.00 0.00
0.72 0.52 0.42 0.47 0.38 0.29 0.23 0.15 0.04 0.01 0.02 0.03 0.13 0.14 0.19 0.34 0.32 0.54 0.55 0.63 1.10 1.60 2.53 2.32 1.58 1.00 0.82 0.53 0.77 0.32 0.10 0.05 0.02 0.00 0.03 0.04 0.01 0.00 0.00 0.01 0.02 0.01 0.00 0.00 0.00 0.00 0.00 0.00 0.00
0.66 0.73 0.55 0.72 0.55 0.43 0.29 0.17 0.21 0.03 0.06 0.15 0.26 0.30 0.32 0.32 0.36 0.50 0.34 0.37 0.75 0.94 1.22 2.05 2.03 1.89 1.34 0.91 1.09 0.77 0.27 0.13 0.05 0.02 0.01 0.01 0.01 0.00 0.00 0.00 0.01 0.01 0.00 0.00 0.00 0.00 0.00 0.00 0.00
0.71 0.82 1.01 0.92 0.74 0.66 0.44 0.37 0.31 0.06 0.10 0.18 0.28 0.28 0.42 0.38 0.37 0.26 0.48 0.56 0.45 0.58 0.76 0.91 1.29 2.07 2.01 1.27 1.18 1.44 0.83 0.34 0.12 0.02 0.01 0.01 0.00 0.00 0.00 0.00 0.00 0.00 0.00 0.00 0.00 0.00 0.00 0.00 0.00
0.76 1.36 1.33 0.96 1.25 1.00 0.65 0.30 0.09 0.11 0.13 0.11 0.20 0.38 0.56 0.60 0.54 0.47 0.33 0.29 0.51 0.48 0.40 0.47 0.59 1.07 1.50 1.20 1.19 1.28 1.22 0.82 0.37 0.12 0.02 0.02 0.01 0.00 0.00 0.00 0.00 0.00 0.00 0.00 0.00 0.00 0.00 0.00 0.00
0.76 1.14 1.00 0.90 1.01 1.40 0.77 0.24 0.10 0.12 0.17 0.09 0.11 0.31 0.46 0.63 0.53 0.39 0.42 0.54 0.31 0.31 0.36 0.43 0.57 0.60 0.69 0.83 0.80 0.92 0.98 0.99 0.61 0.43 0.16 0.08 0.04 0.02 0.01 0.00 0.00 0.00 0.00 0.00 0.00 0.00 0.00 0.00 0.01
0.45 0.58 0.69 0.70 0.67 1.02 1.10 0.36 0.19 0.15 0.18 0.08 0.04 0.11 0.37 0.57 0.91 0.56 0.43 0.61 0.55 0.38 0.40 0.43 0.31 0.38 0.43 0.89 0.97 0.96 0.86 0.84 0.75 0.37 0.25 0.25 0.20 0.18 0.10 0.03 0.01 0.01 0.01 0.00 0.01 0.02 0.03 0.01 0.02
0.35 0.29 0.60 0.54 0.54 0.61 0.93 0.67 0.24 0.16 0.20 0.18 0.07 0.05 0.21 0.49 1.00 1.20 0.79 0.64 0.75 0.68 0.71 0.49 0.41 0.36 0.39 0.56 0.52 0.62 0.73 1.08 1.01 0.85 0.68 0.58 0.59 0.52 0.42 0.27 0.15 0.04 0.01 0.01 0.04 0.07 0.13 0.15 0.20
0.22 0.20 0.63 0.83 0.70 0.68 0.62 0.86 0.43 0.17 0.16 0.15 0.16 0.12 0.20 0.43 0.82 1.19 1.57 0.74 0.65 1.30 1.51 1.12 0.81 0.76 0.50 0.62 0.62 0.50 0.66 0.74 0.75 0.85 0.76 0.69 0.63 0.58 0.50 0.44 0.41 0.30 0.21 0.13 0.18 0.19 0.21 0.16 0.23
0.14 0.08 0.39 1.19 0.90 0.60 0.48 0.58 0.69 0.27 0.15 0.12 0.13 0.12 0.22 0.41 0.44 0.92 1.68 1.21 1.06 1.49 1.56 1.28 1.20 1.02 1.05 0.96 1.30 1.12 1.08 0.91 0.86 0.71 0.75 0.87 0.75 0.65 0.77 0.86 0.69 0.52 0.67 0.78 0.80 0.69 0.63 0.48 0.36
0.23 0.09 0.37 0.73 0.48 0.46 0.31 0.43 0.41 0.31 0.21 0.14 0.20 0.13 0.16 0.29 0.27 0.42 0.66 1.10 1.25 0.78 0.70 1.17 2.12 2.23 1.43 1.49 1.98 2.44 2.51 2.39 2.07 1.87 1.45 1.22 1.10 1.10 1.28 1.55 1.65 1.50 1.21 0.94 0.95 0.98 0.84 0.82 0.76
0.41 0.10 0.29 0.34 0.22 0.21 0.21 0.42 0.21 0.23 0.22 0.28 0.28 0.16 0.14 0.10 0.22 0.25 0.34 0.54 0.50 0.38 0.40 0.54 1.02 1.48 1.33 1.57 1.62 1.81 1.69 1.54 1.44 1.36 1.41 1.36 1.41 1.34 1.27 1.36 1.39 1.27 1.10 1.20 1.17 1.07 1.09 1.07 0.88
0.16 0.09 0.37 0.29 0.34 0.36 0.21 0.20 0.17 0.20 0.20 0.39 0.31 0.15 0.25 0.20 0.11 0.27 0.20 0.26 0.32 0.38 0.44 0.36 0.45 0.59 0.93 1.04 1.01 1.23 1.45 1.60 1.50 1.15 1.06 1.00 0.83 0.79 0.85 0.82 0.80 0.83 0.79 0.78 0.94 1.09 1.06 0.96 0.94
0.17 0.37 0.99 0.93 1.06 0.58 0.20 0.05 0.10 0.11 0.09 0.22 0.34 0.23 0.33 0.46 0.19 0.15 0.31 0.22 0.28 0.31 0.19 0.14 0.28 0.33 0.53 0.61 0.66 0.96 0.79 0.91 0.71 0.73 0.64 0.53 0.48 0.40 0.41 0.48 0.53 0.58 0.64 0.64 0.70 0.70 0.73 0.78 0.75
0.20 0.31 0.58 0.54 0.26 0.37 0.12 0.12 0.15 0.16 0.15 0.16 0.29 0.33 0.49 0.66 0.21 0.13 0.17 0.18 0.12 0.04 0.01 0.01 0.02 0.02 0.06 0.15 0.28 0.46 0.63 0.82 0.75 0.70 0.55 0.47 0.39 0.43 0.56 0.67 0.67 0.60 0.60 0.62 0.62 0.66 0.65 0.65 0.69
0.16 0.24 0.16 0.31 0.15 0.26 0.28 0.20 0.28 0.23 0.28 0.20 0.24 0.38 0.30 0.30 0.25 0.13 0.07 0.09 0.06 0.00 0.00 0.00 0.00 0.00 0.01 0.03 0.07 0.08 0.13 0.22 0.34 0.43 0.45 0.55 0.55 0.39 0.43 0.56 0.55 0.42 0.37 0.37 0.40 0.40 0.36 0.34 0.33
0.02 0.03 0.11 0.32 0.22 0.16 0.15 0.07 0.24 0.30 0.28 0.24 0.23 0.30 0.31 0.19 0.29 0.12 0.05 0.03 0.02 0.00 0.00 0.00 0.00 0.02 0.03 0.06 0.10 0.03 0.05 0.08 0.09 0.10 0.10 0.14 0.23 0.23 0.21 0.24 0.27 0.25 0.22 0.23 0.25 0.26 0.26 0.27 0.29
0.02 0.09 0.12 0.17 0.14 0.09 0.04 0.07 0.09 0.10 0.10 0.12 0.11 0.15 0.12 0.14 0.10 0.02 0.00 0.00 0.00 0.00 0.00 0.00 0.01 0.04 0.06 0.05 0.03 0.02 0.04 0.06 0.07 0.07 0.05 0.05 0.07 0.07 0.08 0.08 0.09 0.10 0.11 0.12 0.15 0.19 0.30 0.40 0.45
0.02 0.01 0.04 0.23 0.09 0.13 0.06 0.05 0.00 0.00 0.02 0.02 0.02 0.02 0.00 0.00 0.00 0.00 0.00 0.00 0.00 0.00 0.00 0.00 0.05 0.07 0.03 0.02 0.02 0.02 0.03 0.04 0.05 0.05 0.07 0.07 0.07 0.05 0.05 0.06 0.06 0.06 0.10 0.13 0.14 0.14 0.16 0.21 0.26

GFSSGP_prec_precacc_093.txt.gz
Total_Precipitation_Accumulation
0.09 0.10 0.06 0.09 0.06 0.02 0.00 0.00 0.00 0.02 0.03 0.02 0.00 0.03 0.03 0.02 0.00 0.07 0.01 0.00 0.00 0.00 0.02 0.05 0.16 0.14 0.13 0.10 0.07 0.09 0.12 0.17 0.14 0.20 0.18 0.16 0.16 0.08 0.03 0.03 0.04 0.10 0.16 0.20 0.11 0.04 0.01 0.00 0.00
0.11 0.22 0.22 0.22 0.07 0.01 0.00 0.00 0.00 0.04 0.05 0.03 0.03 0.07 0.15 0.12 0.02 0.04 0.05 0.03 0.01 0.00 0.01 0.04 0.15 0.14 0.08 0.03 0.04 0.07 0.11 0.14 0.16 0.19 0.18 0.23 0.18 0.07 0.07 0.07 0.07 0.07 0.07 0.05 0.01 0.01 0.01 0.01 0.00
0.24 0.51 0.40 0.20 0.03 0.00 0.00 0.00 0.00 0.00 0.00 0.02 0.05 0.11 0.40 0.26 0.13 0.04 0.05 0.05 0.03 0.02 0.02 0.05 0.16 0.20 0.06 0.03 0.04 0.06 0.09 0.10 0.17 0.27 0.31 0.32 0.26 0.08 0.07 0.05 0.02 0.02 0.03 0.02 0.01 0.01 0.01 0.00 0.00
0.47 0.73 0.48 0.14 0.03 0.00 0.00 0.00 0.00 0.01 0.07 0.14 0.14 0.14 0.44 0.48 0.18 0.12 0.08 0.06 0.05 0.05 0.05 0.15 0.32 0.24 0.07 0.12 0.08 0.08 0.07 0.10 0.16 0.23 0.34 0.41 0.31 0.16 0.07 0.01 0.01 0.01 0.01 0.01 0.02 0.02 0.01 0.00 0.00
0.71 0.51 0.29 0.21 0.03 0.00 0.00 0.00 0.00 0.01 0.03 0.06 0.10 0.25 0.57 0.51 0.28 0.31 0.28 0.14 0.15 0.12 0.13 0.30 0.64 0.47 0.12 0.13 0.15 0.07 0.06 0.15 0.13 0.24 0.40 0.45 0.25 0.22 0.10 0.04 0.01 0.00 0.01 0.03 0.03 0.03 0.03 0.01 0.01
0.79 0.46 0.36 0.31 0.07 0.00 0.00 0.00 0.00 0.00 0.01 0.04 0.17 0.25 0.56 0.82 0.73 0.63 0.62 0.44 0.46 0.35 0.36 0.44 0.68 0.69 0.45 0.31 0.19 0.09 0.06 0.18 0.15 0.25 0.52 0.48 0.29 0.20 0.13 0.11 0.02 0.01 0.03 0.03 0.04 0.05 0.03 0.02 0.01
0.63 0.53 0.33 0.10 0.04 0.01 0.00 0.00 0.00 0.00 0.00 0.01 0.04 0.07 0.39 1.13 1.12 1.10 1.06 0.90 0.79 0.97 0.74 0.51 0.41 0.39 0.38 0.26 0.13 0.07 0.07 0.16 0.23 0.20 0.37 0.32 0.25 0.14 0.10 0.11 0.07 0.06 0.04 0.07 0.08 0.03 0.02 0.02 0.01
0.46 0.60 0.32 0.05 0.03 0.01 0.00 0.00 0.00 0.00 0.00 0.00 0.02 0.15 0.24 0.69 1.13 1.55 1.67 1.54 1.26 1.35 1.48 1.14 0.78 0.37 0.28 0.27 0.16 0.09 0.07 0.08 0.30 0.20 0.19 0.14 0.11 0.08 0.06 0.03 0.06 0.04 0.07 0.05 0.01 0.02 0.03 0.02 0.00
0.74 1.05 0.49 0.07 0.03 0.02 0.00 0.01 0.01 0.01 0.00 0.00 0.00 0.06 0.09 0.13 0.74 1.87 2.61 2.66 1.53 1.28 1.43 1.84 1.40 0.76 0.43 0.39 0.21 0.12 0.09 0.05 0.22 0.24 0.14 0.11 0.06 0.02 0.00 0.00 0.02 0.04 0.05 0.01 0.00 0.01 0.01 0.00 0.00
1.24 1.35 0.33 0.04 0.02 0.03 0.01 0.01 0.01 0.03 0.01 0.08 0.08 0.05 0.05 0.27 0.59 1.56 2.86 3.02 2.17 1.30 1.08 1.45 1.72 1.01 0.61 0.54 0.32 0.16 0.11 0.09 0.09 0.23 0.17 0.10 0.07 0.02 0.00 0.00 0.01 0.03 0.01 0.01 0.00 0.00 0.00 0.00 0.00
1.22 0.82 0.14 0.09 0.14 0.16 0.04 0.03 0.01 0.08 0.11 0.02 0.08 0.09 0.15 0.37 0.50 0.78 1.77 2.94 2.84 2.23 1.33 0.89 1.21 1.20 0.59 0.78 0.52 0.26 0.10 0.09 0.07 0.17 0.28 0.14 0.10 0.08 0.01 0.00 0.01 0.01 0.00 0.00 0.00 0.00 0.00 0.00 0.00
0.93 0.41 0.23 0.19 0.30 0.19 0.07 0.05 0.02 0.04 0.02 0.00 0.10 0.14 0.17 0.32 0.43 0.66 0.82 1.89 2.01 2.33 2.11 1.38 0.86 1.02 0.69 0.74 0.69 0.24 0.09 0.06 0.05 0.07 0.32 0.28 0.15 0.15 0.16 0.03 0.01 0.01 0.00 0.00 0.00 0.00 0.00 0.00 0.00
0.72 0.52 0.42 0.47 0.38 0.29 0.23 0.15 0.04 0.01 0.02 0.03 0.13 0.14 0.19 0.34 0.32 0.55 0.56 0.64 1.11 1.60 2.53 2.32 1.58 1.00 0.82 0.54 0.84 0.38 0.13 0.05 0.03 0.05 0.09 0.41 0.29 0.21 0.16 0.21 0.08 0.02 0.00 0.00 0.00 0.00 0.00 0.00 0.00
0.66 0.73 0.55 0.72 0.55 0.43 0.29 0.17 0.21 0.03 0.06 0.15 0.26 0.30 0.32 0.32 0.36 0.50 0.34 0.37 0.75 0.94 1.22 2.05 2.03 1.89 1.34 0.91 1.10 0.82 0.30 0.14 0.06 0.04 0.03 0.07 0.36 0.33 0.37 0.21 0.16 0.06 0.00 0.00 0.00 0.00 0.00 0.00 0.00
0.71 0.82 1.01 0.92 0.74 0.66 0.44 0.37 0.31 0.06 0.10 0.18 0.28 0.28 0.42 0.38 0.37 0.26 0.48 0.56 0.45 0.58 0.76 0.91 1.29 2.07 2.01 1.27 1.18 1.45 0.88 0.37 0.13 0.02 0.02 0.02 0.08 0.35 0.32 0.56 0.25 0.04 0.01 0.00 0.00 0.00 0.00 0.00 0.00
0.76 1.36 1.33 0.96 1.25 1.00 0.65 0.30 0.09 0.11 0.13 0.11 0.20 0.38 0.56 0.60 0.54 0.47 0.33 0.29 0.51 0.49 0.40 0.47 0.59 1.07 1.50 1.20 1.19 1.30 1.31 0.95 0.39 0.12 0.03 0.03 0.02 0.05 0.25 0.27 0.35 0.11 0.02 0.00 0.00 0.00 0.00 0.00 0.00
0.76 1.14 1.00 0.90 1.01 1.40 0.77 0.24 0.10 0.12 0.17 0.09 0.11 0.31 0.46 0.63 0.53 0.39 0.42 0.54 0.31 0.32 0.37 0.44 0.57 0.60 0.69 0.85 0.84 0.97 1.16 1.28 0.81 0.49 0.18 0.08 0.04 0.02 0.05 0.13 0.14 0.08 0.03 0.00 0.00 0.00 0.00 0.00 0.01
0.45 0.58 0.69 0.70 0.67 1.02 1.10 0.36 0.19 0.15 0.18 0.08 0.04 0.11 0.37 0.57 0.91 0.56 0.44 0.62 0.57 0.39 0.42 0.46 0.31 0.38 0.43 0.93 1.09 1.12 1.04 1.09 1.03 0.58 0.34 0.27 0.20 0.19 0.11 0.09 0.09 0.04 0.01 0.00 0.01 0.02 0.03 0.01 0.02
0.35 0.29 0.60 0.54 0.54 0.62 0.93 0.67 0.24 0.16 0.20 0.18 0.07 0.05 0.21 0.49 1.00 1.21 0.85 0.73 0.82 0.72 0.74 0.52 0.42 0.36 0.40 0.58 0.55 0.73 0.90 1.21 1.35 1.05 0.87 0.71 0.63 0.54 0.44 0.30 0.18 0.09 0.02 0.01 0.04 0.07 0.13 0.15 0.20
0.23 0.21 0.63 0.83 0.70 0.70 0.63 0.86 0.43 0.17 0.16 0.15 0.17 0.13 0.21 0.45 0.87 1.25 1.65 0.84 0.76 1.35 1.55 1.15 0.82 0.77 0.53 0.65 0.64 0.56 0.79 1.00 1.19 1.35 1.07 1.03 0.83 0.67 0.55 0.47 0.43 0.31 0.21 0.13 0.18 0.20 0.21 0.16 0.23
0.15 0.09 0.39 1.22 0.91 0.60 0.49 0.58 0.69 0.27 0.15 0.12 0.18 0.21 0.30 0.48 0.49 0.94 1.74 1.30 1.14 1.54 1.57 1.30 1.21 1.06 1.14 1.05 1.35 1.16 1.15 1.06 1.38 1.51 1.28 1.29 1.20 1.05 1.04 1.02 0.78 0.56 0.69 0.82 0.84 0.76 0.70 0.57 0.42
0.24 0.09 0.39 0.78 0.54 0.47 0.31 0.43 0.41 0.31 0.21 0.15 0.24 0.25 0.27 0.39 0.29 0.46 0.77 1.17 1.32 0.81 0.72 1.18 2.23 2.50 1.57 1.57 2.34 2.73 2.63 2.49 2.23 2.55 2.18 1.65 1.48 1.46 1.65 1.90 1.99 1.81 1.47 1.17 1.15 1.15 1.01 1.00 0.93
0.42 0.11 0.31 0.36 0.23 0.23 0.21 0.49 0.21 0.23 0.22 0.28 0.28 0.16 0.15 0.12 0.23 0.27 0.44 0.65 0.53 0.42 0.43 0.57 1.10 1.89 1.95 1.88 2.33 2.73 2.31 1.84 1.65 1.74 2.13 1.92 1.96 1.75 1.65 1.67 1.67 1.55 1.40 1.51 1.46 1.32 1.33 1.27 1.03
0.17 0.12 0.43 0.36 0.40 0.42 0.21 0.26 0.18 0.20 0.20 0.39 0.31 0.15 0.27 0.22 0.14 0.30 0.23 0.30 0.34 0.39 0.48 0.44 0.60 0.96 1.77 1.91 1.88 2.21 2.46 2.56 2.14 1.76 1.89 1.63 1.39 1.37 1.32 1.19 1.08 1.09 1.07 1.04 1.18 1.32 1.23 1.11 1.07
0.21 0.52 1.18 1.10 1.11 0.64 0.22 0.06 0.11 0.11 0.10 0.22 0.35 0.24 0.35 0.48 0.29 0.34 0.51 0.48 0.53 0.53 0.33 0.36 0.46 0.58 0.89 1.23 1.32 1.43 1.22 1.47 1.59 1.48 1.43 1.36 1.11 0.89 0.98 0.89 0.86 0.86 0.89 0.89 0.91 0.89 0.88 0.92 0.86
0.29 0.52 0.83 0.71 0.32 0.40 0.15 0.16 0.15 0.17 0.16 0.17 0.33 0.44 0.70 0.96 0.52 0.44 0.66 0.69 0.66 0.39 0.24 0.18 0.19 0.19 0.21 0.33 0.54 0.78 0.93 1.21 1.18 1.10 1.00 0.88 0.77 0.75 0.86 0.92 0.86 0.78 0.78 0.80 0.79 0.80 0.78 0.76 0.78
0.27 0.36 0.28 0.38 0.16 0.28 0.33 0.27 0.32 0.25 0.31 0.23 0.32 0.63 0.84 0.92 0.75 0.56 0.47 0.61 0.51 0.26 0.18 0.12 0.09 0.10 0.05 0.06 0.14 0.19 0.22 0.34 0.50 0.63 0.64 0.77 0.91 0.82 0.82 0.86 0.79 0.67 0.56 0.49 0.51 0.50 0.46 0.43 0.41
0.04 0.08 0.17 0.40 0.32 0.24 0.23 0.18 0.42 0.45 0.46 0.45 0.48 0.61 0.70 0.60 0.75 0.59 0.44 0.43 0.27 0.09 0.03 0.00 0.00 0.02 0.03 0.06 0.10 0.03 0.05 0.09 0.14 0.16 0.16 0.20 0.33 0.42 0.44 0.51 0.51 0.50 0.55 0.52 0.50 0.45 0.45 0.40 0.38
0.04 0.13 0.14 0.19 0.17 0.15 0.06 0.11 0.26 0.32 0.33 0.39 0.39 0.47 0.50 0.56 0.46 0.30 0.24 0.15 0.04 0.00 0.00 0.00 0.01 0.04 0.06 0.05 0.03 0.02 0.04 0.06 0.07 0.07 0.05 0.05 0.07 0.07 0.08 0.10 0.13 0.13 0.15 0.23 0.31 0.31 0.39 0.48 0.53
0.02 0.01 0.04 0.23 0.09 0.13 0.06 0.06 0.05 0.08 0.11 0.16 0.15 0.19 0.15 0.19 0.15 0.09 0.04 0.02 0.00 0.00 0.00 0.00 0.05 0.07 0.03 0.02 0.02 0.02 0.03 0.04 0.05 0.05 0.07 0.07 0.07 0.05 0.05 0.06 0.06 0.06 0.10 0.13 0.14 0.15 0.17 0.22 0.28

GFSSGP_prec_precacc_096.txt.gz
Total_Precipitation_Accumulation
0.09 0.10 0.06 0.09 0.06 0.02 0.00 0.00 0.00 0.02 0.03 0.02 0.00 0.03 0.03 0.02 0.00 0.07 0.01 0.00 0.00 0.00 0.02 0.05 0.16 0.15 0.15 0.11 0.09 0.09 0.12 0.17 0.14 0.20 0.18 0.16 0.16 0.08 0.03 0.03 0.05 0.10 0.18 0.21 0.11 0.04 0.01 0.01 0.00
0.11 0.22 0.22 0.22 0.07 0.01 0.00 0.00 0.00 0.04 0.05 0.03 0.03 0.07 0.15 0.12 0.02 0.04 0.05 0.03 0.01 0.00 0.01 0.04 0.15 0.14 0.09 0.03 0.06 0.10 0.12 0.15 0.18 0.19 0.18 0.23 0.19 0.07 0.07 0.07 0.07 0.09 0.08 0.05 0.01 0.01 0.01 0.01 0.00
0.24 0.51 0.40 0.20 0.03 0.00 0.00 0.00 0.00 0.00 0.00 0.02 0.05 0.11 0.40 0.26 0.13 0.04 0.05 0.05 0.03 0.02 0.02 0.05 0.16 0.20 0.06 0.03 0.04 0.07 0.10 0.11 0.18 0.29 0.32 0.34 0.26 0.08 0.07 0.05 0.02 0.05 0.05 0.02 0.01 0.01 0.01 0.00 0.00
0.47 0.73 0.48 0.14 0.03 0.00 0.00 0.00 0.00 0.01 0.07 0.14 0.14 0.14 0.44 0.48 0.18 0.12 0.08 0.06 0.05 0.05 0.05 0.15 0.33 0.24 0.07 0.12 0.08 0.08 0.07 0.10 0.16 0.24 0.36 0.44 0.31 0.19 0.07 0.01 0.01 0.03 0.02 0.01 0.02 0.02 0.01 0.00 0.00
0.71 0.51 0.29 0.21 0.03 0.00 0.00 0.00 0.00 0.01 0.03 0.06 0.10 0.25 0.57 0.51 0.28 0.32 0.28 0.16 0.17 0.12 0.16 0.31 0.65 0.47 0.12 0.13 0.15 0.07 0.07 0.15 0.13 0.24 0.40 0.45 0.27 0.26 0.11 0.04 0.01 0.01 0.01 0.03 0.03 0.03 0.03 0.01 0.01
0.79 0.46 0.36 0.31 0.07 0.00 0.00 0.00 0.00 0.00 0.01 0.04 0.17 0.25 0.56 0.82 0.73 0.64 0.66 0.51 0.62 0.48 0.48 0.48 0.73 0.75 0.48 0.33 0.21 0.11 0.07 0.18 0.15 0.27 0.52 0.49 0.33 0.22 0.15 0.11 0.02 0.01 0.03 0.04 0.04 0.05 0.03 0.02 0.01
0.63 0.53 0.33 0.10 0.04 0.01 0.00 0.00 0.00 0.00 0.00 0.01 0.04 0.07 0.39 1.13 1.12 1.10 1.07 0.93 0.88 1.14 0.89 0.56 0.42 0.41 0.39 0.27 0.13 0.08 0.07 0.16 0.23 0.21 0.39 0.34 0.29 0.18 0.13 0.14 0.07 0.06 0.04 0.08 0.09 0.03 0.02 0.02 0.01
0.46 0.60 0.32 0.05 0.03 0.01 0.00 0.00 0.00 0.00 0.00 0.00 0.02 0.15 0.24 0.69 1.13 1.55 1.67 1.55 1.28 1.40 1.61 1.28 0.96 0.48 0.31 0.28 0.16 0.09 0.07 0.08 0.30 0.20 0.19 0.16 0.14 0.11 0.09 0.05 0.07 0.04 0.07 0.06 0.03 0.02 0.03 0.02 0.00
0.74 1.05 0.49 0.07 0.03 0.02 0.00 0.01 0.01 0.01 0.00 0.00 0.00 0.06 0.09 0.13 0.74 1.87 2.61 2.66 1.54 1.29 1.48 1.94 1.55 0.91 0.58 0.48 0.24 0.14 0.09 0.05 0.22 0.24 0.14 0.12 0.07 0.05 0.02 0.01 0.02 0.04 0.05 0.02 0.02 0.01 0.01 0.00 0.00
1.24 1.35 0.33 0.04 0.02 0.03 0.01 0.01 0.01 0.03 0.01 0.08 0.08 0.05 0.05 0.27 0.59 1.56 2.86 3.02 2.18 1.31 1.09 1.46 1.75 1.06 0.68 0.59 0.35 0.18 0.12 0.09 0.09 0.23 0.17 0.10 0.09 0.04 0.03 0.00 0.01 0.03 0.01 0.01 0.01 0.00 0.00 0.00 0.00
1.22 0.82 0.14 0.09 0.14 0.16 0.04 0.03 0.01 0.08 0.11 0.02 0.08 0.09 0.15 0.37 0.50 0.78 1.77 2.94 2.84 2.23 1.34 0.90 1.22 1.21 0.61 0.79 0.53 0.26 0.10 0.09 0.07 0.17 0.28 0.14 0.12 0.11 0.05 0.01 0.01 0.01 0.01 0.01 0.01 0.00 0.00 0.00 0.00
0.93 0.41 0.23 0.19 0.30 0.19 0.07 0.05 0.02 0.04 0.02 0.00 0.10 0.14 0.17 0.32 0.43 0.66 0.82 1.89 2.01 2.33 2.12 1.41 0.89 1.05 0.70 0.75 0.69 0.24 0.09 0.06 0.05 0.07 0.32 0.28 0.16 0.17 0.18 0.04 0.02 0.01 0.00 0.00 0.00 0.00 0.00 0.00 0.00
0.72 0.52 0.42 0.47 0.38 0.29 0.23 0.15 0.04 0.01 0.02 0.03 0.13 0.14 0.19 0.34 0.32 0.55 0.56 0.64 1.11 1.60 2.53 2.32 1.58 1.01 0.82 0.54 0.84 0.38 0.13 0.05 0.03 0.05 0.09 0.41 0.30 0.23 0.20 0.25 0.08 0.02 0.01 0.00 0.00 0.00 0.00 0.00 0.00
0.66 0.73 0.55 0.72 0.55 0.43 0.29 0.17 0.21 0.03 0.06 0.15 0.26 0.30 0.32 0.32 0.36 0.50 0.34 0.37 0.75 0.94 1.22 2.05 2.03 1.89 1.34 0.91 1.10 0.82 0.30 0.14 0.06 0.04 0.03 0.07 0.36 0.33 0.40 0.26 0.18 0.10 0.03 0.02 0.00 0.00 0.00 0.00 0.00
0.71 0.82 1.01 0.92 0.74 0.66 0.44 0.37 0.31 0.06 0.10 0.18 0.28 0.28 0.42 0.38 0.37 0.26 0.48 0.56 0.45 0.58 0.76 0.91 1.29 2.07 2.01 1.27 1.18 1.45 0.88 0.37 0.13 0.02 0.02 0.02 0.08 0.35 0.33 0.67 0.45 0.14 0.09 0.06 0.02 0.00 0.00 0.00 0.00
0.76 1.36 1.33 0.96 1.25 1.00 0.65 0.30 0.09 0.11 0.13 0.11 0.20 0.38 0.56 0.60 0.54 0.47 0.33 0.29 0.51 0.49 0.40 0.47 0.59 1.07 1.50 1.20 1.19 1.30 1.31 0.95 0.39 0.12 0.03 0.03 0.02 0.05 0.25 0.28 0.58 0.54 0.36 0.22 0.07 0.04 0.01 0.00 0.00
0.76 1.14 1.00 0.90 1.01 1.40 0.77 0.24 0.10 0.12 0.17 0.09 0.11 0.31 0.46 0.63 0.53 0.39 0.42 0.54 0.31 0.32 0.37 0.44 0.57 0.60 0.69 0.85 0.84 0.97 1.16 1.28 0.81 0.49 0.18 0.08 0.05 0.03 0.06 0.14 0.16 0.28 0.30 0.25 0.13 0.06 0.01 0.00 0.01
0.45 0.58 0.69 0.70 0.67 1.02 1.10 0.36 0.19 0.15 0.18 0.08 0.04 0.11 0.37 0.57 0.91 0.56 0.44 0.62 0.57 0.39 0.42 0.46 0.31 0.38 0.43 0.93 1.09 1.12 1.04 1.09 1.03 0.58 0.34 0.27 0.21 0.20 0.14 0.11 0.13 0.10 0.12 0.14 0.10 0.06 0.04 0.02 0.02
0.35 0.29 0.60 0.54 0.54 0.62 0.93 0.67 0.24 0.16 0.20 0.18 0.07 0.05 0.21 0.49 1.00 1.21 0.85 0.73 0.83 0.72 0.74 0.52 0.42 0.36 0.40 0.58 0.55 0.73 0.90 1.21 1.35 1.05 0.87 0.73 0.65 0.55 0.46 0.35 0.24 0.15 0.06 0.05 0.10 0.12 0.15 0.15 0.20
0.23 0.21 0.63 0.83 0.70 0.70 0.63 0.86 0.43 0.17 0.16 0.15 0.17 0.13 0.21 0.45 0.88 1.25 1.65 0.85 0.78 1.38 1.56 1.16 0.83 0.77 0.53 0.65 0.64 0.56 0.79 1.00 1.19 1.35 1.07 1.08 1.01 0.86 0.63 0.54 0.49 0.36 0.26 0.15 0.19 0.22 0.23 0.16 0.23
0.15 0.09 0.39 1.22 0.92 0.60 0.49 0.58 0.69 0.27 0.15 0.12 0.18 0.22 0.34 0.53 0.55 0.99 1.78 1.32 1.15 1.56 1.60 1.32 1.22 1.06 1.14 1.05 1.36 1.16 1.16 1.06 1.38 1.52 1.30 1.30 1.23 1.18 1.33 1.31 0.98 0.67 0.74 0.85 0.85 0.77 0.71 0.57 0.42
0.24 0.09 0.39 0.79 0.58 0.49 0.31 0.44 0.41 0.31 0.21 0.15 0.25 0.28 0.31 0.41 0.34 0.52 0.83 1.20 1.35 0.83 0.72 1.18 2.23 2.50 1.57 1.57 2.34 2.73 2.63 2.50 2.23 2.56 2.22 1.70 1.50 1.52 1.75 2.05 2.27 2.10 1.64 1.22 1.18 1.17 1.01 1.01 0.94
0.42 0.11 0.31 0.36 0.26 0.27 0.21 0.49 0.21 0.23 0.22 0.28 0.28 0.17 0.16 0.16 0.28 0.31 0.47 0.67 0.54 0.43 0.43 0.57 1.10 1.89 1.95 1.88 2.34 2.74 2.32 1.85 1.65 1.75 2.26 2.22 2.13 1.86 1.78 1.84 1.87 1.80 1.64 1.74 1.61 1.39 1.37 1.31 1.08
0.17 0.12 0.44 0.38 0.45 0.46 0.21 0.26 0.18 0.20 0.20 0.39 0.31 0.15 0.27 0.23 0.15 0.30 0.25 0.31 0.35 0.40 0.49 0.44 0.61 0.98 1.80 1.94 1.93 2.24 2.49 2.66 2.27 1.86 2.05 2.02 1.66 1.61 1.54 1.39 1.26 1.29 1.28 1.29 1.47 1.55 1.37 1.24 1.20
0.22 0.55 1.19 1.11 1.13 0.65 0.22 0.07 0.11 0.11 0.10 0.23 0.36 0.24 0.35 0.48 0.29 0.35 0.55 0.50 0.54 0.54 0.36 0.39 0.51 0.59 0.93 1.29 1.46 1.50 1.28 1.67 1.82 1.69 1.71 1.89 1.87 1.46 1.30 1.18 1.11 1.05 1.05 1.04 1.06 1.05 1.03 1.05 0.97
0.30 0.54 0.85 0.72 0.35 0.41 0.16 0.19 0.16 0.17 0.16 0.18 0.34 0.45 0.71 0.96 0.53 0.47 0.73 0.83 0.83 0.56 0.50 0.32 0.36 0.26 0.25 0.33 0.55 0.79 0.96 1.25 1.26 1.21 1.24 1.28 1.25 1.36 1.34 1.24 1.12 0.97 0.94 0.95 0.94 0.93 0.94 0.94 0.95
0.29 0.40 0.30 0.42 0.20 0.31 0.34 0.28 0.33 0.26 0.31 0.23 0.33 0.64 0.88 0.97 0.82 0.65 0.61 0.81 0.71 0.46 0.39 0.30 0.19 0.18 0.07 0.06 0.14 0.20 0.28 0.37 0.52 0.68 0.74 0.91 1.15 1.08 1.12 1.12 1.02 0.84 0.72 0.63 0.64 0.62 0.56 0.58 0.62
0.07 0.12 0.22 0.46 0.37 0.25 0.24 0.20 0.49 0.51 0.50 0.51 0.57 0.75 0.82 0.69 0.87 0.75 0.62 0.58 0.42 0.20 0.09 0.05 0.03 0.03 0.03 0.06 0.10 0.03 0.06 0.09 0.14 0.17 0.18 0.23 0.39 0.50 0.55 0.62 0.65 0.66 0.71 0.78 0.73 0.62 0.58 0.54 0.51
0.04 0.13 0.15 0.21 0.20 0.18 0.07 0.13 0.31 0.36 0.36 0.44 0.48 0.59 0.62 0.68 0.61 0.48 0.41 0.25 0.08 0.01 0.00 0.00 0.01 0.04 0.06 0.05 0.03 0.02 0.04 0.06 0.07 0.07 0.05 0.05 0.07 0.08 0.09 0.11 0.14 0.16 0.19 0.31 0.45 0.55 0.63 0.69 0.72
0.02 0.01 0.04 0.23 0.09 0.13 0.07 0.06 0.05 0.09 0.12 0.19 0.23 0.25 0.24 0.31 0.27 0.21 0.11 0.03 0.00 0.00 0.00 0.00 0.05 0.07 0.03 0.02 0.02 0.02 0.03 0.04 0.05 0.05 0.07 0.07 0.07 0.05 0.05 0.06 0.06 0.06 0.10 0.13 0.14 0.16 0.18 0.24 0.30

GFSSGP_prec_precacc_102.txt.gz
Total_Precipitation_Accumulation
0.09 0.10 0.06 0.09 0.06 0.02 0.00 0.00 0.00 0.02 0.03 0.02 0.00 0.03 0.03 0.02 0.00 0.07 0.01 0.00 0.01 0.01 0.03 0.07 0.21 0.19 0.18 0.14 0.11 0.10 0.12 0.17 0.15 0.21 0.19 0.18 0.19 0.08 0.03 0.03 0.05 0.10 0.22 0.22 0.12 0.05 0.02 0.01 0.01
0.11 0.22 0.22 0.22 0.07 0.01 0.00 0.00 0.00 0.04 0.05 0.03 0.03 0.07 0.15 0.12 0.02 0.04 0.05 0.03 0.02 0.02 0.05 0.07 0.20 0.22 0.17 0.08 0.08 0.11 0.13 0.16 0.18 0.19 0.19 0.24 0.20 0.07 0.07 0.07 0.07 0.11 0.14 0.06 0.01 0.01 0.01 0.01 0.00
0.24 0.51 0.40 0.20 0.03 0.00 0.00 0.00 0.00 0.00 0.00 0.02 0.05 0.11 0.40 0.26 0.13 0.04 0.05 0.05 0.03 0.03 0.09 0.09 0.20 0.26 0.14 0.09 0.07 0.08 0.11 0.11 0.19 0.29 0.32 0.35 0.28 0.08 0.07 0.07 0.05 0.13 0.11 0.03 0.01 0.01 0.01 0.00 0.00
0.47 0.73 0.48 0.14 0.03 0.00 0.00 0.00 0.00 0.01 0.07 0.14 0.14 0.14 0.44 0.48 0.18 0.12 0.08 0.06 0.07 0.07 0.14 0.20 0.41 0.32 0.17 0.19 0.14 0.12 0.08 0.11 0.16 0.25 0.38 0.47 0.35 0.19 0.09 0.05 0.07 0.06 0.02 0.01 0.02 0.02 0.01 0.00 0.00
0.71 0.51 0.29 0.21 0.03 0.00 0.00 0.00 0.00 0.01 0.03 0.06 0.10 0.25 0.57 0.51 0.28 0.32 0.28 0.16 0.23 0.17 0.24 0.42 0.76 0.56 0.24 0.26 0.26 0.15 0.15 0.19 0.17 0.27 0.41 0.46 0.32 0.30 0.13 0.09 0.06 0.05 0.02 0.03 0.03 0.03 0.03 0.01 0.01
0.79 0.46 0.36 0.31 0.07 0.00 0.00 0.00 0.00 0.00 0.01 0.04 0.17 0.25 0.56 0.82 0.73 0.64 0.66 0.51 0.66 0.64 0.70 0.69 0.87 0.86 0.58 0.40 0.26 0.18 0.15 0.30 0.28 0.34 0.56 0.51 0.37 0.31 0.22 0.16 0.06 0.07 0.04 0.04 0.04 0.05 0.03 0.02 0.01
0.63 0.53 0.33 0.10 0.04 0.01 0.00 0.00 0.00 0.00 0.00 0.01 0.04 0.07 0.39 1.13 1.12 1.10 1.07 0.93 0.89 1.18 0.99 0.69 0.53 0.49 0.44 0.31 0.15 0.08 0.07 0.16 0.25 0.27 0.44 0.38 0.34 0.27 0.23 0.22 0.15 0.15 0.10 0.09 0.09 0.03 0.02 0.02 0.01
0.46 0.60 0.32 0.05 0.03 0.01 0.00 0.00 0.00 0.00 0.00 0.00 0.02 0.15 0.24 0.69 1.13 1.55 1.67 1.55 1.28 1.41 1.65 1.37 1.08 0.63 0.35 0.29 0.17 0.09 0.07 0.08 0.30 0.20 0.20 0.16 0.15 0.12 0.16 0.12 0.11 0.16 0.16 0.07 0.03 0.02 0.03 0.02 0.00
0.74 1.05 0.49 0.07 0.03 0.02 0.00 0.01 0.01 0.01 0.00 0.00 0.00 0.06 0.09 0.13 0.74 1.87 2.61 2.66 1.54 1.29 1.49 1.96 1.61 1.00 0.72 0.61 0.31 0.17 0.11 0.06 0.22 0.24 0.14 0.12 0.07 0.05 0.03 0.02 0.03 0.06 0.10 0.06 0.04 0.01 0.01 0.00 0.00
1.24 1.35 0.33 0.04 0.02 0.03 0.01 0.01 0.01 0.03 0.01 0.08 0.08 0.05 0.05 0.27 0.59 1.56 2.86 3.02 2.18 1.31 1.09 1.46 1.75 1.07 0.73 0.70 0.50 0.28 0.18 0.12 0.09 0.23 0.17 0.11 0.09 0.04 0.03 0.01 0.01 0.03 0.02 0.04 0.06 0.04 0.00 0.00 0.00
1.22 0.82 0.14 0.09 0.14 0.16 0.04 0.03 0.01 0.08 0.11 0.02 0.08 0.09 0.15 0.37 0.50 0.78 1.77 2.94 2.84 2.23 1.34 0.91 1.23 1.22 0.61 0.80 0.55 0.28 0.11 0.09 0.07 0.17 0.29 0.16 0.12 0.11 0.05 0.01 0.02 0.02 0.01 0.01 0.01 0.03 0.01 0.00 0.00
0.93 0.41 0.23 0.19 0.30 0.19 0.07 0.05 0.02 0.04 0.02 0.00 0.10 0.14 0.17 0.32 0.43 0.66 0.82 1.89 2.01 2.33 2.12 1.41 0.90 1.06 0.71 0.75 0.70 0.25 0.09 0.06 0.05 0.07 0.32 0.28 0.16 0.17 0.18 0.04 0.04 0.03 0.00 0.01 0.01 0.00 0.01 0.00 0.00
0.72 0.52 0.42 0.47 0.38 0.29 0.23 0.15 0.04 0.01 0.02 0.03 0.13 0.14 0.19 0.34 0.32 0.55 0.56 0.64 1.11 1.60 2.53 2.32 1.58 1.02 0.83 0.55 0.84 0.38 0.13 0.05 0.03 0.05 0.09 0.41 0.30 0.23 0.20 0.25 0.09 0.04 0.03 0.01 0.02 0.00 0.00 0.00 0.00
0.66 0.73 0.55 0.72 0.55 0.43 0.29 0.17 0.21 0.03 0.06 0.15 0.26 0.30 0.32 0.32 0.36 0.50 0.34 0.37 0.75 0.94 1.22 2.05 2.04 1.89 1.35 0.91 1.11 0.82 0.30 0.14 0.06 0.04 0.03 0.07 0.36 0.33 0.40 0.26 0.18 0.12 0.04 0.03 0.02 0.03 0.02 0.00 0.00
0.71 0.82 1.01 0.92 0.74 0.66 0.44 0.37 0.31 0.06 0.10 0.18 0.28 0.28 0.42 0.38 0.37 0.26 0.48 0.56 0.45 0.58 0.76 0.91 1.29 2.07 2.01 1.27 1.18 1.45 0.88 0.38 0.13 0.02 0.02 0.02 0.08 0.35 0.33 0.67 0.45 0.14 0.12 0.12 0.08 0.07 0.06 0.05 0.02
0.76 1.36 1.33 0.96 1.25 1.00 0.65 0.30 0.09 0.11 0.13 0.11 0.20 0.38 0.56 0.60 0.54 0.47 0.33 0.29 0.51 0.49 0.40 0.47 0.59 1.07 1.50 1.20 1.19 1.30 1.31 0.95 0.40 0.12 0.03 0.03 0.02 0.05 0.25 0.29 0.59 0.54 0.37 0.28 0.20 0.16 0.15 0.14 0.09
0.76 1.14 1.00 0.90 1.01 1.40 0.77 0.24 0.10 0.12 0.17 0.09 0.11 0.31 0.46 0.63 0.53 0.39 0.42 0.54 0.31 0.32 0.37 0.44 0.57 0.60 0.69 0.85 0.84 0.97 1.16 1.28 0.81 0.49 0.18 0.08 0.05 0.03 0.06 0.14 0.17 0.29 0.32 0.30 0.31 0.25 0.18 0.16 0.11
0.45 0.58 0.69 0.70 0.67 1.02 1.10 0.36 0.19 0.15 0.18 0.08 0.04 0.11 0.37 0.57 0.91 0.56 0.44 0.62 0.57 0.39 0.42 0.46 0.31 0.38 0.43 0.93 1.09 1.12 1.04 1.09 1.03 0.58 0.34 0.27 0.21 0.20 0.14 0.11 0.13 0.12 0.16 0.16 0.14 0.16 0.17 0.11 0.07
0.35 0.29 0.60 0.54 0.54 0.62 0.93 0.67 0.24 0.16 0.20 0.18 0.07 0.05 0.21 0.49 1.00 1.21 0.85 0.73 0.83 0.72 0.74 0.52 0.42 0.36 0.40 0.58 0.55 0.73 0.90 1.21 1.35 1.05 0.87 0.73 0.65 0.55 0.47 0.35 0.26 0.18 0.09 0.07 0.12 0.15 0.18 0.19 0.24
0.23 0.21 0.63 0.83 0.70 0.70 0.63 0.86 0.43 0.17 0.16 0.15 0.17 0.13 0.21 0.45 0.88 1.26 1.66 0.85 0.79 1.39 1.58 1.17 0.84 0.78 0.55 0.66 0.64 0.56 0.79 1.00 1.19 1.35 1.07 1.08 1.01 0.86 0.64 0.55 0.51 0.38 0.29 0.17 0.22 0.26 0.28 0.20 0.26
0.15 0.09 0.39 1.22 0.92 0.60 0.49 0.58 0.69 0.27 0.15 0.12 0.18 0.22 0.35 0.55 0.57 1.01 1.79 1.34 1.19 1.61 1.68 1.41 1.31 1.14 1.22 1.10 1.37 1.17 1.16 1.06 1.38 1.52 1.30 1.30 1.23 1.18 1.35 1.48 1.15 0.73 0.77 0.87 0.86 0.80 0.75 0.61 0.45
0.24 0.09 0.39 0.79 0.59 0.50 0.32 0.45 0.41 0.31 0.21 0.15 0.25 0.28 0.31 0.42 0.37 0.57 0.90 1.25 1.40 0.90 0.82 1.30 2.33 2.59 1.64 1.61 2.34 2.74 2.63 2.50 2.23 2.56 2.23 1.70 1.51 1.52 1.75 2.08 2.45 2.64 2.25 1.55 1.30 1.24 1.08 1.08 1.00
0.42 0.11 0.31 0.37 0.27 0.31 0.22 0.52 0.21 0.23 0.22 0.28 0.28 0.17 0.16 0.17 0.33 0.34 0.53 0.73 0.59 0.48 0.50 0.66 1.19 1.97 2.00 1.90 2.34 2.75 2.34 1.86 1.66 1.75 2.27 2.23 2.13 1.87 1.79 1.86 1.91 1.88 2.01 2.36 2.06 1.68 1.64 1.52 1.20
0.17 0.13 0.44 0.38 0.48 0.51 0.21 0.27 0.19 0.20 0.20 0.39 0.31 0.15 0.27 0.23 0.16 0.31 0.26 0.34 0.38 0.42 0.50 0.48 0.64 1.01 1.83 1.96 1.95 2.27 2.52 2.68 2.28 1.89 2.13 2.06 1.67 1.64 1.58 1.46 1.35 1.38 1.41 1.50 1.86 1.88 1.58 1.47 1.49
0.23 0.58 1.20 1.11 1.14 0.65 0.22 0.08 0.11 0.11 0.10 0.25 0.37 0.25 0.36 0.49 0.30 0.36 0.58 0.53 0.56 0.56 0.37 0.39 0.52 0.59 0.94 1.35 1.68 1.80 1.51 1.79 1.87 1.71 1.74 1.92 1.91 1.70 1.62 1.51 1.50 1.34 1.32 1.34 1.44 1.60 1.50 1.29 1.15
0.34 0.58 0.88 0.73 0.35 0.41 0.17 0.21 0.18 0.20 0.19 0.18 0.34 0.46 0.72 0.97 0.55 0.51 0.79 0.96 0.92 0.62 0.58 0.38 0.49 0.33 0.26 0.34 0.63 1.04 1.33 1.61 1.45 1.35 1.30 1.29 1.33 1.50 1.83 1.72 1.67 1.57 1.44 1.35 1.30 1.29 1.37 1.33 1.25
0.32 0.44 0.33 0.46 0.21 0.34 0.35 0.30 0.37 0.38 0.39 0.27 0.36 0.68 0.95 1.05 0.91 0.78 0.83 1.08 0.95 0.70 0.63 0.61 0.50 0.47 0.19 0.12 0.19 0.22 0.30 0.41 0.58 0.71 0.75 0.93 1.22 1.18 1.31 1.40 1.29 1.21 1.12 1.04 1.03 0.98 0.92 1.00 0.98
0.07 0.13 0.25 0.52 0.40 0.27 0.25 0.24 0.60 0.64 0.59 0.58 0.65 0.87 0.98 0.90 1.09 0.94 0.84 0.76 0.60 0.48 0.38 0.37 0.28 0.11 0.06 0.08 0.11 0.04 0.07 0.10 0.14 0.17 0.18 0.23 0.40 0.55 0.68 0.78 0.79 0.84 0.89 0.98 1.01 0.94 0.94 1.01 0.96
0.04 0.13 0.15 0.22 0.22 0.21 0.08 0.14 0.38 0.49 0.43 0.47 0.54 0.68 0.76 0.85 0.81 0.68 0.54 0.34 0.17 0.10 0.02 0.02 0.02 0.04 0.06 0.05 0.03 0.02 0.04 0.06 0.07 0.07 0.05 0.05 0.07 0.08 0.10 0.12 0.15 0.17 0.24 0.40 0.59 0.73 0.89 1.05 1.14
0.02 0.01 0.04 0.23 0.09 0.13 0.07 0.07 0.05 0.11 0.14 0.20 0.25 0.28 0.30 0.39 0.36 0.28 0.14 0.04 0.01 0.00 0.00 0.00 0.05 0.07 0.03 0.02 0.02 0.02 0.03 0.04 0.05 0.05 0.07 0.07 0.07 0.05 0.05 0.06 0.06 0.06 0.10 0.13 0.15 0.17 0.22 0.30 0.40

GFSSGP_prec_precacc_105.txt.gz
Total_Precipitation_Accumulation
0.09 0.10 0.06 0.09 0.06 0.02 0.00 0.00 0.00 0.02 0.03 0.02 0.00 0.03 0.03 0.02 0.00 0.07 0.01 0.00 0.01 0.02 0.05 0.09 0.22 0.22 0.19 0.14 0.11 0.10 0.13 0.18 0.15 0.22 0.21 0.19 0.20 0.09 0.03 0.03 0.05 0.11 0.28 0.28 0.12 0.06 0.02 0.01 0.01
0.11 0.22 0.22 0.22 0.07 0.01 0.00 0.00 0.00 0.04 0.05 0.03 0.03 0.07 0.15 0.12 0.02 0.04 0.05 0.03 0.02 0.03 0.08 0.12 0.23 0.25 0.21 0.12 0.09 0.11 0.13 0.16 0.19 0.19 0.20 0.25 0.21 0.08 0.07 0.07 0.07 0.13 0.20 0.13 0.03 0.01 0.01 0.01 0.00
0.24 0.51 0.40 0.20 0.03 0.00 0.00 0.00 0.00 0.00 0.00 0.02 0.05 0.11 0.40 0.26 0.13 0.04 0.05 0.05 0.03 0.04 0.12 0.16 0.25 0.32 0.21 0.16 0.13 0.10 0.13 0.11 0.19 0.29 0.33 0.36 0.29 0.09 0.08 0.07 0.05 0.14 0.14 0.07 0.01 0.01 0.01 0.00 0.00
0.47 0.73 0.48 0.14 0.03 0.00 0.00 0.00 0.00 0.01 0.07 0.14 0.14 0.14 0.44 0.48 0.18 0.12 0.08 0.06 0.07 0.07 0.15 0.26 0.43 0.36 0.27 0.30 0.21 0.17 0.10 0.11 0.17 0.25 0.39 0.47 0.35 0.19 0.10 0.07 0.09 0.07 0.06 0.05 0.02 0.02 0.01 0.00 0.00
0.71 0.51 0.29 0.21 0.03 0.00 0.00 0.00 0.00 0.01 0.03 0.06 0.10 0.25 0.57 0.51 0.28 0.32 0.28 0.16 0.23 0.17 0.25 0.44 0.78 0.59 0.28 0.34 0.35 0.24 0.20 0.24 0.21 0.31 0.45 0.47 0.32 0.30 0.16 0.11 0.08 0.06 0.03 0.04 0.03 0.03 0.03 0.01 0.01
0.79 0.46 0.36 0.31 0.07 0.00 0.00 0.00 0.00 0.00 0.01 0.04 0.17 0.25 0.56 0.82 0.73 0.64 0.66 0.51 0.66 0.64 0.70 0.70 0.88 0.87 0.59 0.43 0.31 0.23 0.20 0.35 0.31 0.38 0.60 0.54 0.39 0.33 0.28 0.19 0.10 0.08 0.05 0.04 0.04 0.05 0.03 0.02 0.01
0.63 0.53 0.33 0.10 0.04 0.01 0.00 0.00 0.00 0.00 0.00 0.01 0.04 0.07 0.39 1.13 1.12 1.10 1.07 0.93 0.89 1.18 0.99 0.69 0.56 0.51 0.45 0.32 0.16 0.10 0.08 0.16 0.27 0.30 0.49 0.42 0.37 0.29 0.26 0.26 0.19 0.24 0.14 0.09 0.09 0.03 0.02 0.02 0.01
0.46 0.60 0.32 0.05 0.03 0.01 0.00 0.00 0.00 0.00 0.00 0.00 0.02 0.15 0.24 0.69 1.13 1.55 1.67 1.55 1.28 1.41 1.65 1.37 1.09 0.67 0.39 0.32 0.17 0.10 0.08 0.09 0.31 0.20 0.22 0.19 0.16 0.12 0.16 0.12 0.11 0.20 0.25 0.13 0.03 0.02 0.03 0.02 0.00
0.74 1.05 0.49 0.07 0.03 0.02 0.00 0.01 0.01 0.01 0.00 0.00 0.00 0.06 0.09 0.13 0.74 1.87 2.61 2.66 1.54 1.29 1.49 1.96 1.61 1.00 0.75 0.65 0.33 0.18 0.11 0.06 0.23 0.24 0.14 0.13 0.07 0.05 0.03 0.02 0.03 0.06 0.12 0.12 0.05 0.02 0.01 0.00 0.00
1.24 1.35 0.33 0.04 0.02 0.03 0.01 0.01 0.01 0.03 0.01 0.08 0.08 0.05 0.05 0.27 0.59 1.56 2.86 3.02 2.18 1.31 1.09 1.46 1.75 1.07 0.73 0.72 0.51 0.29 0.18 0.12 0.09 0.23 0.17 0.11 0.09 0.04 0.04 0.02 0.02 0.03 0.03 0.05 0.08 0.06 0.01 0.00 0.00
1.22 0.82 0.14 0.09 0.14 0.16 0.04 0.03 0.01 0.08 0.11 0.02 0.08 0.09 0.15 0.37 0.50 0.78 1.77 2.94 2.84 2.23 1.34 0.91 1.23 1.22 0.61 0.80 0.55 0.28 0.11 0.09 0.07 0.17 0.30 0.20 0.13 0.14 0.07 0.02 0.03 0.02 0.01 0.01 0.02 0.04 0.02 0.00 0.00
0.93 0.41 0.23 0.19 0.30 0.19 0.07 0.05 0.02 0.04 0.02 0.00 0.10 0.14 0.17 0.32 0.43 0.66 0.82 1.89 2.01 2.33 2.12 1.41 0.90 1.06 0.71 0.75 0.70 0.26 0.10 0.06 0.05 0.07 0.32 0.29 0.16 0.18 0.18 0.04 0.05 0.07 0.04 0.01 0.01 0.00 0.01 0.00 0.00
0.72 0.52 0.42 0.47 0.38 0.29 0.23 0.15 0.04 0.01 0.02 0.03 0.13 0.14 0.19 0.34 0.32 0.55 0.56 0.64 1.11 1.60 2.53 2.32 1.58 1.02 0.84 0.56 0.84 0.38 0.13 0.05 0.03 0.05 0.09 0.41 0.30 0.23 0.20 0.25 0.12 0.10 0.10 0.04 0.06 0.02 0.00 0.01 0.00
0.66 0.73 0.55 0.72 0.55 0.43 0.29 0.17 0.21 0.03 0.06 0.15 0.26 0.30 0.32 0.32 0.36 0.50 0.34 0.37 0.75 0.94 1.22 2.05 2.04 1.89 1.35 0.91 1.11 0.83 0.30 0.15 0.06 0.04 0.03 0.07 0.36 0.33 0.40 0.26 0.18 0.13 0.08 0.06 0.03 0.03 0.02 0.01 0.01
0.71 0.82 1.01 0.92 0.74 0.66 0.44 0.37 0.31 0.06 0.10 0.18 0.28 0.28 0.42 0.38 0.37 0.26 0.48 0.56 0.45 0.58 0.76 0.91 1.29 2.07 2.01 1.27 1.18 1.46 0.89 0.39 0.13 0.02 0.02 0.02 0.08 0.35 0.33 0.67 0.45 0.14 0.12 0.15 0.14 0.10 0.10 0.10 0.06
0.76 1.36 1.33 0.96 1.25 1.00 0.65 0.30 0.09 0.11 0.13 0.11 0.20 0.38 0.56 0.60 0.54 0.47 0.33 0.29 0.51 0.49 0.40 0.47 0.59 1.07 1.50 1.20 1.19 1.31 1.31 0.96 0.40 0.12 0.03 0.03 0.02 0.05 0.25 0.29 0.59 0.54 0.37 0.29 0.22 0.20 0.21 0.20 0.17
0.76 1.14 1.00 0.90 1.01 1.40 0.77 0.24 0.10 0.12 0.17 0.09 0.11 0.31 0.46 0.63 0.53 0.39 0.42 0.54 0.31 0.32 0.37 0.44 0.57 0.60 0.69 0.85 0.84 0.98 1.17 1.28 0.81 0.49 0.18 0.08 0.05 0.03 0.06 0.14 0.17 0.29 0.32 0.31 0.31 0.28 0.22 0.19 0.13
0.45 0.58 0.69 0.70 0.67 1.02 1.10 0.36 0.19 0.15 0.18 0.08 0.04 0.11 0.37 0.57 0.91 0.56 0.44 0.62 0.57 0.39 0.42 0.46 0.31 0.38 0.43 0.93 1.09 1.12 1.05 1.09 1.03 0.58 0.34 0.27 0.21 0.20 0.14 0.11 0.13 0.12 0.16 0.17 0.14 0.17 0.19 0.15 0.10
0.35 0.29 0.60 0.54 0.54 0.62 0.93 0.67 0.24 0.16 0.20 0.18 0.07 0.05 0.21 0.49 1.00 1.21 0.85 0.73 0.83 0.72 0.74 0.52 0.42 0.36 0.40 0.58 0.55 0.73 0.90 1.21 1.35 1.05 0.87 0.73 0.65 0.55 0.47 0.35 0.26 0.18 0.09 0.07 0.12 0.16 0.20 0.21 0.26
0.23 0.21 0.63 0.83 0.70 0.70 0.63 0.86 0.43 0.17 0.16 0.15 0.17 0.13 0.21 0.45 0.88 1.26 1.66 0.85 0.79 1.39 1.59 1.18 0.84 0.78 0.55 0.66 0.64 0.56 0.81 1.01 1.20 1.35 1.07 1.08 1.01 0.86 0.64 0.55 0.51 0.38 0.29 0.17 0.22 0.27 0.30 0.22 0.28
0.15 0.09 0.39 1.22 0.92 0.60 0.49 0.58 0.69 0.27 0.15 0.12 0.18 0.22 0.35 0.55 0.58 1.01 1.79 1.34 1.19 1.62 1.68 1.43 1.32 1.16 1.24 1.14 1.42 1.20 1.21 1.09 1.39 1.52 1.30 1.30 1.23 1.18 1.35 1.48 1.15 0.73 0.78 0.87 0.88 0.83 0.78 0.63 0.47
0.24 0.09 0.39 0.79 0.59 0.50 0.32 0.45 0.41 0.31 0.21 0.15 0.25 0.28 0.31 0.42 0.37 0.57 0.90 1.25 1.40 0.91 0.84 1.32 2.38 2.64 1.70 1.70 2.47 2.86 2.70 2.51 2.23 2.57 2.23 1.70 1.51 1.52 1.75 2.08 2.46 2.66 2.26 1.57 1.33 1.28 1.13 1.12 1.03
0.42 0.11 0.31 0.37 0.27 0.31 0.22 0.53 0.21 0.23 0.22 0.28 0.28 0.17 0.16 0.17 0.33 0.34 0.53 0.73 0.60 0.49 0.53 0.71 1.25 2.03 2.08 2.00 2.44 2.81 2.38 1.88 1.68 1.76 2.27 2.23 2.13 1.87 1.79 1.87 1.92 1.91 2.06 2.42 2.12 1.72 1.68 1.56 1.26
0.17 0.13 0.44 0.38 0.48 0.51 0.21 0.27 0.19 0.20 0.20 0.39 0.32 0.15 0.27 0.23 0.16 0.31 0.26 0.34 0.38 0.42 0.50 0.49 0.68 1.06 1.87 2.00 1.98 2.30 2.57 2.71 2.29 1.89 2.13 2.06 1.67 1.64 1.59 1.46 1.36 1.41 1.46 1.56 1.90 1.92 1.62 1.49 1.51
0.23 0.58 1.20 1.11 1.15 0.65 0.22 0.08 0.11 0.11 0.10 0.25 0.38 0.25 0.36 0.49 0.30 0.36 0.58 0.54 0.58 0.57 0.37 0.39 0.52 0.59 0.94 1.35 1.68 1.81 1.52 1.81 1.89 1.74 1.76 1.95 1.93 1.72 1.64 1.53 1.52 1.38 1.39 1.41 1.50 1.66 1.55 1.34 1.18
0.35 0.58 0.88 0.73 0.35 0.42 0.17 0.22 0.18 0.20 0.19 0.18 0.34 0.46 0.72 0.97 0.55 0.51 0.80 0.98 0.98 0.69 0.60 0.38 0.49 0.33 0.26 0.34 0.63 1.04 1.34 1.71 1.71 1.58 1.51 1.45 1.37 1.53 1.86 1.76 1.72 1.73 1.68 1.63 1.59 1.60 1.64 1.55 1.43
0.33 0.45 0.33 0.47 0.21 0.35 0.35 0.30 0.37 0.38 0.39 0.27 0.36 0.68 0.95 1.05 0.91 0.79 0.84 1.12 1.00 0.74 0.69 0.64 0.51 0.48 0.20 0.12 0.19 0.23 0.32 0.44 0.65 0.78 0.79 0.95 1.22 1.18 1.31 1.42 1.33 1.31 1.31 1.25 1.28 1.25 1.17 1.18 1.21
0.07 0.13 0.26 0.53 0.41 0.27 0.25 0.24 0.60 0.64 0.59 0.58 0.65 0.87 0.98 0.91 1.10 0.94 0.85 0.78 0.62 0.54 0.42 0.43 0.32 0.13 0.08 0.09 0.11 0.04 0.07 0.10 0.14 0.17 0.18 0.23 0.40 0.55 0.68 0.79 0.81 0.88 0.92 1.06 1.13 1.09 1.10 1.16 1.17
0.04 0.14 0.15 0.22 0.22 0.22 0.08 0.14 0.38 0.49 0.43 0.47 0.54 0.68 0.76 0.85 0.82 0.69 0.56 0.34 0.17 0.11 0.02 0.02 0.02 0.04 0.06 0.05 0.03 0.02 0.04 0.06 0.07 0.07 0.05 0.05 0.07 0.08 0.10 0.12 0.15 0.17 0.24 0.42 0.63 0.78 0.94 1.11 1.23
0.02 0.01 0.04 0.23 0.09 0.13 0.07 0.07 0.05 0.11 0.14 0.20 0.25 0.28 0.30 0.39 0.36 0.28 0.14 0.04 0.01 0.00 0.00 0.00 0.05 0.07 0.03 0.02 0.02 0.02 0.03 0.04 0.05 0.05 0.07 0.07 0.07 0.05 0.05 0.06 0.06 0.06 0.10 0.13 0.15 0.17 0.22 0.30 0.40

GFSSGP_prec_precacc_108.txt.gz
Total_Precipitation_Accumulation
0.09 0.10 0.06 0.09 0.06 0.02 0.00 0.00 0.00 0.02 0.03 0.02 0.00 0.03 0.03 0.02 0.00 0.08 0.02 0.00 0.01 0.02 0.06 0.09 0.23 0.23 0.20 0.14 0.13 0.12 0.15 0.20 0.17 0.26 0.23 0.20 0.20 0.09 0.03 0.03 0.05 0.12 0.31 0.38 0.15 0.08 0.03 0.02 0.01
0.11 0.22 0.22 0.22 0.07 0.01 0.00 0.00 0.00 0.04 0.05 0.03 0.03 0.07 0.15 0.12 0.02 0.04 0.05 0.03 0.02 0.03 0.09 0.14 0.24 0.30 0.27 0.15 0.11 0.14 0.15 0.18 0.21 0.21 0.24 0.30 0.23 0.09 0.07 0.07 0.07 0.15 0.27 0.30 0.08 0.02 0.01 0.01 0.00
0.24 0.51 0.40 0.20 0.03 0.00 0.00 0.00 0.00 0.00 0.00 0.02 0.05 0.11 0.40 0.26 0.13 0.04 0.05 0.05 0.03 0.04 0.13 0.16 0.25 0.34 0.25 0.23 0.18 0.14 0.17 0.15 0.21 0.30 0.35 0.39 0.31 0.11 0.08 0.07 0.05 0.15 0.17 0.12 0.04 0.02 0.01 0.00 0.00
0.47 0.73 0.48 0.14 0.03 0.00 0.00 0.00 0.00 0.01 0.07 0.14 0.14 0.14 0.44 0.48 0.18 0.12 0.08 0.06 0.07 0.07 0.15 0.27 0.44 0.38 0.28 0.32 0.23 0.19 0.15 0.16 0.19 0.25 0.39 0.48 0.36 0.21 0.10 0.08 0.09 0.07 0.07 0.07 0.03 0.02 0.01 0.00 0.00
0.71 0.51 0.29 0.21 0.03 0.00 0.00 0.00 0.00 0.01 0.03 0.06 0.10 0.25 0.57 0.51 0.28 0.32 0.28 0.16 0.23 0.17 0.25 0.45 0.79 0.60 0.28 0.36 0.37 0.28 0.27 0.29 0.24 0.31 0.45 0.47 0.32 0.31 0.18 0.13 0.09 0.07 0.04 0.06 0.04 0.03 0.03 0.01 0.01
0.79 0.46 0.36 0.31 0.07 0.00 0.00 0.00 0.00 0.00 0.01 0.04 0.17 0.25 0.56 0.82 0.73 0.64 0.66 0.51 0.66 0.64 0.70 0.70 0.90 0.87 0.59 0.43 0.32 0.24 0.22 0.36 0.31 0.38 0.60 0.54 0.40 0.34 0.29 0.19 0.10 0.10 0.07 0.05 0.04 0.05 0.03 0.02 0.01
0.63 0.53 0.33 0.10 0.04 0.01 0.00 0.00 0.00 0.00 0.00 0.01 0.04 0.07 0.39 1.13 1.12 1.10 1.07 0.93 0.89 1.18 0.99 0.69 0.57 0.52 0.45 0.32 0.17 0.10 0.08 0.17 0.27 0.32 0.51 0.43 0.41 0.30 0.27 0.26 0.19 0.26 0.20 0.13 0.10 0.03 0.02 0.02 0.01
0.46 0.60 0.32 0.05 0.03 0.01 0.00 0.00 0.00 0.00 0.00 0.00 0.02 0.15 0.24 0.69 1.13 1.55 1.67 1.55 1.28 1.41 1.65 1.37 1.09 0.67 0.43 0.36 0.19 0.11 0.11 0.14 0.35 0.23 0.23 0.19 0.17 0.12 0.16 0.12 0.11 0.20 0.27 0.14 0.04 0.03 0.03 0.02 0.00
0.74 1.05 0.49 0.07 0.03 0.02 0.00 0.01 0.01 0.01 0.00 0.00 0.00 0.06 0.09 0.13 0.74 1.87 2.61 2.66 1.54 1.29 1.49 1.96 1.61 1.00 0.76 0.67 0.36 0.20 0.12 0.07 0.23 0.24 0.14 0.13 0.07 0.05 0.03 0.02 0.03 0.06 0.13 0.13 0.06 0.04 0.02 0.00 0.00
1.24 1.35 0.33 0.04 0.02 0.03 0.01 0.01 0.01 0.03 0.01 0.08 0.08 0.05 0.05 0.27 0.59 1.56 2.86 3.02 2.18 1.31 1.09 1.46 1.75 1.07 0.73 0.72 0.53 0.32 0.19 0.12 0.09 0.23 0.17 0.11 0.09 0.04 0.04 0.02 0.02 0.03 0.03 0.06 0.08 0.08 0.03 0.00 0.00
1.22 0.82 0.14 0.09 0.14 0.16 0.04 0.03 0.01 0.08 0.11 0.02 0.08 0.09 0.15 0.37 0.50 0.78 1.77 2.94 2.84 2.23 1.34 0.91 1.23 1.22 0.61 0.80 0.55 0.29 0.14 0.11 0.08 0.18 0.30 0.20 0.14 0.14 0.08 0.03 0.04 0.02 0.01 0.02 0.02 0.04 0.02 0.00 0.00
0.93 0.41 0.23 0.19 0.30 0.19 0.07 0.05 0.02 0.04 0.02 0.00 0.10 0.14 0.17 0.32 0.43 0.66 0.82 1.89 2.01 2.33 2.12 1.41 0.90 1.06 0.71 0.75 0.70 0.26 0.11 0.07 0.06 0.07 0.32 0.29 0.16 0.18 0.18 0.04 0.07 0.12 0.06 0.01 0.02 0.00 0.01 0.00 0.00
0.72 0.52 0.42 0.47 0.38 0.29 0.23 0.15 0.04 0.01 0.02 0.03 0.13 0.14 0.19 0.34 0.32 0.55 0.56 0.64 1.11 1.60 2.53 2.32 1.58 1.02 0.84 0.56 0.84 0.39 0.14 0.08 0.04 0.05 0.09 0.41 0.30 0.23 0.20 0.25 0.12 0.12 0.12 0.08 0.11 0.06 0.03 0.04 0.01
0.66 0.73 0.55 0.72 0.55 0.43 0.29 0.17 0.21 0.03 0.06 0.15 0.26 0.30 0.32 0.32 0.36 0.50 0.34 0.37 0.75 0.94 1.22 2.05 2.04 1.89 1.35 0.91 1.11 0.83 0.30 0.15 0.06 0.04 0.03 0.07 0.36 0.33 0.40 0.26 0.18 0.14 0.09 0.08 0.11 0.10 0.07 0.04 0.06
0.71 0.82 1.01 0.92 0.74 0.66 0.44 0.37 0.31 0.06 0.10 0.18 0.28 0.28 0.42 0.38 0.37 0.26 0.48 0.56 0.45 0.58 0.76 0.91 1.29 2.07 2.01 1.27 1.18 1.46 0.89 0.39 0.14 0.03 0.03 0.02 0.08 0.35 0.33 0.67 0.45 0.14 0.12 0.15 0.17 0.15 0.17 0.15 0.08
0.76 1.36 1.33 0.96 1.25 1.00 0.65 0.30 0.09 0.11 0.13 0.11 0.20 0.38 0.56 0.60 0.54 0.47 0.33 0.29 0.51 0.49 0.40 0.47 0.59 1.07 1.50 1.20 1.19 1.31 1.32 0.96 0.42 0.14 0.04 0.03 0.02 0.05 0.25 0.29 0.59 0.54 0.37 0.29 0.22 0.21 0.23 0.21 0.21
0.76 1.14 1.00 0.90 1.01 1.40 0.77 0.24 0.10 0.12 0.17 0.09 0.11 0.31 0.46 0.63 0.53 0.39 0.42 0.54 0.31 0.32 0.37 0.44 0.57 0.60 0.69 0.85 0.84 0.99 1.18 1.31 0.84 0.52 0.21 0.09 0.05 0.03 0.06 0.14 0.17 0.29 0.32 0.31 0.31 0.29 0.23 0.21 0.16
0.45 0.58 0.69 0.70 0.67 1.02 1.10 0.36 0.19 0.15 0.18 0.08 0.04 0.11 0.37 0.57 0.91 0.56 0.44 0.62 0.57 0.39 0.42 0.46 0.31 0.38 0.43 0.93 1.09 1.12 1.08 1.15 1.09 0.62 0.39 0.31 0.24 0.23 0.15 0.11 0.13 0.12 0.16 0.17 0.14 0.17 0.19 0.15 0.11
0.35 0.29 0.60 0.54 0.54 0.62 0.93 0.67 0.24 0.16 0.20 0.18 0.07 0.05 0.21 0.49 1.00 1.21 0.85 0.73 0.83 0.72 0.74 0.52 0.42 0.36 0.40 0.58 0.55 0.73 0.90 1.22 1.38 1.11 0.93 0.79 0.70 0.58 0.48 0.35 0.26 0.18 0.09 0.07 0.12 0.16 0.20 0.21 0.26
0.23 0.21 0.63 0.83 0.70 0.70 0.63 0.86 0.43 0.17 0.16 0.15 0.17 0.13 0.21 0.45 0.88 1.26 1.66 0.85 0.79 1.39 1.59 1.18 0.84 0.79 0.55 0.66 0.65 0.56 0.82 1.04 1.25 1.42 1.14 1.13 1.04 0.90 0.65 0.55 0.51 0.38 0.29 0.17 0.22 0.27 0.30 0.22 0.30
0.15 0.09 0.39 1.22 0.92 0.60 0.49 0.58 0.69 0.27 0.15 0.12 0.18 0.22 0.35 0.55 0.58 1.01 1.79 1.34 1.19 1.62 1.68 1.43 1.33 1.16 1.25 1.15 1.45 1.27 1.31 1.25 1.56 1.71 1.46 1.41 1.29 1.21 1.35 1.48 1.16 0.73 0.78 0.87 0.88 0.83 0.78 0.63 0.48
0.24 0.09 0.39 0.79 0.59 0.50 0.32 0.45 0.41 0.31 0.21 0.15 0.25 0.28 0.31 0.42 0.37 0.57 0.90 1.25 1.40 0.91 0.84 1.33 2.38 2.65 1.70 1.71 2.50 2.94 2.84 2.70 2.46 2.72 2.36 1.77 1.53 1.53 1.75 2.09 2.46 2.66 2.27 1.58 1.35 1.31 1.18 1.21 1.05
0.42 0.11 0.31 0.37 0.27 0.31 0.22 0.53 0.21 0.23 0.22 0.28 0.28 0.17 0.16 0.17 0.33 0.34 0.53 0.73 0.60 0.49 0.54 0.72 1.26 2.07 2.13 2.04 2.50 2.91 2.57 2.03 1.83 1.88 2.35 2.26 2.14 1.87 1.79 1.87 1.92 1.91 2.07 2.44 2.16 1.75 1.73 1.62 1.32
0.17 0.13 0.44 0.38 0.48 0.51 0.21 0.27 0.19 0.20 0.20 0.39 0.32 0.15 0.27 0.23 0.16 0.31 0.26 0.34 0.38 0.42 0.51 0.50 0.69 1.08 1.90 2.06 2.07 2.39 2.63 2.79 2.38 1.93 2.15 2.06 1.68 1.64 1.59 1.46 1.36 1.41 1.46 1.56 1.92 1.95 1.67 1.55 1.57
0.23 0.58 1.20 1.11 1.15 0.65 0.22 0.08 0.11 0.11 0.10 0.25 0.38 0.25 0.36 0.49 0.30 0.36 0.58 0.54 0.58 0.58 0.38 0.40 0.52 0.59 0.94 1.35 1.70 1.84 1.55 1.82 1.91 1.78 1.77 1.95 1.93 1.72 1.65 1.53 1.53 1.41 1.42 1.46 1.54 1.69 1.63 1.43 1.27
0.35 0.58 0.88 0.73 0.35 0.42 0.17 0.22 0.18 0.20 0.19 0.18 0.34 0.46 0.72 0.98 0.55 0.51 0.80 0.98 0.98 0.70 0.62 0.39 0.49 0.33 0.26 0.34 0.63 1.04 1.34 1.71 1.71 1.58 1.52 1.47 1.41 1.55 1.87 1.77 1.74 1.78 1.73 1.71 1.71 1.73 1.79 1.69 1.58
0.33 0.45 0.33 0.47 0.21 0.35 0.35 0.30 0.37 0.38 0.39 0.27 0.36 0.69 0.95 1.05 0.91 0.79 0.84 1.12 1.00 0.74 0.71 0.67 0.52 0.48 0.20 0.12 0.19 0.23 0.32 0.44 0.65 0.78 0.82 0.97 1.23 1.18 1.31 1.42 1.33 1.32 1.32 1.29 1.37 1.37 1.35 1.46 1.49
0.07 0.13 0.26 0.53 0.41 0.28 0.25 0.24 0.60 0.64 0.59 0.58 0.65 0.87 0.98 0.91 1.10 0.94 0.85 0.78 0.62 0.54 0.43 0.43 0.32 0.13 0.09 0.09 0.11 0.04 0.07 0.10 0.14 0.17 0.18 0.23 0.40 0.55 0.68 0.79 0.81 0.88 0.93 1.07 1.17 1.21 1.29 1.38 1.34
0.04 0.14 0.15 0.23 0.22 0.22 0.08 0.14 0.38 0.49 0.43 0.47 0.54 0.68 0.76 0.85 0.82 0.69 0.56 0.34 0.17 0.11 0.02 0.02 0.02 0.04 0.06 0.05 0.03 0.02 0.04 0.06 0.07 0.07 0.05 0.05 0.07 0.08 0.10 0.12 0.15 0.17 0.24 0.42 0.63 0.79 0.97 1.17 1.32
0.02 0.01 0.04 0.23 0.09 0.13 0.07 0.07 0.05 0.11 0.14 0.20 0.26 0.29 0.30 0.39 0.36 0.28 0.14 0.04 0.01 0.00 0.00 0.00 0.05 0.07 0.03 0.02 0.02 0.02 0.03 0.04 0.05 0.05 0.07 0.07 0.07 0.05 0.05 0.06 0.06 0.06 0.10 0.13 0.15 0.17 0.22 0.30 0.40

GFSSGP_prec_precacc_111.txt.gz
Total_Precipitation_Accumulation
0.09 0.10 0.06 0.09 0.06 0.02 0.00 0.00 0.00 0.02 0.03 0.02 0.00 0.03 0.03 0.02 0.00 0.08 0.02 0.00 0.01 0.02 0.07 0.10 0.26 0.25 0.20 0.14 0.15 0.14 0.16 0.23 0.19 0.30 0.30 0.23 0.21 0.09 0.03 0.03 0.05 0.12 0.32 0.42 0.17 0.11 0.05 0.02 0.01
0.11 0.22 0.22 0.22 0.07 0.01 0.00 0.00 0.00 0.04 0.05 0.03 0.03 0.07 0.15 0.12 0.02 0.04 0.05 0.03 0.02 0.03 0.09 0.14 0.26 0.32 0.30 0.16 0.12 0.16 0.17 0.20 0.23 0.24 0.27 0.33 0.26 0.09 0.07 0.07 0.07 0.15 0.33 0.38 0.13 0.05 0.02 0.01 0.00
0.24 0.51 0.40 0.20 0.03 0.00 0.00 0.00 0.00 0.00 0.00 0.02 0.05 0.11 0.40 0.26 0.13 0.04 0.05 0.05 0.03 0.04 0.13 0.17 0.27 0.38 0.32 0.27 0.19 0.14 0.17 0.18 0.24 0.31 0.35 0.40 0.31 0.12 0.09 0.07 0.05 0.15 0.17 0.14 0.11 0.04 0.01 0.00 0.00
0.47 0.73 0.48 0.14 0.03 0.00 0.00 0.00 0.00 0.01 0.07 0.14 0.14 0.14 0.44 0.48 0.18 0.12 0.08 0.06 0.07 0.07 0.15 0.28 0.46 0.40 0.32 0.36 0.27 0.22 0.16 0.17 0.20 0.26 0.39 0.48 0.36 0.22 0.10 0.08 0.09 0.07 0.07 0.08 0.07 0.03 0.01 0.00 0.00
0.71 0.51 0.29 0.21 0.03 0.00 0.00 0.00 0.00 0.01 0.03 0.06 0.10 0.25 0.57 0.51 0.28 0.32 0.28 0.16 0.23 0.17 0.25 0.45 0.80 0.61 0.30 0.38 0.39 0.31 0.31 0.34 0.26 0.32 0.45 0.47 0.32 0.31 0.19 0.13 0.09 0.07 0.04 0.07 0.06 0.03 0.03 0.01 0.01
0.79 0.46 0.36 0.31 0.07 0.00 0.00 0.00 0.00 0.00 0.01 0.04 0.17 0.25 0.56 0.82 0.73 0.64 0.66 0.51 0.66 0.64 0.70 0.70 0.90 0.88 0.60 0.45 0.34 0.27 0.24 0.37 0.33 0.38 0.61 0.54 0.41 0.35 0.30 0.19 0.10 0.10 0.07 0.06 0.05 0.05 0.03 0.02 0.01
0.63 0.53 0.33 0.10 0.04 0.01 0.00 0.00 0.00 0.00 0.00 0.01 0.04 0.07 0.39 1.13 1.12 1.10 1.07 0.93 0.89 1.18 0.99 0.69 0.57 0.52 0.46 0.33 0.18 0.13 0.11 0.20 0.30 0.37 0.53 0.43 0.42 0.31 0.29 0.27 0.19 0.26 0.20 0.13 0.11 0.03 0.02 0.02 0.01
0.46 0.60 0.32 0.05 0.03 0.01 0.00 0.00 0.00 0.00 0.00 0.00 0.02 0.15 0.24 0.69 1.13 1.55 1.67 1.55 1.28 1.41 1.65 1.37 1.09 0.67 0.43 0.36 0.19 0.13 0.15 0.19 0.38 0.24 0.23 0.19 0.17 0.12 0.17 0.13 0.11 0.20 0.27 0.14 0.04 0.04 0.03 0.02 0.00
0.74 1.05 0.49 0.07 0.03 0.02 0.00 0.01 0.01 0.01 0.00 0.00 0.00 0.06 0.09 0.13 0.74 1.87 2.61 2.66 1.54 1.29 1.49 1.96 1.61 1.00 0.76 0.67 0.36 0.20 0.12 0.08 0.24 0.25 0.14 0.13 0.07 0.05 0.03 0.02 0.03 0.06 0.13 0.13 0.06 0.04 0.02 0.00 0.00
1.24 1.35 0.33 0.04 0.02 0.03 0.01 0.01 0.01 0.03 0.01 0.08 0.08 0.05 0.05 0.27 0.59 1.56 2.86 3.02 2.18 1.31 1.09 1.46 1.75 1.07 0.73 0.72 0.53 0.32 0.19 0.12 0.09 0.23 0.17 0.11 0.09 0.04 0.04 0.02 0.02 0.03 0.03 0.06 0.09 0.09 0.04 0.00 0.00
1.22 0.82 0.14 0.09 0.14 0.16 0.04 0.03 0.01 0.08 0.11 0.02 0.08 0.09 0.15 0.37 0.50 0.78 1.77 2.94 2.84 2.23 1.34 0.91 1.23 1.22 0.61 0.80 0.55 0.29 0.14 0.11 0.08 0.18 0.31 0.21 0.14 0.14 0.08 0.03 0.04 0.03 0.01 0.02 0.02 0.04 0.02 0.00 0.00
0.93 0.41 0.23 0.19 0.30 0.19 0.07 0.05 0.02 0.04 0.02 0.00 0.10 0.14 0.17 0.32 0.43 0.66 0.82 1.89 2.01 2.33 2.12 1.41 0.90 1.06 0.71 0.75 0.70 0.26 0.11 0.08 0.06 0.09 0.35 0.31 0.19 0.19 0.18 0.04 0.07 0.12 0.06 0.01 0.02 0.00 0.01 0.00 0.00
0.72 0.52 0.42 0.47 0.38 0.29 0.23 0.15 0.04 0.01 0.02 0.03 0.13 0.14 0.19 0.34 0.32 0.55 0.56 0.64 1.11 1.60 2.53 2.32 1.58 1.02 0.84 0.56 0.84 0.39 0.14 0.08 0.04 0.05 0.09 0.41 0.30 0.23 0.20 0.25 0.13 0.12 0.13 0.09 0.11 0.06 0.03 0.04 0.01
0.66 0.73 0.55 0.72 0.55 0.43 0.29 0.17 0.21 0.03 0.06 0.15 0.26 0.30 0.32 0.32 0.36 0.50 0.34 0.37 0.75 0.94 1.22 2.05 2.04 1.89 1.35 0.91 1.11 0.83 0.30 0.15 0.07 0.05 0.03 0.07 0.36 0.33 0.40 0.26 0.19 0.14 0.09 0.11 0.20 0.17 0.11 0.08 0.10
0.71 0.82 1.01 0.92 0.74 0.66 0.44 0.37 0.31 0.06 0.10 0.18 0.28 0.28 0.42 0.38 0.37 0.26 0.48 0.56 0.45 0.58 0.76 0.91 1.29 2.07 2.01 1.27 1.18 1.46 0.89 0.39 0.14 0.05 0.05 0.02 0.08 0.35 0.33 0.67 0.45 0.14 0.12 0.16 0.18 0.19 0.21 0.20 0.16
0.76 1.36 1.33 0.96 1.25 1.00 0.65 0.30 0.09 0.11 0.13 0.11 0.20 0.38 0.56 0.60 0.54 0.47 0.33 0.29 0.51 0.49 0.40 0.47 0.59 1.07 1.50 1.20 1.19 1.31 1.32 0.96 0.42 0.14 0.09 0.08 0.03 0.07 0.25 0.29 0.59 0.54 0.37 0.29 0.22 0.21 0.23 0.22 0.22
0.76 1.14 1.00 0.90 1.01 1.40 0.77 0.24 0.10 0.12 0.17 0.09 0.11 0.31 0.46 0.63 0.53 0.39 0.42 0.54 0.31 0.32 0.37 0.44 0.57 0.60 0.69 0.85 0.84 0.99 1.18 1.31 0.84 0.52 0.23 0.14 0.10 0.06 0.07 0.14 0.18 0.30 0.32 0.31 0.31 0.29 0.23 0.21 0.17
0.45 0.58 0.69 0.70 0.67 1.02 1.10 0.36 0.19 0.15 0.18 0.08 0.04 0.11 0.37 0.57 0.91 0.56 0.44 0.62 0.57 0.39 0.42 0.46 0.31 0.38 0.43 0.93 1.09 1.12 1.08 1.15 1.10 0.64 0.41 0.38 0.35 0.35 0.22 0.17 0.21 0.15 0.16 0.17 0.14 0.17 0.19 0.15 0.11
0.35 0.29 0.60 0.54 0.54 0.62 0.93 0.67 0.24 0.16 0.20 0.18 0.07 0.05 0.21 0.49 1.00 1.21 0.85 0.73 0.83 0.72 0.74 0.52 0.42 0.36 0.40 0.58 0.55 0.73 0.90 1.22 1.39 1.13 0.98 0.94 0.85 0.75 0.62 0.42 0.28 0.18 0.09 0.07 0.12 0.16 0.20 0.21 0.26
0.23 0.21 0.63 0.83 0.70 0.70 0.63 0.86 0.43 0.17 0.16 0.15 0.17 0.13 0.21 0.45 0.88 1.26 1.66 0.85 0.79 1.39 1.59 1.18 0.84 0.79 0.55 0.66 0.65 0.56 0.82 1.04 1.25 1.45 1.27 1.33 1.27 1.07 0.78 0.61 0.55 0.42 0.31 0.18 0.22 0.27 0.30 0.22 0.30
0.15 0.09 0.39 1.22 0.92 0.60 0.49 0.58 0.69 0.27 0.15 0.12 0.18 0.22 0.35 0.55 0.58 1.01 1.79 1.34 1.19 1.62 1.68 1.43 1.33 1.16 1.25 1.15 1.45 1.28 1.32 1.26 1.60 1.81 1.61 1.55 1.46 1.37 1.42 1.53 1.19 0.75 0.79 0.88 0.88 0.83 0.79 0.64 0.48
0.24 0.09 0.39 0.79 0.59 0.50 0.32 0.45 0.41 0.31 0.21 0.15 0.25 0.28 0.31 0.42 0.37 0.57 0.90 1.25 1.40 0.91 0.84 1.33 2.38 2.65 1.70 1.71 2.50 2.94 2.85 2.75 2.53 2.84 2.48 1.90 1.65 1.62 1.79 2.10 2.46 2.66 2.27 1.58 1.35 1.31 1.19 1.23 1.06
0.42 0.11 0.31 0.37 0.27 0.31 0.22 0.53 0.21 0.23 0.22 0.28 0.28 0.17 0.16 0.17 0.33 0.34 0.53 0.73 0.60 0.49 0.54 0.72 1.26 2.07 2.13 2.05 2.51 2.92 2.59 2.10 1.93 2.03 2.57 2.58 2.35 1.98 1.84 1.88 1.93 1.91 2.07 2.44 2.16 1.75 1.73 1.64 1.35
0.17 0.13 0.44 0.38 0.48 0.51 0.21 0.27 0.19 0.20 0.20 0.39 0.32 0.15 0.27 0.23 0.16 0.31 0.26 0.34 0.38 0.42 0.51 0.50 0.69 1.08 1.90 2.06 2.07 2.41 2.64 2.81 2.41 1.97 2.20 2.11 1.73 1.68 1.60 1.47 1.36 1.41 1.46 1.56 1.92 1.95 1.67 1.57 1.61
0.23 0.58 1.20 1.11 1.15 0.65 0.22 0.08 0.11 0.11 0.10 0.25 0.38 0.25 0.36 0.49 0.30 0.36 0.58 0.54 0.58 0.58 0.38 0.40 0.52 0.59 0.94 1.35 1.70 1.85 1.56 1.82 1.91 1.80 1.79 1.96 1.93 1.72 1.65 1.53 1.53 1.41 1.42 1.46 1.55 1.71 1.64 1.46 1.31
0.35 0.58 0.88 0.73 0.35 0.42 0.17 0.22 0.18 0.20 0.19 0.18 0.34 0.46 0.72 0.98 0.55 0.51 0.80 0.98 0.99 0.70 0.62 0.39 0.49 0.33 0.26 0.34 0.63 1.04 1.34 1.71 1.71 1.58 1.52 1.47 1.41 1.55 1.87 1.77 1.74 1.78 1.73 1.71 1.72 1.76 1.81 1.71 1.62
0.33 0.45 0.33 0.47 0.21 0.35 0.35 0.30 0.37 0.38 0.39 0.27 0.36 0.69 0.95 1.05 0.91 0.79 0.84 1.13 1.00 0.74 0.71 0.67 0.52 0.48 0.20 0.12 0.19 0.23 0.32 0.44 0.65 0.78 0.82 0.97 1.23 1.18 1.31 1.42 1.33 1.32 1.32 1.29 1.37 1.38 1.37 1.49 1.53
0.07 0.13 0.26 0.53 0.41 0.28 0.25 0.24 0.60 0.64 0.59 0.58 0.65 0.87 0.98 0.91 1.10 0.94 0.85 0.78 0.62 0.54 0.43 0.43 0.32 0.13 0.09 0.09 0.11 0.04 0.07 0.10 0.14 0.17 0.18 0.23 0.40 0.55 0.68 0.79 0.81 0.88 0.93 1.07 1.17 1.21 1.29 1.39 1.40
0.04 0.14 0.15 0.23 0.22 0.22 0.08 0.14 0.38 0.49 0.43 0.47 0.54 0.68 0.76 0.85 0.82 0.69 0.56 0.34 0.17 0.11 0.02 0.02 0.02 0.04 0.06 0.05 0.03 0.02 0.04 0.06 0.07 0.07 0.05 0.05 0.07 0.08 0.10 0.12 0.15 0.17 0.24 0.42 0.63 0.79 0.97 1.17 1.32
0.02 0.01 0.04 0.23 0.09 0.13 0.07 0.07 0.05 0.11 0.14 0.20 0.26 0.29 0.30 0.39 0.36 0.28 0.14 0.04 0.01 0.00 0.00 0.00 0.05 0.07 0.03 0.02 0.02 0.02 0.03 0.04 0.05 0.05 0.07 0.07 0.07 0.05 0.05 0.06 0.06 0.06 0.10 0.13 0.15 0.17 0.22 0.30 0.40

GFSSGP_prec_precacc_114.txt.gz
Total_Precipitation_Accumulation
0.09 0.10 0.06 0.09 0.06 0.02 0.00 0.00 0.00 0.02 0.03 0.02 0.00 0.03 0.03 0.02 0.00 0.08 0.02 0.00 0.01 0.02 0.07 0.10 0.28 0.31 0.26 0.17 0.16 0.15 0.17 0.25 0.21 0.32 0.35 0.25 0.22 0.09 0.03 0.03 0.05 0.12 0.32 0.43 0.21 0.14 0.07 0.02 0.01
0.11 0.22 0.22 0.22 0.07 0.01 0.00 0.00 0.00 0.04 0.05 0.03 0.03 0.07 0.15 0.12 0.02 0.04 0.05 0.03 0.02 0.03 0.10 0.15 0.28 0.35 0.34 0.18 0.13 0.16 0.17 0.21 0.24 0.24 0.28 0.34 0.27 0.09 0.07 0.07 0.07 0.15 0.35 0.43 0.19 0.10 0.02 0.01 0.00
0.24 0.51 0.40 0.20 0.03 0.00 0.00 0.00 0.00 0.00 0.00 0.02 0.05 0.11 0.40 0.26 0.13 0.04 0.05 0.05 0.03 0.04 0.13 0.18 0.36 0.40 0.35 0.30 0.19 0.14 0.18 0.18 0.24 0.31 0.35 0.40 0.31 0.14 0.10 0.07 0.05 0.15 0.17 0.14 0.14 0.09 0.01 0.00 0.00
0.47 0.73 0.48 0.14 0.03 0.00 0.00 0.00 0.00 0.01 0.07 0.14 0.14 0.14 0.44 0.48 0.18 0.12 0.08 0.06 0.07 0.07 0.15 0.29 0.50 0.41 0.32 0.38 0.29 0.23 0.17 0.17 0.21 0.26 0.40 0.49 0.36 0.22 0.11 0.08 0.09 0.07 0.07 0.08 0.08 0.05 0.01 0.00 0.00
0.71 0.51 0.29 0.21 0.03 0.00 0.00 0.00 0.00 0.01 0.03 0.06 0.10 0.25 0.57 0.51 0.28 0.32 0.28 0.16 0.23 0.17 0.25 0.46 0.83 0.62 0.31 0.41 0.43 0.33 0.33 0.35 0.27 0.33 0.46 0.47 0.32 0.31 0.20 0.15 0.09 0.07 0.04 0.07 0.06 0.04 0.03 0.01 0.01
0.79 0.46 0.36 0.31 0.07 0.00 0.00 0.00 0.00 0.00 0.01 0.04 0.17 0.25 0.56 0.82 0.73 0.64 0.66 0.51 0.66 0.64 0.70 0.70 0.91 0.88 0.61 0.46 0.36 0.29 0.27 0.40 0.35 0.42 0.65 0.56 0.42 0.37 0.32 0.20 0.10 0.10 0.07 0.06 0.05 0.05 0.03 0.02 0.01
0.63 0.53 0.33 0.10 0.04 0.01 0.00 0.00 0.00 0.00 0.00 0.01 0.04 0.07 0.39 1.13 1.12 1.10 1.07 0.93 0.89 1.18 0.99 0.69 0.57 0.52 0.46 0.33 0.18 0.13 0.13 0.23 0.35 0.43 0.57 0.46 0.44 0.34 0.33 0.29 0.19 0.26 0.20 0.13 0.11 0.04 0.02 0.02 0.01
0.46 0.60 0.32 0.05 0.03 0.01 0.00 0.00 0.00 0.00 0.00 0.00 0.02 0.15 0.24 0.69 1.13 1.55 1.67 1.55 1.28 1.41 1.65 1.37 1.09 0.67 0.43 0.36 0.19 0.13 0.15 0.19 0.38 0.24 0.23 0.19 0.17 0.13 0.19 0.15 0.12 0.20 0.27 0.15 0.06 0.04 0.03 0.02 0.00
0.74 1.05 0.49 0.07 0.03 0.02 0.00 0.01 0.01 0.01 0.00 0.00 0.00 0.06 0.09 0.13 0.74 1.87 2.61 2.66 1.54 1.29 1.49 1.96 1.61 1.00 0.76 0.67 0.36 0.21 0.13 0.08 0.24 0.25 0.14 0.13 0.07 0.05 0.03 0.02 0.03 0.06 0.13 0.13 0.08 0.06 0.05 0.00 0.00
1.24 1.35 0.33 0.04 0.02 0.03 0.01 0.01 0.01 0.03 0.01 0.08 0.08 0.05 0.05 0.27 0.59 1.56 2.86 3.02 2.18 1.31 1.09 1.46 1.75 1.07 0.73 0.72 0.53 0.32 0.20 0.12 0.10 0.23 0.17 0.11 0.09 0.04 0.04 0.02 0.02 0.03 0.03 0.06 0.09 0.10 0.05 0.00 0.00
1.22 0.82 0.14 0.09 0.14 0.16 0.04 0.03 0.01 0.08 0.11 0.02 0.08 0.09 0.15 0.37 0.50 0.78 1.77 2.94 2.84 2.23 1.34 0.91 1.23 1.22 0.61 0.80 0.55 0.29 0.14 0.11 0.08 0.19 0.31 0.21 0.14 0.14 0.08 0.03 0.04 0.03 0.01 0.02 0.03 0.07 0.02 0.00 0.00
0.93 0.41 0.23 0.19 0.30 0.19 0.07 0.05 0.02 0.04 0.02 0.00 0.10 0.14 0.17 0.32 0.43 0.66 0.82 1.89 2.01 2.33 2.12 1.41 0.90 1.06 0.71 0.75 0.70 0.26 0.11 0.08 0.07 0.09 0.35 0.31 0.19 0.19 0.18 0.04 0.07 0.12 0.06 0.02 0.03 0.02 0.02 0.01 0.00
0.72 0.52 0.42 0.47 0.38 0.29 0.23 0.15 0.04 0.01 0.02 0.03 0.13 0.14 0.19 0.34 0.32 0.55 0.56 0.64 1.11 1.60 2.53 2.32 1.58 1.02 0.84 0.56 0.84 0.39 0.14 0.08 0.04 0.05 0.09 0.41 0.30 0.23 0.21 0.26 0.13 0.12 0.13 0.11 0.15 0.13 0.09 0.04 0.02
0.66 0.73 0.55 0.72 0.55 0.43 0.29 0.17 0.21 0.03 0.06 0.15 0.26 0.30 0.32 0.32 0.36 0.50 0.34 0.37 0.75 0.94 1.22 2.05 2.04 1.89 1.35 0.91 1.11 0.83 0.30 0.15 0.07 0.05 0.03 0.07 0.37 0.33 0.40 0.26 0.19 0.14 0.09 0.14 0.28 0.29 0.27 0.22 0.21
0.71 0.82 1.01 0.92 0.74 0.66 0.44 0.37 0.31 0.06 0.10 0.18 0.28 0.28 0.42 0.38 0.37 0.26 0.48 0.56 0.45 0.58 0.76 0.91 1.29 2.07 2.01 1.27 1.18 1.46 0.89 0.39 0.14 0.05 0.05 0.02 0.09 0.36 0.33 0.67 0.45 0.14 0.13 0.16 0.19 0.21 0.24 0.25 0.28
0.76 1.36 1.33 0.96 1.25 1.00 0.65 0.30 0.09 0.11 0.13 0.11 0.20 0.38 0.56 0.60 0.54 0.47 0.33 0.29 0.51 0.49 0.40 0.47 0.59 1.07 1.50 1.20 1.19 1.31 1.32 0.96 0.42 0.14 0.09 0.08 0.04 0.09 0.27 0.30 0.59 0.54 0.37 0.29 0.22 0.21 0.23 0.22 0.22
0.76 1.14 1.00 0.90 1.01 1.40 0.77 0.24 0.10 0.12 0.17 0.09 0.11 0.31 0.46 0.63 0.53 0.39 0.42 0.54 0.31 0.32 0.37 0.44 0.57 0.60 0.69 0.85 0.84 0.99 1.18 1.31 0.84 0.52 0.23 0.14 0.14 0.12 0.12 0.17 0.24 0.39 0.39 0.32 0.32 0.29 0.23 0.21 0.17
0.45 0.58 0.69 0.70 0.67 1.02 1.10 0.36 0.19 0.15 0.18 0.08 0.04 0.11 0.37 0.57 0.91 0.56 0.44 0.62 0.57 0.39 0.42 0.46 0.31 0.38 0.43 0.93 1.09 1.12 1.08 1.15 1.10 0.64 0.41 0.38 0.39 0.44 0.33 0.26 0.33 0.26 0.23 0.20 0.16 0.18 0.19 0.15 0.11
0.35 0.29 0.60 0.54 0.54 0.62 0.93 0.67 0.24 0.16 0.20 0.18 0.07 0.05 0.21 0.49 1.00 1.21 0.85 0.73 0.83 0.72 0.74 0.52 0.42 0.36 0.40 0.58 0.55 0.73 0.90 1.22 1.39 1.13 0.98 0.97 0.90 0.81 0.73 0.53 0.39 0.29 0.15 0.10 0.14 0.16 0.20 0.21 0.26
0.23 0.21 0.63 0.83 0.70 0.70 0.63 0.86 0.43 0.17 0.16 0.15 0.17 0.13 0.21 0.45 0.88 1.26 1.66 0.85 0.79 1.39 1.59 1.18 0.84 0.79 0.55 0.66 0.65 0.57 0.82 1.04 1.25 1.45 1.27 1.34 1.30 1.13 0.85 0.71 0.68 0.54 0.43 0.28 0.30 0.31 0.31 0.23 0.30
0.15 0.09 0.39 1.22 0.92 0.60 0.49 0.58 0.69 0.27 0.15 0.12 0.18 0.22 0.35 0.55 0.58 1.01 1.79 1.34 1.19 1.62 1.68 1.43 1.33 1.16 1.25 1.15 1.45 1.28 1.32 1.26 1.60 1.82 1.61 1.55 1.48 1.43 1.56 1.84 1.49 0.96 0.96 0.95 0.90 0.84 0.79 0.64 0.48
0.24 0.09 0.39 0.79 0.59 0.50 0.32 0.45 0.41 0.31 0.21 0.15 0.25 0.28 0.31 0.42 0.37 0.57 0.90 1.25 1.40 0.91 0.84 1.33 2.38 2.65 1.70 1.71 2.50 2.94 2.86 2.76 2.54 2.86 2.49 1.92 1.69 1.68 1.85 2.15 2.68 2.96 2.49 1.74 1.41 1.33 1.19 1.23 1.06
0.42 0.11 0.31 0.37 0.27 0.31 0.22 0.53 0.21 0.23 0.22 0.28 0.28 0.17 0.16 0.17 0.33 0.34 0.53 0.73 0.60 0.49 0.54 0.72 1.26 2.07 2.13 2.05 2.51 2.92 2.59 2.10 1.95 2.06 2.69 2.69 2.44 2.02 1.86 1.89 1.96 1.96 2.11 2.49 2.21 1.77 1.73 1.64 1.35
0.17 0.13 0.44 0.38 0.48 0.51 0.21 0.27 0.19 0.20 0.20 0.39 0.32 0.15 0.27 0.23 0.16 0.31 0.26 0.34 0.38 0.42 0.51 0.50 0.69 1.08 1.90 2.06 2.07 2.41 2.64 2.81 2.41 1.99 2.27 2.19 1.82 1.80 1.69 1.51 1.38 1.41 1.46 1.56 1.92 1.95 1.67 1.57 1.61
0.23 0.58 1.20 1.11 1.15 0.65 0.22 0.08 0.11 0.11 0.10 0.25 0.38 0.25 0.36 0.49 0.30 0.36 0.58 0.54 0.58 0.58 0.38 0.40 0.52 0.59 0.94 1.35 1.70 1.85 1.56 1.82 1.91 1.80 1.79 1.96 1.93 1.72 1.65 1.53 1.53 1.41 1.42 1.46 1.55 1.71 1.64 1.46 1.31
0.35 0.58 0.88 0.73 0.35 0.42 0.17 0.22 0.18 0.20 0.19 0.18 0.34 0.46 0.72 0.98 0.55 0.51 0.80 0.98 0.99 0.70 0.62 0.39 0.49 0.33 0.26 0.34 0.63 1.04 1.34 1.71 1.71 1.58 1.52 1.47 1.41 1.55 1.87 1.77 1.74 1.78 1.73 1.71 1.72 1.76 1.81 1.71 1.62
0.33 0.45 0.33 0.47 0.21 0.35 0.35 0.30 0.37 0.38 0.39 0.27 0.36 0.69 0.95 1.05 0.91 0.79 0.84 1.13 1.00 0.74 0.71 0.67 0.52 0.48 0.20 0.12 0.19 0.23 0.32 0.44 0.65 0.78 0.82 0.97 1.23 1.18 1.31 1.42 1.33 1.32 1.32 1.29 1.37 1.38 1.37 1.49 1.53
0.07 0.13 0.26 0.53 0.41 0.28 0.25 0.24 0.60 0.64 0.59 0.58 0.65 0.87 0.98 0.91 1.10 0.94 0.85 0.78 0.62 0.54 0.43 0.43 0.32 0.13 0.09 0.09 0.11 0.04 0.07 0.10 0.14 0.17 0.18 0.23 0.40 0.55 0.68 0.79 0.81 0.88 0.93 1.07 1.17 1.21 1.29 1.39 1.40
0.04 0.14 0.15 0.23 0.22 0.22 0.08 0.14 0.38 0.49 0.43 0.47 0.54 0.68 0.76 0.85 0.82 0.69 0.56 0.34 0.17 0.11 0.02 0.02 0.02 0.04 0.06 0.05 0.03 0.02 0.04 0.06 0.07 0.07 0.05 0.05 0.07 0.08 0.10 0.12 0.15 0.17 0.24 0.42 0.63 0.79 0.97 1.17 1.32
0.02 0.01 0.04 0.23 0.09 0.13 0.07 0.07 0.05 0.11 0.14 0.20 0.26 0.29 0.30 0.39 0.36 0.28 0.14 0.04 0.01 0.00 0.00 0.00 0.05 0.07 0.03 0.02 0.02 0.02 0.03 0.04 0.05 0.05 0.07 0.07 0.07 0.05 0.05 0.06 0.06 0.06 0.10 0.13 0.15 0.17 0.22 0.30 0.40

GFSSGP_prec_precacc_117.txt.gz
Total_Precipitation_Accumulation
0.09 0.10 0.06 0.09 0.06 0.02 0.00 0.00 0.00 0.02 0.03 0.02 0.00 0.03 0.03 0.02 0.00 0.08 0.02 0.00 0.01 0.02 0.08 0.12 0.29 0.32 0.27 0.19 0.17 0.16 0.20 0.27 0.24 0.33 0.36 0.27 0.24 0.09 0.03 0.03 0.05 0.12 0.32 0.44 0.29 0.21 0.08 0.02 0.01
0.11 0.22 0.22 0.22 0.07 0.01 0.00 0.00 0.00 0.04 0.05 0.03 0.03 0.07 0.15 0.12 0.02 0.04 0.05 0.03 0.02 0.03 0.10 0.16 0.32 0.38 0.36 0.19 0.13 0.17 0.18 0.22 0.25 0.25 0.28 0.35 0.30 0.09 0.07 0.07 0.07 0.15 0.35 0.44 0.24 0.14 0.02 0.01 0.00
0.24 0.51 0.40 0.20 0.03 0.00 0.00 0.00 0.00 0.00 0.00 0.02 0.05 0.11 0.40 0.26 0.13 0.04 0.05 0.05 0.03 0.04 0.13 0.21 0.41 0.45 0.37 0.31 0.20 0.16 0.21 0.20 0.25 0.32 0.36 0.40 0.33 0.16 0.13 0.07 0.05 0.15 0.17 0.16 0.19 0.16 0.02 0.00 0.00
0.47 0.73 0.48 0.14 0.03 0.00 0.00 0.00 0.00 0.01 0.07 0.14 0.14 0.14 0.44 0.48 0.18 0.12 0.08 0.06 0.07 0.07 0.15 0.29 0.57 0.49 0.35 0.39 0.30 0.24 0.19 0.19 0.23 0.30 0.43 0.49 0.36 0.22 0.14 0.11 0.09 0.07 0.07 0.09 0.11 0.10 0.01 0.00 0.00
0.71 0.51 0.29 0.21 0.03 0.00 0.00 0.00 0.00 0.01 0.03 0.06 0.10 0.25 0.57 0.51 0.28 0.32 0.28 0.16 0.23 0.17 0.25 0.46 0.85 0.66 0.35 0.43 0.44 0.34 0.34 0.37 0.29 0.37 0.51 0.49 0.32 0.31 0.22 0.17 0.10 0.07 0.04 0.07 0.07 0.08 0.03 0.01 0.01
0.79 0.46 0.36 0.31 0.07 0.00 0.00 0.00 0.00 0.00 0.01 0.04 0.17 0.25 0.56 0.82 0.73 0.64 0.66 0.51 0.66 0.64 0.70 0.70 0.91 0.89 0.62 0.48 0.39 0.33 0.30 0.41 0.36 0.44 0.68 0.58 0.45 0.41 0.38 0.24 0.12 0.11 0.07 0.06 0.05 0.09 0.05 0.02 0.01
0.63 0.53 0.33 0.10 0.04 0.01 0.00 0.00 0.00 0.00 0.00 0.01 0.04 0.07 0.39 1.13 1.12 1.10 1.07 0.93 0.89 1.18 0.99 0.69 0.57 0.52 0.46 0.33 0.18 0.14 0.15 0.24 0.37 0.46 0.58 0.46 0.45 0.36 0.36 0.31 0.21 0.27 0.22 0.16 0.13 0.06 0.06 0.02 0.01
0.46 0.60 0.32 0.05 0.03 0.01 0.00 0.00 0.00 0.00 0.00 0.00 0.02 0.15 0.24 0.69 1.13 1.55 1.67 1.55 1.28 1.41 1.65 1.37 1.09 0.67 0.43 0.36 0.19 0.13 0.16 0.19 0.39 0.24 0.23 0.19 0.17 0.13 0.19 0.15 0.15 0.21 0.28 0.16 0.08 0.08 0.07 0.05 0.01
0.74 1.05 0.49 0.07 0.03 0.02 0.00 0.01 0.01 0.01 0.00 0.00 0.00 0.06 0.09 0.13 0.74 1.87 2.61 2.66 1.54 1.29 1.49 1.96 1.61 1.00 0.76 0.67 0.36 0.21 0.13 0.08 0.24 0.25 0.14 0.13 0.07 0.05 0.03 0.02 0.04 0.08 0.14 0.14 0.09 0.08 0.09 0.07 0.01
1.24 1.35 0.33 0.04 0.02 0.03 0.01 0.01 0.01 0.03 0.01 0.08 0.08 0.05 0.05 0.27 0.59 1.56 2.86 3.02 2.18 1.31 1.09 1.46 1.75 1.07 0.73 0.72 0.53 0.32 0.20 0.12 0.10 0.24 0.18 0.11 0.09 0.04 0.04 0.02 0.02 0.03 0.03 0.06 0.09 0.11 0.06 0.02 0.00
1.22 0.82 0.14 0.09 0.14 0.16 0.04 0.03 0.01 0.08 0.11 0.02 0.08 0.09 0.15 0.37 0.50 0.78 1.77 2.94 2.84 2.23 1.34 0.91 1.23 1.22 0.61 0.80 0.55 0.29 0.14 0.11 0.08 0.19 0.31 0.21 0.14 0.14 0.08 0.03 0.04 0.03 0.01 0.02 0.03 0.07 0.02 0.00 0.00
0.93 0.41 0.23 0.19 0.30 0.19 0.07 0.05 0.02 0.04 0.02 0.00 0.10 0.14 0.17 0.32 0.43 0.66 0.82 1.89 2.01 2.33 2.12 1.41 0.90 1.06 0.71 0.75 0.70 0.26 0.11 0.08 0.07 0.09 0.35 0.31 0.19 0.19 0.18 0.04 0.07 0.13 0.07 0.03 0.05 0.03 0.03 0.01 0.00
0.72 0.52 0.42 0.47 0.38 0.29 0.23 0.15 0.04 0.01 0.02 0.03 0.13 0.14 0.19 0.34 0.32 0.55 0.56 0.64 1.11 1.60 2.53 2.32 1.58 1.02 0.84 0.56 0.84 0.39 0.14 0.08 0.04 0.05 0.09 0.41 0.30 0.24 0.21 0.26 0.14 0.13 0.17 0.13 0.16 0.15 0.17 0.12 0.05
0.66 0.73 0.55 0.72 0.55 0.43 0.29 0.17 0.21 0.03 0.06 0.15 0.26 0.30 0.32 0.32 0.36 0.50 0.34 0.37 0.75 0.94 1.22 2.05 2.04 1.89 1.35 0.91 1.11 0.83 0.30 0.15 0.07 0.05 0.03 0.07 0.37 0.33 0.40 0.26 0.19 0.14 0.10 0.17 0.31 0.34 0.36 0.29 0.24
0.71 0.82 1.01 0.92 0.74 0.66 0.44 0.37 0.31 0.06 0.10 0.18 0.28 0.28 0.42 0.38 0.37 0.26 0.48 0.56 0.45 0.58 0.76 0.91 1.29 2.07 2.01 1.27 1.18 1.46 0.89 0.39 0.14 0.05 0.05 0.02 0.09 0.37 0.34 0.67 0.45 0.14 0.13 0.17 0.22 0.25 0.30 0.29 0.34
0.76 1.36 1.33 0.96 1.25 1.00 0.65 0.30 0.09 0.11 0.13 0.11 0.20 0.38 0.56 0.60 0.54 0.47 0.33 0.29 0.51 0.49 0.40 0.47 0.59 1.07 1.50 1.20 1.19 1.31 1.32 0.96 0.42 0.14 0.09 0.08 0.04 0.09 0.28 0.30 0.60 0.57 0.38 0.29 0.23 0.25 0.30 0.25 0.26
0.76 1.14 1.00 0.90 1.01 1.40 0.77 0.24 0.10 0.12 0.17 0.09 0.11 0.31 0.46 0.63 0.53 0.39 0.42 0.54 0.31 0.32 0.37 0.44 0.57 0.60 0.69 0.85 0.84 0.99 1.18 1.31 0.84 0.52 0.23 0.14 0.14 0.12 0.13 0.18 0.26 0.43 0.45 0.38 0.36 0.30 0.24 0.22 0.18
0.45 0.58 0.69 0.70 0.67 1.02 1.10 0.36 0.19 0.15 0.18 0.08 0.04 0.11 0.37 0.57 0.91 0.56 0.44 0.62 0.57 0.39 0.42 0.46 0.31 0.38 0.43 0.93 1.09 1.12 1.08 1.15 1.10 0.64 0.41 0.38 0.39 0.45 0.34 0.28 0.39 0.33 0.29 0.28 0.21 0.20 0.21 0.16 0.11
0.35 0.29 0.60 0.54 0.54 0.62 0.93 0.67 0.24 0.16 0.20 0.18 0.07 0.05 0.21 0.49 1.00 1.21 0.85 0.73 0.83 0.72 0.74 0.52 0.42 0.36 0.40 0.58 0.55 0.74 0.91 1.22 1.39 1.13 0.98 0.97 0.90 0.81 0.73 0.54 0.43 0.35 0.24 0.18 0.19 0.20 0.24 0.25 0.30
0.23 0.21 0.63 0.83 0.70 0.70 0.63 0.86 0.43 0.17 0.16 0.15 0.17 0.13 0.21 0.45 0.88 1.26 1.66 0.85 0.79 1.39 1.59 1.18 0.84 0.79 0.55 0.66 0.65 0.57 0.82 1.04 1.26 1.46 1.27 1.34 1.30 1.13 0.85 0.71 0.69 0.57 0.53 0.44 0.46 0.41 0.40 0.31 0.32
0.15 0.09 0.39 1.22 0.92 0.60 0.49 0.58 0.69 0.27 0.15 0.12 0.18 0.22 0.35 0.55 0.58 1.01 1.79 1.34 1.19 1.62 1.68 1.43 1.33 1.16 1.25 1.15 1.45 1.28 1.32 1.26 1.60 1.82 1.62 1.55 1.48 1.43 1.56 1.85 1.55 1.00 1.02 1.14 1.21 1.23 1.12 0.86 0.56
0.24 0.09 0.39 0.79 0.59 0.50 0.32 0.45 0.41 0.31 0.21 0.15 0.25 0.28 0.31 0.42 0.37 0.57 0.90 1.25 1.40 0.91 0.84 1.33 2.38 2.65 1.70 1.71 2.50 2.94 2.86 2.76 2.54 2.86 2.50 1.92 1.69 1.69 1.86 2.15 2.74 3.21 2.75 1.92 1.61 1.53 1.37 1.41 1.21
0.42 0.11 0.31 0.37 0.27 0.31 0.22 0.53 0.21 0.23 0.22 0.28 0.28 0.17 0.16 0.17 0.33 0.34 0.53 0.73 0.60 0.49 0.54 0.72 1.26 2.07 2.13 2.05 2.51 2.92 2.59 2.11 1.95 2.06 2.69 2.69 2.44 2.02 1.86 1.89 1.96 1.98 2.17 2.62 2.35 1.90 1.82 1.70 1.40
0.17 0.13 0.44 0.38 0.48 0.51 0.21 0.27 0.19 0.20 0.20 0.39 0.32 0.15 0.27 0.23 0.16 0.31 0.26 0.34 0.38 0.42 0.51 0.50 0.69 1.08 1.90 2.06 2.07 2.41 2.64 2.81 2.41 1.99 2.27 2.19 1.82 1.80 1.70 1.52 1.38 1.41 1.46 1.56 1.92 1.95 1.68 1.57 1.61
0.23 0.58 1.20 1.11 1.15 0.65 0.22 0.08 0.11 0.11 0.10 0.25 0.38 0.25 0.36 0.49 0.30 0.36 0.58 0.54 0.58 0.58 0.38 0.40 0.52 0.59 0.94 1.35 1.70 1.85 1.56 1.82 1.91 1.80 1.79 1.96 1.93 1.72 1.65 1.53 1.53 1.41 1.42 1.46 1.55 1.71 1.64 1.46 1.31
0.35 0.58 0.88 0.73 0.35 0.42 0.17 0.22 0.18 0.20 0.19 0.18 0.34 0.46 0.72 0.98 0.55 0.51 0.80 0.98 0.99 0.70 0.62 0.39 0.49 0.33 0.26 0.34 0.63 1.04 1.34 1.71 1.71 1.58 1.52 1.47 1.41 1.55 1.87 1.77 1.74 1.78 1.73 1.71 1.72 1.76 1.81 1.71 1.62
0.33 0.45 0.33 0.47 0.21 0.35 0.35 0.30 0.37 0.38 0.39 0.27 0.36 0.69 0.95 1.05 0.91 0.79 0.84 1.13 1.00 0.74 0.71 0.67 0.52 0.48 0.20 0.12 0.19 0.23 0.32 0.44 0.65 0.78 0.82 0.97 1.23 1.18 1.31 1.42 1.33 1.32 1.32 1.29 1.37 1.38 1.37 1.49 1.53
0.07 0.13 0.26 0.53 0.41 0.28 0.25 0.24 0.60 0.64 0.59 0.58 0.65 0.87 0.98 0.91 1.10 0.94 0.85 0.78 0.62 0.54 0.43 0.43 0.32 0.13 0.09 0.09 0.11 0.04 0.07 0.10 0.14 0.17 0.18 0.23 0.40 0.55 0.68 0.79 0.81 0.88 0.93 1.07 1.17 1.21 1.29 1.39 1.40
0.04 0.14 0.15 0.23 0.22 0.22 0.08 0.14 0.38 0.49 0.43 0.47 0.54 0.68 0.76 0.85 0.82 0.69 0.56 0.34 0.17 0.11 0.02 0.02 0.02 0.04 0.06 0.05 0.03 0.02 0.04 0.06 0.07 0.07 0.05 0.05 0.07 0.08 0.10 0.12 0.15 0.17 0.24 0.42 0.63 0.79 0.97 1.17 1.32
0.02 0.01 0.04 0.23 0.09 0.13 0.07 0.07 0.05 0.11 0.14 0.20 0.26 0.29 0.30 0.39 0.36 0.28 0.14 0.04 0.01 0.00 0.00 0.00 0.05 0.07 0.03 0.02 0.02 0.02 0.03 0.04 0.05 0.05 0.07 0.07 0.07 0.05 0.05 0.06 0.06 0.06 0.10 0.13 0.15 0.17 0.22 0.30 0.40

GFSSGP_prec_precacc_120.txt.gz
Total_Precipitation_Accumulation
0.09 0.10 0.06 0.09 0.06 0.02 0.00 0.00 0.00 0.02 0.03 0.02 0.00 0.03 0.03 0.02 0.00 0.08 0.02 0.00 0.01 0.02 0.09 0.14 0.33 0.34 0.28 0.19 0.17 0.17 0.23 0.32 0.26 0.37 0.39 0.28 0.25 0.09 0.03 0.03 0.05 0.12 0.32 0.44 0.44 0.35 0.09 0.02 0.01
0.11 0.22 0.22 0.22 0.07 0.01 0.00 0.00 0.00 0.04 0.05 0.03 0.03 0.07 0.15 0.12 0.02 0.04 0.05 0.03 0.02 0.03 0.10 0.18 0.36 0.41 0.38 0.19 0.13 0.18 0.22 0.25 0.26 0.26 0.29 0.37 0.30 0.09 0.07 0.07 0.07 0.15 0.35 0.45 0.36 0.22 0.04 0.01 0.00
0.24 0.51 0.40 0.20 0.03 0.00 0.00 0.00 0.00 0.00 0.00 0.02 0.05 0.11 0.40 0.26 0.13 0.04 0.05 0.05 0.03 0.04 0.13 0.22 0.44 0.48 0.40 0.33 0.21 0.16 0.22 0.23 0.27 0.35 0.40 0.44 0.35 0.18 0.14 0.07 0.05 0.15 0.17 0.16 0.24 0.28 0.12 0.00 0.00
0.47 0.73 0.48 0.14 0.03 0.00 0.00 0.00 0.00 0.01 0.07 0.14 0.14 0.14 0.44 0.48 0.18 0.12 0.08 0.06 0.07 0.07 0.15 0.29 0.57 0.53 0.41 0.43 0.31 0.26 0.20 0.21 0.25 0.32 0.47 0.53 0.38 0.26 0.18 0.13 0.11 0.07 0.07 0.09 0.12 0.14 0.04 0.00 0.00
0.71 0.51 0.29 0.21 0.03 0.00 0.00 0.00 0.00 0.01 0.03 0.06 0.10 0.25 0.57 0.51 0.28 0.32 0.28 0.16 0.23 0.17 0.25 0.46 0.85 0.67 0.35 0.43 0.46 0.38 0.38 0.38 0.30 0.38 0.54 0.53 0.33 0.33 0.25 0.19 0.12 0.07 0.04 0.07 0.07 0.09 0.04 0.01 0.01
0.79 0.46 0.36 0.31 0.07 0.00 0.00 0.00 0.00 0.00 0.01 0.04 0.17 0.25 0.56 0.82 0.73 0.64 0.66 0.51 0.66 0.64 0.70 0.70 0.91 0.89 0.62 0.48 0.39 0.34 0.33 0.45 0.40 0.47 0.71 0.60 0.46 0.41 0.38 0.24 0.13 0.11 0.07 0.06 0.06 0.11 0.08 0.03 0.02
0.63 0.53 0.33 0.10 0.04 0.01 0.00 0.00 0.00 0.00 0.00 0.01 0.04 0.07 0.39 1.13 1.12 1.10 1.07 0.93 0.89 1.18 0.99 0.69 0.57 0.52 0.46 0.33 0.18 0.14 0.15 0.25 0.40 0.48 0.60 0.49 0.47 0.38 0.37 0.32 0.22 0.28 0.22 0.17 0.14 0.08 0.08 0.07 0.05
0.46 0.60 0.32 0.05 0.03 0.01 0.00 0.00 0.00 0.00 0.00 0.00 0.02 0.15 0.24 0.69 1.13 1.55 1.67 1.55 1.28 1.41 1.65 1.37 1.09 0.67 0.43 0.36 0.19 0.13 0.16 0.19 0.39 0.25 0.24 0.19 0.17 0.13 0.20 0.16 0.16 0.22 0.30 0.18 0.09 0.08 0.09 0.07 0.04
0.74 1.05 0.49 0.07 0.03 0.02 0.00 0.01 0.01 0.01 0.00 0.00 0.00 0.06 0.09 0.13 0.74 1.87 2.61 2.66 1.54 1.29 1.49 1.96 1.61 1.00 0.76 0.67 0.36 0.21 0.13 0.09 0.24 0.25 0.14 0.13 0.07 0.05 0.03 0.02 0.04 0.08 0.15 0.16 0.11 0.09 0.11 0.10 0.03
1.24 1.35 0.33 0.04 0.02 0.03 0.01 0.01 0.01 0.03 0.01 0.08 0.08 0.05 0.05 0.27 0.59 1.56 2.86 3.02 2.18 1.31 1.09 1.46 1.75 1.07 0.73 0.72 0.53 0.32 0.20 0.12 0.10 0.24 0.18 0.11 0.09 0.04 0.04 0.02 0.02 0.03 0.03 0.06 0.11 0.12 0.08 0.02 0.00
1.22 0.82 0.14 0.09 0.14 0.16 0.04 0.03 0.01 0.08 0.11 0.02 0.08 0.09 0.15 0.37 0.50 0.78 1.77 2.94 2.84 2.23 1.34 0.91 1.23 1.22 0.61 0.80 0.55 0.29 0.14 0.11 0.08 0.19 0.31 0.21 0.14 0.14 0.08 0.03 0.04 0.03 0.01 0.02 0.03 0.07 0.03 0.01 0.00
0.93 0.41 0.23 0.19 0.30 0.19 0.07 0.05 0.02 0.04 0.02 0.00 0.10 0.14 0.17 0.32 0.43 0.66 0.82 1.89 2.01 2.33 2.12 1.41 0.90 1.06 0.71 0.75 0.70 0.26 0.11 0.08 0.07 0.09 0.35 0.31 0.19 0.19 0.18 0.04 0.07 0.13 0.08 0.04 0.05 0.04 0.05 0.09 0.04
0.72 0.52 0.42 0.47 0.38 0.29 0.23 0.15 0.04 0.01 0.02 0.03 0.13 0.14 0.19 0.34 0.32 0.55 0.56 0.64 1.11 1.60 2.53 2.32 1.58 1.02 0.84 0.56 0.84 0.39 0.14 0.08 0.04 0.05 0.09 0.41 0.30 0.24 0.21 0.26 0.14 0.13 0.18 0.16 0.21 0.18 0.20 0.17 0.17
0.66 0.73 0.55 0.72 0.55 0.43 0.29 0.17 0.21 0.03 0.06 0.15 0.26 0.30 0.32 0.32 0.36 0.50 0.34 0.37 0.75 0.94 1.22 2.05 2.04 1.89 1.35 0.91 1.11 0.83 0.30 0.15 0.07 0.05 0.03 0.07 0.37 0.33 0.40 0.26 0.19 0.14 0.10 0.18 0.37 0.40 0.40 0.36 0.32
0.71 0.82 1.01 0.92 0.74 0.66 0.44 0.37 0.31 0.06 0.10 0.18 0.28 0.28 0.42 0.38 0.37 0.26 0.48 0.56 0.45 0.58 0.76 0.91 1.29 2.07 2.01 1.27 1.18 1.46 0.89 0.39 0.14 0.05 0.05 0.02 0.09 0.37 0.34 0.67 0.45 0.14 0.13 0.17 0.23 0.29 0.35 0.33 0.42
0.76 1.36 1.33 0.96 1.25 1.00 0.65 0.30 0.09 0.11 0.13 0.11 0.20 0.38 0.56 0.60 0.54 0.47 0.33 0.29 0.51 0.49 0.40 0.47 0.59 1.07 1.50 1.20 1.19 1.31 1.32 0.96 0.42 0.14 0.09 0.08 0.04 0.09 0.28 0.30 0.60 0.57 0.38 0.30 0.23 0.26 0.31 0.28 0.32
0.76 1.14 1.00 0.90 1.01 1.40 0.77 0.24 0.10 0.12 0.17 0.09 0.11 0.31 0.46 0.63 0.53 0.39 0.42 0.54 0.31 0.32 0.37 0.44 0.57 0.60 0.69 0.85 0.84 0.99 1.18 1.31 0.84 0.53 0.24 0.14 0.14 0.12 0.13 0.18 0.26 0.43 0.45 0.39 0.37 0.32 0.26 0.23 0.20
0.45 0.58 0.69 0.70 0.67 1.02 1.10 0.36 0.19 0.15 0.18 0.08 0.04 0.11 0.37 0.57 0.91 0.56 0.44 0.62 0.57 0.39 0.42 0.46 0.31 0.38 0.43 0.93 1.09 1.12 1.08 1.15 1.10 0.65 0.41 0.38 0.39 0.45 0.34 0.28 0.39 0.33 0.30 0.31 0.26 0.26 0.28 0.22 0.14
0.35 0.29 0.60 0.54 0.54 0.62 0.93 0.67 0.24 0.16 0.20 0.18 0.07 0.05 0.21 0.49 1.00 1.21 0.85 0.73 0.83 0.72 0.74 0.52 0.42 0.36 0.40 0.58 0.55 0.74 0.91 1.22 1.39 1.14 0.98 0.97 0.90 0.81 0.73 0.54 0.43 0.35 0.25 0.22 0.22 0.25 0.32 0.37 0.43
0.23 0.21 0.63 0.83 0.70 0.70 0.63 0.86 0.43 0.17 0.16 0.15 0.17 0.13 0.21 0.45 0.88 1.26 1.66 0.85 0.79 1.39 1.59 1.18 0.84 0.79 0.55 0.66 0.65 0.57 0.83 1.05 1.27 1.46 1.27 1.34 1.30 1.13 0.85 0.71 0.69 0.58 0.54 0.45 0.49 0.49 0.48 0.45 0.59
0.15 0.09 0.39 1.22 0.92 0.60 0.49 0.58 0.69 0.27 0.15 0.12 0.18 0.22 0.35 0.55 0.58 1.01 1.79 1.34 1.19 1.62 1.68 1.43 1.33 1.16 1.25 1.15 1.45 1.28 1.32 1.26 1.60 1.82 1.62 1.55 1.48 1.43 1.56 1.86 1.55 1.01 1.02 1.15 1.22 1.28 1.27 1.06 0.82
0.24 0.09 0.39 0.79 0.59 0.50 0.32 0.45 0.41 0.31 0.21 0.15 0.25 0.28 0.31 0.42 0.37 0.57 0.90 1.25 1.40 0.91 0.84 1.33 2.38 2.65 1.70 1.71 2.50 2.94 2.86 2.76 2.54 2.86 2.50 1.92 1.69 1.69 1.86 2.15 2.74 3.21 2.75 1.93 1.63 1.54 1.38 1.43 1.29
0.42 0.11 0.31 0.37 0.27 0.31 0.22 0.53 0.21 0.23 0.22 0.28 0.28 0.17 0.16 0.17 0.33 0.34 0.53 0.73 0.60 0.49 0.54 0.72 1.26 2.07 2.13 2.05 2.51 2.92 2.59 2.11 1.95 2.06 2.69 2.69 2.44 2.02 1.86 1.89 1.96 1.98 2.17 2.63 2.40 1.95 1.84 1.71 1.41
0.17 0.13 0.44 0.38 0.48 0.51 0.21 0.27 0.19 0.20 0.20 0.39 0.32 0.15 0.27 0.23 0.16 0.31 0.26 0.34 0.38 0.42 0.51 0.50 0.69 1.08 1.90 2.06 2.07 2.41 2.64 2.81 2.41 1.99 2.27 2.19 1.82 1.80 1.70 1.52 1.38 1.41 1.46 1.56 1.92 1.95 1.68 1.57 1.61
0.23 0.58 1.20 1.11 1.15 0.65 0.22 0.08 0.11 0.11 0.10 0.25 0.38 0.25 0.36 0.49 0.30 0.36 0.58 0.54 0.58 0.58 0.38 0.40 0.52 0.59 0.94 1.35 1.70 1.85 1.56 1.82 1.91 1.80 1.79 1.96 1.93 1.72 1.65 1.53 1.53 1.41 1.42 1.46 1.55 1.71 1.64 1.46 1.31
0.35 0.58 0.88 0.73 0.35 0.42 0.17 0.22 0.18 0.20 0.19 0.18 0.34 0.46 0.72 0.98 0.55 0.51 0.80 0.98 0.99 0.70 0.62 0.39 0.49 0.33 0.26 0.34 0.63 1.04 1.34 1.71 1.71 1.58 1.52 1.47 1.41 1.55 1.87 1.77 1.74 1.78 1.73 1.71 1.72 1.76 1.81 1.71 1.62
0.33 0.45 0.33 0.47 0.21 0.35 0.35 0.30 0.37 0.38 0.39 0.27 0.36 0.69 0.95 1.05 0.91 0.79 0.84 1.13 1.00 0.74 0.71 0.67 0.52 0.48 0.20 0.12 0.19 0.23 0.32 0.44 0.65 0.78 0.82 0.97 1.23 1.18 1.31 1.42 1.33 1.32 1.32 1.29 1.37 1.38 1.37 1.49 1.53
0.07 0.13 0.26 0.53 0.41 0.28 0.25 0.24 0.60 0.64 0.59 0.58 0.65 0.87 0.98 0.91 1.10 0.94 0.85 0.78 0.62 0.54 0.43 0.43 0.32 0.13 0.09 0.09 0.11 0.04 0.07 0.10 0.14 0.17 0.18 0.23 0.40 0.55 0.68 0.79 0.81 0.88 0.93 1.07 1.17 1.21 1.29 1.39 1.40
0.04 0.14 0.15 0.23 0.22 0.22 0.08 0.14 0.38 0.49 0.43 0.47 0.54 0.68 0.76 0.85 0.82 0.69 0.56 0.34 0.17 0.11 0.02 0.02 0.02 0.04 0.06 0.05 0.03 0.02 0.04 0.06 0.07 0.07 0.05 0.05 0.07 0.08 0.10 0.12 0.15 0.17 0.24 0.42 0.63 0.79 0.97 1.17 1.32
0.02 0.01 0.04 0.23 0.09 0.13 0.07 0.07 0.05 0.11 0.14 0.20 0.26 0.29 0.30 0.39 0.36 0.28 0.14 0.04 0.01 0.00 0.00 0.00 0.05 0.07 0.03 0.02 0.02 0.02 0.03 0.04 0.05 0.05 0.07 0.07 0.07 0.05 0.05 0.06 0.06 0.06 0.10 0.13 0.15 0.17 0.22 0.30 0.40

GFSSGP_prec_precacc_123.txt.gz
Total_Precipitation_Accumulation
0.09 0.10 0.06 0.09 0.06 0.02 0.00 0.00 0.00 0.02 0.03 0.02 0.00 0.03 0.03 0.02 0.00 0.08 0.02 0.00 0.01 0.02 0.09 0.16 0.36 0.36 0.31 0.20 0.17 0.17 0.23 0.33 0.31 0.46 0.47 0.30 0.25 0.09 0.03 0.03 0.05 0.12 0.32 0.45 0.53 0.42 0.09 0.02 0.01
0.11 0.22 0.22 0.22 0.07 0.01 0.00 0.00 0.00 0.04 0.05 0.03 0.03 0.07 0.15 0.12 0.02 0.04 0.05 0.03 0.02 0.03 0.10 0.18 0.39 0.44 0.39 0.21 0.14 0.18 0.22 0.25 0.28 0.30 0.33 0.38 0.31 0.09 0.07 0.07 0.07 0.15 0.35 0.45 0.46 0.30 0.05 0.02 0.00
0.24 0.51 0.40 0.20 0.03 0.00 0.00 0.00 0.00 0.00 0.00 0.02 0.05 0.11 0.40 0.26 0.13 0.04 0.05 0.05 0.03 0.04 0.13 0.22 0.44 0.52 0.43 0.34 0.22 0.16 0.23 0.23 0.28 0.35 0.40 0.44 0.36 0.19 0.15 0.07 0.05 0.15 0.17 0.16 0.26 0.38 0.17 0.06 0.00
0.47 0.73 0.48 0.14 0.03 0.00 0.00 0.00 0.00 0.01 0.07 0.14 0.14 0.14 0.44 0.48 0.18 0.12 0.08 0.06 0.07 0.07 0.15 0.29 0.57 0.54 0.45 0.47 0.31 0.26 0.21 0.23 0.27 0.33 0.48 0.54 0.38 0.26 0.19 0.13 0.11 0.07 0.07 0.09 0.12 0.15 0.07 0.01 0.00
0.71 0.51 0.29 0.21 0.03 0.00 0.00 0.00 0.00 0.01 0.03 0.06 0.10 0.25 0.57 0.51 0.28 0.32 0.28 0.16 0.23 0.17 0.25 0.46 0.85 0.67 0.35 0.43 0.46 0.38 0.39 0.40 0.32 0.40 0.59 0.58 0.37 0.39 0.27 0.20 0.12 0.07 0.04 0.07 0.07 0.10 0.06 0.02 0.01
0.79 0.46 0.36 0.31 0.07 0.00 0.00 0.00 0.00 0.00 0.01 0.04 0.17 0.25 0.56 0.82 0.73 0.64 0.66 0.51 0.66 0.64 0.70 0.70 0.91 0.89 0.62 0.48 0.39 0.34 0.33 0.47 0.42 0.48 0.74 0.65 0.52 0.49 0.45 0.29 0.15 0.12 0.07 0.06 0.06 0.11 0.08 0.04 0.02
0.63 0.53 0.33 0.10 0.04 0.01 0.00 0.00 0.00 0.00 0.00 0.01 0.04 0.07 0.39 1.13 1.12 1.10 1.07 0.93 0.89 1.18 0.99 0.69 0.57 0.52 0.46 0.33 0.18 0.14 0.15 0.25 0.40 0.50 0.61 0.49 0.48 0.40 0.40 0.38 0.26 0.31 0.26 0.22 0.17 0.10 0.11 0.09 0.09
0.46 0.60 0.32 0.05 0.03 0.01 0.00 0.00 0.00 0.00 0.00 0.00 0.02 0.15 0.24 0.69 1.13 1.55 1.67 1.55 1.28 1.41 1.65 1.37 1.09 0.67 0.43 0.36 0.19 0.13 0.16 0.19 0.39 0.25 0.24 0.19 0.17 0.13 0.20 0.16 0.16 0.25 0.33 0.23 0.14 0.11 0.12 0.11 0.09
0.74 1.05 0.49 0.07 0.03 0.02 0.00 0.01 0.01 0.01 0.00 0.00 0.00 0.06 0.09 0.13 0.74 1.87 2.61 2.66 1.54 1.29 1.49 1.96 1.61 1.00 0.76 0.67 0.36 0.21 0.13 0.09 0.24 0.25 0.14 0.13 0.07 0.05 0.03 0.02 0.04 0.08 0.15 0.18 0.15 0.13 0.14 0.12 0.04
1.24 1.35 0.33 0.04 0.02 0.03 0.01 0.01 0.01 0.03 0.01 0.08 0.08 0.05 0.05 0.27 0.59 1.56 2.86 3.02 2.18 1.31 1.09 1.46 1.75 1.07 0.73 0.72 0.53 0.32 0.20 0.12 0.10 0.24 0.18 0.11 0.09 0.04 0.04 0.02 0.02 0.03 0.03 0.06 0.11 0.14 0.10 0.05 0.00
1.22 0.82 0.14 0.09 0.14 0.16 0.04 0.03 0.01 0.08 0.11 0.02 0.08 0.09 0.15 0.37 0.50 0.78 1.77 2.94 2.84 2.23 1.34 0.91 1.23 1.22 0.61 0.80 0.55 0.29 0.14 0.11 0.08 0.19 0.31 0.21 0.14 0.14 0.08 0.03 0.04 0.03 0.01 0.02 0.03 0.08 0.05 0.05 0.04
0.93 0.41 0.23 0.19 0.30 0.19 0.07 0.05 0.02 0.04 0.02 0.00 0.10 0.14 0.17 0.32 0.43 0.66 0.82 1.89 2.01 2.33 2.12 1.41 0.90 1.06 0.71 0.75 0.70 0.26 0.11 0.08 0.07 0.09 0.35 0.31 0.19 0.19 0.18 0.04 0.07 0.13 0.08 0.04 0.05 0.04 0.05 0.12 0.13
0.72 0.52 0.42 0.47 0.38 0.29 0.23 0.15 0.04 0.01 0.02 0.03 0.13 0.14 0.19 0.34 0.32 0.55 0.56 0.64 1.11 1.60 2.53 2.32 1.58 1.02 0.84 0.56 0.84 0.39 0.14 0.08 0.04 0.05 0.09 0.41 0.30 0.24 0.21 0.26 0.14 0.13 0.18 0.16 0.21 0.19 0.20 0.18 0.20
0.66 0.73 0.55 0.72 0.55 0.43 0.29 0.17 0.21 0.03 0.06 0.15 0.26 0.30 0.32 0.32 0.36 0.50 0.34 0.37 0.75 0.94 1.22 2.05 2.04 1.89 1.35 0.91 1.11 0.83 0.30 0.15 0.07 0.05 0.03 0.07 0.37 0.33 0.40 0.26 0.19 0.14 0.10 0.18 0.37 0.40 0.41 0.37 0.32
0.71 0.82 1.01 0.92 0.74 0.66 0.44 0.37 0.31 0.06 0.10 0.18 0.28 0.28 0.42 0.38 0.37 0.26 0.48 0.56 0.45 0.58 0.76 0.91 1.29 2.07 2.01 1.27 1.18 1.46 0.89 0.39 0.14 0.05 0.05 0.02 0.09 0.37 0.34 0.67 0.45 0.14 0.13 0.17 0.23 0.29 0.35 0.33 0.43
0.76 1.36 1.33 0.96 1.25 1.00 0.65 0.30 0.09 0.11 0.13 0.11 0.20 0.38 0.56 0.60 0.54 0.47 0.33 0.29 0.51 0.49 0.40 0.47 0.59 1.07 1.50 1.20 1.19 1.31 1.32 0.96 0.42 0.14 0.09 0.08 0.04 0.09 0.28 0.30 0.60 0.57 0.38 0.30 0.24 0.26 0.32 0.28 0.33
0.76 1.14 1.00 0.90 1.01 1.40 0.77 0.24 0.10 0.12 0.17 0.09 0.11 0.31 0.46 0.63 0.53 0.39 0.42 0.54 0.31 0.32 0.37 0.44 0.57 0.60 0.69 0.85 0.84 0.99 1.18 1.31 0.84 0.53 0.24 0.14 0.14 0.12 0.13 0.18 0.26 0.43 0.45 0.40 0.38 0.33 0.28 0.26 0.27
0.45 0.58 0.69 0.70 0.67 1.02 1.10 0.36 0.19 0.15 0.18 0.08 0.04 0.11 0.37 0.57 0.91 0.56 0.44 0.62 0.57 0.39 0.42 0.46 0.31 0.38 0.43 0.93 1.09 1.12 1.08 1.15 1.10 0.65 0.41 0.38 0.39 0.45 0.34 0.28 0.39 0.33 0.30 0.31 0.27 0.26 0.30 0.25 0.19
0.35 0.29 0.60 0.54 0.54 0.62 0.93 0.67 0.24 0.16 0.20 0.18 0.07 0.05 0.21 0.49 1.00 1.21 0.85 0.73 0.83 0.72 0.74 0.52 0.42 0.36 0.40 0.58 0.55 0.74 0.91 1.22 1.39 1.14 0.98 0.97 0.90 0.81 0.73 0.54 0.43 0.35 0.25 0.22 0.22 0.25 0.32 0.39 0.46
0.23 0.21 0.63 0.83 0.70 0.70 0.63 0.86 0.43 0.17 0.16 0.15 0.17 0.13 0.21 0.45 0.88 1.26 1.66 0.85 0.79 1.39 1.59 1.18 0.84 0.79 0.55 0.66 0.65 0.57 0.83 1.05 1.27 1.46 1.27 1.34 1.30 1.13 0.85 0.71 0.69 0.58 0.54 0.45 0.50 0.49 0.48 0.46 0.60
0.15 0.09 0.39 1.22 0.92 0.60 0.49 0.58 0.69 0.27 0.15 0.12 0.18 0.22 0.35 0.55 0.58 1.01 1.79 1.34 1.19 1.62 1.68 1.43 1.33 1.16 1.25 1.15 1.45 1.28 1.32 1.26 1.60 1.82 1.62 1.55 1.48 1.43 1.56 1.86 1.55 1.01 1.02 1.15 1.22 1.28 1.27 1.06 0.82
0.24 0.09 0.39 0.79 0.59 0.50 0.32 0.45 0.41 0.31 0.21 0.15 0.25 0.28 0.31 0.42 0.37 0.57 0.90 1.25 1.40 0.91 0.84 1.33 2.38 2.65 1.70 1.71 2.50 2.94 2.86 2.76 2.54 2.86 2.50 1.92 1.69 1.69 1.86 2.15 2.74 3.21 2.75 1.93 1.63 1.54 1.38 1.43 1.29
0.42 0.11 0.31 0.37 0.27 0.31 0.22 0.53 0.21 0.23 0.22 0.28 0.28 0.17 0.16 0.17 0.33 0.34 0.53 0.73 0.60 0.49 0.54 0.72 1.26 2.07 2.13 2.05 2.51 2.92 2.59 2.11 1.95 2.06 2.69 2.69 2.44 2.02 1.86 1.89 1.96 1.98 2.17 2.63 2.40 1.95 1.84 1.71 1.41
0.17 0.13 0.44 0.38 0.48 0.51 0.21 0.27 0.19 0.20 0.20 0.39 0.32 0.15 0.27 0.23 0.16 0.31 0.26 0.34 0.38 0.42 0.51 0.50 0.69 1.08 1.90 2.06 2.07 2.41 2.64 2.81 2.41 1.99 2.27 2.19 1.82 1.80 1.70 1.52 1.38 1.41 1.46 1.56 1.92 1.95 1.68 1.57 1.61
0.23 0.58 1.20 1.11 1.15 0.65 0.22 0.08 0.11 0.11 0.10 0.25 0.38 0.25 0.36 0.49 0.30 0.36 0.58 0.54 0.58 0.58 0.38 0.40 0.52 0.59 0.94 1.35 1.70 1.85 1.56 1.82 1.91 1.80 1.79 1.96 1.93 1.72 1.65 1.53 1.53 1.41 1.42 1.46 1.55 1.71 1.64 1.46 1.31
0.35 0.58 0.88 0.73 0.35 0.42 0.17 0.22 0.18 0.20 0.19 0.18 0.34 0.46 0.72 0.98 0.55 0.51 0.80 0.98 0.99 0.70 0.62 0.39 0.49 0.33 0.26 0.34 0.63 1.04 1.34 1.71 1.71 1.58 1.52 1.47 1.41 1.55 1.87 1.77 1.74 1.78 1.73 1.71 1.72 1.76 1.81 1.71 1.62
0.33 0.45 0.33 0.47 0.21 0.35 0.35 0.30 0.37 0.38 0.39 0.27 0.36 0.69 0.95 1.05 0.91 0.79 0.84 1.13 1.00 0.74 0.71 0.67 0.52 0.48 0.20 0.12 0.19 0.23 0.32 0.44 0.65 0.78 0.82 0.97 1.23 1.18 1.31 1.42 1.33 1.32 1.32 1.29 1.37 1.38 1.37 1.49 1.53
0.07 0.13 0.26 0.53 0.41 0.28 0.25 0.24 0.60 0.64 0.59 0.58 0.65 0.87 0.98 0.91 1.10 0.94 0.85 0.78 0.62 0.54 0.43 0.43 0.32 0.13 0.09 0.09 0.11 0.04 0.07 0.10 0.14 0.17 0.18 0.23 0.40 0.55 0.68 0.79 0.81 0.88 0.93 1.07 1.17 1.21 1.29 1.39 1.40
0.04 0.14 0.15 0.23 0.22 0.22 0.08 0.14 0.38 0.49 0.43 0.47 0.54 0.68 0.76 0.85 0.82 0.69 0.56 0.34 0.17 0.11 0.02 0.02 0.02 0.04 0.06 0.05 0.03 0.02 0.04 0.06 0.07 0.07 0.05 0.05 0.07 0.08 0.10 0.12 0.15 0.17 0.24 0.42 0.63 0.79 0.97 1.17 1.32
0.02 0.01 0.04 0.23 0.09 0.13 0.07 0.07 0.05 0.11 0.14 0.20 0.26 0.29 0.30 0.39 0.36 0.28 0.14 0.04 0.01 0.00 0.00 0.00 0.05 0.07 0.03 0.02 0.02 0.02 0.03 0.04 0.05 0.05 0.07 0.07 0.07 0.05 0.05 0.06 0.06 0.06 0.10 0.13 0.15 0.17 0.22 0.30 0.40

GFSSGP_prec_precacc_126.txt.gz
Total_Precipitation_Accumulation
0.09 0.10 0.06 0.09 0.06 0.02 0.00 0.00 0.00 0.02 0.03 0.02 0.00 0.03 0.03 0.02 0.00 0.08 0.02 0.00 0.01 0.02 0.10 0.16 0.40 0.36 0.31 0.23 0.19 0.18 0.23 0.33 0.31 0.49 0.49 0.30 0.25 0.09 0.03 0.03 0.05 0.12 0.32 0.46 0.57 0.46 0.09 0.02 0.02
0.11 0.22 0.22 0.22 0.07 0.01 0.00 0.00 0.00 0.04 0.05 0.03 0.03 0.07 0.15 0.12 0.02 0.04 0.05 0.03 0.02 0.03 0.11 0.18 0.41 0.47 0.39 0.22 0.14 0.19 0.22 0.25 0.28 0.32 0.34 0.38 0.31 0.09 0.07 0.07 0.07 0.15 0.35 0.45 0.48 0.34 0.07 0.06 0.01
0.24 0.51 0.40 0.20 0.03 0.00 0.00 0.00 0.00 0.00 0.00 0.02 0.05 0.11 0.40 0.26 0.13 0.04 0.05 0.05 0.03 0.04 0.13 0.22 0.44 0.53 0.47 0.38 0.23 0.17 0.23 0.24 0.29 0.37 0.42 0.45 0.37 0.19 0.15 0.07 0.05 0.15 0.17 0.16 0.26 0.38 0.20 0.10 0.03
0.47 0.73 0.48 0.14 0.03 0.00 0.00 0.00 0.00 0.01 0.07 0.14 0.14 0.14 0.44 0.48 0.18 0.12 0.08 0.06 0.07 0.07 0.15 0.29 0.57 0.54 0.45 0.48 0.32 0.26 0.21 0.23 0.27 0.34 0.52 0.57 0.40 0.31 0.22 0.14 0.13 0.07 0.07 0.09 0.12 0.15 0.08 0.02 0.01
0.71 0.51 0.29 0.21 0.03 0.00 0.00 0.00 0.00 0.01 0.03 0.06 0.10 0.25 0.57 0.51 0.28 0.32 0.28 0.16 0.23 0.17 0.25 0.46 0.85 0.67 0.35 0.43 0.46 0.38 0.39 0.41 0.32 0.40 0.59 0.59 0.39 0.44 0.32 0.25 0.15 0.08 0.05 0.07 0.07 0.10 0.07 0.03 0.01
0.79 0.46 0.36 0.31 0.07 0.00 0.00 0.00 0.00 0.00 0.01 0.04 0.17 0.25 0.56 0.82 0.73 0.64 0.66 0.51 0.66 0.64 0.70 0.70 0.91 0.89 0.62 0.48 0.39 0.34 0.33 0.47 0.42 0.48 0.74 0.65 0.52 0.49 0.45 0.31 0.17 0.13 0.09 0.10 0.10 0.13 0.14 0.08 0.04
0.63 0.53 0.33 0.10 0.04 0.01 0.00 0.00 0.00 0.00 0.00 0.01 0.04 0.07 0.39 1.13 1.12 1.10 1.07 0.93 0.89 1.18 0.99 0.69 0.57 0.52 0.46 0.33 0.18 0.14 0.15 0.25 0.40 0.50 0.61 0.49 0.48 0.40 0.41 0.40 0.27 0.32 0.27 0.24 0.21 0.14 0.15 0.14 0.14
0.46 0.60 0.32 0.05 0.03 0.01 0.00 0.00 0.00 0.00 0.00 0.00 0.02 0.15 0.24 0.69 1.13 1.55 1.67 1.55 1.28 1.41 1.65 1.37 1.09 0.67 0.43 0.36 0.19 0.13 0.16 0.19 0.39 0.25 0.24 0.19 0.17 0.13 0.20 0.16 0.17 0.25 0.34 0.24 0.15 0.13 0.14 0.13 0.13
0.74 1.05 0.49 0.07 0.03 0.02 0.00 0.01 0.01 0.01 0.00 0.00 0.00 0.06 0.09 0.13 0.74 1.87 2.61 2.66 1.54 1.29 1.49 1.96 1.61 1.00 0.76 0.67 0.36 0.21 0.13 0.09 0.24 0.25 0.14 0.13 0.07 0.05 0.03 0.02 0.04 0.08 0.15 0.18 0.15 0.15 0.16 0.14 0.05
1.24 1.35 0.33 0.04 0.02 0.03 0.01 0.01 0.01 0.03 0.01 0.08 0.08 0.05 0.05 0.27 0.59 1.56 2.86 3.02 2.18 1.31 1.09 1.46 1.75 1.07 0.73 0.72 0.53 0.32 0.20 0.12 0.10 0.24 0.18 0.11 0.09 0.04 0.04 0.02 0.02 0.03 0.03 0.06 0.11 0.14 0.12 0.06 0.01
1.22 0.82 0.14 0.09 0.14 0.16 0.04 0.03 0.01 0.08 0.11 0.02 0.08 0.09 0.15 0.37 0.50 0.78 1.77 2.94 2.84 2.23 1.34 0.91 1.23 1.22 0.61 0.80 0.55 0.29 0.14 0.11 0.08 0.19 0.31 0.21 0.14 0.14 0.08 0.03 0.04 0.03 0.01 0.02 0.03 0.09 0.06 0.06 0.06
0.93 0.41 0.23 0.19 0.30 0.19 0.07 0.05 0.02 0.04 0.02 0.00 0.10 0.14 0.17 0.32 0.43 0.66 0.82 1.89 2.01 2.33 2.12 1.41 0.90 1.06 0.71 0.75 0.70 0.26 0.11 0.08 0.07 0.09 0.35 0.31 0.19 0.19 0.18 0.04 0.07 0.13 0.08 0.04 0.06 0.04 0.07 0.15 0.18
0.72 0.52 0.42 0.47 0.38 0.29 0.23 0.15 0.04 0.01 0.02 0.03 0.13 0.14 0.19 0.34 0.32 0.55 0.56 0.64 1.11 1.60 2.53 2.32 1.58 1.02 0.84 0.56 0.84 0.39 0.14 0.08 0.04 0.05 0.09 0.41 0.30 0.24 0.21 0.26 0.14 0.13 0.18 0.16 0.21 0.19 0.20 0.18 0.21
0.66 0.73 0.55 0.72 0.55 0.43 0.29 0.17 0.21 0.03 0.06 0.15 0.26 0.30 0.32 0.32 0.36 0.50 0.34 0.37 0.75 0.94 1.22 2.05 2.04 1.89 1.35 0.91 1.11 0.83 0.30 0.15 0.07 0.05 0.03 0.07 0.37 0.33 0.40 0.26 0.19 0.14 0.10 0.18 0.37 0.40 0.41 0.37 0.32
0.71 0.82 1.01 0.92 0.74 0.66 0.44 0.37 0.31 0.06 0.10 0.18 0.28 0.28 0.42 0.38 0.37 0.26 0.48 0.56 0.45 0.58 0.76 0.91 1.29 2.07 2.01 1.27 1.18 1.46 0.89 0.39 0.14 0.05 0.05 0.02 0.09 0.37 0.34 0.67 0.45 0.14 0.13 0.17 0.23 0.29 0.35 0.34 0.43
0.76 1.36 1.33 0.96 1.25 1.00 0.65 0.30 0.09 0.11 0.13 0.11 0.20 0.38 0.56 0.60 0.54 0.47 0.33 0.29 0.51 0.49 0.40 0.47 0.59 1.07 1.50 1.20 1.19 1.31 1.32 0.96 0.42 0.15 0.09 0.08 0.04 0.09 0.28 0.30 0.60 0.57 0.38 0.30 0.24 0.26 0.32 0.29 0.34
0.76 1.14 1.00 0.90 1.01 1.40 0.77 0.24 0.10 0.12 0.17 0.09 0.11 0.31 0.46 0.63 0.53 0.39 0.42 0.54 0.31 0.32 0.37 0.44 0.57 0.60 0.69 0.85 0.84 0.99 1.18 1.31 0.84 0.53 0.24 0.14 0.14 0.12 0.13 0.18 0.26 0.43 0.46 0.40 0.38 0.34 0.29 0.27 0.28
0.45 0.58 0.69 0.70 0.67 1.02 1.10 0.36 0.19 0.15 0.18 0.08 0.04 0.11 0.37 0.57 0.91 0.56 0.44 0.62 0.57 0.39 0.42 0.46 0.31 0.38 0.43 0.93 1.09 1.12 1.08 1.15 1.10 0.65 0.41 0.38 0.39 0.45 0.34 0.28 0.39 0.33 0.30 0.31 0.27 0.26 0.31 0.26 0.19
0.35 0.29 0.60 0.54 0.54 0.62 0.93 0.67 0.24 0.16 0.20 0.18 0.07 0.05 0.21 0.49 1.00 1.21 0.85 0.73 0.83 0.72 0.74 0.52 0.42 0.36 0.40 0.58 0.55 0.74 0.91 1.22 1.39 1.14 0.98 0.97 0.90 0.81 0.73 0.54 0.43 0.35 0.25 0.22 0.22 0.25 0.33 0.40 0.46
0.23 0.21 0.63 0.83 0.70 0.70 0.63 0.86 0.43 0.17 0.16 0.15 0.17 0.13 0.21 0.45 0.88 1.26 1.66 0.85 0.79 1.39 1.59 1.18 0.84 0.79 0.55 0.66 0.65 0.57 0.83 1.05 1.27 1.46 1.27 1.34 1.30 1.13 0.85 0.71 0.69 0.58 0.54 0.45 0.50 0.49 0.48 0.46 0.60
0.15 0.09 0.39 1.22 0.92 0.60 0.49 0.58 0.69 0.27 0.15 0.12 0.18 0.22 0.35 0.55 0.58 1.01 1.79 1.34 1.19 1.62 1.68 1.43 1.33 1.16 1.25 1.15 1.45 1.28 1.32 1.26 1.60 1.82 1.62 1.55 1.48 1.43 1.56 1.86 1.55 1.01 1.02 1.15 1.22 1.28 1.27 1.06 0.82
0.24 0.09 0.39 0.79 0.59 0.50 0.32 0.45 0.41 0.31 0.21 0.15 0.25 0.28 0.31 0.42 0.37 0.57 0.90 1.25 1.40 0.91 0.84 1.33 2.38 2.65 1.70 1.71 2.50 2.94 2.86 2.76 2.54 2.86 2.50 1.92 1.69 1.69 1.86 2.15 2.74 3.21 2.75 1.93 1.63 1.54 1.38 1.43 1.29
0.42 0.11 0.31 0.37 0.27 0.31 0.22 0.53 0.21 0.23 0.22 0.28 0.28 0.17 0.16 0.17 0.33 0.34 0.53 0.73 0.60 0.49 0.54 0.72 1.26 2.07 2.13 2.05 2.51 2.92 2.59 2.11 1.95 2.06 2.69 2.69 2.44 2.02 1.86 1.89 1.96 1.98 2.17 2.63 2.40 1.95 1.84 1.71 1.41
0.17 0.13 0.44 0.38 0.48 0.51 0.21 0.27 0.19 0.20 0.20 0.39 0.32 0.15 0.27 0.23 0.16 0.31 0.26 0.34 0.38 0.42 0.51 0.50 0.69 1.08 1.90 2.06 2.07 2.41 2.64 2.81 2.41 1.99 2.27 2.19 1.82 1.80 1.70 1.52 1.38 1.41 1.46 1.56 1.92 1.95 1.68 1.57 1.61
0.23 0.58 1.20 1.11 1.15 0.65 0.22 0.08 0.11 0.11 0.10 0.25 0.38 0.25 0.36 0.49 0.30 0.36 0.58 0.54 0.58 0.58 0.38 0.40 0.52 0.59 0.94 1.35 1.70 1.85 1.56 1.82 1.91 1.80 1.79 1.96 1.93 1.72 1.65 1.53 1.53 1.41 1.42 1.46 1.55 1.71 1.64 1.46 1.31
0.35 0.58 0.88 0.73 0.35 0.42 0.17 0.22 0.18 0.20 0.19 0.18 0.34 0.46 0.72 0.98 0.55 0.51 0.80 0.98 0.99 0.70 0.62 0.39 0.49 0.33 0.26 0.34 0.63 1.04 1.34 1.71 1.71 1.58 1.52 1.47 1.41 1.55 1.87 1.77 1.74 1.78 1.73 1.71 1.72 1.76 1.81 1.71 1.62
0.33 0.45 0.33 0.47 0.21 0.35 0.35 0.30 0.37 0.38 0.39 0.27 0.36 0.69 0.95 1.05 0.91 0.79 0.84 1.13 1.00 0.74 0.71 0.67 0.52 0.48 0.20 0.12 0.19 0.23 0.32 0.44 0.65 0.78 0.82 0.97 1.23 1.18 1.31 1.42 1.33 1.32 1.32 1.29 1.37 1.38 1.37 1.49 1.53
0.07 0.13 0.26 0.53 0.41 0.28 0.25 0.24 0.60 0.64 0.59 0.58 0.65 0.87 0.98 0.91 1.10 0.94 0.85 0.78 0.62 0.54 0.43 0.43 0.32 0.13 0.09 0.09 0.11 0.04 0.07 0.10 0.14 0.17 0.18 0.23 0.40 0.55 0.68 0.79 0.81 0.88 0.93 1.07 1.17 1.21 1.29 1.39 1.40
0.04 0.14 0.15 0.23 0.22 0.22 0.08 0.14 0.38 0.49 0.43 0.47 0.54 0.68 0.76 0.85 0.82 0.69 0.56 0.34 0.17 0.11 0.02 0.02 0.02 0.04 0.06 0.05 0.03 0.02 0.04 0.06 0.07 0.07 0.05 0.05 0.07 0.08 0.10 0.12 0.15 0.17 0.24 0.42 0.63 0.79 0.97 1.17 1.32
0.02 0.01 0.04 0.23 0.09 0.13 0.07 0.07 0.05 0.11 0.14 0.20 0.26 0.29 0.30 0.39 0.36 0.28 0.14 0.04 0.01 0.00 0.00 0.00 0.05 0.07 0.03 0.02 0.02 0.02 0.03 0.04 0.05 0.05 0.07 0.07 0.07 0.05 0.05 0.06 0.06 0.06 0.10 0.13 0.15 0.17 0.22 0.30 0.40

GFSSGP_prec_precacc_129.txt.gz
Total_Precipitation_Accumulation
0.09 0.10 0.06 0.09 0.06 0.02 0.00 0.00 0.00 0.02 0.03 0.02 0.00 0.03 0.03 0.02 0.00 0.08 0.02 0.00 0.01 0.02 0.10 0.17 0.42 0.38 0.32 0.24 0.20 0.18 0.23 0.33 0.31 0.50 0.52 0.32 0.25 0.09 0.03 0.03 0.05 0.12 0.32 0.46 0.61 0.50 0.10 0.02 0.02
0.11 0.22 0.22 0.22 0.07 0.01 0.00 0.00 0.00 0.04 0.05 0.03 0.03 0.07 0.15 0.12 0.02 0.04 0.05 0.03 0.02 0.03 0.11 0.18 0.41 0.48 0.42 0.23 0.15 0.19 0.23 0.26 0.30 0.36 0.39 0.47 0.34 0.10 0.07 0.07 0.07 0.15 0.35 0.45 0.49 0.36 0.10 0.08 0.04
0.24 0.51 0.40 0.20 0.03 0.00 0.00 0.00 0.00 0.00 0.00 0.02 0.05 0.11 0.40 0.26 0.13 0.04 0.05 0.05 0.03 0.04 0.13 0.22 0.44 0.53 0.48 0.42 0.25 0.18 0.23 0.24 0.29 0.37 0.44 0.49 0.42 0.24 0.17 0.09 0.06 0.15 0.17 0.16 0.26 0.38 0.20 0.13 0.08
0.47 0.73 0.48 0.14 0.03 0.00 0.00 0.00 0.00 0.01 0.07 0.14 0.14 0.14 0.44 0.48 0.18 0.12 0.08 0.06 0.07 0.07 0.15 0.29 0.57 0.54 0.45 0.48 0.32 0.26 0.21 0.23 0.27 0.34 0.52 0.57 0.40 0.33 0.25 0.18 0.17 0.08 0.07 0.09 0.12 0.15 0.09 0.04 0.04
0.71 0.51 0.29 0.21 0.03 0.00 0.00 0.00 0.00 0.01 0.03 0.06 0.10 0.25 0.57 0.51 0.28 0.32 0.28 0.16 0.23 0.17 0.25 0.46 0.85 0.67 0.35 0.43 0.46 0.38 0.39 0.41 0.32 0.40 0.59 0.59 0.40 0.44 0.32 0.25 0.15 0.08 0.05 0.09 0.08 0.10 0.08 0.06 0.02
0.79 0.46 0.36 0.31 0.07 0.00 0.00 0.00 0.00 0.00 0.01 0.04 0.17 0.25 0.56 0.82 0.73 0.64 0.66 0.51 0.66 0.64 0.70 0.70 0.91 0.89 0.62 0.48 0.39 0.34 0.33 0.47 0.42 0.48 0.74 0.65 0.52 0.49 0.46 0.31 0.17 0.13 0.09 0.12 0.13 0.14 0.16 0.12 0.09
0.63 0.53 0.33 0.10 0.04 0.01 0.00 0.00 0.00 0.00 0.00 0.01 0.04 0.07 0.39 1.13 1.12 1.10 1.07 0.93 0.89 1.18 0.99 0.69 0.57 0.52 0.46 0.33 0.18 0.14 0.15 0.25 0.40 0.50 0.61 0.49 0.48 0.40 0.41 0.40 0.28 0.32 0.27 0.24 0.21 0.14 0.15 0.14 0.17
0.46 0.60 0.32 0.05 0.03 0.01 0.00 0.00 0.00 0.00 0.00 0.00 0.02 0.15 0.24 0.69 1.13 1.55 1.67 1.55 1.28 1.41 1.65 1.37 1.09 0.67 0.43 0.36 0.19 0.13 0.16 0.19 0.39 0.25 0.24 0.19 0.17 0.13 0.20 0.16 0.17 0.25 0.34 0.24 0.15 0.14 0.15 0.14 0.13
0.74 1.05 0.49 0.07 0.03 0.02 0.00 0.01 0.01 0.01 0.00 0.00 0.00 0.06 0.09 0.13 0.74 1.87 2.61 2.66 1.54 1.29 1.49 1.96 1.61 1.00 0.76 0.67 0.36 0.21 0.13 0.09 0.24 0.25 0.14 0.13 0.07 0.05 0.03 0.02 0.04 0.08 0.15 0.18 0.15 0.15 0.18 0.15 0.05
1.24 1.35 0.33 0.04 0.02 0.03 0.01 0.01 0.01 0.03 0.01 0.08 0.08 0.05 0.05 0.27 0.59 1.56 2.86 3.02 2.18 1.31 1.09 1.46 1.75 1.07 0.73 0.72 0.53 0.32 0.20 0.12 0.10 0.24 0.18 0.11 0.09 0.04 0.04 0.02 0.02 0.03 0.03 0.06 0.11 0.14 0.12 0.06 0.01
1.22 0.82 0.14 0.09 0.14 0.16 0.04 0.03 0.01 0.08 0.11 0.02 0.08 0.09 0.15 0.37 0.50 0.78 1.77 2.94 2.84 2.23 1.34 0.91 1.23 1.22 0.61 0.80 0.55 0.29 0.14 0.11 0.08 0.19 0.31 0.21 0.14 0.14 0.08 0.03 0.04 0.03 0.01 0.02 0.04 0.10 0.07 0.08 0.08
0.93 0.41 0.23 0.19 0.30 0.19 0.07 0.05 0.02 0.04 0.02 0.00 0.10 0.14 0.17 0.32 0.43 0.66 0.82 1.89 2.01 2.33 2.12 1.41 0.90 1.06 0.71 0.75 0.70 0.26 0.11 0.08 0.07 0.09 0.35 0.31 0.19 0.19 0.18 0.04 0.07 0.13 0.08 0.04 0.06 0.04 0.07 0.15 0.19
0.72 0.52 0.42 0.47 0.38 0.29 0.23 0.15 0.04 0.01 0.02 0.03 0.13 0.14 0.19 0.34 0.32 0.55 0.56 0.64 1.11 1.60 2.53 2.32 1.58 1.02 0.84 0.56 0.84 0.39 0.14 0.08 0.04 0.05 0.09 0.41 0.30 0.24 0.21 0.26 0.14 0.13 0.18 0.16 0.21 0.19 0.20 0.18 0.21
0.66 0.73 0.55 0.72 0.55 0.43 0.29 0.17 0.21 0.03 0.06 0.15 0.26 0.30 0.32 0.32 0.36 0.50 0.34 0.37 0.75 0.94 1.22 2.05 2.04 1.89 1.35 0.91 1.11 0.83 0.30 0.15 0.07 0.05 0.03 0.07 0.37 0.33 0.40 0.26 0.19 0.14 0.10 0.18 0.37 0.40 0.41 0.37 0.33
0.71 0.82 1.01 0.92 0.74 0.66 0.44 0.37 0.31 0.06 0.10 0.18 0.28 0.28 0.42 0.38 0.37 0.26 0.48 0.56 0.45 0.58 0.76 0.91 1.29 2.07 2.01 1.27 1.18 1.46 0.89 0.39 0.14 0.05 0.05 0.02 0.09 0.37 0.34 0.67 0.45 0.14 0.13 0.17 0.23 0.29 0.35 0.34 0.43
0.76 1.36 1.33 0.96 1.25 1.00 0.65 0.30 0.09 0.11 0.13 0.11 0.20 0.38 0.56 0.60 0.54 0.47 0.33 0.29 0.51 0.49 0.40 0.47 0.59 1.07 1.50 1.20 1.19 1.31 1.32 0.96 0.42 0.15 0.09 0.08 0.04 0.09 0.28 0.30 0.60 0.57 0.38 0.30 0.24 0.26 0.32 0.29 0.34
0.76 1.14 1.00 0.90 1.01 1.40 0.77 0.24 0.10 0.12 0.17 0.09 0.11 0.31 0.46 0.63 0.53 0.39 0.42 0.54 0.31 0.32 0.37 0.44 0.57 0.60 0.69 0.85 0.84 0.99 1.18 1.31 0.84 0.53 0.24 0.14 0.14 0.12 0.13 0.18 0.26 0.43 0.46 0.40 0.38 0.34 0.29 0.27 0.29
0.45 0.58 0.69 0.70 0.67 1.02 1.10 0.36 0.19 0.15 0.18 0.08 0.04 0.11 0.37 0.57 0.91 0.56 0.44 0.62 0.57 0.39 0.42 0.46 0.31 0.38 0.43 0.93 1.09 1.12 1.08 1.15 1.10 0.65 0.41 0.38 0.39 0.45 0.34 0.28 0.39 0.33 0.30 0.31 0.27 0.26 0.31 0.28 0.19
0.35 0.29 0.60 0.54 0.54 0.62 0.93 0.67 0.24 0.16 0.20 0.18 0.07 0.05 0.21 0.49 1.00 1.21 0.85 0.73 0.83 0.72 0.74 0.52 0.42 0.36 0.40 0.58 0.55 0.74 0.91 1.22 1.39 1.14 0.98 0.97 0.90 0.81 0.73 0.54 0.43 0.35 0.25 0.22 0.22 0.25 0.33 0.40 0.46
0.23 0.21 0.63 0.83 0.70 0.70 0.63 0.86 0.43 0.17 0.16 0.15 0.17 0.13 0.21 0.45 0.88 1.26 1.66 0.85 0.79 1.39 1.59 1.18 0.84 0.79 0.55 0.66 0.65 0.57 0.83 1.05 1.27 1.46 1.27 1.34 1.30 1.13 0.85 0.71 0.69 0.58 0.54 0.45 0.50 0.49 0.48 0.46 0.60
0.15 0.09 0.39 1.22 0.92 0.60 0.49 0.58 0.69 0.27 0.15 0.12 0.18 0.22 0.35 0.55 0.58 1.01 1.79 1.34 1.19 1.62 1.68 1.43 1.33 1.16 1.25 1.15 1.45 1.28 1.32 1.26 1.60 1.82 1.62 1.55 1.48 1.43 1.56 1.86 1.55 1.01 1.02 1.15 1.22 1.28 1.27 1.06 0.82
0.24 0.09 0.39 0.79 0.59 0.50 0.32 0.45 0.41 0.31 0.21 0.15 0.25 0.28 0.31 0.42 0.37 0.57 0.90 1.25 1.40 0.91 0.84 1.33 2.38 2.65 1.70 1.71 2.50 2.94 2.86 2.76 2.54 2.86 2.50 1.92 1.69 1.69 1.86 2.15 2.74 3.21 2.75 1.93 1.63 1.54 1.38 1.43 1.29
0.42 0.11 0.31 0.37 0.27 0.31 0.22 0.53 0.21 0.23 0.22 0.28 0.28 0.17 0.16 0.17 0.33 0.34 0.53 0.73 0.60 0.49 0.54 0.72 1.26 2.07 2.13 2.05 2.51 2.92 2.59 2.11 1.95 2.06 2.69 2.69 2.44 2.02 1.86 1.89 1.96 1.98 2.17 2.63 2.40 1.95 1.84 1.71 1.41
0.17 0.13 0.44 0.38 0.48 0.51 0.21 0.27 0.19 0.20 0.20 0.39 0.32 0.15 0.27 0.23 0.16 0.31 0.26 0.34 0.38 0.42 0.51 0.50 0.69 1.08 1.90 2.06 2.07 2.41 2.64 2.81 2.41 1.99 2.27 2.19 1.82 1.80 1.70 1.52 1.38 1.41 1.46 1.56 1.92 1.95 1.68 1.57 1.61
0.23 0.58 1.20 1.11 1.15 0.65 0.22 0.08 0.11 0.11 0.10 0.25 0.38 0.25 0.36 0.49 0.30 0.36 0.58 0.54 0.58 0.58 0.38 0.40 0.52 0.59 0.94 1.35 1.70 1.85 1.56 1.82 1.91 1.80 1.79 1.96 1.93 1.72 1.65 1.53 1.53 1.41 1.42 1.46 1.55 1.71 1.64 1.46 1.31
0.35 0.58 0.88 0.73 0.35 0.42 0.17 0.22 0.18 0.20 0.19 0.18 0.34 0.46 0.72 0.98 0.55 0.51 0.80 0.98 0.99 0.70 0.62 0.39 0.49 0.33 0.26 0.34 0.63 1.04 1.34 1.71 1.71 1.58 1.52 1.47 1.41 1.55 1.87 1.77 1.74 1.78 1.73 1.71 1.72 1.76 1.81 1.71 1.62
0.33 0.45 0.33 0.47 0.21 0.35 0.35 0.30 0.37 0.38 0.39 0.27 0.36 0.69 0.95 1.05 0.91 0.79 0.84 1.13 1.00 0.74 0.71 0.67 0.52 0.48 0.20 0.12 0.19 0.23 0.32 0.44 0.65 0.78 0.82 0.97 1.23 1.18 1.31 1.42 1.33 1.32 1.32 1.29 1.37 1.38 1.37 1.49 1.53
0.07 0.13 0.26 0.53 0.41 0.28 0.25 0.24 0.60 0.64 0.59 0.58 0.65 0.87 0.98 0.91 1.10 0.94 0.85 0.78 0.62 0.54 0.43 0.43 0.32 0.13 0.09 0.09 0.11 0.04 0.07 0.10 0.14 0.17 0.18 0.23 0.40 0.55 0.68 0.79 0.81 0.88 0.93 1.07 1.17 1.21 1.29 1.39 1.40
0.04 0.14 0.15 0.23 0.22 0.22 0.08 0.14 0.38 0.49 0.43 0.47 0.54 0.68 0.76 0.85 0.82 0.69 0.56 0.34 0.17 0.11 0.02 0.02 0.02 0.04 0.06 0.05 0.03 0.02 0.04 0.06 0.07 0.07 0.05 0.05 0.07 0.08 0.10 0.12 0.15 0.17 0.24 0.42 0.63 0.79 0.97 1.17 1.32
0.02 0.01 0.04 0.23 0.09 0.13 0.07 0.07 0.05 0.11 0.14 0.20 0.26 0.29 0.30 0.39 0.36 0.28 0.14 0.04 0.01 0.00 0.00 0.00 0.05 0.07 0.03 0.02 0.02 0.02 0.03 0.04 0.05 0.05 0.07 0.07 0.07 0.05 0.05 0.06 0.06 0.06 0.10 0.13 0.15 0.17 0.22 0.30 0.40

GFSSGP_prec_precacc_132.txt.gz
Total_Precipitation_Accumulation
0.09 0.10 0.06 0.09 0.06 0.02 0.00 0.00 0.00 0.02 0.03 0.02 0.00 0.03 0.03 0.02 0.00 0.08 0.02 0.00 0.01 0.02 0.10 0.17 0.43 0.39 0.34 0.25 0.20 0.18 0.23 0.33 0.31 0.52 0.58 0.36 0.25 0.09 0.03 0.03 0.05 0.12 0.32 0.46 0.66 0.57 0.11 0.02 0.02
0.11 0.22 0.22 0.22 0.07 0.01 0.00 0.00 0.00 0.04 0.05 0.03 0.03 0.07 0.15 0.12 0.02 0.04 0.05 0.03 0.02 0.03 0.11 0.18 0.41 0.49 0.42 0.24 0.15 0.20 0.23 0.26 0.30 0.36 0.42 0.49 0.36 0.10 0.07 0.07 0.07 0.15 0.35 0.45 0.49 0.37 0.14 0.09 0.06
0.24 0.51 0.40 0.20 0.03 0.00 0.00 0.00 0.00 0.00 0.00 0.02 0.05 0.11 0.40 0.26 0.13 0.04 0.05 0.05 0.03 0.04 0.13 0.22 0.44 0.53 0.48 0.42 0.26 0.19 0.24 0.24 0.29 0.37 0.44 0.49 0.42 0.25 0.18 0.12 0.07 0.16 0.17 0.16 0.26 0.38 0.20 0.14 0.11
0.47 0.73 0.48 0.14 0.03 0.00 0.00 0.00 0.00 0.01 0.07 0.14 0.14 0.14 0.44 0.48 0.18 0.12 0.08 0.06 0.07 0.07 0.15 0.29 0.57 0.54 0.45 0.48 0.32 0.26 0.21 0.23 0.27 0.34 0.52 0.57 0.40 0.33 0.25 0.18 0.17 0.08 0.07 0.09 0.12 0.15 0.09 0.05 0.04
0.71 0.51 0.29 0.21 0.03 0.00 0.00 0.00 0.00 0.01 0.03 0.06 0.10 0.25 0.57 0.51 0.28 0.32 0.28 0.16 0.23 0.17 0.25 0.46 0.85 0.67 0.35 0.43 0.46 0.38 0.39 0.41 0.32 0.40 0.59 0.59 0.40 0.45 0.33 0.26 0.16 0.09 0.05 0.09 0.08 0.10 0.08 0.07 0.02
0.79 0.46 0.36 0.31 0.07 0.00 0.00 0.00 0.00 0.00 0.01 0.04 0.17 0.25 0.56 0.82 0.73 0.64 0.66 0.51 0.66 0.64 0.70 0.70 0.91 0.89 0.62 0.48 0.39 0.34 0.33 0.47 0.42 0.48 0.74 0.65 0.52 0.49 0.46 0.32 0.20 0.15 0.10 0.12 0.13 0.14 0.16 0.12 0.09
0.63 0.53 0.33 0.10 0.04 0.01 0.00 0.00 0.00 0.00 0.00 0.01 0.04 0.07 0.39 1.13 1.12 1.10 1.07 0.93 0.89 1.18 0.99 0.69 0.57 0.52 0.46 0.33 0.18 0.14 0.15 0.25 0.40 0.50 0.61 0.49 0.48 0.40 0.41 0.40 0.29 0.32 0.29 0.26 0.22 0.15 0.16 0.14 0.17
0.46 0.60 0.32 0.05 0.03 0.01 0.00 0.00 0.00 0.00 0.00 0.00 0.02 0.15 0.24 0.69 1.13 1.55 1.67 1.55 1.28 1.41 1.65 1.37 1.09 0.67 0.43 0.36 0.19 0.13 0.16 0.19 0.39 0.25 0.24 0.19 0.17 0.13 0.20 0.16 0.17 0.25 0.34 0.24 0.15 0.14 0.17 0.16 0.14
0.74 1.05 0.49 0.07 0.03 0.02 0.00 0.01 0.01 0.01 0.00 0.00 0.00 0.06 0.09 0.13 0.74 1.87 2.61 2.66 1.54 1.29 1.49 1.96 1.61 1.00 0.76 0.67 0.36 0.21 0.13 0.09 0.24 0.25 0.14 0.13 0.07 0.05 0.03 0.02 0.04 0.08 0.15 0.18 0.15 0.15 0.19 0.16 0.05
1.24 1.35 0.33 0.04 0.02 0.03 0.01 0.01 0.01 0.03 0.01 0.08 0.08 0.05 0.05 0.27 0.59 1.56 2.86 3.02 2.18 1.31 1.09 1.46 1.75 1.07 0.73 0.72 0.53 0.32 0.20 0.12 0.10 0.24 0.18 0.11 0.09 0.04 0.04 0.02 0.02 0.03 0.03 0.06 0.11 0.14 0.12 0.07 0.01
1.22 0.82 0.14 0.09 0.14 0.16 0.04 0.03 0.01 0.08 0.11 0.02 0.08 0.09 0.15 0.37 0.50 0.78 1.77 2.94 2.84 2.23 1.34 0.91 1.23 1.22 0.61 0.80 0.55 0.29 0.14 0.11 0.08 0.19 0.31 0.21 0.14 0.14 0.08 0.03 0.04 0.03 0.01 0.02 0.04 0.10 0.08 0.09 0.10
0.93 0.41 0.23 0.19 0.30 0.19 0.07 0.05 0.02 0.04 0.02 0.00 0.10 0.14 0.17 0.32 0.43 0.66 0.82 1.89 2.01 2.33 2.12 1.41 0.90 1.06 0.71 0.75 0.70 0.26 0.11 0.08 0.07 0.09 0.35 0.31 0.19 0.19 0.18 0.04 0.07 0.13 0.08 0.04 0.06 0.04 0.07 0.15 0.19
0.72 0.52 0.42 0.47 0.38 0.29 0.23 0.15 0.04 0.01 0.02 0.03 0.13 0.14 0.19 0.34 0.32 0.55 0.56 0.64 1.11 1.60 2.53 2.32 1.58 1.02 0.84 0.56 0.84 0.39 0.14 0.08 0.04 0.05 0.09 0.41 0.30 0.24 0.21 0.26 0.14 0.13 0.18 0.16 0.21 0.19 0.20 0.18 0.21
0.66 0.73 0.55 0.72 0.55 0.43 0.29 0.17 0.21 0.03 0.06 0.15 0.26 0.30 0.32 0.32 0.36 0.50 0.34 0.37 0.75 0.94 1.22 2.05 2.04 1.89 1.35 0.91 1.11 0.83 0.30 0.15 0.07 0.05 0.03 0.07 0.37 0.33 0.40 0.26 0.19 0.14 0.10 0.18 0.37 0.40 0.41 0.37 0.33
0.71 0.82 1.01 0.92 0.74 0.66 0.44 0.37 0.31 0.06 0.10 0.18 0.28 0.28 0.42 0.38 0.37 0.26 0.48 0.56 0.45 0.58 0.76 0.91 1.29 2.07 2.01 1.27 1.18 1.46 0.89 0.39 0.14 0.05 0.05 0.02 0.09 0.37 0.34 0.67 0.45 0.14 0.13 0.17 0.23 0.29 0.35 0.34 0.43
0.76 1.36 1.33 0.96 1.25 1.00 0.65 0.30 0.09 0.11 0.13 0.11 0.20 0.38 0.56 0.60 0.54 0.47 0.33 0.29 0.51 0.49 0.40 0.47 0.59 1.07 1.50 1.20 1.19 1.31 1.32 0.96 0.42 0.15 0.09 0.08 0.04 0.09 0.28 0.30 0.60 0.57 0.38 0.30 0.24 0.26 0.32 0.29 0.34
0.76 1.14 1.00 0.90 1.01 1.40 0.77 0.24 0.10 0.12 0.17 0.09 0.11 0.31 0.46 0.63 0.53 0.39 0.42 0.54 0.31 0.32 0.37 0.44 0.57 0.60 0.69 0.85 0.84 0.99 1.18 1.31 0.84 0.53 0.24 0.14 0.14 0.12 0.13 0.18 0.26 0.43 0.46 0.40 0.38 0.34 0.29 0.28 0.29
0.45 0.58 0.69 0.70 0.67 1.02 1.10 0.36 0.19 0.15 0.18 0.08 0.04 0.11 0.37 0.57 0.91 0.56 0.44 0.62 0.57 0.39 0.42 0.46 0.31 0.38 0.43 0.93 1.09 1.12 1.08 1.15 1.10 0.65 0.41 0.38 0.39 0.45 0.34 0.28 0.39 0.33 0.30 0.31 0.27 0.26 0.31 0.28 0.19
0.35 0.29 0.60 0.54 0.54 0.62 0.93 0.67 0.24 0.16 0.20 0.18 0.07 0.05 0.21 0.49 1.00 1.21 0.85 0.73 0.83 0.72 0.74 0.52 0.42 0.36 0.40 0.58 0.55 0.74 0.91 1.22 1.39 1.14 0.98 0.97 0.90 0.81 0.73 0.54 0.43 0.35 0.25 0.22 0.22 0.25 0.33 0.40 0.46
0.23 0.21 0.63 0.83 0.70 0.70 0.63 0.86 0.43 0.17 0.16 0.15 0.17 0.13 0.21 0.45 0.88 1.26 1.66 0.85 0.79 1.39 1.59 1.18 0.84 0.79 0.55 0.66 0.65 0.57 0.83 1.05 1.27 1.46 1.27 1.34 1.30 1.13 0.85 0.71 0.69 0.58 0.54 0.45 0.50 0.49 0.48 0.46 0.60
0.15 0.09 0.39 1.22 0.92 0.60 0.49 0.58 0.69 0.27 0.15 0.12 0.18 0.22 0.35 0.55 0.58 1.01 1.79 1.34 1.19 1.62 1.68 1.43 1.33 1.16 1.25 1.15 1.45 1.28 1.32 1.26 1.60 1.82 1.62 1.55 1.48 1.43 1.56 1.86 1.55 1.01 1.02 1.15 1.22 1.28 1.27 1.06 0.82
0.24 0.09 0.39 0.79 0.59 0.50 0.32 0.45 0.41 0.31 0.21 0.15 0.25 0.28 0.31 0.42 0.37 0.57 0.90 1.25 1.40 0.91 0.84 1.33 2.38 2.65 1.70 1.71 2.50 2.94 2.86 2.76 2.54 2.86 2.50 1.92 1.69 1.69 1.86 2.15 2.74 3.21 2.75 1.93 1.63 1.54 1.38 1.43 1.29
0.42 0.11 0.31 0.37 0.27 0.31 0.22 0.53 0.21 0.23 0.22 0.28 0.28 0.17 0.16 0.17 0.33 0.34 0.53 0.73 0.60 0.49 0.54 0.72 1.26 2.07 2.13 2.05 2.51 2.92 2.59 2.11 1.95 2.06 2.69 2.69 2.44 2.02 1.86 1.89 1.96 1.98 2.17 2.63 2.40 1.95 1.84 1.71 1.41
0.17 0.13 0.44 0.38 0.48 0.51 0.21 0.27 0.19 0.20 0.20 0.39 0.32 0.15 0.27 0.23 0.16 0.31 0.26 0.34 0.38 0.42 0.51 0.50 0.69 1.08 1.90 2.06 2.07 2.41 2.64 2.81 2.41 1.99 2.27 2.19 1.82 1.80 1.70 1.52 1.38 1.41 1.46 1.56 1.92 1.95 1.68 1.57 1.61
0.23 0.58 1.20 1.11 1.15 0.65 0.22 0.08 0.11 0.11 0.10 0.25 0.38 0.25 0.36 0.49 0.30 0.36 0.58 0.54 0.58 0.58 0.38 0.40 0.52 0.59 0.94 1.35 1.70 1.85 1.56 1.82 1.91 1.80 1.79 1.96 1.93 1.72 1.65 1.53 1.53 1.41 1.42 1.46 1.55 1.71 1.64 1.46 1.31
0.35 0.58 0.88 0.73 0.35 0.42 0.17 0.22 0.18 0.20 0.19 0.18 0.34 0.46 0.72 0.98 0.55 0.51 0.80 0.98 0.99 0.70 0.62 0.39 0.49 0.33 0.26 0.34 0.63 1.04 1.34 1.71 1.71 1.58 1.52 1.47 1.41 1.55 1.87 1.77 1.74 1.78 1.73 1.71 1.72 1.76 1.81 1.71 1.62
0.33 0.45 0.33 0.47 0.21 0.35 0.35 0.30 0.37 0.38 0.39 0.27 0.36 0.69 0.95 1.05 0.91 0.79 0.84 1.13 1.00 0.74 0.71 0.67 0.52 0.48 0.20 0.12 0.19 0.23 0.32 0.44 0.65 0.78 0.82 0.97 1.23 1.18 1.31 1.42 1.33 1.32 1.32 1.29 1.37 1.38 1.37 1.49 1.53
0.07 0.13 0.26 0.53 0.41 0.28 0.25 0.24 0.60 0.64 0.59 0.58 0.65 0.87 0.98 0.91 1.10 0.94 0.85 0.78 0.62 0.54 0.43 0.43 0.32 0.13 0.09 0.09 0.11 0.04 0.07 0.10 0.14 0.17 0.18 0.23 0.40 0.55 0.68 0.79 0.81 0.88 0.93 1.07 1.17 1.21 1.29 1.39 1.40
0.04 0.14 0.15 0.23 0.22 0.22 0.08 0.14 0.38 0.49 0.43 0.47 0.54 0.68 0.76 0.85 0.82 0.69 0.56 0.34 0.17 0.11 0.02 0.02 0.02 0.04 0.06 0.05 0.03 0.02 0.04 0.06 0.07 0.07 0.05 0.05 0.07 0.08 0.10 0.12 0.15 0.17 0.24 0.42 0.63 0.79 0.97 1.17 1.32
0.02 0.01 0.04 0.23 0.09 0.13 0.07 0.07 0.05 0.11 0.14 0.20 0.26 0.29 0.30 0.39 0.36 0.28 0.14 0.04 0.01 0.00 0.00 0.00 0.05 0.07 0.03 0.02 0.02 0.02 0.03 0.04 0.05 0.05 0.07 0.07 0.07 0.05 0.05 0.06 0.06 0.06 0.10 0.13 0.15 0.17 0.22 0.30 0.40

GFSSGP_prec_precacc_135.txt.gz
Total_Precipitation_Accumulation
0.09 0.10 0.06 0.09 0.06 0.02 0.00 0.00 0.00 0.02 0.03 0.02 0.00 0.03 0.03 0.02 0.00 0.08 0.02 0.00 0.01 0.02 0.10 0.17 0.43 0.39 0.35 0.25 0.21 0.19 0.23 0.34 0.32 0.53 0.58 0.36 0.25 0.09 0.03 0.03 0.05 0.12 0.32 0.46 0.68 0.60 0.14 0.03 0.02
0.11 0.22 0.22 0.22 0.07 0.01 0.00 0.00 0.00 0.04 0.05 0.03 0.03 0.07 0.15 0.12 0.02 0.04 0.05 0.03 0.02 0.03 0.11 0.18 0.41 0.49 0.42 0.24 0.15 0.20 0.24 0.26 0.30 0.37 0.43 0.50 0.36 0.10 0.08 0.07 0.07 0.15 0.35 0.45 0.49 0.37 0.14 0.11 0.07
0.24 0.51 0.40 0.20 0.03 0.00 0.00 0.00 0.00 0.00 0.00 0.02 0.05 0.11 0.40 0.26 0.13 0.04 0.05 0.05 0.03 0.04 0.13 0.22 0.44 0.53 0.48 0.42 0.26 0.19 0.25 0.24 0.29 0.38 0.44 0.49 0.42 0.25 0.18 0.12 0.08 0.16 0.17 0.16 0.26 0.38 0.20 0.14 0.11
0.47 0.73 0.48 0.14 0.03 0.00 0.00 0.00 0.00 0.01 0.07 0.14 0.14 0.14 0.44 0.48 0.18 0.12 0.08 0.06 0.07 0.07 0.15 0.29 0.57 0.54 0.45 0.48 0.32 0.26 0.21 0.23 0.27 0.35 0.54 0.59 0.41 0.33 0.25 0.18 0.18 0.09 0.07 0.09 0.12 0.15 0.09 0.05 0.04
0.71 0.51 0.29 0.21 0.03 0.00 0.00 0.00 0.00 0.01 0.03 0.06 0.10 0.25 0.57 0.51 0.28 0.32 0.28 0.16 0.23 0.17 0.25 0.46 0.85 0.67 0.35 0.43 0.46 0.38 0.39 0.41 0.32 0.40 0.60 0.60 0.42 0.47 0.34 0.28 0.17 0.09 0.05 0.09 0.08 0.10 0.08 0.07 0.02
0.79 0.46 0.36 0.31 0.07 0.00 0.00 0.00 0.00 0.00 0.01 0.04 0.17 0.25 0.56 0.82 0.73 0.64 0.66 0.51 0.66 0.64 0.70 0.70 0.91 0.89 0.62 0.48 0.39 0.34 0.33 0.47 0.42 0.48 0.74 0.65 0.52 0.49 0.46 0.33 0.22 0.16 0.10 0.13 0.14 0.16 0.18 0.13 0.09
0.63 0.53 0.33 0.10 0.04 0.01 0.00 0.00 0.00 0.00 0.00 0.01 0.04 0.07 0.39 1.13 1.12 1.10 1.07 0.93 0.89 1.18 0.99 0.69 0.57 0.52 0.46 0.33 0.18 0.14 0.15 0.25 0.40 0.50 0.61 0.49 0.48 0.40 0.41 0.40 0.29 0.33 0.30 0.27 0.23 0.16 0.18 0.16 0.19
0.46 0.60 0.32 0.05 0.03 0.01 0.00 0.00 0.00 0.00 0.00 0.00 0.02 0.15 0.24 0.69 1.13 1.55 1.67 1.55 1.28 1.41 1.65 1.37 1.09 0.67 0.43 0.36 0.19 0.13 0.16 0.19 0.39 0.25 0.24 0.19 0.17 0.13 0.20 0.17 0.17 0.25 0.34 0.24 0.15 0.15 0.18 0.17 0.15
0.74 1.05 0.49 0.07 0.03 0.02 0.00 0.01 0.01 0.01 0.00 0.00 0.00 0.06 0.09 0.13 0.74 1.87 2.61 2.66 1.54 1.29 1.49 1.96 1.61 1.00 0.76 0.67 0.36 0.21 0.13 0.09 0.24 0.25 0.14 0.13 0.07 0.05 0.03 0.02 0.04 0.08 0.15 0.18 0.15 0.15 0.19 0.16 0.05
1.24 1.35 0.33 0.04 0.02 0.03 0.01 0.01 0.01 0.03 0.01 0.08 0.08 0.05 0.05 0.27 0.59 1.56 2.86 3.02 2.18 1.31 1.09 1.46 1.75 1.07 0.73 0.72 0.53 0.32 0.20 0.12 0.10 0.24 0.18 0.11 0.09 0.04 0.04 0.02 0.02 0.03 0.03 0.06 0.11 0.15 0.12 0.08 0.01
1.22 0.82 0.14 0.09 0.14 0.16 0.04 0.03 0.01 0.08 0.11 0.02 0.08 0.09 0.15 0.37 0.50 0.78 1.77 2.94 2.84 2.23 1.34 0.91 1.23 1.22 0.61 0.80 0.55 0.29 0.14 0.11 0.08 0.19 0.31 0.21 0.14 0.14 0.08 0.03 0.04 0.03 0.01 0.02 0.04 0.10 0.08 0.09 0.10
0.93 0.41 0.23 0.19 0.30 0.19 0.07 0.05 0.02 0.04 0.02 0.00 0.10 0.14 0.17 0.32 0.43 0.66 0.82 1.89 2.01 2.33 2.12 1.41 0.90 1.06 0.71 0.75 0.70 0.26 0.11 0.08 0.07 0.09 0.35 0.31 0.19 0.19 0.18 0.04 0.07 0.13 0.08 0.04 0.06 0.04 0.07 0.15 0.19
0.72 0.52 0.42 0.47 0.38 0.29 0.23 0.15 0.04 0.01 0.02 0.03 0.13 0.14 0.19 0.34 0.32 0.55 0.56 0.64 1.11 1.60 2.53 2.32 1.58 1.02 0.84 0.56 0.84 0.39 0.14 0.08 0.04 0.05 0.09 0.41 0.30 0.24 0.21 0.26 0.14 0.13 0.18 0.16 0.21 0.19 0.20 0.18 0.21
0.66 0.73 0.55 0.72 0.55 0.43 0.29 0.17 0.21 0.03 0.06 0.15 0.26 0.30 0.32 0.32 0.36 0.50 0.34 0.37 0.75 0.94 1.22 2.05 2.04 1.89 1.35 0.91 1.11 0.83 0.30 0.15 0.07 0.05 0.03 0.07 0.37 0.33 0.40 0.26 0.19 0.14 0.10 0.18 0.37 0.40 0.41 0.37 0.33
0.71 0.82 1.01 0.92 0.74 0.66 0.44 0.37 0.31 0.06 0.10 0.18 0.28 0.28 0.42 0.38 0.37 0.26 0.48 0.56 0.45 0.58 0.76 0.91 1.29 2.07 2.01 1.27 1.18 1.46 0.89 0.39 0.14 0.05 0.05 0.02 0.09 0.37 0.34 0.67 0.45 0.14 0.13 0.17 0.23 0.29 0.35 0.34 0.43
0.76 1.36 1.33 0.96 1.25 1.00 0.65 0.30 0.09 0.11 0.13 0.11 0.20 0.38 0.56 0.60 0.54 0.47 0.33 0.29 0.51 0.49 0.40 0.47 0.59 1.07 1.50 1.20 1.19 1.31 1.32 0.96 0.42 0.15 0.09 0.08 0.04 0.09 0.28 0.30 0.60 0.57 0.38 0.30 0.24 0.26 0.32 0.29 0.34
0.76 1.14 1.00 0.90 1.01 1.40 0.77 0.24 0.10 0.12 0.17 0.09 0.11 0.31 0.46 0.63 0.53 0.39 0.42 0.54 0.31 0.32 0.37 0.44 0.57 0.60 0.69 0.85 0.84 0.99 1.18 1.31 0.84 0.53 0.24 0.14 0.14 0.12 0.13 0.18 0.26 0.43 0.46 0.40 0.38 0.34 0.29 0.28 0.29
0.45 0.58 0.69 0.70 0.67 1.02 1.10 0.36 0.19 0.15 0.18 0.08 0.04 0.11 0.37 0.57 0.91 0.56 0.44 0.62 0.57 0.39 0.42 0.46 0.31 0.38 0.43 0.93 1.09 1.12 1.08 1.15 1.10 0.65 0.41 0.38 0.39 0.45 0.34 0.28 0.39 0.33 0.30 0.31 0.27 0.26 0.31 0.28 0.19
0.35 0.29 0.60 0.54 0.54 0.62 0.93 0.67 0.24 0.16 0.20 0.18 0.07 0.05 0.21 0.49 1.00 1.21 0.85 0.73 0.83 0.72 0.74 0.52 0.42 0.36 0.40 0.58 0.55 0.74 0.91 1.22 1.39 1.14 0.98 0.97 0.90 0.81 0.73 0.54 0.43 0.35 0.25 0.22 0.22 0.25 0.33 0.40 0.46
0.23 0.21 0.63 0.83 0.70 0.70 0.63 0.86 0.43 0.17 0.16 0.15 0.17 0.13 0.21 0.45 0.88 1.26 1.66 0.85 0.79 1.39 1.59 1.18 0.84 0.79 0.55 0.66 0.65 0.57 0.83 1.05 1.27 1.46 1.27 1.34 1.30 1.13 0.85 0.71 0.69 0.58 0.54 0.45 0.50 0.49 0.48 0.46 0.60
0.15 0.09 0.39 1.22 0.92 0.60 0.49 0.58 0.69 0.27 0.15 0.12 0.18 0.22 0.35 0.55 0.58 1.01 1.79 1.34 1.19 1.62 1.68 1.43 1.33 1.16 1.25 1.15 1.45 1.28 1.32 1.26 1.60 1.82 1.62 1.55 1.48 1.43 1.56 1.86 1.55 1.01 1.02 1.15 1.22 1.28 1.27 1.06 0.82
0.24 0.09 0.39 0.79 0.59 0.50 0.32 0.45 0.41 0.31 0.21 0.15 0.25 0.28 0.31 0.42 0.37 0.57 0.90 1.25 1.40 0.91 0.84 1.33 2.38 2.65 1.70 1.71 2.50 2.94 2.86 2.76 2.54 2.86 2.50 1.92 1.69 1.69 1.86 2.15 2.74 3.21 2.75 1.93 1.63 1.54 1.38 1.43 1.29
0.42 0.11 0.31 0.37 0.27 0.31 0.22 0.53 0.21 0.23 0.22 0.28 0.28 0.17 0.16 0.17 0.33 0.34 0.53 0.73 0.60 0.49 0.54 0.72 1.26 2.07 2.13 2.05 2.51 2.92 2.59 2.11 1.95 2.06 2.69 2.69 2.44 2.02 1.86 1.89 1.96 1.98 2.17 2.63 2.40 1.95 1.84 1.71 1.41
0.17 0.13 0.44 0.38 0.48 0.51 0.21 0.27 0.19 0.20 0.20 0.39 0.32 0.15 0.27 0.23 0.16 0.31 0.26 0.34 0.38 0.42 0.51 0.50 0.69 1.08 1.90 2.06 2.07 2.41 2.64 2.81 2.41 1.99 2.27 2.19 1.82 1.80 1.70 1.52 1.38 1.41 1.46 1.56 1.92 1.95 1.68 1.57 1.61
0.23 0.58 1.20 1.11 1.15 0.65 0.22 0.08 0.11 0.11 0.10 0.25 0.38 0.25 0.36 0.49 0.30 0.36 0.58 0.54 0.58 0.58 0.38 0.40 0.52 0.59 0.94 1.35 1.70 1.85 1.56 1.82 1.91 1.80 1.79 1.96 1.93 1.72 1.65 1.53 1.53 1.41 1.42 1.46 1.55 1.71 1.64 1.46 1.31
0.35 0.58 0.88 0.73 0.35 0.42 0.17 0.22 0.18 0.20 0.19 0.18 0.34 0.46 0.72 0.98 0.55 0.51 0.80 0.98 0.99 0.70 0.62 0.39 0.49 0.33 0.26 0.34 0.63 1.04 1.34 1.71 1.71 1.58 1.52 1.47 1.41 1.55 1.87 1.77 1.74 1.78 1.73 1.71 1.72 1.76 1.81 1.71 1.62
0.33 0.45 0.33 0.47 0.21 0.35 0.35 0.30 0.37 0.38 0.39 0.27 0.36 0.69 0.95 1.05 0.91 0.79 0.84 1.13 1.00 0.74 0.71 0.67 0.52 0.48 0.20 0.12 0.19 0.23 0.32 0.44 0.65 0.78 0.82 0.97 1.23 1.18 1.31 1.42 1.33 1.32 1.32 1.29 1.37 1.38 1.37 1.49 1.53
0.07 0.13 0.26 0.53 0.41 0.28 0.25 0.24 0.60 0.64 0.59 0.58 0.65 0.87 0.98 0.91 1.10 0.94 0.85 0.78 0.62 0.54 0.43 0.43 0.32 0.13 0.09 0.09 0.11 0.04 0.07 0.10 0.14 0.17 0.18 0.23 0.40 0.55 0.68 0.79 0.81 0.88 0.93 1.07 1.17 1.21 1.29 1.39 1.40
0.04 0.14 0.15 0.23 0.22 0.22 0.08 0.14 0.38 0.49 0.43 0.47 0.54 0.68 0.76 0.85 0.82 0.69 0.56 0.34 0.17 0.11 0.02 0.02 0.02 0.04 0.06 0.05 0.03 0.02 0.04 0.06 0.07 0.07 0.05 0.05 0.07 0.08 0.10 0.12 0.15 0.17 0.24 0.42 0.63 0.79 0.97 1.17 1.32
0.02 0.01 0.04 0.23 0.09 0.13 0.07 0.07 0.05 0.11 0.14 0.20 0.26 0.29 0.30 0.39 0.36 0.28 0.14 0.04 0.01 0.00 0.00 0.00 0.05 0.07 0.03 0.02 0.02 0.02 0.03 0.04 0.05 0.05 0.07 0.07 0.07 0.05 0.05 0.06 0.06 0.06 0.10 0.13 0.15 0.17 0.22 0.30 0.40

GFSSGP_prec_precacc_138.txt.gz
Total_Precipitation_Accumulation
0.09 0.10 0.06 0.09 0.06 0.02 0.00 0.00 0.00 0.02 0.03 0.02 0.00 0.03 0.03 0.02 0.00 0.08 0.02 0.00 0.01 0.02 0.10 0.18 0.44 0.39 0.35 0.25 0.21 0.19 0.24 0.34 0.33 0.54 0.58 0.36 0.25 0.09 0.03 0.03 0.05 0.12 0.32 0.46 0.69 0.61 0.14 0.03 0.02
0.11 0.22 0.22 0.22 0.07 0.01 0.00 0.00 0.00 0.04 0.05 0.03 0.03 0.07 0.15 0.12 0.02 0.04 0.05 0.03 0.02 0.03 0.11 0.18 0.41 0.49 0.42 0.24 0.15 0.20 0.25 0.27 0.30 0.37 0.43 0.50 0.36 0.10 0.08 0.08 0.08 0.15 0.35 0.45 0.49 0.37 0.14 0.11 0.07
0.24 0.51 0.40 0.20 0.03 0.00 0.00 0.00 0.00 0.00 0.00 0.02 0.05 0.11 0.40 0.26 0.13 0.04 0.05 0.05 0.03 0.04 0.13 0.22 0.44 0.53 0.48 0.42 0.26 0.19 0.25 0.25 0.29 0.38 0.44 0.50 0.42 0.25 0.18 0.13 0.08 0.16 0.17 0.16 0.26 0.38 0.20 0.14 0.11
0.47 0.73 0.48 0.14 0.03 0.00 0.00 0.00 0.00 0.01 0.07 0.14 0.14 0.14 0.44 0.48 0.18 0.12 0.08 0.06 0.07 0.07 0.15 0.29 0.57 0.54 0.45 0.48 0.32 0.26 0.21 0.23 0.27 0.35 0.55 0.60 0.43 0.34 0.25 0.19 0.18 0.09 0.07 0.09 0.12 0.15 0.09 0.05 0.04
0.71 0.51 0.29 0.21 0.03 0.00 0.00 0.00 0.00 0.01 0.03 0.06 0.10 0.25 0.57 0.51 0.28 0.32 0.28 0.16 0.23 0.17 0.25 0.46 0.85 0.67 0.35 0.43 0.46 0.38 0.39 0.41 0.32 0.40 0.60 0.60 0.42 0.47 0.35 0.29 0.18 0.09 0.05 0.09 0.09 0.14 0.09 0.08 0.03
0.79 0.46 0.36 0.31 0.07 0.00 0.00 0.00 0.00 0.00 0.01 0.04 0.17 0.25 0.56 0.82 0.73 0.64 0.66 0.51 0.66 0.64 0.70 0.70 0.91 0.89 0.62 0.48 0.39 0.34 0.33 0.47 0.42 0.48 0.74 0.65 0.52 0.49 0.46 0.34 0.23 0.16 0.11 0.13 0.15 0.18 0.20 0.15 0.12
0.63 0.53 0.33 0.10 0.04 0.01 0.00 0.00 0.00 0.00 0.00 0.01 0.04 0.07 0.39 1.13 1.12 1.10 1.07 0.93 0.89 1.18 0.99 0.69 0.57 0.52 0.46 0.33 0.18 0.14 0.15 0.25 0.40 0.50 0.61 0.49 0.48 0.40 0.41 0.41 0.29 0.33 0.31 0.29 0.25 0.16 0.18 0.17 0.20
0.46 0.60 0.32 0.05 0.03 0.01 0.00 0.00 0.00 0.00 0.00 0.00 0.02 0.15 0.24 0.69 1.13 1.55 1.67 1.55 1.28 1.41 1.65 1.37 1.09 0.67 0.43 0.36 0.19 0.13 0.16 0.19 0.39 0.25 0.24 0.19 0.17 0.13 0.20 0.17 0.17 0.25 0.34 0.24 0.15 0.15 0.18 0.17 0.16
0.74 1.05 0.49 0.07 0.03 0.02 0.00 0.01 0.01 0.01 0.00 0.00 0.00 0.06 0.09 0.13 0.74 1.87 2.61 2.66 1.54 1.29 1.49 1.96 1.61 1.00 0.76 0.67 0.36 0.21 0.13 0.09 0.24 0.25 0.14 0.13 0.07 0.05 0.03 0.02 0.04 0.08 0.15 0.18 0.15 0.15 0.19 0.16 0.06
1.24 1.35 0.33 0.04 0.02 0.03 0.01 0.01 0.01 0.03 0.01 0.08 0.08 0.05 0.05 0.27 0.59 1.56 2.86 3.02 2.18 1.31 1.09 1.46 1.75 1.07 0.73 0.72 0.53 0.32 0.20 0.12 0.10 0.24 0.18 0.11 0.09 0.04 0.04 0.02 0.02 0.03 0.03 0.06 0.11 0.15 0.13 0.08 0.01
1.22 0.82 0.14 0.09 0.14 0.16 0.04 0.03 0.01 0.08 0.11 0.02 0.08 0.09 0.15 0.37 0.50 0.78 1.77 2.94 2.84 2.23 1.34 0.91 1.23 1.22 0.61 0.80 0.55 0.29 0.14 0.11 0.08 0.19 0.31 0.21 0.14 0.14 0.08 0.03 0.04 0.03 0.01 0.02 0.04 0.10 0.08 0.09 0.10
0.93 0.41 0.23 0.19 0.30 0.19 0.07 0.05 0.02 0.04 0.02 0.00 0.10 0.14 0.17 0.32 0.43 0.66 0.82 1.89 2.01 2.33 2.12 1.41 0.90 1.06 0.71 0.75 0.70 0.26 0.11 0.08 0.07 0.09 0.35 0.31 0.19 0.19 0.18 0.04 0.07 0.13 0.08 0.04 0.06 0.04 0.07 0.15 0.19
0.72 0.52 0.42 0.47 0.38 0.29 0.23 0.15 0.04 0.01 0.02 0.03 0.13 0.14 0.19 0.34 0.32 0.55 0.56 0.64 1.11 1.60 2.53 2.32 1.58 1.02 0.84 0.56 0.84 0.39 0.14 0.08 0.04 0.05 0.09 0.41 0.30 0.24 0.21 0.26 0.14 0.13 0.18 0.16 0.21 0.19 0.20 0.18 0.21
0.66 0.73 0.55 0.72 0.55 0.43 0.29 0.17 0.21 0.03 0.06 0.15 0.26 0.30 0.32 0.32 0.36 0.50 0.34 0.37 0.75 0.94 1.22 2.05 2.04 1.89 1.35 0.91 1.11 0.83 0.30 0.15 0.07 0.05 0.03 0.07 0.37 0.33 0.40 0.26 0.19 0.14 0.10 0.18 0.37 0.40 0.41 0.37 0.33
0.71 0.82 1.01 0.92 0.74 0.66 0.44 0.37 0.31 0.06 0.10 0.18 0.28 0.28 0.42 0.38 0.37 0.26 0.48 0.56 0.45 0.58 0.76 0.91 1.29 2.07 2.01 1.27 1.18 1.46 0.89 0.39 0.14 0.05 0.05 0.02 0.09 0.37 0.34 0.67 0.45 0.14 0.13 0.17 0.23 0.29 0.35 0.34 0.43
0.76 1.36 1.33 0.96 1.25 1.00 0.65 0.30 0.09 0.11 0.13 0.11 0.20 0.38 0.56 0.60 0.54 0.47 0.33 0.29 0.51 0.49 0.40 0.47 0.59 1.07 1.50 1.20 1.19 1.31 1.32 0.96 0.42 0.15 0.09 0.08 0.04 0.09 0.28 0.30 0.60 0.57 0.38 0.30 0.24 0.26 0.32 0.29 0.34
0.76 1.14 1.00 0.90 1.01 1.40 0.77 0.24 0.10 0.12 0.17 0.09 0.11 0.31 0.46 0.63 0.53 0.39 0.42 0.54 0.31 0.32 0.37 0.44 0.57 0.60 0.69 0.85 0.84 0.99 1.18 1.31 0.84 0.53 0.24 0.14 0.14 0.12 0.13 0.18 0.26 0.43 0.46 0.40 0.38 0.34 0.29 0.28 0.29
0.45 0.58 0.69 0.70 0.67 1.02 1.10 0.36 0.19 0.15 0.18 0.08 0.04 0.11 0.37 0.57 0.91 0.56 0.44 0.62 0.57 0.39 0.42 0.46 0.31 0.38 0.43 0.93 1.09 1.12 1.08 1.15 1.10 0.65 0.41 0.38 0.39 0.45 0.34 0.28 0.39 0.33 0.30 0.31 0.27 0.26 0.31 0.28 0.19
0.35 0.29 0.60 0.54 0.54 0.62 0.93 0.67 0.24 0.16 0.20 0.18 0.07 0.05 0.21 0.49 1.00 1.21 0.85 0.73 0.83 0.72 0.74 0.52 0.42 0.36 0.40 0.58 0.55 0.74 0.91 1.22 1.39 1.14 0.98 0.97 0.90 0.81 0.73 0.54 0.43 0.35 0.25 0.22 0.22 0.25 0.33 0.40 0.46
0.23 0.21 0.63 0.83 0.70 0.70 0.63 0.86 0.43 0.17 0.16 0.15 0.17 0.13 0.21 0.45 0.88 1.26 1.66 0.85 0.79 1.39 1.59 1.18 0.84 0.79 0.55 0.66 0.65 0.57 0.83 1.05 1.27 1.46 1.27 1.34 1.30 1.13 0.85 0.71 0.69 0.58 0.54 0.45 0.50 0.49 0.48 0.46 0.60
0.15 0.09 0.39 1.22 0.92 0.60 0.49 0.58 0.69 0.27 0.15 0.12 0.18 0.22 0.35 0.55 0.58 1.01 1.79 1.34 1.19 1.62 1.68 1.43 1.33 1.16 1.25 1.15 1.45 1.28 1.32 1.26 1.60 1.82 1.62 1.55 1.48 1.43 1.56 1.86 1.55 1.01 1.02 1.15 1.22 1.28 1.27 1.06 0.82
0.24 0.09 0.39 0.79 0.59 0.50 0.32 0.45 0.41 0.31 0.21 0.15 0.25 0.28 0.31 0.42 0.37 0.57 0.90 1.25 1.40 0.91 0.84 1.33 2.38 2.65 1.70 1.71 2.50 2.94 2.86 2.76 2.54 2.86 2.50 1.92 1.69 1.69 1.86 2.15 2.74 3.21 2.75 1.93 1.63 1.54 1.38 1.43 1.29
0.42 0.11 0.31 0.37 0.27 0.31 0.22 0.53 0.21 0.23 0.22 0.28 0.28 0.17 0.16 0.17 0.33 0.34 0.53 0.73 0.60 0.49 0.54 0.72 1.26 2.07 2.13 2.05 2.51 2.92 2.59 2.11 1.95 2.06 2.69 2.69 2.44 2.02 1.86 1.89 1.96 1.98 2.17 2.63 2.40 1.95 1.84 1.71 1.41
0.17 0.13 0.44 0.38 0.48 0.51 0.21 0.27 0.19 0.20 0.20 0.39 0.32 0.15 0.27 0.23 0.16 0.31 0.26 0.34 0.38 0.42 0.51 0.50 0.69 1.08 1.90 2.06 2.07 2.41 2.64 2.81 2.41 1.99 2.27 2.19 1.82 1.80 1.70 1.52 1.38 1.41 1.46 1.56 1.92 1.95 1.68 1.57 1.61
0.23 0.58 1.20 1.11 1.15 0.65 0.22 0.08 0.11 0.11 0.10 0.25 0.38 0.25 0.36 0.49 0.30 0.36 0.58 0.54 0.58 0.58 0.38 0.40 0.52 0.59 0.94 1.35 1.70 1.85 1.56 1.82 1.91 1.80 1.79 1.96 1.93 1.72 1.65 1.53 1.53 1.41 1.42 1.46 1.55 1.71 1.64 1.46 1.31
0.35 0.58 0.88 0.73 0.35 0.42 0.17 0.22 0.18 0.20 0.19 0.18 0.34 0.46 0.72 0.98 0.55 0.51 0.80 0.98 0.99 0.70 0.62 0.39 0.49 0.33 0.26 0.34 0.63 1.04 1.34 1.71 1.71 1.58 1.52 1.47 1.41 1.55 1.87 1.77 1.74 1.78 1.73 1.71 1.72 1.76 1.81 1.71 1.62
0.33 0.45 0.33 0.47 0.21 0.35 0.35 0.30 0.37 0.38 0.39 0.27 0.36 0.69 0.95 1.05 0.91 0.79 0.84 1.13 1.00 0.74 0.71 0.67 0.52 0.48 0.20 0.12 0.19 0.23 0.32 0.44 0.65 0.78 0.82 0.97 1.23 1.18 1.31 1.42 1.33 1.32 1.32 1.29 1.37 1.38 1.37 1.49 1.53
0.07 0.13 0.26 0.53 0.41 0.28 0.25 0.24 0.60 0.64 0.59 0.58 0.65 0.87 0.98 0.91 1.10 0.94 0.85 0.78 0.62 0.54 0.43 0.43 0.32 0.13 0.09 0.09 0.11 0.04 0.07 0.10 0.14 0.17 0.18 0.23 0.40 0.55 0.68 0.79 0.81 0.88 0.93 1.07 1.17 1.21 1.29 1.39 1.40
0.04 0.14 0.15 0.23 0.22 0.22 0.08 0.14 0.38 0.49 0.43 0.47 0.54 0.68 0.76 0.85 0.82 0.69 0.56 0.34 0.17 0.11 0.02 0.02 0.02 0.04 0.06 0.05 0.03 0.02 0.04 0.06 0.07 0.07 0.05 0.05 0.07 0.08 0.10 0.12 0.15 0.17 0.24 0.42 0.63 0.79 0.97 1.17 1.32
0.02 0.01 0.04 0.23 0.09 0.13 0.07 0.07 0.05 0.11 0.14 0.20 0.26 0.29 0.30 0.39 0.36 0.28 0.14 0.04 0.01 0.00 0.00 0.00 0.05 0.07 0.03 0.02 0.02 0.02 0.03 0.04 0.05 0.05 0.07 0.07 0.07 0.05 0.05 0.06 0.06 0.06 0.10 0.13 0.15 0.17 0.22 0.30 0.40

GFSSGP_prec_precacc_141.txt.gz
Total_Precipitation_Accumulation
0.09 0.10 0.06 0.09 0.06 0.02 0.00 0.00 0.00 0.02 0.03 0.02 0.00 0.03 0.03 0.02 0.00 0.08 0.02 0.00 0.01 0.02 0.10 0.18 0.47 0.44 0.36 0.25 0.21 0.19 0.24 0.34 0.34 0.54 0.59 0.36 0.25 0.09 0.03 0.03 0.05 0.12 0.32 0.46 0.69 0.61 0.15 0.04 0.02
0.11 0.22 0.22 0.22 0.07 0.01 0.00 0.00 0.00 0.04 0.05 0.03 0.03 0.07 0.15 0.12 0.02 0.04 0.05 0.03 0.02 0.03 0.11 0.18 0.42 0.49 0.43 0.25 0.16 0.21 0.25 0.28 0.30 0.37 0.44 0.51 0.36 0.10 0.08 0.11 0.11 0.18 0.36 0.45 0.49 0.37 0.14 0.11 0.07
0.24 0.51 0.40 0.20 0.03 0.00 0.00 0.00 0.00 0.00 0.00 0.02 0.05 0.11 0.40 0.26 0.13 0.04 0.05 0.05 0.03 0.04 0.13 0.22 0.44 0.53 0.48 0.42 0.26 0.19 0.25 0.25 0.29 0.38 0.45 0.50 0.43 0.26 0.19 0.13 0.08 0.16 0.17 0.16 0.26 0.38 0.21 0.14 0.11
0.47 0.73 0.48 0.14 0.03 0.00 0.00 0.00 0.00 0.01 0.07 0.14 0.14 0.14 0.44 0.48 0.18 0.12 0.08 0.06 0.07 0.07 0.15 0.29 0.57 0.54 0.45 0.48 0.32 0.26 0.21 0.23 0.27 0.35 0.55 0.60 0.43 0.36 0.27 0.21 0.19 0.09 0.07 0.09 0.12 0.17 0.11 0.06 0.05
0.71 0.51 0.29 0.21 0.03 0.00 0.00 0.00 0.00 0.01 0.03 0.06 0.10 0.25 0.57 0.51 0.28 0.32 0.28 0.16 0.23 0.17 0.25 0.46 0.85 0.67 0.35 0.43 0.46 0.38 0.39 0.41 0.32 0.40 0.60 0.60 0.42 0.47 0.35 0.30 0.19 0.10 0.05 0.10 0.10 0.16 0.11 0.10 0.05
0.79 0.46 0.36 0.31 0.07 0.00 0.00 0.00 0.00 0.00 0.01 0.04 0.17 0.25 0.56 0.82 0.73 0.64 0.66 0.51 0.66 0.64 0.70 0.70 0.91 0.89 0.62 0.48 0.39 0.34 0.33 0.47 0.42 0.48 0.74 0.65 0.52 0.49 0.46 0.34 0.23 0.17 0.12 0.15 0.16 0.20 0.21 0.17 0.14
0.63 0.53 0.33 0.10 0.04 0.01 0.00 0.00 0.00 0.00 0.00 0.01 0.04 0.07 0.39 1.13 1.12 1.10 1.07 0.93 0.89 1.18 0.99 0.69 0.57 0.52 0.46 0.33 0.18 0.14 0.15 0.25 0.40 0.50 0.61 0.49 0.48 0.40 0.41 0.41 0.29 0.33 0.31 0.29 0.25 0.17 0.18 0.17 0.21
0.46 0.60 0.32 0.05 0.03 0.01 0.00 0.00 0.00 0.00 0.00 0.00 0.02 0.15 0.24 0.69 1.13 1.55 1.67 1.55 1.28 1.41 1.65 1.37 1.09 0.67 0.43 0.36 0.19 0.13 0.16 0.19 0.39 0.25 0.24 0.19 0.17 0.13 0.20 0.17 0.17 0.25 0.34 0.24 0.15 0.15 0.18 0.17 0.16
0.74 1.05 0.49 0.07 0.03 0.02 0.00 0.01 0.01 0.01 0.00 0.00 0.00 0.06 0.09 0.13 0.74 1.87 2.61 2.66 1.54 1.29 1.49 1.96 1.61 1.00 0.76 0.67 0.36 0.21 0.13 0.09 0.24 0.25 0.14 0.13 0.07 0.05 0.03 0.02 0.04 0.08 0.15 0.18 0.15 0.15 0.19 0.16 0.06
1.24 1.35 0.33 0.04 0.02 0.03 0.01 0.01 0.01 0.03 0.01 0.08 0.08 0.05 0.05 0.27 0.59 1.56 2.86 3.02 2.18 1.31 1.09 1.46 1.75 1.07 0.73 0.72 0.53 0.32 0.20 0.12 0.10 0.24 0.18 0.11 0.09 0.04 0.04 0.02 0.02 0.03 0.03 0.06 0.11 0.15 0.13 0.08 0.01
1.22 0.82 0.14 0.09 0.14 0.16 0.04 0.03 0.01 0.08 0.11 0.02 0.08 0.09 0.15 0.37 0.50 0.78 1.77 2.94 2.84 2.23 1.34 0.91 1.23 1.22 0.61 0.80 0.55 0.29 0.14 0.11 0.08 0.19 0.31 0.21 0.14 0.14 0.08 0.03 0.04 0.03 0.01 0.02 0.04 0.10 0.08 0.09 0.10
0.93 0.41 0.23 0.19 0.30 0.19 0.07 0.05 0.02 0.04 0.02 0.00 0.10 0.14 0.17 0.32 0.43 0.66 0.82 1.89 2.01 2.33 2.12 1.41 0.90 1.06 0.71 0.75 0.70 0.26 0.11 0.08 0.07 0.09 0.35 0.31 0.19 0.19 0.18 0.04 0.07 0.13 0.08 0.04 0.06 0.04 0.07 0.15 0.19
0.72 0.52 0.42 0.47 0.38 0.29 0.23 0.15 0.04 0.01 0.02 0.03 0.13 0.14 0.19 0.34 0.32 0.55 0.56 0.64 1.11 1.60 2.53 2.32 1.58 1.02 0.84 0.56 0.84 0.39 0.14 0.08 0.04 0.05 0.09 0.41 0.30 0.24 0.21 0.26 0.14 0.13 0.18 0.16 0.21 0.19 0.20 0.18 0.21
0.66 0.73 0.55 0.72 0.55 0.43 0.29 0.17 0.21 0.03 0.06 0.15 0.26 0.30 0.32 0.32 0.36 0.50 0.34 0.37 0.75 0.94 1.22 2.05 2.04 1.89 1.35 0.91 1.11 0.83 0.30 0.15 0.07 0.05 0.03 0.07 0.37 0.33 0.40 0.26 0.19 0.14 0.10 0.18 0.37 0.40 0.41 0.37 0.33
0.71 0.82 1.01 0.92 0.74 0.66 0.44 0.37 0.31 0.06 0.10 0.18 0.28 0.28 0.42 0.38 0.37 0.26 0.48 0.56 0.45 0.58 0.76 0.91 1.29 2.07 2.01 1.27 1.18 1.46 0.89 0.39 0.14 0.05 0.05 0.02 0.09 0.37 0.34 0.67 0.45 0.14 0.13 0.17 0.23 0.29 0.35 0.34 0.43
0.76 1.36 1.33 0.96 1.25 1.00 0.65 0.30 0.09 0.11 0.13 0.11 0.20 0.38 0.56 0.60 0.54 0.47 0.33 0.29 0.51 0.49 0.40 0.47 0.59 1.07 1.50 1.20 1.19 1.31 1.32 0.96 0.42 0.15 0.09 0.08 0.04 0.09 0.28 0.30 0.60 0.57 0.38 0.30 0.24 0.26 0.32 0.29 0.34
0.76 1.14 1.00 0.90 1.01 1.40 0.77 0.24 0.10 0.12 0.17 0.09 0.11 0.31 0.46 0.63 0.53 0.39 0.42 0.54 0.31 0.32 0.37 0.44 0.57 0.60 0.69 0.85 0.84 0.99 1.18 1.31 0.84 0.53 0.24 0.14 0.14 0.12 0.13 0.18 0.26 0.43 0.46 0.40 0.38 0.34 0.29 0.28 0.29
0.45 0.58 0.69 0.70 0.67 1.02 1.10 0.36 0.19 0.15 0.18 0.08 0.04 0.11 0.37 0.57 0.91 0.56 0.44 0.62 0.57 0.39 0.42 0.46 0.31 0.38 0.43 0.93 1.09 1.12 1.08 1.15 1.10 0.65 0.41 0.38 0.39 0.45 0.34 0.28 0.39 0.33 0.30 0.31 0.27 0.26 0.31 0.28 0.19
0.35 0.29 0.60 0.54 0.54 0.62 0.93 0.67 0.24 0.16 0.20 0.18 0.07 0.05 0.21 0.49 1.00 1.21 0.85 0.73 0.83 0.72 0.74 0.52 0.42 0.36 0.40 0.58 0.55 0.74 0.91 1.22 1.39 1.14 0.98 0.97 0.90 0.81 0.73 0.54 0.43 0.35 0.25 0.22 0.22 0.25 0.33 0.40 0.46
0.23 0.21 0.63 0.83 0.70 0.70 0.63 0.86 0.43 0.17 0.16 0.15 0.17 0.13 0.21 0.45 0.88 1.26 1.66 0.85 0.79 1.39 1.59 1.18 0.84 0.79 0.55 0.66 0.65 0.57 0.83 1.05 1.27 1.46 1.27 1.34 1.30 1.13 0.85 0.71 0.69 0.58 0.54 0.45 0.50 0.49 0.48 0.46 0.60
0.15 0.09 0.39 1.22 0.92 0.60 0.49 0.58 0.69 0.27 0.15 0.12 0.18 0.22 0.35 0.55 0.58 1.01 1.79 1.34 1.19 1.62 1.68 1.43 1.33 1.16 1.25 1.15 1.45 1.28 1.32 1.26 1.60 1.82 1.62 1.55 1.48 1.43 1.56 1.86 1.55 1.01 1.02 1.15 1.22 1.28 1.27 1.06 0.82
0.24 0.09 0.39 0.79 0.59 0.50 0.32 0.45 0.41 0.31 0.21 0.15 0.25 0.28 0.31 0.42 0.37 0.57 0.90 1.25 1.40 0.91 0.84 1.33 2.38 2.65 1.70 1.71 2.50 2.94 2.86 2.76 2.54 2.86 2.50 1.92 1.69 1.69 1.86 2.15 2.74 3.21 2.75 1.93 1.63 1.54 1.38 1.43 1.29
0.42 0.11 0.31 0.37 0.27 0.31 0.22 0.53 0.21 0.23 0.22 0.28 0.28 0.17 0.16 0.17 0.33 0.34 0.53 0.73 0.60 0.49 0.54 0.72 1.26 2.07 2.13 2.05 2.51 2.92 2.59 2.11 1.95 2.06 2.69 2.69 2.44 2.02 1.86 1.89 1.96 1.98 2.17 2.63 2.40 1.95 1.84 1.71 1.41
0.17 0.13 0.44 0.38 0.48 0.51 0.21 0.27 0.19 0.20 0.20 0.39 0.32 0.15 0.27 0.23 0.16 0.31 0.26 0.34 0.38 0.42 0.51 0.50 0.69 1.08 1.90 2.06 2.07 2.41 2.64 2.81 2.41 1.99 2.27 2.19 1.82 1.80 1.70 1.52 1.38 1.41 1.46 1.56 1.92 1.95 1.68 1.57 1.61
0.23 0.58 1.20 1.11 1.15 0.65 0.22 0.08 0.11 0.11 0.10 0.25 0.38 0.25 0.36 0.49 0.30 0.36 0.58 0.54 0.58 0.58 0.38 0.40 0.52 0.59 0.94 1.35 1.70 1.85 1.56 1.82 1.91 1.80 1.79 1.96 1.93 1.72 1.65 1.53 1.53 1.41 1.42 1.46 1.55 1.71 1.64 1.46 1.31
0.35 0.58 0.88 0.73 0.35 0.42 0.17 0.22 0.18 0.20 0.19 0.18 0.34 0.46 0.72 0.98 0.55 0.51 0.80 0.98 0.99 0.70 0.62 0.39 0.49 0.33 0.26 0.34 0.63 1.04 1.34 1.71 1.71 1.58 1.52 1.47 1.41 1.55 1.87 1.77 1.74 1.78 1.73 1.71 1.72 1.76 1.81 1.71 1.62
0.33 0.45 0.33 0.47 0.21 0.35 0.35 0.30 0.37 0.38 0.39 0.27 0.36 0.69 0.95 1.05 0.91 0.79 0.84 1.13 1.00 0.74 0.71 0.67 0.52 0.48 0.20 0.12 0.19 0.23 0.32 0.44 0.65 0.78 0.82 0.97 1.23 1.18 1.31 1.42 1.33 1.32 1.32 1.29 1.37 1.38 1.37 1.49 1.53
0.07 0.13 0.26 0.53 0.41 0.28 0.25 0.24 0.60 0.64 0.59 0.58 0.65 0.87 0.98 0.91 1.10 0.94 0.85 0.78 0.62 0.54 0.43 0.43 0.32 0.13 0.09 0.09 0.11 0.04 0.07 0.10 0.14 0.17 0.18 0.23 0.40 0.55 0.68 0.79 0.81 0.88 0.93 1.07 1.17 1.21 1.29 1.39 1.40
0.04 0.14 0.15 0.23 0.22 0.22 0.08 0.14 0.38 0.49 0.43 0.47 0.54 0.68 0.76 0.85 0.82 0.69 0.56 0.34 0.17 0.11 0.02 0.02 0.02 0.04 0.06 0.05 0.03 0.02 0.04 0.06 0.07 0.07 0.05 0.05 0.07 0.08 0.10 0.12 0.15 0.17 0.24 0.42 0.63 0.79 0.97 1.17 1.32
0.02 0.01 0.04 0.23 0.09 0.13 0.07 0.07 0.05 0.11 0.14 0.20 0.26 0.29 0.30 0.39 0.36 0.28 0.14 0.04 0.01 0.00 0.00 0.00 0.05 0.07 0.03 0.02 0.02 0.02 0.03 0.04 0.05 0.05 0.07 0.07 0.07 0.05 0.05 0.06 0.06 0.06 0.10 0.13 0.15 0.17 0.22 0.30 0.40

GFSSGP_prec_precacc_144.txt.gz
Total_Precipitation_Accumulation
0.09 0.10 0.06 0.09 0.06 0.02 0.00 0.00 0.00 0.02 0.03 0.02 0.00 0.03 0.03 0.02 0.00 0.08 0.02 0.00 0.01 0.02 0.10 0.19 0.49 0.48 0.39 0.27 0.23 0.20 0.25 0.35 0.34 0.56 0.60 0.37 0.25 0.09 0.03 0.03 0.05 0.12 0.32 0.46 0.69 0.61 0.15 0.04 0.02
0.11 0.22 0.22 0.22 0.07 0.01 0.00 0.00 0.00 0.04 0.05 0.03 0.03 0.07 0.15 0.12 0.02 0.04 0.05 0.03 0.02 0.03 0.11 0.18 0.42 0.50 0.43 0.25 0.16 0.22 0.26 0.31 0.31 0.38 0.44 0.52 0.37 0.11 0.10 0.14 0.13 0.22 0.37 0.45 0.49 0.37 0.14 0.11 0.07
0.24 0.51 0.40 0.20 0.03 0.00 0.00 0.00 0.00 0.00 0.00 0.02 0.05 0.11 0.40 0.26 0.13 0.04 0.05 0.05 0.03 0.04 0.13 0.22 0.45 0.53 0.48 0.42 0.26 0.19 0.25 0.25 0.29 0.38 0.45 0.50 0.43 0.27 0.21 0.15 0.09 0.16 0.17 0.16 0.26 0.39 0.21 0.14 0.11
0.47 0.73 0.48 0.14 0.03 0.00 0.00 0.00 0.00 0.01 0.07 0.14 0.14 0.14 0.44 0.48 0.18 0.12 0.08 0.06 0.07 0.07 0.15 0.29 0.57 0.54 0.45 0.48 0.32 0.26 0.21 0.23 0.27 0.35 0.55 0.60 0.43 0.36 0.28 0.22 0.20 0.09 0.08 0.09 0.13 0.18 0.13 0.09 0.06
0.71 0.51 0.29 0.21 0.03 0.00 0.00 0.00 0.00 0.01 0.03 0.06 0.10 0.25 0.57 0.51 0.28 0.32 0.28 0.16 0.23 0.17 0.25 0.46 0.85 0.67 0.35 0.43 0.46 0.38 0.39 0.41 0.32 0.40 0.60 0.60 0.42 0.47 0.35 0.30 0.19 0.10 0.06 0.10 0.11 0.18 0.13 0.12 0.06
0.79 0.46 0.36 0.31 0.07 0.00 0.00 0.00 0.00 0.00 0.01 0.04 0.17 0.25 0.56 0.82 0.73 0.64 0.66 0.51 0.66 0.64 0.70 0.70 0.91 0.89 0.62 0.48 0.39 0.34 0.33 0.47 0.42 0.48 0.74 0.65 0.52 0.49 0.46 0.34 0.23 0.17 0.12 0.15 0.16 0.20 0.21 0.17 0.14
0.63 0.53 0.33 0.10 0.04 0.01 0.00 0.00 0.00 0.00 0.00 0.01 0.04 0.07 0.39 1.13 1.12 1.10 1.07 0.93 0.89 1.18 0.99 0.69 0.57 0.52 0.46 0.33 0.18 0.14 0.15 0.25 0.40 0.50 0.61 0.49 0.48 0.40 0.41 0.41 0.29 0.33 0.31 0.29 0.25 0.17 0.18 0.17 0.21
0.46 0.60 0.32 0.05 0.03 0.01 0.00 0.00 0.00 0.00 0.00 0.00 0.02 0.15 0.24 0.69 1.13 1.55 1.67 1.55 1.28 1.41 1.65 1.37 1.09 0.67 0.43 0.36 0.19 0.13 0.16 0.19 0.39 0.25 0.24 0.19 0.17 0.13 0.20 0.17 0.17 0.25 0.34 0.24 0.15 0.15 0.18 0.17 0.16
0.74 1.05 0.49 0.07 0.03 0.02 0.00 0.01 0.01 0.01 0.00 0.00 0.00 0.06 0.09 0.13 0.74 1.87 2.61 2.66 1.54 1.29 1.49 1.96 1.61 1.00 0.76 0.67 0.36 0.21 0.13 0.09 0.24 0.25 0.14 0.13 0.07 0.05 0.03 0.02 0.04 0.08 0.15 0.18 0.15 0.15 0.19 0.16 0.06
1.24 1.35 0.33 0.04 0.02 0.03 0.01 0.01 0.01 0.03 0.01 0.08 0.08 0.05 0.05 0.27 0.59 1.56 2.86 3.02 2.18 1.31 1.09 1.46 1.75 1.07 0.73 0.72 0.53 0.32 0.20 0.12 0.10 0.24 0.18 0.11 0.09 0.04 0.04 0.02 0.02 0.03 0.03 0.06 0.11 0.15 0.13 0.08 0.01
1.22 0.82 0.14 0.09 0.14 0.16 0.04 0.03 0.01 0.08 0.11 0.02 0.08 0.09 0.15 0.37 0.50 0.78 1.77 2.94 2.84 2.23 1.34 0.91 1.23 1.22 0.61 0.80 0.55 0.29 0.14 0.11 0.08 0.19 0.31 0.21 0.14 0.14 0.08 0.03 0.04 0.03 0.01 0.02 0.04 0.10 0.08 0.09 0.10
0.93 0.41 0.23 0.19 0.30 0.19 0.07 0.05 0.02 0.04 0.02 0.00 0.10 0.14 0.17 0.32 0.43 0.66 0.82 1.89 2.01 2.33 2.12 1.41 0.90 1.06 0.71 0.75 0.70 0.26 0.11 0.08 0.07 0.09 0.35 0.31 0.19 0.19 0.18 0.04 0.07 0.13 0.08 0.04 0.06 0.04 0.07 0.15 0.19
0.72 0.52 0.42 0.47 0.38 0.29 0.23 0.15 0.04 0.01 0.02 0.03 0.13 0.14 0.19 0.34 0.32 0.55 0.56 0.64 1.11 1.60 2.53 2.32 1.58 1.02 0.84 0.56 0.84 0.39 0.14 0.08 0.04 0.05 0.09 0.41 0.30 0.24 0.21 0.26 0.14 0.13 0.18 0.16 0.21 0.19 0.20 0.18 0.21
0.66 0.73 0.55 0.72 0.55 0.43 0.29 0.17 0.21 0.03 0.06 0.15 0.26 0.30 0.32 0.32 0.36 0.50 0.34 0.37 0.75 0.94 1.22 2.05 2.04 1.89 1.35 0.91 1.11 0.83 0.30 0.15 0.07 0.05 0.03 0.07 0.37 0.33 0.40 0.26 0.19 0.14 0.10 0.18 0.37 0.40 0.41 0.37 0.33
0.71 0.82 1.01 0.92 0.74 0.66 0.44 0.37 0.31 0.06 0.10 0.18 0.28 0.28 0.42 0.38 0.37 0.26 0.48 0.56 0.45 0.58 0.76 0.91 1.29 2.07 2.01 1.27 1.18 1.46 0.89 0.39 0.14 0.05 0.05 0.02 0.09 0.37 0.34 0.67 0.45 0.14 0.13 0.17 0.23 0.29 0.35 0.34 0.43
0.76 1.36 1.33 0.96 1.25 1.00 0.65 0.30 0.09 0.11 0.13 0.11 0.20 0.38 0.56 0.60 0.54 0.47 0.33 0.29 0.51 0.49 0.40 0.47 0.59 1.07 1.50 1.20 1.19 1.31 1.32 0.96 0.42 0.15 0.09 0.08 0.04 0.09 0.28 0.30 0.60 0.57 0.38 0.30 0.24 0.26 0.32 0.29 0.34
0.76 1.14 1.00 0.90 1.01 1.40 0.77 0.24 0.10 0.12 0.17 0.09 0.11 0.31 0.46 0.63 0.53 0.39 0.42 0.54 0.31 0.32 0.37 0.44 0.57 0.60 0.69 0.85 0.84 0.99 1.18 1.31 0.84 0.53 0.24 0.14 0.14 0.12 0.13 0.18 0.26 0.43 0.46 0.40 0.38 0.34 0.29 0.28 0.29
0.45 0.58 0.69 0.70 0.67 1.02 1.10 0.36 0.19 0.15 0.18 0.08 0.04 0.11 0.37 0.57 0.91 0.56 0.44 0.62 0.57 0.39 0.42 0.46 0.31 0.38 0.43 0.93 1.09 1.12 1.08 1.15 1.10 0.65 0.41 0.38 0.39 0.45 0.34 0.28 0.39 0.33 0.30 0.31 0.27 0.26 0.31 0.28 0.19
0.35 0.29 0.60 0.54 0.54 0.62 0.93 0.67 0.24 0.16 0.20 0.18 0.07 0.05 0.21 0.49 1.00 1.21 0.85 0.73 0.83 0.72 0.74 0.52 0.42 0.36 0.40 0.58 0.55 0.74 0.91 1.22 1.39 1.14 0.98 0.97 0.90 0.81 0.73 0.54 0.43 0.35 0.25 0.22 0.22 0.25 0.33 0.40 0.46
0.23 0.21 0.63 0.83 0.70 0.70 0.63 0.86 0.43 0.17 0.16 0.15 0.17 0.13 0.21 0.45 0.88 1.26 1.66 0.85 0.79 1.39 1.59 1.18 0.84 0.79 0.55 0.66 0.65 0.57 0.83 1.05 1.27 1.46 1.27 1.34 1.30 1.13 0.85 0.71 0.69 0.58 0.54 0.45 0.50 0.49 0.48 0.46 0.60
0.15 0.09 0.39 1.22 0.92 0.60 0.49 0.58 0.69 0.27 0.15 0.12 0.18 0.22 0.35 0.55 0.58 1.01 1.79 1.34 1.19 1.62 1.68 1.43 1.33 1.16 1.25 1.15 1.45 1.28 1.32 1.26 1.60 1.82 1.62 1.55 1.48 1.43 1.56 1.86 1.55 1.01 1.02 1.15 1.22 1.28 1.27 1.06 0.82
0.24 0.09 0.39 0.79 0.59 0.50 0.32 0.45 0.41 0.31 0.21 0.15 0.25 0.28 0.31 0.42 0.37 0.57 0.90 1.25 1.40 0.91 0.84 1.33 2.38 2.65 1.70 1.71 2.50 2.94 2.86 2.76 2.54 2.86 2.50 1.92 1.69 1.69 1.86 2.15 2.74 3.21 2.75 1.93 1.63 1.54 1.38 1.43 1.29
0.42 0.11 0.31 0.37 0.27 0.31 0.22 0.53 0.21 0.23 0.22 0.28 0.28 0.17 0.16 0.17 0.33 0.34 0.53 0.73 0.60 0.49 0.54 0.72 1.26 2.07 2.13 2.05 2.51 2.92 2.59 2.11 1.95 2.06 2.69 2.69 2.44 2.02 1.86 1.89 1.96 1.98 2.17 2.63 2.40 1.95 1.84 1.71 1.41
0.17 0.13 0.44 0.38 0.48 0.51 0.21 0.27 0.19 0.20 0.20 0.39 0.32 0.15 0.27 0.23 0.16 0.31 0.26 0.34 0.38 0.42 0.51 0.50 0.69 1.08 1.90 2.06 2.07 2.41 2.64 2.81 2.41 1.99 2.27 2.19 1.82 1.80 1.70 1.52 1.38 1.41 1.46 1.56 1.92 1.95 1.68 1.57 1.61
0.23 0.58 1.20 1.11 1.15 0.65 0.22 0.08 0.11 0.11 0.10 0.25 0.38 0.25 0.36 0.49 0.30 0.36 0.58 0.54 0.58 0.58 0.38 0.40 0.52 0.59 0.94 1.35 1.70 1.85 1.56 1.82 1.91 1.80 1.79 1.96 1.93 1.72 1.65 1.53 1.53 1.41 1.42 1.46 1.55 1.71 1.64 1.46 1.31
0.35 0.58 0.88 0.73 0.35 0.42 0.17 0.22 0.18 0.20 0.19 0.18 0.34 0.46 0.72 0.98 0.55 0.51 0.80 0.98 0.99 0.70 0.62 0.39 0.49 0.33 0.26 0.34 0.63 1.04 1.34 1.71 1.71 1.58 1.52 1.47 1.41 1.55 1.87 1.77 1.74 1.78 1.73 1.71 1.72 1.76 1.81 1.71 1.62
0.33 0.45 0.33 0.47 0.21 0.35 0.35 0.30 0.37 0.38 0.39 0.27 0.36 0.69 0.95 1.05 0.91 0.79 0.84 1.13 1.00 0.74 0.71 0.67 0.52 0.48 0.20 0.12 0.19 0.23 0.32 0.44 0.65 0.78 0.82 0.97 1.23 1.18 1.31 1.42 1.33 1.32 1.32 1.29 1.37 1.38 1.37 1.49 1.53
0.07 0.13 0.26 0.53 0.41 0.28 0.25 0.24 0.60 0.64 0.59 0.58 0.65 0.87 0.98 0.91 1.10 0.94 0.85 0.78 0.62 0.54 0.43 0.43 0.32 0.13 0.09 0.09 0.11 0.04 0.07 0.10 0.14 0.17 0.18 0.23 0.40 0.55 0.68 0.79 0.81 0.88 0.93 1.07 1.17 1.21 1.29 1.39 1.40
0.04 0.14 0.15 0.23 0.22 0.22 0.08 0.14 0.38 0.49 0.43 0.47 0.54 0.68 0.76 0.85 0.82 0.69 0.56 0.34 0.17 0.11 0.02 0.02 0.02 0.04 0.06 0.05 0.03 0.02 0.04 0.06 0.07 0.07 0.05 0.05 0.07 0.08 0.10 0.12 0.15 0.17 0.24 0.42 0.63 0.79 0.97 1.17 1.32
0.02 0.01 0.04 0.23 0.09 0.13 0.07 0.07 0.05 0.11 0.14 0.20 0.26 0.29 0.30 0.39 0.36 0.28 0.14 0.04 0.01 0.00 0.00 0.00 0.05 0.07 0.03 0.02 0.02 0.02 0.03 0.04 0.05 0.05 0.07 0.07 0.07 0.05 0.05 0.06 0.06 0.06 0.10 0.13 0.15 0.17 0.22 0.30 0.40

GFSSGP_prec_precacc_147.txt.gz
Total_Precipitation_Accumulation
0.09 0.10 0.06 0.09 0.06 0.02 0.00 0.00 0.00 0.02 0.03 0.02 0.00 0.03 0.03 0.02 0.00 0.08 0.02 0.00 0.01 0.02 0.10 0.20 0.52 0.50 0.40 0.28 0.23 0.21 0.27 0.37 0.36 0.58 0.63 0.41 0.26 0.09 0.04 0.04 0.05 0.12 0.34 0.47 0.69 0.61 0.15 0.04 0.02
0.11 0.22 0.22 0.22 0.07 0.01 0.00 0.00 0.00 0.04 0.05 0.03 0.03 0.07 0.15 0.12 0.02 0.05 0.06 0.03 0.02 0.03 0.11 0.19 0.43 0.50 0.43 0.26 0.16 0.22 0.26 0.31 0.31 0.38 0.45 0.52 0.37 0.11 0.11 0.16 0.15 0.22 0.37 0.45 0.49 0.37 0.14 0.11 0.07
0.24 0.51 0.40 0.20 0.03 0.00 0.00 0.00 0.00 0.00 0.00 0.02 0.05 0.11 0.40 0.26 0.13 0.04 0.06 0.06 0.03 0.04 0.13 0.22 0.45 0.53 0.48 0.42 0.26 0.19 0.25 0.25 0.29 0.38 0.45 0.50 0.43 0.27 0.21 0.15 0.10 0.17 0.17 0.16 0.26 0.39 0.22 0.16 0.11
0.47 0.73 0.48 0.14 0.03 0.00 0.00 0.00 0.00 0.01 0.07 0.14 0.14 0.14 0.44 0.48 0.18 0.12 0.08 0.06 0.07 0.07 0.15 0.29 0.57 0.54 0.45 0.48 0.32 0.26 0.21 0.23 0.27 0.35 0.55 0.60 0.43 0.36 0.28 0.23 0.21 0.10 0.08 0.10 0.13 0.19 0.14 0.09 0.06
0.71 0.51 0.29 0.21 0.03 0.00 0.00 0.00 0.00 0.01 0.03 0.06 0.10 0.25 0.57 0.51 0.28 0.32 0.28 0.16 0.23 0.17 0.25 0.46 0.85 0.67 0.35 0.43 0.46 0.38 0.39 0.41 0.32 0.40 0.60 0.60 0.42 0.47 0.35 0.30 0.19 0.10 0.06 0.10 0.11 0.18 0.13 0.12 0.06
0.79 0.46 0.36 0.31 0.07 0.00 0.00 0.00 0.00 0.00 0.01 0.04 0.17 0.25 0.56 0.82 0.73 0.64 0.66 0.51 0.66 0.64 0.70 0.70 0.91 0.89 0.62 0.48 0.39 0.34 0.33 0.47 0.42 0.48 0.74 0.65 0.52 0.49 0.46 0.34 0.23 0.17 0.12 0.15 0.16 0.20 0.21 0.17 0.14
0.63 0.53 0.33 0.10 0.04 0.01 0.00 0.00 0.00 0.00 0.00 0.01 0.04 0.07 0.39 1.13 1.12 1.10 1.07 0.93 0.89 1.18 0.99 0.69 0.57 0.52 0.46 0.33 0.18 0.14 0.15 0.25 0.40 0.50 0.61 0.49 0.48 0.40 0.41 0.41 0.29 0.33 0.31 0.29 0.25 0.17 0.18 0.17 0.21
0.46 0.60 0.32 0.05 0.03 0.01 0.00 0.00 0.00 0.00 0.00 0.00 0.02 0.15 0.24 0.69 1.13 1.55 1.67 1.55 1.28 1.41 1.65 1.37 1.09 0.67 0.43 0.36 0.19 0.13 0.16 0.19 0.39 0.25 0.24 0.19 0.17 0.13 0.20 0.17 0.17 0.25 0.34 0.24 0.15 0.15 0.18 0.17 0.16
0.74 1.05 0.49 0.07 0.03 0.02 0.00 0.01 0.01 0.01 0.00 0.00 0.00 0.06 0.09 0.13 0.74 1.87 2.61 2.66 1.54 1.29 1.49 1.96 1.61 1.00 0.76 0.67 0.36 0.21 0.13 0.09 0.24 0.25 0.14 0.13 0.07 0.05 0.03 0.02 0.04 0.08 0.15 0.18 0.15 0.15 0.19 0.16 0.06
1.24 1.35 0.33 0.04 0.02 0.03 0.01 0.01 0.01 0.03 0.01 0.08 0.08 0.05 0.05 0.27 0.59 1.56 2.86 3.02 2.18 1.31 1.09 1.46 1.75 1.07 0.73 0.72 0.53 0.32 0.20 0.12 0.10 0.24 0.18 0.11 0.09 0.04 0.04 0.02 0.02 0.03 0.03 0.06 0.11 0.15 0.13 0.08 0.01
1.22 0.82 0.14 0.09 0.14 0.16 0.04 0.03 0.01 0.08 0.11 0.02 0.08 0.09 0.15 0.37 0.50 0.78 1.77 2.94 2.84 2.23 1.34 0.91 1.23 1.22 0.61 0.80 0.55 0.29 0.14 0.11 0.08 0.19 0.31 0.21 0.14 0.14 0.08 0.03 0.04 0.03 0.01 0.02 0.04 0.10 0.08 0.09 0.10
0.93 0.41 0.23 0.19 0.30 0.19 0.07 0.05 0.02 0.04 0.02 0.00 0.10 0.14 0.17 0.32 0.43 0.66 0.82 1.89 2.01 2.33 2.12 1.41 0.90 1.06 0.71 0.75 0.70 0.26 0.11 0.08 0.07 0.09 0.35 0.31 0.19 0.19 0.18 0.04 0.07 0.13 0.08 0.04 0.06 0.04 0.07 0.15 0.19
0.72 0.52 0.42 0.47 0.38 0.29 0.23 0.15 0.04 0.01 0.02 0.03 0.13 0.14 0.19 0.34 0.32 0.55 0.56 0.64 1.11 1.60 2.53 2.32 1.58 1.02 0.84 0.56 0.84 0.39 0.14 0.08 0.04 0.05 0.09 0.41 0.30 0.24 0.21 0.26 0.14 0.13 0.18 0.16 0.21 0.19 0.20 0.18 0.21
0.66 0.73 0.55 0.72 0.55 0.43 0.29 0.17 0.21 0.03 0.06 0.15 0.26 0.30 0.32 0.32 0.36 0.50 0.34 0.37 0.75 0.94 1.22 2.05 2.04 1.89 1.35 0.91 1.11 0.83 0.30 0.15 0.07 0.05 0.03 0.07 0.37 0.33 0.40 0.26 0.19 0.14 0.10 0.18 0.37 0.40 0.41 0.37 0.33
0.71 0.82 1.01 0.92 0.74 0.66 0.44 0.37 0.31 0.06 0.10 0.18 0.28 0.28 0.42 0.38 0.37 0.26 0.48 0.56 0.45 0.58 0.76 0.91 1.29 2.07 2.01 1.27 1.18 1.46 0.89 0.39 0.14 0.05 0.05 0.02 0.09 0.37 0.34 0.67 0.45 0.14 0.13 0.17 0.23 0.29 0.35 0.34 0.43
0.76 1.36 1.33 0.96 1.25 1.00 0.65 0.30 0.09 0.11 0.13 0.11 0.20 0.38 0.56 0.60 0.54 0.47 0.33 0.29 0.51 0.49 0.40 0.47 0.59 1.07 1.50 1.20 1.19 1.31 1.32 0.96 0.42 0.15 0.09 0.08 0.04 0.09 0.28 0.30 0.60 0.57 0.38 0.30 0.24 0.26 0.32 0.29 0.34
0.76 1.14 1.00 0.90 1.01 1.40 0.77 0.24 0.10 0.12 0.17 0.09 0.11 0.31 0.46 0.63 0.53 0.39 0.42 0.54 0.31 0.32 0.37 0.44 0.57 0.60 0.69 0.85 0.84 0.99 1.18 1.31 0.84 0.53 0.24 0.14 0.14 0.12 0.13 0.18 0.26 0.43 0.46 0.40 0.38 0.34 0.29 0.28 0.29
0.45 0.58 0.69 0.70 0.67 1.02 1.10 0.36 0.19 0.15 0.18 0.08 0.04 0.11 0.37 0.57 0.91 0.56 0.44 0.62 0.57 0.39 0.42 0.46 0.31 0.38 0.43 0.93 1.09 1.12 1.08 1.15 1.10 0.65 0.41 0.38 0.39 0.45 0.34 0.28 0.39 0.33 0.30 0.31 0.27 0.26 0.31 0.28 0.19
0.35 0.29 0.60 0.54 0.54 0.62 0.93 0.67 0.24 0.16 0.20 0.18 0.07 0.05 0.21 0.49 1.00 1.21 0.85 0.73 0.83 0.72 0.74 0.52 0.42 0.36 0.40 0.58 0.55 0.74 0.91 1.22 1.39 1.14 0.98 0.97 0.90 0.81 0.73 0.54 0.43 0.35 0.25 0.22 0.22 0.25 0.33 0.40 0.46
0.23 0.21 0.63 0.83 0.70 0.70 0.63 0.86 0.43 0.17 0.16 0.15 0.17 0.13 0.21 0.45 0.88 1.26 1.66 0.85 0.79 1.39 1.59 1.18 0.84 0.79 0.55 0.66 0.65 0.57 0.83 1.05 1.27 1.46 1.27 1.34 1.30 1.13 0.85 0.71 0.69 0.58 0.54 0.45 0.50 0.49 0.48 0.46 0.60
0.15 0.09 0.39 1.22 0.92 0.60 0.49 0.58 0.69 0.27 0.15 0.12 0.18 0.22 0.35 0.55 0.58 1.01 1.79 1.34 1.19 1.62 1.68 1.43 1.33 1.16 1.25 1.15 1.45 1.28 1.32 1.26 1.60 1.82 1.62 1.55 1.48 1.43 1.56 1.86 1.55 1.01 1.02 1.15 1.22 1.28 1.27 1.06 0.82
0.24 0.09 0.39 0.79 0.59 0.50 0.32 0.45 0.41 0.31 0.21 0.15 0.25 0.28 0.31 0.42 0.37 0.57 0.90 1.25 1.40 0.91 0.84 1.33 2.38 2.65 1.70 1.71 2.50 2.94 2.86 2.76 2.54 2.86 2.50 1.92 1.69 1.69 1.86 2.15 2.74 3.21 2.75 1.93 1.63 1.54 1.38 1.43 1.29
0.42 0.11 0.31 0.37 0.27 0.31 0.22 0.53 0.21 0.23 0.22 0.28 0.28 0.17 0.16 0.17 0.33 0.34 0.53 0.73 0.60 0.49 0.54 0.72 1.26 2.07 2.13 2.05 2.51 2.92 2.59 2.11 1.95 2.06 2.69 2.69 2.44 2.02 1.86 1.89 1.96 1.98 2.17 2.63 2.40 1.95 1.84 1.71 1.41
0.17 0.13 0.44 0.38 0.48 0.51 0.21 0.27 0.19 0.20 0.20 0.39 0.32 0.15 0.27 0.23 0.16 0.31 0.26 0.34 0.38 0.42 0.51 0.50 0.69 1.08 1.90 2.06 2.07 2.41 2.64 2.81 2.41 1.99 2.27 2.19 1.82 1.80 1.70 1.52 1.38 1.41 1.46 1.56 1.92 1.95 1.68 1.57 1.61
0.23 0.58 1.20 1.11 1.15 0.65 0.22 0.08 0.11 0.11 0.10 0.25 0.38 0.25 0.36 0.49 0.30 0.36 0.58 0.54 0.58 0.58 0.38 0.40 0.52 0.59 0.94 1.35 1.70 1.85 1.56 1.82 1.91 1.80 1.79 1.96 1.93 1.72 1.65 1.53 1.53 1.41 1.42 1.46 1.55 1.71 1.64 1.46 1.31
0.35 0.58 0.88 0.73 0.35 0.42 0.17 0.22 0.18 0.20 0.19 0.18 0.34 0.46 0.72 0.98 0.55 0.51 0.80 0.98 0.99 0.70 0.62 0.39 0.49 0.33 0.26 0.34 0.63 1.04 1.34 1.71 1.71 1.58 1.52 1.47 1.41 1.55 1.87 1.77 1.74 1.78 1.73 1.71 1.72 1.76 1.81 1.71 1.62
0.33 0.45 0.33 0.47 0.21 0.35 0.35 0.30 0.37 0.38 0.39 0.27 0.36 0.69 0.95 1.05 0.91 0.79 0.84 1.13 1.00 0.74 0.71 0.67 0.52 0.48 0.20 0.12 0.19 0.23 0.32 0.44 0.65 0.78 0.82 0.97 1.23 1.18 1.31 1.42 1.33 1.32 1.32 1.29 1.37 1.38 1.37 1.49 1.53
0.07 0.13 0.26 0.53 0.41 0.28 0.25 0.24 0.60 0.64 0.59 0.58 0.65 0.87 0.98 0.91 1.10 0.94 0.85 0.78 0.62 0.54 0.43 0.43 0.32 0.13 0.09 0.09 0.11 0.04 0.07 0.10 0.14 0.17 0.18 0.23 0.40 0.55 0.68 0.79 0.81 0.88 0.93 1.07 1.17 1.21 1.29 1.39 1.40
0.04 0.14 0.15 0.23 0.22 0.22 0.08 0.14 0.38 0.49 0.43 0.47 0.54 0.68 0.76 0.85 0.82 0.69 0.56 0.34 0.17 0.11 0.02 0.02 0.02 0.04 0.06 0.05 0.03 0.02 0.04 0.06 0.07 0.07 0.05 0.05 0.07 0.08 0.10 0.12 0.15 0.17 0.24 0.42 0.63 0.79 0.97 1.17 1.32
0.02 0.01 0.04 0.23 0.09 0.13 0.07 0.07 0.05 0.11 0.14 0.20 0.26 0.29 0.30 0.39 0.36 0.28 0.14 0.04 0.01 0.00 0.00 0.00 0.05 0.07 0.03 0.02 0.02 0.02 0.03 0.04 0.05 0.05 0.07 0.07 0.07 0.05 0.05 0.06 0.06 0.06 0.10 0.13 0.15 0.17 0.22 0.30 0.40

GFSSGP_prec_precacc_150.txt.gz
Total_Precipitation_Accumulation
0.09 0.10 0.06 0.09 0.06 0.02 0.00 0.00 0.00 0.02 0.03 0.02 0.00 0.03 0.03 0.02 0.00 0.08 0.03 0.02 0.01 0.03 0.11 0.21 0.56 0.52 0.41 0.29 0.24 0.21 0.27 0.38 0.38 0.59 0.65 0.42 0.28 0.11 0.06 0.05 0.06 0.12 0.34 0.47 0.69 0.61 0.15 0.04 0.02
0.11 0.22 0.22 0.22 0.07 0.01 0.00 0.00 0.00 0.04 0.05 0.03 0.03 0.07 0.15 0.12 0.02 0.05 0.07 0.04 0.02 0.04 0.12 0.20 0.43 0.50 0.44 0.26 0.17 0.22 0.26 0.31 0.31 0.38 0.45 0.52 0.37 0.12 0.12 0.17 0.15 0.22 0.37 0.45 0.49 0.37 0.14 0.11 0.07
0.24 0.51 0.40 0.20 0.03 0.00 0.00 0.00 0.00 0.00 0.00 0.02 0.05 0.11 0.40 0.26 0.13 0.04 0.06 0.06 0.03 0.04 0.13 0.22 0.45 0.53 0.48 0.42 0.26 0.19 0.25 0.25 0.29 0.38 0.45 0.50 0.43 0.27 0.21 0.16 0.10 0.17 0.17 0.16 0.26 0.39 0.22 0.16 0.11
0.47 0.73 0.48 0.14 0.03 0.00 0.00 0.00 0.00 0.01 0.07 0.14 0.14 0.14 0.44 0.48 0.18 0.12 0.08 0.06 0.07 0.07 0.15 0.29 0.57 0.54 0.45 0.48 0.32 0.26 0.21 0.23 0.27 0.35 0.55 0.60 0.43 0.36 0.28 0.23 0.21 0.10 0.08 0.10 0.14 0.19 0.14 0.09 0.06
0.71 0.51 0.29 0.21 0.03 0.00 0.00 0.00 0.00 0.01 0.03 0.06 0.10 0.25 0.57 0.51 0.28 0.32 0.28 0.16 0.23 0.17 0.25 0.46 0.85 0.67 0.35 0.43 0.46 0.38 0.39 0.41 0.32 0.40 0.60 0.60 0.42 0.47 0.35 0.30 0.19 0.10 0.06 0.10 0.11 0.18 0.13 0.12 0.06
0.79 0.46 0.36 0.31 0.07 0.00 0.00 0.00 0.00 0.00 0.01 0.04 0.17 0.25 0.56 0.82 0.73 0.64 0.66 0.51 0.66 0.64 0.70 0.70 0.91 0.89 0.62 0.48 0.39 0.34 0.33 0.47 0.42 0.48 0.74 0.65 0.52 0.49 0.46 0.34 0.23 0.17 0.12 0.15 0.16 0.20 0.21 0.17 0.14
0.63 0.53 0.33 0.10 0.04 0.01 0.00 0.00 0.00 0.00 0.00 0.01 0.04 0.07 0.39 1.13 1.12 1.10 1.07 0.93 0.89 1.18 0.99 0.69 0.57 0.52 0.46 0.33 0.18 0.14 0.15 0.25 0.40 0.50 0.61 0.49 0.48 0.40 0.41 0.41 0.29 0.33 0.31 0.29 0.25 0.17 0.18 0.17 0.21
0.46 0.60 0.32 0.05 0.03 0.01 0.00 0.00 0.00 0.00 0.00 0.00 0.02 0.15 0.24 0.69 1.13 1.55 1.67 1.55 1.28 1.41 1.65 1.37 1.09 0.67 0.43 0.36 0.19 0.13 0.16 0.19 0.39 0.25 0.24 0.19 0.17 0.13 0.20 0.17 0.17 0.25 0.34 0.24 0.15 0.15 0.18 0.17 0.16
0.74 1.05 0.49 0.07 0.03 0.02 0.00 0.01 0.01 0.01 0.00 0.00 0.00 0.06 0.09 0.13 0.74 1.87 2.61 2.66 1.54 1.29 1.49 1.96 1.61 1.00 0.76 0.67 0.36 0.21 0.13 0.09 0.24 0.25 0.14 0.13 0.07 0.05 0.03 0.02 0.04 0.08 0.15 0.18 0.15 0.15 0.19 0.16 0.06
1.24 1.35 0.33 0.04 0.02 0.03 0.01 0.01 0.01 0.03 0.01 0.08 0.08 0.05 0.05 0.27 0.59 1.56 2.86 3.02 2.18 1.31 1.09 1.46 1.75 1.07 0.73 0.72 0.53 0.32 0.20 0.12 0.10 0.24 0.18 0.11 0.09 0.04 0.04 0.02 0.02 0.03 0.03 0.06 0.11 0.15 0.13 0.08 0.01
1.22 0.82 0.14 0.09 0.14 0.16 0.04 0.03 0.01 0.08 0.11 0.02 0.08 0.09 0.15 0.37 0.50 0.78 1.77 2.94 2.84 2.23 1.34 0.91 1.23 1.22 0.61 0.80 0.55 0.29 0.14 0.11 0.08 0.19 0.31 0.21 0.14 0.14 0.08 0.03 0.04 0.03 0.01 0.02 0.04 0.10 0.08 0.09 0.10
0.93 0.41 0.23 0.19 0.30 0.19 0.07 0.05 0.02 0.04 0.02 0.00 0.10 0.14 0.17 0.32 0.43 0.66 0.82 1.89 2.01 2.33 2.12 1.41 0.90 1.06 0.71 0.75 0.70 0.26 0.11 0.08 0.07 0.09 0.35 0.31 0.19 0.19 0.18 0.04 0.07 0.13 0.08 0.04 0.06 0.04 0.07 0.15 0.19
0.72 0.52 0.42 0.47 0.38 0.29 0.23 0.15 0.04 0.01 0.02 0.03 0.13 0.14 0.19 0.34 0.32 0.55 0.56 0.64 1.11 1.60 2.53 2.32 1.58 1.02 0.84 0.56 0.84 0.39 0.14 0.08 0.04 0.05 0.09 0.41 0.30 0.24 0.21 0.26 0.14 0.13 0.18 0.16 0.21 0.19 0.20 0.18 0.21
0.66 0.73 0.55 0.72 0.55 0.43 0.29 0.17 0.21 0.03 0.06 0.15 0.26 0.30 0.32 0.32 0.36 0.50 0.34 0.37 0.75 0.94 1.22 2.05 2.04 1.89 1.35 0.91 1.11 0.83 0.30 0.15 0.07 0.05 0.03 0.07 0.37 0.33 0.40 0.26 0.19 0.14 0.10 0.18 0.37 0.40 0.41 0.37 0.33
0.71 0.82 1.01 0.92 0.74 0.66 0.44 0.37 0.31 0.06 0.10 0.18 0.28 0.28 0.42 0.38 0.37 0.26 0.48 0.56 0.45 0.58 0.76 0.91 1.29 2.07 2.01 1.27 1.18 1.46 0.89 0.39 0.14 0.05 0.05 0.02 0.09 0.37 0.34 0.67 0.45 0.14 0.13 0.17 0.23 0.29 0.35 0.34 0.43
0.77 1.36 1.33 0.96 1.25 1.00 0.65 0.30 0.09 0.11 0.13 0.11 0.20 0.38 0.56 0.60 0.54 0.47 0.33 0.29 0.51 0.49 0.40 0.47 0.59 1.07 1.50 1.20 1.19 1.31 1.32 0.96 0.42 0.15 0.09 0.08 0.04 0.09 0.28 0.30 0.60 0.57 0.38 0.30 0.24 0.26 0.32 0.29 0.34
0.76 1.14 1.00 0.90 1.01 1.40 0.77 0.24 0.10 0.12 0.17 0.09 0.11 0.31 0.46 0.63 0.53 0.39 0.42 0.54 0.31 0.32 0.37 0.44 0.57 0.60 0.69 0.85 0.84 0.99 1.18 1.31 0.84 0.53 0.24 0.14 0.14 0.12 0.13 0.18 0.26 0.43 0.46 0.40 0.38 0.34 0.29 0.28 0.29
0.45 0.58 0.69 0.70 0.67 1.02 1.10 0.36 0.19 0.15 0.18 0.08 0.04 0.11 0.37 0.57 0.91 0.56 0.44 0.62 0.57 0.39 0.42 0.46 0.31 0.38 0.43 0.93 1.09 1.12 1.08 1.15 1.10 0.65 0.41 0.38 0.39 0.45 0.34 0.28 0.39 0.33 0.30 0.31 0.27 0.26 0.31 0.28 0.19
0.35 0.29 0.60 0.54 0.54 0.62 0.93 0.67 0.24 0.16 0.20 0.18 0.07 0.05 0.21 0.49 1.00 1.21 0.85 0.73 0.83 0.72 0.74 0.52 0.42 0.36 0.40 0.58 0.55 0.74 0.91 1.22 1.39 1.14 0.98 0.97 0.90 0.81 0.73 0.54 0.43 0.35 0.25 0.22 0.22 0.25 0.33 0.40 0.46
0.23 0.21 0.63 0.83 0.70 0.70 0.63 0.86 0.43 0.17 0.16 0.15 0.17 0.13 0.21 0.45 0.88 1.26 1.66 0.85 0.79 1.39 1.59 1.18 0.84 0.79 0.55 0.66 0.65 0.57 0.83 1.05 1.27 1.46 1.27 1.34 1.30 1.13 0.85 0.71 0.69 0.58 0.54 0.45 0.50 0.49 0.48 0.46 0.60
0.15 0.09 0.39 1.22 0.92 0.60 0.49 0.58 0.69 0.27 0.15 0.12 0.18 0.22 0.35 0.55 0.58 1.01 1.79 1.34 1.19 1.62 1.68 1.43 1.33 1.16 1.25 1.15 1.45 1.28 1.32 1.26 1.60 1.82 1.62 1.55 1.48 1.43 1.56 1.86 1.55 1.01 1.02 1.15 1.22 1.28 1.27 1.06 0.82
0.24 0.09 0.39 0.79 0.59 0.50 0.32 0.45 0.41 0.31 0.21 0.15 0.25 0.28 0.31 0.42 0.37 0.57 0.90 1.25 1.40 0.91 0.84 1.33 2.38 2.65 1.70 1.71 2.50 2.94 2.86 2.76 2.54 2.86 2.50 1.92 1.69 1.69 1.86 2.15 2.74 3.21 2.75 1.93 1.63 1.54 1.38 1.43 1.29
0.42 0.11 0.31 0.37 0.27 0.31 0.22 0.53 0.21 0.23 0.22 0.28 0.28 0.17 0.16 0.17 0.33 0.34 0.53 0.73 0.60 0.49 0.54 0.72 1.26 2.07 2.13 2.05 2.51 2.92 2.59 2.11 1.95 2.06 2.69 2.69 2.44 2.02 1.86 1.89 1.96 1.98 2.17 2.63 2.40 1.95 1.84 1.71 1.41
0.17 0.13 0.44 0.39 0.48 0.51 0.21 0.27 0.19 0.20 0.20 0.39 0.32 0.15 0.27 0.23 0.16 0.31 0.26 0.34 0.38 0.42 0.51 0.50 0.69 1.08 1.90 2.06 2.07 2.41 2.64 2.81 2.41 1.99 2.27 2.19 1.82 1.80 1.70 1.52 1.38 1.41 1.46 1.56 1.92 1.95 1.68 1.57 1.61
0.23 0.58 1.20 1.12 1.15 0.65 0.22 0.08 0.11 0.11 0.10 0.25 0.38 0.25 0.36 0.49 0.30 0.36 0.58 0.54 0.58 0.58 0.38 0.40 0.52 0.59 0.94 1.35 1.70 1.85 1.56 1.82 1.91 1.80 1.79 1.96 1.93 1.72 1.65 1.53 1.53 1.41 1.42 1.46 1.55 1.71 1.64 1.46 1.31
0.35 0.58 0.88 0.74 0.35 0.42 0.17 0.22 0.18 0.20 0.19 0.18 0.34 0.46 0.72 0.98 0.55 0.51 0.80 0.98 0.99 0.70 0.62 0.39 0.49 0.33 0.26 0.34 0.63 1.04 1.34 1.71 1.71 1.58 1.52 1.47 1.41 1.55 1.87 1.77 1.74 1.78 1.73 1.71 1.72 1.76 1.81 1.71 1.62
0.33 0.45 0.33 0.47 0.21 0.35 0.35 0.30 0.37 0.38 0.39 0.27 0.36 0.69 0.95 1.05 0.91 0.79 0.84 1.13 1.00 0.74 0.71 0.67 0.52 0.48 0.20 0.12 0.19 0.23 0.32 0.44 0.65 0.78 0.82 0.97 1.23 1.18 1.31 1.42 1.33 1.32 1.32 1.29 1.37 1.38 1.37 1.49 1.53
0.07 0.13 0.26 0.53 0.41 0.28 0.25 0.24 0.60 0.64 0.59 0.58 0.65 0.87 0.98 0.91 1.10 0.94 0.85 0.78 0.62 0.54 0.43 0.43 0.32 0.13 0.09 0.09 0.11 0.04 0.07 0.10 0.14 0.17 0.18 0.23 0.40 0.55 0.68 0.79 0.81 0.88 0.93 1.07 1.17 1.21 1.29 1.39 1.40
0.04 0.14 0.15 0.23 0.22 0.22 0.08 0.14 0.38 0.49 0.43 0.47 0.54 0.68 0.76 0.85 0.82 0.69 0.56 0.34 0.17 0.11 0.02 0.02 0.02 0.04 0.06 0.05 0.03 0.02 0.04 0.06 0.07 0.07 0.05 0.05 0.07 0.08 0.10 0.12 0.15 0.17 0.24 0.42 0.63 0.79 0.97 1.17 1.32
0.02 0.01 0.04 0.23 0.09 0.13 0.07 0.07 0.05 0.11 0.14 0.20 0.26 0.29 0.30 0.39 0.36 0.28 0.14 0.04 0.01 0.00 0.00 0.00 0.05 0.07 0.03 0.02 0.02 0.02 0.03 0.04 0.05 0.05 0.07 0.07 0.07 0.05 0.05 0.06 0.06 0.06 0.10 0.13 0.15 0.17 0.22 0.30 0.40